<?xml version="1.0" encoding="UTF-8" standalone="no" ?>
<gpx xmlns="http://www.topografix.com/GPX/1/1" xmlns:xsi="http://www.w3.org/2001/XMLSchema-instance" xsi:schemaLocation="http://www.topografix.com/GPX/1/1 http://www.topografix.com/GPX/1/1/gpx.xsd" version="1.1" creator="VisuGPX - https://www.visugpx.com">
  <metadata>
    <name>Critérium Saint-Agnès </name>
    <desc><![CDATA[Critérium Saint-Agnès (mai 2015). Boucle passant par le col de La Madone.]]></desc>
  </metadata>
  <trk>
    <name><![CDATA[ST15-05-01 16:56:02]]></name>
    <trkseg>
      <trkpt lat="43.80226" lon="7.4579">
        <ele>612.02</ele>
        <time>2015-05-01T06:18:39Z</time>
      </trkpt>
      <trkpt lat="43.8022" lon="7.4578">
        <ele>613.46</ele>
        <time>2015-05-01T06:18:53Z</time>
      </trkpt>
      <trkpt lat="43.8022" lon="7.45779">
        <ele>614.42</ele>
        <time>2015-05-01T06:18:54Z</time>
      </trkpt>
      <trkpt lat="43.80216" lon="7.4576">
        <ele>616.82</ele>
        <time>2015-05-01T06:19:08Z</time>
      </trkpt>
      <trkpt lat="43.80212" lon="7.45745">
        <ele>619.71</ele>
        <time>2015-05-01T06:19:23Z</time>
      </trkpt>
      <trkpt lat="43.80209" lon="7.45745">
        <ele>621.15</ele>
        <time>2015-05-01T06:19:37Z</time>
      </trkpt>
      <trkpt lat="43.80209" lon="7.45747">
        <ele>621.15</ele>
        <time>2015-05-01T06:19:43Z</time>
      </trkpt>
      <trkpt lat="43.80206" lon="7.45745">
        <ele>623.07</ele>
        <time>2015-05-01T06:19:46Z</time>
      </trkpt>
      <trkpt lat="43.80203" lon="7.45744">
        <ele>623.55</ele>
        <time>2015-05-01T06:19:49Z</time>
      </trkpt>
      <trkpt lat="43.80194" lon="7.45737">
        <ele>626.44</ele>
        <time>2015-05-01T06:20:00Z</time>
      </trkpt>
      <trkpt lat="43.80187" lon="7.45735">
        <ele>628.84</ele>
        <time>2015-05-01T06:20:11Z</time>
      </trkpt>
      <trkpt lat="43.80182" lon="7.45728">
        <ele>630.76</ele>
        <time>2015-05-01T06:20:22Z</time>
      </trkpt>
      <trkpt lat="43.80174" lon="7.45733">
        <ele>630.76</ele>
        <time>2015-05-01T06:20:36Z</time>
      </trkpt>
      <trkpt lat="43.8017" lon="7.45736">
        <ele>630.28</ele>
        <time>2015-05-01T06:20:57Z</time>
      </trkpt>
      <trkpt lat="43.8017" lon="7.45735">
        <ele>630.28</ele>
        <time>2015-05-01T06:21:00Z</time>
      </trkpt>
      <trkpt lat="43.80171" lon="7.45722">
        <ele>634.13</ele>
        <time>2015-05-01T06:21:10Z</time>
      </trkpt>
      <trkpt lat="43.80167" lon="7.45712">
        <ele>636.53</ele>
        <time>2015-05-01T06:21:17Z</time>
      </trkpt>
      <trkpt lat="43.80166" lon="7.45709">
        <ele>637.49</ele>
        <time>2015-05-01T06:21:20Z</time>
      </trkpt>
      <trkpt lat="43.80158" lon="7.45698">
        <ele>640.86</ele>
        <time>2015-05-01T06:21:31Z</time>
      </trkpt>
      <trkpt lat="43.80151" lon="7.4569">
        <ele>643.26</ele>
        <time>2015-05-01T06:21:45Z</time>
      </trkpt>
      <trkpt lat="43.80149" lon="7.45688">
        <ele>644.22</ele>
        <time>2015-05-01T06:21:49Z</time>
      </trkpt>
      <trkpt lat="43.8014" lon="7.45684">
        <ele>647.1</ele>
        <time>2015-05-01T06:22:02Z</time>
      </trkpt>
      <trkpt lat="43.80132" lon="7.4568">
        <ele>648.55</ele>
        <time>2015-05-01T06:22:15Z</time>
      </trkpt>
      <trkpt lat="43.8013" lon="7.45678">
        <ele>649.51</ele>
        <time>2015-05-01T06:22:20Z</time>
      </trkpt>
      <trkpt lat="43.80125" lon="7.45671">
        <ele>650.95</ele>
        <time>2015-05-01T06:22:32Z</time>
      </trkpt>
      <trkpt lat="43.80121" lon="7.45665">
        <ele>653.35</ele>
        <time>2015-05-01T06:22:44Z</time>
      </trkpt>
      <trkpt lat="43.80115" lon="7.45659">
        <ele>655.28</ele>
        <time>2015-05-01T06:22:56Z</time>
      </trkpt>
      <trkpt lat="43.80114" lon="7.45657">
        <ele>655.76</ele>
        <time>2015-05-01T06:22:59Z</time>
      </trkpt>
      <trkpt lat="43.80107" lon="7.45649">
        <ele>657.68</ele>
        <time>2015-05-01T06:23:11Z</time>
      </trkpt>
      <trkpt lat="43.80102" lon="7.45641">
        <ele>659.12</ele>
        <time>2015-05-01T06:23:24Z</time>
      </trkpt>
      <trkpt lat="43.801" lon="7.45641">
        <ele>659.6</ele>
        <time>2015-05-01T06:23:44Z</time>
      </trkpt>
      <trkpt lat="43.80096" lon="7.45632">
        <ele>661.04</ele>
        <time>2015-05-01T06:23:57Z</time>
      </trkpt>
      <trkpt lat="43.80092" lon="7.45625">
        <ele>661.04</ele>
        <time>2015-05-01T06:24:05Z</time>
      </trkpt>
      <trkpt lat="43.80082" lon="7.45617">
        <ele>661.52</ele>
        <time>2015-05-01T06:24:18Z</time>
      </trkpt>
      <trkpt lat="43.80079" lon="7.45612">
        <ele>662.01</ele>
        <time>2015-05-01T06:24:23Z</time>
      </trkpt>
      <trkpt lat="43.80072" lon="7.45601">
        <ele>662.49</ele>
        <time>2015-05-01T06:24:35Z</time>
      </trkpt>
      <trkpt lat="43.80071" lon="7.4559">
        <ele>664.41</ele>
        <time>2015-05-01T06:24:46Z</time>
      </trkpt>
      <trkpt lat="43.80063" lon="7.45587">
        <ele>665.37</ele>
        <time>2015-05-01T06:24:58Z</time>
      </trkpt>
      <trkpt lat="43.8006" lon="7.45588">
        <ele>666.33</ele>
        <time>2015-05-01T06:25:01Z</time>
      </trkpt>
      <trkpt lat="43.80051" lon="7.4559">
        <ele>667.77</ele>
        <time>2015-05-01T06:25:15Z</time>
      </trkpt>
      <trkpt lat="43.80052" lon="7.45589">
        <ele>667.77</ele>
        <time>2015-05-01T06:25:36Z</time>
      </trkpt>
      <trkpt lat="43.80054" lon="7.45591">
        <ele>667.77</ele>
        <time>2015-05-01T06:25:56Z</time>
      </trkpt>
      <trkpt lat="43.80053" lon="7.4559">
        <ele>668.25</ele>
        <time>2015-05-01T06:26:17Z</time>
      </trkpt>
      <trkpt lat="43.80049" lon="7.45595">
        <ele>668.25</ele>
        <time>2015-05-01T06:26:34Z</time>
      </trkpt>
      <trkpt lat="43.80047" lon="7.45596">
        <ele>668.25</ele>
        <time>2015-05-01T06:26:38Z</time>
      </trkpt>
      <trkpt lat="43.80044" lon="7.45596">
        <ele>668.25</ele>
        <time>2015-05-01T06:26:42Z</time>
      </trkpt>
      <trkpt lat="43.8004" lon="7.45596">
        <ele>669.22</ele>
        <time>2015-05-01T06:26:46Z</time>
      </trkpt>
      <trkpt lat="43.80033" lon="7.45591">
        <ele>671.14</ele>
        <time>2015-05-01T06:26:59Z</time>
      </trkpt>
      <trkpt lat="43.80032" lon="7.45591">
        <ele>671.62</ele>
        <time>2015-05-01T06:27:11Z</time>
      </trkpt>
      <trkpt lat="43.80024" lon="7.45588">
        <ele>672.58</ele>
        <time>2015-05-01T06:27:18Z</time>
      </trkpt>
      <trkpt lat="43.80017" lon="7.45584">
        <ele>672.58</ele>
        <time>2015-05-01T06:27:22Z</time>
      </trkpt>
      <trkpt lat="43.80015" lon="7.45584">
        <ele>672.58</ele>
        <time>2015-05-01T06:27:23Z</time>
      </trkpt>
      <trkpt lat="43.80014" lon="7.45584">
        <ele>673.06</ele>
        <time>2015-05-01T06:27:24Z</time>
      </trkpt>
      <trkpt lat="43.80013" lon="7.45584">
        <ele>673.06</ele>
        <time>2015-05-01T06:27:25Z</time>
      </trkpt>
      <trkpt lat="43.80012" lon="7.45584">
        <ele>673.06</ele>
        <time>2015-05-01T06:27:26Z</time>
      </trkpt>
      <trkpt lat="43.79995" lon="7.45578">
        <ele>675.94</ele>
        <time>2015-05-01T06:27:39Z</time>
      </trkpt>
      <trkpt lat="43.79993" lon="7.45577">
        <ele>675.94</ele>
        <time>2015-05-01T06:27:40Z</time>
      </trkpt>
      <trkpt lat="43.79992" lon="7.45575">
        <ele>675.94</ele>
        <time>2015-05-01T06:27:41Z</time>
      </trkpt>
      <trkpt lat="43.7999" lon="7.45574">
        <ele>676.91</ele>
        <time>2015-05-01T06:27:42Z</time>
      </trkpt>
      <trkpt lat="43.79985" lon="7.45573">
        <ele>677.39</ele>
        <time>2015-05-01T06:27:53Z</time>
      </trkpt>
      <trkpt lat="43.79977" lon="7.45569">
        <ele>677.87</ele>
        <time>2015-05-01T06:28:10Z</time>
      </trkpt>
      <trkpt lat="43.79976" lon="7.45567">
        <ele>677.87</ele>
        <time>2015-05-01T06:28:11Z</time>
      </trkpt>
      <trkpt lat="43.79975" lon="7.45567">
        <ele>678.83</ele>
        <time>2015-05-01T06:28:12Z</time>
      </trkpt>
      <trkpt lat="43.79962" lon="7.45558">
        <ele>679.79</ele>
        <time>2015-05-01T06:28:25Z</time>
      </trkpt>
      <trkpt lat="43.79955" lon="7.45553">
        <ele>680.75</ele>
        <time>2015-05-01T06:28:36Z</time>
      </trkpt>
      <trkpt lat="43.79948" lon="7.45544">
        <ele>681.71</ele>
        <time>2015-05-01T06:28:53Z</time>
      </trkpt>
      <trkpt lat="43.79939" lon="7.45533">
        <ele>683.63</ele>
        <time>2015-05-01T06:29:05Z</time>
      </trkpt>
      <trkpt lat="43.79935" lon="7.45531">
        <ele>682.19</ele>
        <time>2015-05-01T06:29:08Z</time>
      </trkpt>
      <trkpt lat="43.79927" lon="7.45527">
        <ele>681.71</ele>
        <time>2015-05-01T06:29:14Z</time>
      </trkpt>
      <trkpt lat="43.79926" lon="7.45526">
        <ele>681.71</ele>
        <time>2015-05-01T06:29:15Z</time>
      </trkpt>
      <trkpt lat="43.7992" lon="7.45521">
        <ele>681.71</ele>
        <time>2015-05-01T06:29:20Z</time>
      </trkpt>
      <trkpt lat="43.79919" lon="7.45519">
        <ele>681.71</ele>
        <time>2015-05-01T06:29:21Z</time>
      </trkpt>
      <trkpt lat="43.79918" lon="7.45518">
        <ele>681.71</ele>
        <time>2015-05-01T06:29:22Z</time>
      </trkpt>
      <trkpt lat="43.79914" lon="7.45517">
        <ele>683.63</ele>
        <time>2015-05-01T06:29:26Z</time>
      </trkpt>
      <trkpt lat="43.79903" lon="7.45508">
        <ele>685.56</ele>
        <time>2015-05-01T06:29:43Z</time>
      </trkpt>
      <trkpt lat="43.79893" lon="7.45503">
        <ele>686.52</ele>
        <time>2015-05-01T06:29:59Z</time>
      </trkpt>
      <trkpt lat="43.79881" lon="7.45494">
        <ele>689.4</ele>
        <time>2015-05-01T06:30:13Z</time>
      </trkpt>
      <trkpt lat="43.7988" lon="7.45494">
        <ele>689.4</ele>
        <time>2015-05-01T06:30:14Z</time>
      </trkpt>
      <trkpt lat="43.79879" lon="7.45493">
        <ele>689.4</ele>
        <time>2015-05-01T06:30:15Z</time>
      </trkpt>
      <trkpt lat="43.79866" lon="7.45482">
        <ele>691.81</ele>
        <time>2015-05-01T06:30:30Z</time>
      </trkpt>
      <trkpt lat="43.79864" lon="7.45479">
        <ele>692.29</ele>
        <time>2015-05-01T06:30:32Z</time>
      </trkpt>
      <trkpt lat="43.79853" lon="7.45466">
        <ele>692.77</ele>
        <time>2015-05-01T06:30:45Z</time>
      </trkpt>
      <trkpt lat="43.79849" lon="7.45459">
        <ele>693.25</ele>
        <time>2015-05-01T06:30:51Z</time>
      </trkpt>
      <trkpt lat="43.79844" lon="7.45452">
        <ele>693.25</ele>
        <time>2015-05-01T06:30:57Z</time>
      </trkpt>
      <trkpt lat="43.79843" lon="7.4545">
        <ele>693.25</ele>
        <time>2015-05-01T06:30:58Z</time>
      </trkpt>
      <trkpt lat="43.79842" lon="7.45442">
        <ele>693.25</ele>
        <time>2015-05-01T06:31:03Z</time>
      </trkpt>
      <trkpt lat="43.79842" lon="7.4544">
        <ele>693.25</ele>
        <time>2015-05-01T06:31:04Z</time>
      </trkpt>
      <trkpt lat="43.79842" lon="7.45438">
        <ele>693.25</ele>
        <time>2015-05-01T06:31:05Z</time>
      </trkpt>
      <trkpt lat="43.7984" lon="7.4542">
        <ele>693.25</ele>
        <time>2015-05-01T06:31:17Z</time>
      </trkpt>
      <trkpt lat="43.79839" lon="7.45417">
        <ele>693.73</ele>
        <time>2015-05-01T06:31:19Z</time>
      </trkpt>
      <trkpt lat="43.79837" lon="7.45409">
        <ele>694.69</ele>
        <time>2015-05-01T06:31:26Z</time>
      </trkpt>
      <trkpt lat="43.79831" lon="7.45401">
        <ele>697.09</ele>
        <time>2015-05-01T06:31:37Z</time>
      </trkpt>
      <trkpt lat="43.7983" lon="7.454">
        <ele>698.05</ele>
        <time>2015-05-01T06:31:39Z</time>
      </trkpt>
      <trkpt lat="43.7982" lon="7.45397">
        <ele>699.98</ele>
        <time>2015-05-01T06:31:51Z</time>
      </trkpt>
      <trkpt lat="43.79813" lon="7.45396">
        <ele>701.42</ele>
        <time>2015-05-01T06:32:02Z</time>
      </trkpt>
      <trkpt lat="43.79811" lon="7.45398">
        <ele>701.42</ele>
        <time>2015-05-01T06:32:26Z</time>
      </trkpt>
      <trkpt lat="43.79806" lon="7.45394">
        <ele>702.38</ele>
        <time>2015-05-01T06:32:33Z</time>
      </trkpt>
      <trkpt lat="43.79804" lon="7.45392">
        <ele>700.94</ele>
        <time>2015-05-01T06:32:36Z</time>
      </trkpt>
      <trkpt lat="43.79803" lon="7.45391">
        <ele>700.94</ele>
        <time>2015-05-01T06:32:37Z</time>
      </trkpt>
      <trkpt lat="43.79802" lon="7.4539">
        <ele>700.94</ele>
        <time>2015-05-01T06:32:38Z</time>
      </trkpt>
      <trkpt lat="43.79801" lon="7.45389">
        <ele>700.94</ele>
        <time>2015-05-01T06:32:39Z</time>
      </trkpt>
      <trkpt lat="43.798" lon="7.45388">
        <ele>700.94</ele>
        <time>2015-05-01T06:32:40Z</time>
      </trkpt>
      <trkpt lat="43.79799" lon="7.45387">
        <ele>700.94</ele>
        <time>2015-05-01T06:32:41Z</time>
      </trkpt>
      <trkpt lat="43.79799" lon="7.45385">
        <ele>700.94</ele>
        <time>2015-05-01T06:32:42Z</time>
      </trkpt>
      <trkpt lat="43.79795" lon="7.45375">
        <ele>700.94</ele>
        <time>2015-05-01T06:32:50Z</time>
      </trkpt>
      <trkpt lat="43.79794" lon="7.45361">
        <ele>700.94</ele>
        <time>2015-05-01T06:33:02Z</time>
      </trkpt>
      <trkpt lat="43.79794" lon="7.45358">
        <ele>702.38</ele>
        <time>2015-05-01T06:33:05Z</time>
      </trkpt>
      <trkpt lat="43.79789" lon="7.45345">
        <ele>703.82</ele>
        <time>2015-05-01T06:33:18Z</time>
      </trkpt>
      <trkpt lat="43.79788" lon="7.45338">
        <ele>705.26</ele>
        <time>2015-05-01T06:33:24Z</time>
      </trkpt>
      <trkpt lat="43.79787" lon="7.45327">
        <ele>707.19</ele>
        <time>2015-05-01T06:33:35Z</time>
      </trkpt>
      <trkpt lat="43.79781" lon="7.45318">
        <ele>709.11</ele>
        <time>2015-05-01T06:33:46Z</time>
      </trkpt>
      <trkpt lat="43.79777" lon="7.45314">
        <ele>710.07</ele>
        <time>2015-05-01T06:33:57Z</time>
      </trkpt>
      <trkpt lat="43.79775" lon="7.45313">
        <ele>710.07</ele>
        <time>2015-05-01T06:33:59Z</time>
      </trkpt>
      <trkpt lat="43.79775" lon="7.45312">
        <ele>710.55</ele>
        <time>2015-05-01T06:34:00Z</time>
      </trkpt>
      <trkpt lat="43.79766" lon="7.45302">
        <ele>712.95</ele>
        <time>2015-05-01T06:34:11Z</time>
      </trkpt>
      <trkpt lat="43.79759" lon="7.45296">
        <ele>714.88</ele>
        <time>2015-05-01T06:34:22Z</time>
      </trkpt>
      <trkpt lat="43.79756" lon="7.4529">
        <ele>715.84</ele>
        <time>2015-05-01T06:34:30Z</time>
      </trkpt>
      <trkpt lat="43.79752" lon="7.45289">
        <ele>717.28</ele>
        <time>2015-05-01T06:34:36Z</time>
      </trkpt>
      <trkpt lat="43.7975" lon="7.4529">
        <ele>717.76</ele>
        <time>2015-05-01T06:34:37Z</time>
      </trkpt>
      <trkpt lat="43.79746" lon="7.45295">
        <ele>718.72</ele>
        <time>2015-05-01T06:34:48Z</time>
      </trkpt>
      <trkpt lat="43.7974" lon="7.45299">
        <ele>718.24</ele>
        <time>2015-05-01T06:35:10Z</time>
      </trkpt>
      <trkpt lat="43.79739" lon="7.45298">
        <ele>718.24</ele>
        <time>2015-05-01T06:35:11Z</time>
      </trkpt>
      <trkpt lat="43.79738" lon="7.45289">
        <ele>720.16</ele>
        <time>2015-05-01T06:35:21Z</time>
      </trkpt>
      <trkpt lat="43.79742" lon="7.45286">
        <ele>721.13</ele>
        <time>2015-05-01T06:35:29Z</time>
      </trkpt>
      <trkpt lat="43.79746" lon="7.45285">
        <ele>722.57</ele>
        <time>2015-05-01T06:35:41Z</time>
      </trkpt>
      <trkpt lat="43.79747" lon="7.4528">
        <ele>722.57</ele>
        <time>2015-05-01T06:36:04Z</time>
      </trkpt>
      <trkpt lat="43.79749" lon="7.45279">
        <ele>723.05</ele>
        <time>2015-05-01T06:36:06Z</time>
      </trkpt>
      <trkpt lat="43.79753" lon="7.45276">
        <ele>724.01</ele>
        <time>2015-05-01T06:36:12Z</time>
      </trkpt>
      <trkpt lat="43.79755" lon="7.45271">
        <ele>725.45</ele>
        <time>2015-05-01T06:36:23Z</time>
      </trkpt>
      <trkpt lat="43.79758" lon="7.45264">
        <ele>726.89</ele>
        <time>2015-05-01T06:36:46Z</time>
      </trkpt>
      <trkpt lat="43.79761" lon="7.45259">
        <ele>728.34</ele>
        <time>2015-05-01T06:36:52Z</time>
      </trkpt>
      <trkpt lat="43.79762" lon="7.45256">
        <ele>729.3</ele>
        <time>2015-05-01T06:36:54Z</time>
      </trkpt>
      <trkpt lat="43.79764" lon="7.45251">
        <ele>730.74</ele>
        <time>2015-05-01T06:36:57Z</time>
      </trkpt>
      <trkpt lat="43.79764" lon="7.45248">
        <ele>731.7</ele>
        <time>2015-05-01T06:36:59Z</time>
      </trkpt>
      <trkpt lat="43.79765" lon="7.45236">
        <ele>735.07</ele>
        <time>2015-05-01T06:37:10Z</time>
      </trkpt>
      <trkpt lat="43.79769" lon="7.45223">
        <ele>737.95</ele>
        <time>2015-05-01T06:37:23Z</time>
      </trkpt>
      <trkpt lat="43.7977" lon="7.45221">
        <ele>737.95</ele>
        <time>2015-05-01T06:37:25Z</time>
      </trkpt>
      <trkpt lat="43.79774" lon="7.45212">
        <ele>740.35</ele>
        <time>2015-05-01T06:37:37Z</time>
      </trkpt>
      <trkpt lat="43.79778" lon="7.45204">
        <ele>744.2</ele>
        <time>2015-05-01T06:37:50Z</time>
      </trkpt>
      <trkpt lat="43.79778" lon="7.45202">
        <ele>745.16</ele>
        <time>2015-05-01T06:37:52Z</time>
      </trkpt>
      <trkpt lat="43.79783" lon="7.45196">
        <ele>746.6</ele>
        <time>2015-05-01T06:38:02Z</time>
      </trkpt>
      <trkpt lat="43.79785" lon="7.45194">
        <ele>748.52</ele>
        <time>2015-05-01T06:38:07Z</time>
      </trkpt>
      <trkpt lat="43.79785" lon="7.45188">
        <ele>750.93</ele>
        <time>2015-05-01T06:38:19Z</time>
      </trkpt>
      <trkpt lat="43.79785" lon="7.45183">
        <ele>751.41</ele>
        <time>2015-05-01T06:38:38Z</time>
      </trkpt>
      <trkpt lat="43.79792" lon="7.45177">
        <ele>753.33</ele>
        <time>2015-05-01T06:38:51Z</time>
      </trkpt>
      <trkpt lat="43.79794" lon="7.45174">
        <ele>755.25</ele>
        <time>2015-05-01T06:38:55Z</time>
      </trkpt>
      <trkpt lat="43.79795" lon="7.45173">
        <ele>755.25</ele>
        <time>2015-05-01T06:38:56Z</time>
      </trkpt>
      <trkpt lat="43.79802" lon="7.45169">
        <ele>757.66</ele>
        <time>2015-05-01T06:39:06Z</time>
      </trkpt>
      <trkpt lat="43.79799" lon="7.45166">
        <ele>759.1</ele>
        <time>2015-05-01T06:39:20Z</time>
      </trkpt>
      <trkpt lat="43.79797" lon="7.45166">
        <ele>759.1</ele>
        <time>2015-05-01T06:39:27Z</time>
      </trkpt>
      <trkpt lat="43.79794" lon="7.45167">
        <ele>759.58</ele>
        <time>2015-05-01T06:39:32Z</time>
      </trkpt>
      <trkpt lat="43.79791" lon="7.45167">
        <ele>760.54</ele>
        <time>2015-05-01T06:39:37Z</time>
      </trkpt>
      <trkpt lat="43.7979" lon="7.45167">
        <ele>760.54</ele>
        <time>2015-05-01T06:39:38Z</time>
      </trkpt>
      <trkpt lat="43.79782" lon="7.45167">
        <ele>761.02</ele>
        <time>2015-05-01T06:39:48Z</time>
      </trkpt>
      <trkpt lat="43.79777" lon="7.4517">
        <ele>761.02</ele>
        <time>2015-05-01T06:40:12Z</time>
      </trkpt>
      <trkpt lat="43.79776" lon="7.4517">
        <ele>761.98</ele>
        <time>2015-05-01T06:40:13Z</time>
      </trkpt>
      <trkpt lat="43.79774" lon="7.45169">
        <ele>761.98</ele>
        <time>2015-05-01T06:40:15Z</time>
      </trkpt>
      <trkpt lat="43.79772" lon="7.45168">
        <ele>762.46</ele>
        <time>2015-05-01T06:40:17Z</time>
      </trkpt>
      <trkpt lat="43.7977" lon="7.45168">
        <ele>763.42</ele>
        <time>2015-05-01T06:40:19Z</time>
      </trkpt>
      <trkpt lat="43.79769" lon="7.45168">
        <ele>763.42</ele>
        <time>2015-05-01T06:40:20Z</time>
      </trkpt>
      <trkpt lat="43.79768" lon="7.45168">
        <ele>763.42</ele>
        <time>2015-05-01T06:40:21Z</time>
      </trkpt>
      <trkpt lat="43.79767" lon="7.45169">
        <ele>763.9</ele>
        <time>2015-05-01T06:40:22Z</time>
      </trkpt>
      <trkpt lat="43.79763" lon="7.45169">
        <ele>764.87</ele>
        <time>2015-05-01T06:40:26Z</time>
      </trkpt>
      <trkpt lat="43.79762" lon="7.45168">
        <ele>764.87</ele>
        <time>2015-05-01T06:40:27Z</time>
      </trkpt>
      <trkpt lat="43.7976" lon="7.45168">
        <ele>765.83</ele>
        <time>2015-05-01T06:40:28Z</time>
      </trkpt>
      <trkpt lat="43.79753" lon="7.45169">
        <ele>767.27</ele>
        <time>2015-05-01T06:40:36Z</time>
      </trkpt>
      <trkpt lat="43.79752" lon="7.4517">
        <ele>767.27</ele>
        <time>2015-05-01T06:40:37Z</time>
      </trkpt>
      <trkpt lat="43.79751" lon="7.45169">
        <ele>767.27</ele>
        <time>2015-05-01T06:40:38Z</time>
      </trkpt>
      <trkpt lat="43.79742" lon="7.45164">
        <ele>768.71</ele>
        <time>2015-05-01T06:40:50Z</time>
      </trkpt>
      <trkpt lat="43.79741" lon="7.45163">
        <ele>768.23</ele>
        <time>2015-05-01T06:40:51Z</time>
      </trkpt>
      <trkpt lat="43.7974" lon="7.45159">
        <ele>768.23</ele>
        <time>2015-05-01T06:40:54Z</time>
      </trkpt>
      <trkpt lat="43.7974" lon="7.45158">
        <ele>769.19</ele>
        <time>2015-05-01T06:40:55Z</time>
      </trkpt>
      <trkpt lat="43.79739" lon="7.45156">
        <ele>769.19</ele>
        <time>2015-05-01T06:40:56Z</time>
      </trkpt>
      <trkpt lat="43.7974" lon="7.45154">
        <ele>769.67</ele>
        <time>2015-05-01T06:40:57Z</time>
      </trkpt>
      <trkpt lat="43.79739" lon="7.45153">
        <ele>769.67</ele>
        <time>2015-05-01T06:40:58Z</time>
      </trkpt>
      <trkpt lat="43.79739" lon="7.45151">
        <ele>770.15</ele>
        <time>2015-05-01T06:40:59Z</time>
      </trkpt>
      <trkpt lat="43.79736" lon="7.45141">
        <ele>770.63</ele>
        <time>2015-05-01T06:41:10Z</time>
      </trkpt>
      <trkpt lat="43.79736" lon="7.45135">
        <ele>771.6</ele>
        <time>2015-05-01T06:41:27Z</time>
      </trkpt>
      <trkpt lat="43.79735" lon="7.45129">
        <ele>772.08</ele>
        <time>2015-05-01T06:41:34Z</time>
      </trkpt>
      <trkpt lat="43.79736" lon="7.45124">
        <ele>773.04</ele>
        <time>2015-05-01T06:41:39Z</time>
      </trkpt>
      <trkpt lat="43.79738" lon="7.4512">
        <ele>774.96</ele>
        <time>2015-05-01T06:41:43Z</time>
      </trkpt>
      <trkpt lat="43.79737" lon="7.45114">
        <ele>777.36</ele>
        <time>2015-05-01T06:41:49Z</time>
      </trkpt>
      <trkpt lat="43.79736" lon="7.45113">
        <ele>777.36</ele>
        <time>2015-05-01T06:41:50Z</time>
      </trkpt>
      <trkpt lat="43.79736" lon="7.45107">
        <ele>778.81</ele>
        <time>2015-05-01T06:41:55Z</time>
      </trkpt>
      <trkpt lat="43.7974" lon="7.45098">
        <ele>780.25</ele>
        <time>2015-05-01T06:42:06Z</time>
      </trkpt>
      <trkpt lat="43.79744" lon="7.45088">
        <ele>783.13</ele>
        <time>2015-05-01T06:42:18Z</time>
      </trkpt>
      <trkpt lat="43.79746" lon="7.45077">
        <ele>786.02</ele>
        <time>2015-05-01T06:42:31Z</time>
      </trkpt>
      <trkpt lat="43.79747" lon="7.45068">
        <ele>786.5</ele>
        <time>2015-05-01T06:42:51Z</time>
      </trkpt>
      <trkpt lat="43.79752" lon="7.4506">
        <ele>788.42</ele>
        <time>2015-05-01T06:43:04Z</time>
      </trkpt>
      <trkpt lat="43.79756" lon="7.45053">
        <ele>790.82</ele>
        <time>2015-05-01T06:43:17Z</time>
      </trkpt>
      <trkpt lat="43.79765" lon="7.45042">
        <ele>792.74</ele>
        <time>2015-05-01T06:43:31Z</time>
      </trkpt>
      <trkpt lat="43.79775" lon="7.4503">
        <ele>794.19</ele>
        <time>2015-05-01T06:43:45Z</time>
      </trkpt>
      <trkpt lat="43.79781" lon="7.45021">
        <ele>793.71</ele>
        <time>2015-05-01T06:43:56Z</time>
      </trkpt>
      <trkpt lat="43.79786" lon="7.45016">
        <ele>792.74</ele>
        <time>2015-05-01T06:44:02Z</time>
      </trkpt>
      <trkpt lat="43.79795" lon="7.45004">
        <ele>790.82</ele>
        <time>2015-05-01T06:44:14Z</time>
      </trkpt>
      <trkpt lat="43.79796" lon="7.45003">
        <ele>790.82</ele>
        <time>2015-05-01T06:44:15Z</time>
      </trkpt>
      <trkpt lat="43.79808" lon="7.44998">
        <ele>789.86</ele>
        <time>2015-05-01T06:44:28Z</time>
      </trkpt>
      <trkpt lat="43.79821" lon="7.44991">
        <ele>789.38</ele>
        <time>2015-05-01T06:44:39Z</time>
      </trkpt>
      <trkpt lat="43.7983" lon="7.44985">
        <ele>788.9</ele>
        <time>2015-05-01T06:44:50Z</time>
      </trkpt>
      <trkpt lat="43.79831" lon="7.44984">
        <ele>788.9</ele>
        <time>2015-05-01T06:44:51Z</time>
      </trkpt>
      <trkpt lat="43.79832" lon="7.44982">
        <ele>788.9</ele>
        <time>2015-05-01T06:44:53Z</time>
      </trkpt>
      <trkpt lat="43.79836" lon="7.44974">
        <ele>787.94</ele>
        <time>2015-05-01T06:45:03Z</time>
      </trkpt>
      <trkpt lat="43.79837" lon="7.44974">
        <ele>786.98</ele>
        <time>2015-05-01T06:45:22Z</time>
      </trkpt>
      <trkpt lat="43.79839" lon="7.44974">
        <ele>788.42</ele>
        <time>2015-05-01T06:45:25Z</time>
      </trkpt>
      <trkpt lat="43.79841" lon="7.4497">
        <ele>788.42</ele>
        <time>2015-05-01T06:45:31Z</time>
      </trkpt>
      <trkpt lat="43.79845" lon="7.44962">
        <ele>786.98</ele>
        <time>2015-05-01T06:45:38Z</time>
      </trkpt>
      <trkpt lat="43.79845" lon="7.4496">
        <ele>786.98</ele>
        <time>2015-05-01T06:45:39Z</time>
      </trkpt>
      <trkpt lat="43.79857" lon="7.44945">
        <ele>786.02</ele>
        <time>2015-05-01T06:45:52Z</time>
      </trkpt>
      <trkpt lat="43.79868" lon="7.44936">
        <ele>783.13</ele>
        <time>2015-05-01T06:46:04Z</time>
      </trkpt>
      <trkpt lat="43.7987" lon="7.44935">
        <ele>782.65</ele>
        <time>2015-05-01T06:46:06Z</time>
      </trkpt>
      <trkpt lat="43.79872" lon="7.44934">
        <ele>782.65</ele>
        <time>2015-05-01T06:46:07Z</time>
      </trkpt>
      <trkpt lat="43.79883" lon="7.44919">
        <ele>781.21</ele>
        <time>2015-05-01T06:46:19Z</time>
      </trkpt>
      <trkpt lat="43.7989" lon="7.4491">
        <ele>779.77</ele>
        <time>2015-05-01T06:46:27Z</time>
      </trkpt>
      <trkpt lat="43.799" lon="7.44903">
        <ele>778.32</ele>
        <time>2015-05-01T06:46:36Z</time>
      </trkpt>
      <trkpt lat="43.79901" lon="7.44902">
        <ele>777.84</ele>
        <time>2015-05-01T06:46:37Z</time>
      </trkpt>
      <trkpt lat="43.79902" lon="7.449">
        <ele>777.84</ele>
        <time>2015-05-01T06:46:38Z</time>
      </trkpt>
      <trkpt lat="43.79908" lon="7.44893">
        <ele>776.4</ele>
        <time>2015-05-01T06:46:49Z</time>
      </trkpt>
      <trkpt lat="43.79914" lon="7.44888">
        <ele>776.4</ele>
        <time>2015-05-01T06:46:55Z</time>
      </trkpt>
      <trkpt lat="43.79923" lon="7.44887">
        <ele>775.44</ele>
        <time>2015-05-01T06:47:03Z</time>
      </trkpt>
      <trkpt lat="43.79929" lon="7.44891">
        <ele>775.92</ele>
        <time>2015-05-01T06:47:10Z</time>
      </trkpt>
      <trkpt lat="43.79935" lon="7.44899">
        <ele>778.81</ele>
        <time>2015-05-01T06:47:20Z</time>
      </trkpt>
      <trkpt lat="43.79945" lon="7.44895">
        <ele>777.84</ele>
        <time>2015-05-01T06:47:32Z</time>
      </trkpt>
      <trkpt lat="43.79947" lon="7.44893">
        <ele>776.88</ele>
        <time>2015-05-01T06:47:34Z</time>
      </trkpt>
      <trkpt lat="43.79948" lon="7.44891">
        <ele>776.4</ele>
        <time>2015-05-01T06:47:35Z</time>
      </trkpt>
      <trkpt lat="43.79949" lon="7.44891">
        <ele>776.4</ele>
        <time>2015-05-01T06:47:36Z</time>
      </trkpt>
      <trkpt lat="43.79956" lon="7.44882">
        <ele>774.48</ele>
        <time>2015-05-01T06:47:46Z</time>
      </trkpt>
      <trkpt lat="43.7997" lon="7.44874">
        <ele>774.96</ele>
        <time>2015-05-01T06:47:58Z</time>
      </trkpt>
      <trkpt lat="43.79979" lon="7.44867">
        <ele>774.48</ele>
        <time>2015-05-01T06:48:07Z</time>
      </trkpt>
      <trkpt lat="43.79983" lon="7.44852">
        <ele>774.48</ele>
        <time>2015-05-01T06:48:18Z</time>
      </trkpt>
      <trkpt lat="43.79988" lon="7.44838">
        <ele>774.48</ele>
        <time>2015-05-01T06:48:30Z</time>
      </trkpt>
      <trkpt lat="43.7999" lon="7.44833">
        <ele>774.48</ele>
        <time>2015-05-01T06:48:34Z</time>
      </trkpt>
      <trkpt lat="43.7999" lon="7.44831">
        <ele>774.48</ele>
        <time>2015-05-01T06:48:35Z</time>
      </trkpt>
      <trkpt lat="43.7999" lon="7.44816">
        <ele>774.48</ele>
        <time>2015-05-01T06:48:46Z</time>
      </trkpt>
      <trkpt lat="43.79994" lon="7.44804">
        <ele>773.52</ele>
        <time>2015-05-01T06:48:58Z</time>
      </trkpt>
      <trkpt lat="43.79995" lon="7.44801">
        <ele>773.04</ele>
        <time>2015-05-01T06:49:01Z</time>
      </trkpt>
      <trkpt lat="43.79996" lon="7.448">
        <ele>773.04</ele>
        <time>2015-05-01T06:49:02Z</time>
      </trkpt>
      <trkpt lat="43.80002" lon="7.44792">
        <ele>772.56</ele>
        <time>2015-05-01T06:49:10Z</time>
      </trkpt>
      <trkpt lat="43.80007" lon="7.44787">
        <ele>772.08</ele>
        <time>2015-05-01T06:49:16Z</time>
      </trkpt>
      <trkpt lat="43.80015" lon="7.44777">
        <ele>771.6</ele>
        <time>2015-05-01T06:49:25Z</time>
      </trkpt>
      <trkpt lat="43.80017" lon="7.44774">
        <ele>771.11</ele>
        <time>2015-05-01T06:49:29Z</time>
      </trkpt>
      <trkpt lat="43.80025" lon="7.44769">
        <ele>769.19</ele>
        <time>2015-05-01T06:49:41Z</time>
      </trkpt>
      <trkpt lat="43.80028" lon="7.44766">
        <ele>768.71</ele>
        <time>2015-05-01T06:49:46Z</time>
      </trkpt>
      <trkpt lat="43.80038" lon="7.44755">
        <ele>767.27</ele>
        <time>2015-05-01T06:49:58Z</time>
      </trkpt>
      <trkpt lat="43.80045" lon="7.44749">
        <ele>765.83</ele>
        <time>2015-05-01T06:50:10Z</time>
      </trkpt>
      <trkpt lat="43.80049" lon="7.44744">
        <ele>763.42</ele>
        <time>2015-05-01T06:50:23Z</time>
      </trkpt>
      <trkpt lat="43.80053" lon="7.44739">
        <ele>760.54</ele>
        <time>2015-05-01T06:50:36Z</time>
      </trkpt>
      <trkpt lat="43.80051" lon="7.44732">
        <ele>758.14</ele>
        <time>2015-05-01T06:50:46Z</time>
      </trkpt>
      <trkpt lat="43.8006" lon="7.44729">
        <ele>756.21</ele>
        <time>2015-05-01T06:51:01Z</time>
      </trkpt>
      <trkpt lat="43.80067" lon="7.44729">
        <ele>753.81</ele>
        <time>2015-05-01T06:51:12Z</time>
      </trkpt>
      <trkpt lat="43.80073" lon="7.44718">
        <ele>751.41</ele>
        <time>2015-05-01T06:51:26Z</time>
      </trkpt>
      <trkpt lat="43.80078" lon="7.44715">
        <ele>749.49</ele>
        <time>2015-05-01T06:51:38Z</time>
      </trkpt>
      <trkpt lat="43.80085" lon="7.4471">
        <ele>747.56</ele>
        <time>2015-05-01T06:51:49Z</time>
      </trkpt>
      <trkpt lat="43.80094" lon="7.44713">
        <ele>745.16</ele>
        <time>2015-05-01T06:52:06Z</time>
      </trkpt>
      <trkpt lat="43.80097" lon="7.447">
        <ele>742.28</ele>
        <time>2015-05-01T06:52:19Z</time>
      </trkpt>
      <trkpt lat="43.80101" lon="7.44692">
        <ele>740.35</ele>
        <time>2015-05-01T06:52:30Z</time>
      </trkpt>
      <trkpt lat="43.80106" lon="7.44687">
        <ele>738.43</ele>
        <time>2015-05-01T06:52:40Z</time>
      </trkpt>
      <trkpt lat="43.80102" lon="7.44683">
        <ele>736.51</ele>
        <time>2015-05-01T06:52:49Z</time>
      </trkpt>
      <trkpt lat="43.80093" lon="7.44683">
        <ele>733.62</ele>
        <time>2015-05-01T06:53:02Z</time>
      </trkpt>
      <trkpt lat="43.8009" lon="7.4468">
        <ele>730.74</ele>
        <time>2015-05-01T06:53:13Z</time>
      </trkpt>
      <trkpt lat="43.80093" lon="7.44678">
        <ele>730.26</ele>
        <time>2015-05-01T06:53:17Z</time>
      </trkpt>
      <trkpt lat="43.80101" lon="7.44675">
        <ele>730.74</ele>
        <time>2015-05-01T06:53:28Z</time>
      </trkpt>
      <trkpt lat="43.80103" lon="7.44674">
        <ele>730.74</ele>
        <time>2015-05-01T06:53:29Z</time>
      </trkpt>
      <trkpt lat="43.80105" lon="7.44672">
        <ele>730.74</ele>
        <time>2015-05-01T06:53:43Z</time>
      </trkpt>
      <trkpt lat="43.80106" lon="7.44669">
        <ele>730.74</ele>
        <time>2015-05-01T06:54:04Z</time>
      </trkpt>
      <trkpt lat="43.80106" lon="7.44669">
        <ele>731.7</ele>
        <time>2015-05-01T06:54:22Z</time>
      </trkpt>
      <trkpt lat="43.80105" lon="7.44667">
        <ele>731.7</ele>
        <time>2015-05-01T06:54:45Z</time>
      </trkpt>
      <trkpt lat="43.80103" lon="7.44667">
        <ele>731.7</ele>
        <time>2015-05-01T06:55:04Z</time>
      </trkpt>
      <trkpt lat="43.80107" lon="7.44669">
        <ele>731.7</ele>
        <time>2015-05-01T06:55:30Z</time>
      </trkpt>
      <trkpt lat="43.80116" lon="7.44668">
        <ele>732.18</ele>
        <time>2015-05-01T06:55:39Z</time>
      </trkpt>
      <trkpt lat="43.80118" lon="7.44668">
        <ele>732.18</ele>
        <time>2015-05-01T06:55:40Z</time>
      </trkpt>
      <trkpt lat="43.80134" lon="7.4466">
        <ele>733.14</ele>
        <time>2015-05-01T06:55:54Z</time>
      </trkpt>
      <trkpt lat="43.8014" lon="7.44652">
        <ele>733.62</ele>
        <time>2015-05-01T06:56:07Z</time>
      </trkpt>
      <trkpt lat="43.80143" lon="7.44641">
        <ele>731.7</ele>
        <time>2015-05-01T06:56:20Z</time>
      </trkpt>
      <trkpt lat="43.80144" lon="7.4464">
        <ele>731.22</ele>
        <time>2015-05-01T06:56:21Z</time>
      </trkpt>
      <trkpt lat="43.80144" lon="7.44639">
        <ele>731.22</ele>
        <time>2015-05-01T06:56:22Z</time>
      </trkpt>
      <trkpt lat="43.80151" lon="7.44629">
        <ele>728.82</ele>
        <time>2015-05-01T06:56:35Z</time>
      </trkpt>
      <trkpt lat="43.80157" lon="7.44616">
        <ele>725.45</ele>
        <time>2015-05-01T06:56:49Z</time>
      </trkpt>
      <trkpt lat="43.80166" lon="7.446">
        <ele>724.01</ele>
        <time>2015-05-01T06:57:03Z</time>
      </trkpt>
      <trkpt lat="43.80167" lon="7.44586">
        <ele>722.09</ele>
        <time>2015-05-01T06:57:15Z</time>
      </trkpt>
      <trkpt lat="43.80168" lon="7.44582">
        <ele>722.09</ele>
        <time>2015-05-01T06:57:18Z</time>
      </trkpt>
      <trkpt lat="43.80173" lon="7.4457">
        <ele>721.13</ele>
        <time>2015-05-01T06:57:30Z</time>
      </trkpt>
      <trkpt lat="43.80181" lon="7.44557">
        <ele>721.13</ele>
        <time>2015-05-01T06:57:40Z</time>
      </trkpt>
      <trkpt lat="43.8019" lon="7.44546">
        <ele>721.13</ele>
        <time>2015-05-01T06:57:52Z</time>
      </trkpt>
      <trkpt lat="43.80194" lon="7.44535">
        <ele>721.13</ele>
        <time>2015-05-01T06:58:07Z</time>
      </trkpt>
      <trkpt lat="43.80193" lon="7.44524">
        <ele>719.2</ele>
        <time>2015-05-01T06:58:19Z</time>
      </trkpt>
      <trkpt lat="43.80192" lon="7.44509">
        <ele>716.8</ele>
        <time>2015-05-01T06:58:33Z</time>
      </trkpt>
      <trkpt lat="43.80195" lon="7.44496">
        <ele>714.88</ele>
        <time>2015-05-01T06:58:45Z</time>
      </trkpt>
      <trkpt lat="43.80195" lon="7.44495">
        <ele>714.4</ele>
        <time>2015-05-01T06:58:46Z</time>
      </trkpt>
      <trkpt lat="43.80202" lon="7.44479">
        <ele>713.44</ele>
        <time>2015-05-01T06:59:00Z</time>
      </trkpt>
      <trkpt lat="43.80208" lon="7.44465">
        <ele>711.51</ele>
        <time>2015-05-01T06:59:14Z</time>
      </trkpt>
      <trkpt lat="43.80209" lon="7.44462">
        <ele>712.95</ele>
        <time>2015-05-01T06:59:17Z</time>
      </trkpt>
      <trkpt lat="43.80212" lon="7.44456">
        <ele>711.51</ele>
        <time>2015-05-01T06:59:22Z</time>
      </trkpt>
      <trkpt lat="43.80212" lon="7.4445">
        <ele>711.03</ele>
        <time>2015-05-01T06:59:26Z</time>
      </trkpt>
      <trkpt lat="43.80219" lon="7.44434">
        <ele>709.59</ele>
        <time>2015-05-01T06:59:39Z</time>
      </trkpt>
      <trkpt lat="43.80218" lon="7.4442">
        <ele>707.67</ele>
        <time>2015-05-01T06:59:53Z</time>
      </trkpt>
      <trkpt lat="43.80218" lon="7.44407">
        <ele>704.78</ele>
        <time>2015-05-01T07:00:06Z</time>
      </trkpt>
      <trkpt lat="43.80219" lon="7.44389">
        <ele>702.86</ele>
        <time>2015-05-01T07:00:20Z</time>
      </trkpt>
      <trkpt lat="43.80221" lon="7.44376">
        <ele>700.46</ele>
        <time>2015-05-01T07:00:35Z</time>
      </trkpt>
      <trkpt lat="43.80218" lon="7.44361">
        <ele>697.57</ele>
        <time>2015-05-01T07:00:49Z</time>
      </trkpt>
      <trkpt lat="43.80216" lon="7.44341">
        <ele>694.21</ele>
        <time>2015-05-01T07:01:05Z</time>
      </trkpt>
      <trkpt lat="43.80216" lon="7.44326">
        <ele>692.77</ele>
        <time>2015-05-01T07:01:15Z</time>
      </trkpt>
      <trkpt lat="43.80221" lon="7.44308">
        <ele>690.84</ele>
        <time>2015-05-01T07:01:27Z</time>
      </trkpt>
      <trkpt lat="43.80226" lon="7.44293">
        <ele>689.88</ele>
        <time>2015-05-01T07:01:40Z</time>
      </trkpt>
      <trkpt lat="43.80226" lon="7.44287">
        <ele>689.88</ele>
        <time>2015-05-01T07:01:44Z</time>
      </trkpt>
      <trkpt lat="43.80228" lon="7.44272">
        <ele>688.44</ele>
        <time>2015-05-01T07:01:58Z</time>
      </trkpt>
      <trkpt lat="43.80227" lon="7.44255">
        <ele>686.04</ele>
        <time>2015-05-01T07:02:12Z</time>
      </trkpt>
      <trkpt lat="43.80224" lon="7.44254">
        <ele>683.63</ele>
        <time>2015-05-01T07:02:25Z</time>
      </trkpt>
      <trkpt lat="43.80221" lon="7.44252">
        <ele>682.19</ele>
        <time>2015-05-01T07:02:37Z</time>
      </trkpt>
      <trkpt lat="43.80221" lon="7.4425">
        <ele>682.19</ele>
        <time>2015-05-01T07:02:39Z</time>
      </trkpt>
      <trkpt lat="43.80221" lon="7.44248">
        <ele>681.23</ele>
        <time>2015-05-01T07:02:40Z</time>
      </trkpt>
      <trkpt lat="43.80221" lon="7.44246">
        <ele>681.23</ele>
        <time>2015-05-01T07:02:41Z</time>
      </trkpt>
      <trkpt lat="43.80222" lon="7.44244">
        <ele>680.75</ele>
        <time>2015-05-01T07:02:42Z</time>
      </trkpt>
      <trkpt lat="43.80222" lon="7.4423">
        <ele>679.31</ele>
        <time>2015-05-01T07:02:51Z</time>
      </trkpt>
      <trkpt lat="43.80222" lon="7.44229">
        <ele>679.31</ele>
        <time>2015-05-01T07:02:52Z</time>
      </trkpt>
      <trkpt lat="43.80222" lon="7.44227">
        <ele>678.83</ele>
        <time>2015-05-01T07:02:53Z</time>
      </trkpt>
      <trkpt lat="43.80226" lon="7.44206">
        <ele>676.91</ele>
        <time>2015-05-01T07:03:06Z</time>
      </trkpt>
      <trkpt lat="43.80226" lon="7.44199">
        <ele>676.42</ele>
        <time>2015-05-01T07:03:10Z</time>
      </trkpt>
      <trkpt lat="43.80227" lon="7.44197">
        <ele>676.42</ele>
        <time>2015-05-01T07:03:11Z</time>
      </trkpt>
      <trkpt lat="43.80231" lon="7.44181">
        <ele>676.42</ele>
        <time>2015-05-01T07:03:22Z</time>
      </trkpt>
      <trkpt lat="43.80233" lon="7.4417">
        <ele>675.94</ele>
        <time>2015-05-01T07:03:34Z</time>
      </trkpt>
      <trkpt lat="43.80228" lon="7.44173">
        <ele>674.02</ele>
        <time>2015-05-01T07:03:47Z</time>
      </trkpt>
      <trkpt lat="43.80225" lon="7.44169">
        <ele>672.1</ele>
        <time>2015-05-01T07:03:59Z</time>
      </trkpt>
      <trkpt lat="43.80221" lon="7.44167">
        <ele>670.18</ele>
        <time>2015-05-01T07:04:11Z</time>
      </trkpt>
      <trkpt lat="43.80215" lon="7.44157">
        <ele>667.77</ele>
        <time>2015-05-01T07:04:27Z</time>
      </trkpt>
      <trkpt lat="43.80208" lon="7.44151">
        <ele>665.37</ele>
        <time>2015-05-01T07:04:40Z</time>
      </trkpt>
      <trkpt lat="43.80208" lon="7.44149">
        <ele>664.89</ele>
        <time>2015-05-01T07:04:41Z</time>
      </trkpt>
      <trkpt lat="43.80205" lon="7.4414">
        <ele>663.93</ele>
        <time>2015-05-01T07:04:48Z</time>
      </trkpt>
      <trkpt lat="43.80201" lon="7.44131">
        <ele>662.49</ele>
        <time>2015-05-01T07:05:00Z</time>
      </trkpt>
      <trkpt lat="43.80193" lon="7.44129">
        <ele>660.08</ele>
        <time>2015-05-01T07:05:12Z</time>
      </trkpt>
      <trkpt lat="43.80187" lon="7.44128">
        <ele>658.16</ele>
        <time>2015-05-01T07:05:22Z</time>
      </trkpt>
      <trkpt lat="43.80183" lon="7.44135">
        <ele>656.24</ele>
        <time>2015-05-01T07:05:34Z</time>
      </trkpt>
      <trkpt lat="43.80176" lon="7.44128">
        <ele>653.83</ele>
        <time>2015-05-01T07:05:48Z</time>
      </trkpt>
      <trkpt lat="43.80169" lon="7.4412">
        <ele>651.43</ele>
        <time>2015-05-01T07:06:02Z</time>
      </trkpt>
      <trkpt lat="43.8016" lon="7.44122">
        <ele>649.51</ele>
        <time>2015-05-01T07:06:18Z</time>
      </trkpt>
      <trkpt lat="43.8016" lon="7.44124">
        <ele>649.03</ele>
        <time>2015-05-01T07:06:21Z</time>
      </trkpt>
      <trkpt lat="43.80159" lon="7.44135">
        <ele>648.07</ele>
        <time>2015-05-01T07:06:31Z</time>
      </trkpt>
      <trkpt lat="43.80159" lon="7.44137">
        <ele>648.07</ele>
        <time>2015-05-01T07:06:32Z</time>
      </trkpt>
      <trkpt lat="43.80155" lon="7.44165">
        <ele>646.62</ele>
        <time>2015-05-01T07:06:45Z</time>
      </trkpt>
      <trkpt lat="43.80156" lon="7.44183">
        <ele>646.62</ele>
        <time>2015-05-01T07:06:56Z</time>
      </trkpt>
      <trkpt lat="43.80154" lon="7.44201">
        <ele>646.62</ele>
        <time>2015-05-01T07:07:06Z</time>
      </trkpt>
      <trkpt lat="43.80148" lon="7.44217">
        <ele>645.66</ele>
        <time>2015-05-01T07:07:18Z</time>
      </trkpt>
      <trkpt lat="43.80146" lon="7.4423">
        <ele>645.18</ele>
        <time>2015-05-01T07:07:29Z</time>
      </trkpt>
      <trkpt lat="43.80144" lon="7.44242">
        <ele>645.18</ele>
        <time>2015-05-01T07:07:39Z</time>
      </trkpt>
      <trkpt lat="43.80142" lon="7.44261">
        <ele>645.18</ele>
        <time>2015-05-01T07:07:50Z</time>
      </trkpt>
      <trkpt lat="43.80141" lon="7.44263">
        <ele>645.18</ele>
        <time>2015-05-01T07:07:51Z</time>
      </trkpt>
      <trkpt lat="43.8014" lon="7.44265">
        <ele>645.18</ele>
        <time>2015-05-01T07:07:52Z</time>
      </trkpt>
      <trkpt lat="43.80137" lon="7.44284">
        <ele>647.1</ele>
        <time>2015-05-01T07:08:04Z</time>
      </trkpt>
      <trkpt lat="43.80138" lon="7.44303">
        <ele>647.59</ele>
        <time>2015-05-01T07:08:15Z</time>
      </trkpt>
      <trkpt lat="43.80133" lon="7.44318">
        <ele>647.59</ele>
        <time>2015-05-01T07:08:27Z</time>
      </trkpt>
      <trkpt lat="43.80129" lon="7.44329">
        <ele>647.59</ele>
        <time>2015-05-01T07:08:36Z</time>
      </trkpt>
      <trkpt lat="43.80127" lon="7.44335">
        <ele>646.62</ele>
        <time>2015-05-01T07:08:40Z</time>
      </trkpt>
      <trkpt lat="43.8012" lon="7.44352">
        <ele>646.62</ele>
        <time>2015-05-01T07:08:51Z</time>
      </trkpt>
      <trkpt lat="43.80117" lon="7.44363">
        <ele>646.62</ele>
        <time>2015-05-01T07:08:59Z</time>
      </trkpt>
      <trkpt lat="43.80116" lon="7.44379">
        <ele>646.14</ele>
        <time>2015-05-01T07:09:10Z</time>
      </trkpt>
      <trkpt lat="43.80115" lon="7.44382">
        <ele>646.14</ele>
        <time>2015-05-01T07:09:12Z</time>
      </trkpt>
      <trkpt lat="43.80112" lon="7.44394">
        <ele>647.1</ele>
        <time>2015-05-01T07:09:18Z</time>
      </trkpt>
      <trkpt lat="43.80105" lon="7.44417">
        <ele>648.07</ele>
        <time>2015-05-01T07:09:32Z</time>
      </trkpt>
      <trkpt lat="43.80102" lon="7.44431">
        <ele>649.03</ele>
        <time>2015-05-01T07:09:43Z</time>
      </trkpt>
      <trkpt lat="43.80101" lon="7.44439">
        <ele>650.47</ele>
        <time>2015-05-01T07:09:57Z</time>
      </trkpt>
      <trkpt lat="43.80097" lon="7.44445">
        <ele>650.95</ele>
        <time>2015-05-01T07:10:04Z</time>
      </trkpt>
      <trkpt lat="43.80096" lon="7.44446">
        <ele>650.95</ele>
        <time>2015-05-01T07:10:05Z</time>
      </trkpt>
      <trkpt lat="43.80091" lon="7.44448">
        <ele>649.03</ele>
        <time>2015-05-01T07:10:11Z</time>
      </trkpt>
      <trkpt lat="43.8009" lon="7.4445">
        <ele>649.03</ele>
        <time>2015-05-01T07:10:13Z</time>
      </trkpt>
      <trkpt lat="43.80088" lon="7.44454">
        <ele>649.03</ele>
        <time>2015-05-01T07:10:15Z</time>
      </trkpt>
      <trkpt lat="43.80082" lon="7.44459">
        <ele>649.03</ele>
        <time>2015-05-01T07:10:20Z</time>
      </trkpt>
      <trkpt lat="43.8007" lon="7.44472">
        <ele>648.55</ele>
        <time>2015-05-01T07:10:33Z</time>
      </trkpt>
      <trkpt lat="43.80068" lon="7.44473">
        <ele>648.55</ele>
        <time>2015-05-01T07:10:35Z</time>
      </trkpt>
      <trkpt lat="43.80066" lon="7.44475">
        <ele>648.55</ele>
        <time>2015-05-01T07:10:36Z</time>
      </trkpt>
      <trkpt lat="43.8006" lon="7.44481">
        <ele>647.59</ele>
        <time>2015-05-01T07:10:42Z</time>
      </trkpt>
      <trkpt lat="43.80046" lon="7.44486">
        <ele>645.18</ele>
        <time>2015-05-01T07:10:56Z</time>
      </trkpt>
      <trkpt lat="43.8004" lon="7.44485">
        <ele>643.26</ele>
        <time>2015-05-01T07:11:03Z</time>
      </trkpt>
      <trkpt lat="43.80036" lon="7.44485">
        <ele>642.78</ele>
        <time>2015-05-01T07:11:08Z</time>
      </trkpt>
      <trkpt lat="43.80027" lon="7.44485">
        <ele>639.89</ele>
        <time>2015-05-01T07:11:20Z</time>
      </trkpt>
      <trkpt lat="43.8002" lon="7.44488">
        <ele>637.49</ele>
        <time>2015-05-01T07:11:28Z</time>
      </trkpt>
      <trkpt lat="43.80019" lon="7.44492">
        <ele>637.01</ele>
        <time>2015-05-01T07:11:33Z</time>
      </trkpt>
      <trkpt lat="43.80012" lon="7.44495">
        <ele>636.05</ele>
        <time>2015-05-01T07:11:39Z</time>
      </trkpt>
      <trkpt lat="43.80009" lon="7.44495">
        <ele>636.05</ele>
        <time>2015-05-01T07:11:41Z</time>
      </trkpt>
      <trkpt lat="43.80001" lon="7.44501">
        <ele>635.57</ele>
        <time>2015-05-01T07:11:52Z</time>
      </trkpt>
      <trkpt lat="43.79997" lon="7.44499">
        <ele>635.57</ele>
        <time>2015-05-01T07:11:56Z</time>
      </trkpt>
      <trkpt lat="43.79994" lon="7.44499">
        <ele>635.57</ele>
        <time>2015-05-01T07:11:58Z</time>
      </trkpt>
      <trkpt lat="43.79992" lon="7.44499">
        <ele>635.57</ele>
        <time>2015-05-01T07:11:59Z</time>
      </trkpt>
      <trkpt lat="43.79971" lon="7.44505">
        <ele>634.61</ele>
        <time>2015-05-01T07:12:12Z</time>
      </trkpt>
      <trkpt lat="43.79967" lon="7.44506">
        <ele>634.61</ele>
        <time>2015-05-01T07:12:16Z</time>
      </trkpt>
      <trkpt lat="43.79966" lon="7.44508">
        <ele>634.61</ele>
        <time>2015-05-01T07:12:17Z</time>
      </trkpt>
      <trkpt lat="43.79956" lon="7.44509">
        <ele>634.13</ele>
        <time>2015-05-01T07:12:27Z</time>
      </trkpt>
      <trkpt lat="43.79948" lon="7.44513">
        <ele>635.57</ele>
        <time>2015-05-01T07:12:33Z</time>
      </trkpt>
      <trkpt lat="43.79941" lon="7.44518">
        <ele>635.57</ele>
        <time>2015-05-01T07:12:40Z</time>
      </trkpt>
      <trkpt lat="43.79935" lon="7.4452">
        <ele>635.57</ele>
        <time>2015-05-01T07:12:45Z</time>
      </trkpt>
      <trkpt lat="43.79925" lon="7.44523">
        <ele>635.57</ele>
        <time>2015-05-01T07:12:55Z</time>
      </trkpt>
      <trkpt lat="43.79919" lon="7.44521">
        <ele>635.57</ele>
        <time>2015-05-01T07:13:10Z</time>
      </trkpt>
      <trkpt lat="43.79909" lon="7.44525">
        <ele>633.65</ele>
        <time>2015-05-01T07:13:22Z</time>
      </trkpt>
      <trkpt lat="43.79908" lon="7.44526">
        <ele>633.17</ele>
        <time>2015-05-01T07:13:23Z</time>
      </trkpt>
      <trkpt lat="43.79901" lon="7.44536">
        <ele>631.72</ele>
        <time>2015-05-01T07:13:32Z</time>
      </trkpt>
      <trkpt lat="43.79899" lon="7.44548">
        <ele>629.8</ele>
        <time>2015-05-01T07:13:43Z</time>
      </trkpt>
      <trkpt lat="43.79897" lon="7.4455">
        <ele>628.36</ele>
        <time>2015-05-01T07:13:46Z</time>
      </trkpt>
      <trkpt lat="43.79888" lon="7.44556">
        <ele>625.96</ele>
        <time>2015-05-01T07:13:59Z</time>
      </trkpt>
      <trkpt lat="43.79885" lon="7.44567">
        <ele>624.51</ele>
        <time>2015-05-01T07:14:12Z</time>
      </trkpt>
      <trkpt lat="43.79879" lon="7.44564">
        <ele>621.63</ele>
        <time>2015-05-01T07:14:24Z</time>
      </trkpt>
      <trkpt lat="43.79876" lon="7.44566">
        <ele>620.19</ele>
        <time>2015-05-01T07:14:35Z</time>
      </trkpt>
      <trkpt lat="43.79869" lon="7.44571">
        <ele>617.78</ele>
        <time>2015-05-01T07:14:49Z</time>
      </trkpt>
      <trkpt lat="43.79862" lon="7.44577">
        <ele>617.3</ele>
        <time>2015-05-01T07:14:59Z</time>
      </trkpt>
      <trkpt lat="43.79854" lon="7.44575">
        <ele>616.34</ele>
        <time>2015-05-01T07:15:11Z</time>
      </trkpt>
      <trkpt lat="43.79844" lon="7.44572">
        <ele>613.94</ele>
        <time>2015-05-01T07:15:23Z</time>
      </trkpt>
      <trkpt lat="43.79842" lon="7.44571">
        <ele>613.46</ele>
        <time>2015-05-01T07:15:26Z</time>
      </trkpt>
      <trkpt lat="43.79838" lon="7.4457">
        <ele>612.02</ele>
        <time>2015-05-01T07:15:30Z</time>
      </trkpt>
      <trkpt lat="43.79831" lon="7.4457">
        <ele>611.06</ele>
        <time>2015-05-01T07:15:40Z</time>
      </trkpt>
      <trkpt lat="43.79827" lon="7.44571">
        <ele>611.06</ele>
        <time>2015-05-01T07:15:45Z</time>
      </trkpt>
      <trkpt lat="43.79825" lon="7.44571">
        <ele>611.06</ele>
        <time>2015-05-01T07:15:47Z</time>
      </trkpt>
      <trkpt lat="43.79827" lon="7.44566">
        <ele>608.17</ele>
        <time>2015-05-01T07:15:59Z</time>
      </trkpt>
      <trkpt lat="43.79835" lon="7.44557">
        <ele>605.77</ele>
        <time>2015-05-01T07:16:11Z</time>
      </trkpt>
      <trkpt lat="43.79843" lon="7.4455">
        <ele>603.85</ele>
        <time>2015-05-01T07:16:23Z</time>
      </trkpt>
      <trkpt lat="43.79852" lon="7.44534">
        <ele>602.4</ele>
        <time>2015-05-01T07:16:36Z</time>
      </trkpt>
      <trkpt lat="43.79853" lon="7.44522">
        <ele>599.52</ele>
        <time>2015-05-01T07:16:50Z</time>
      </trkpt>
      <trkpt lat="43.79847" lon="7.44524">
        <ele>597.12</ele>
        <time>2015-05-01T07:17:02Z</time>
      </trkpt>
      <trkpt lat="43.79845" lon="7.44527">
        <ele>595.67</ele>
        <time>2015-05-01T07:17:20Z</time>
      </trkpt>
      <trkpt lat="43.79845" lon="7.44522">
        <ele>595.19</ele>
        <time>2015-05-01T07:17:27Z</time>
      </trkpt>
      <trkpt lat="43.79846" lon="7.44507">
        <ele>591.83</ele>
        <time>2015-05-01T07:17:36Z</time>
      </trkpt>
      <trkpt lat="43.79848" lon="7.44503">
        <ele>590.39</ele>
        <time>2015-05-01T07:17:38Z</time>
      </trkpt>
      <trkpt lat="43.79847" lon="7.44498">
        <ele>589.43</ele>
        <time>2015-05-01T07:17:40Z</time>
      </trkpt>
      <trkpt lat="43.79846" lon="7.44496">
        <ele>588.95</ele>
        <time>2015-05-01T07:17:41Z</time>
      </trkpt>
      <trkpt lat="43.79846" lon="7.44494">
        <ele>588.46</ele>
        <time>2015-05-01T07:17:42Z</time>
      </trkpt>
      <trkpt lat="43.79848" lon="7.4448">
        <ele>585.58</ele>
        <time>2015-05-01T07:17:55Z</time>
      </trkpt>
      <trkpt lat="43.79846" lon="7.44474">
        <ele>583.18</ele>
        <time>2015-05-01T07:18:08Z</time>
      </trkpt>
      <trkpt lat="43.79841" lon="7.44481">
        <ele>580.77</ele>
        <time>2015-05-01T07:18:17Z</time>
      </trkpt>
      <trkpt lat="43.7984" lon="7.44483">
        <ele>580.29</ele>
        <time>2015-05-01T07:18:18Z</time>
      </trkpt>
      <trkpt lat="43.79834" lon="7.44493">
        <ele>577.89</ele>
        <time>2015-05-01T07:18:29Z</time>
      </trkpt>
      <trkpt lat="43.79833" lon="7.44498">
        <ele>577.41</ele>
        <time>2015-05-01T07:18:34Z</time>
      </trkpt>
      <trkpt lat="43.79819" lon="7.44503">
        <ele>575.49</ele>
        <time>2015-05-01T07:18:47Z</time>
      </trkpt>
      <trkpt lat="43.79811" lon="7.44498">
        <ele>573.56</ele>
        <time>2015-05-01T07:18:59Z</time>
      </trkpt>
      <trkpt lat="43.79811" lon="7.44491">
        <ele>570.68</ele>
        <time>2015-05-01T07:19:13Z</time>
      </trkpt>
      <trkpt lat="43.79815" lon="7.44484">
        <ele>567.32</ele>
        <time>2015-05-01T07:19:25Z</time>
      </trkpt>
      <trkpt lat="43.79815" lon="7.44479">
        <ele>565.87</ele>
        <time>2015-05-01T07:19:33Z</time>
      </trkpt>
      <trkpt lat="43.79814" lon="7.44479">
        <ele>565.39</ele>
        <time>2015-05-01T07:19:34Z</time>
      </trkpt>
      <trkpt lat="43.79809" lon="7.44477">
        <ele>562.03</ele>
        <time>2015-05-01T07:19:44Z</time>
      </trkpt>
      <trkpt lat="43.7981" lon="7.44477">
        <ele>562.03</ele>
        <time>2015-05-01T07:19:45Z</time>
      </trkpt>
      <trkpt lat="43.79808" lon="7.44472">
        <ele>559.14</ele>
        <time>2015-05-01T07:19:55Z</time>
      </trkpt>
      <trkpt lat="43.79805" lon="7.44469">
        <ele>556.74</ele>
        <time>2015-05-01T07:20:06Z</time>
      </trkpt>
      <trkpt lat="43.79798" lon="7.44462">
        <ele>554.34</ele>
        <time>2015-05-01T07:20:17Z</time>
      </trkpt>
      <trkpt lat="43.79792" lon="7.4446">
        <ele>551.45</ele>
        <time>2015-05-01T07:20:25Z</time>
      </trkpt>
      <trkpt lat="43.79783" lon="7.44456">
        <ele>548.09</ele>
        <time>2015-05-01T07:20:37Z</time>
      </trkpt>
      <trkpt lat="43.79775" lon="7.44452">
        <ele>545.2</ele>
        <time>2015-05-01T07:20:48Z</time>
      </trkpt>
      <trkpt lat="43.79772" lon="7.44453">
        <ele>544.72</ele>
        <time>2015-05-01T07:20:51Z</time>
      </trkpt>
      <trkpt lat="43.79771" lon="7.44451">
        <ele>543.76</ele>
        <time>2015-05-01T07:20:54Z</time>
      </trkpt>
      <trkpt lat="43.79766" lon="7.44445">
        <ele>540.88</ele>
        <time>2015-05-01T07:21:04Z</time>
      </trkpt>
      <trkpt lat="43.7976" lon="7.4444">
        <ele>538.48</ele>
        <time>2015-05-01T07:21:15Z</time>
      </trkpt>
      <trkpt lat="43.79753" lon="7.44436">
        <ele>535.11</ele>
        <time>2015-05-01T07:21:29Z</time>
      </trkpt>
      <trkpt lat="43.79747" lon="7.4443">
        <ele>532.71</ele>
        <time>2015-05-01T07:21:41Z</time>
      </trkpt>
      <trkpt lat="43.7974" lon="7.44425">
        <ele>529.34</ele>
        <time>2015-05-01T07:21:55Z</time>
      </trkpt>
      <trkpt lat="43.79732" lon="7.44421">
        <ele>526.46</ele>
        <time>2015-05-01T07:22:07Z</time>
      </trkpt>
      <trkpt lat="43.79727" lon="7.4442">
        <ele>524.06</ele>
        <time>2015-05-01T07:22:18Z</time>
      </trkpt>
      <trkpt lat="43.79729" lon="7.44413">
        <ele>521.17</ele>
        <time>2015-05-01T07:22:32Z</time>
      </trkpt>
      <trkpt lat="43.79724" lon="7.44411">
        <ele>519.73</ele>
        <time>2015-05-01T07:22:39Z</time>
      </trkpt>
      <trkpt lat="43.79723" lon="7.4441">
        <ele>519.25</ele>
        <time>2015-05-01T07:22:40Z</time>
      </trkpt>
      <trkpt lat="43.79721" lon="7.4441">
        <ele>519.25</ele>
        <time>2015-05-01T07:22:41Z</time>
      </trkpt>
      <trkpt lat="43.79714" lon="7.44406">
        <ele>515.88</ele>
        <time>2015-05-01T07:22:48Z</time>
      </trkpt>
      <trkpt lat="43.79707" lon="7.44402">
        <ele>513</ele>
        <time>2015-05-01T07:23:01Z</time>
      </trkpt>
      <trkpt lat="43.79706" lon="7.44398">
        <ele>511.56</ele>
        <time>2015-05-01T07:23:10Z</time>
      </trkpt>
      <trkpt lat="43.79702" lon="7.44396">
        <ele>508.67</ele>
        <time>2015-05-01T07:23:19Z</time>
      </trkpt>
      <trkpt lat="43.79701" lon="7.44396">
        <ele>508.67</ele>
        <time>2015-05-01T07:23:20Z</time>
      </trkpt>
      <trkpt lat="43.79699" lon="7.44395">
        <ele>508.19</ele>
        <time>2015-05-01T07:23:22Z</time>
      </trkpt>
      <trkpt lat="43.79694" lon="7.4439">
        <ele>504.35</ele>
        <time>2015-05-01T07:23:33Z</time>
      </trkpt>
      <trkpt lat="43.79696" lon="7.44387">
        <ele>503.87</ele>
        <time>2015-05-01T07:23:36Z</time>
      </trkpt>
      <trkpt lat="43.7969" lon="7.44385">
        <ele>500.98</ele>
        <time>2015-05-01T07:23:47Z</time>
      </trkpt>
      <trkpt lat="43.79691" lon="7.44375">
        <ele>498.58</ele>
        <time>2015-05-01T07:23:59Z</time>
      </trkpt>
      <trkpt lat="43.79692" lon="7.44367">
        <ele>495.22</ele>
        <time>2015-05-01T07:24:12Z</time>
      </trkpt>
      <trkpt lat="43.79688" lon="7.44366">
        <ele>493.77</ele>
        <time>2015-05-01T07:24:19Z</time>
      </trkpt>
      <trkpt lat="43.79681" lon="7.44369">
        <ele>490.89</ele>
        <time>2015-05-01T07:24:30Z</time>
      </trkpt>
      <trkpt lat="43.79683" lon="7.44363">
        <ele>489.45</ele>
        <time>2015-05-01T07:24:43Z</time>
      </trkpt>
      <trkpt lat="43.79675" lon="7.44362">
        <ele>487.05</ele>
        <time>2015-05-01T07:24:57Z</time>
      </trkpt>
      <trkpt lat="43.79667" lon="7.44366">
        <ele>484.64</ele>
        <time>2015-05-01T07:25:08Z</time>
      </trkpt>
      <trkpt lat="43.79664" lon="7.4436">
        <ele>481.76</ele>
        <time>2015-05-01T07:25:21Z</time>
      </trkpt>
      <trkpt lat="43.7966" lon="7.4436">
        <ele>480.8</ele>
        <time>2015-05-01T07:25:26Z</time>
      </trkpt>
      <trkpt lat="43.79656" lon="7.4436">
        <ele>478.87</ele>
        <time>2015-05-01T07:25:40Z</time>
      </trkpt>
      <trkpt lat="43.79655" lon="7.44364">
        <ele>479.35</ele>
        <time>2015-05-01T07:26:03Z</time>
      </trkpt>
      <trkpt lat="43.79651" lon="7.44366">
        <ele>479.35</ele>
        <time>2015-05-01T07:26:07Z</time>
      </trkpt>
      <trkpt lat="43.79649" lon="7.44366">
        <ele>477.91</ele>
        <time>2015-05-01T07:26:08Z</time>
      </trkpt>
      <trkpt lat="43.79648" lon="7.44366">
        <ele>477.91</ele>
        <time>2015-05-01T07:26:09Z</time>
      </trkpt>
      <trkpt lat="43.79646" lon="7.44366">
        <ele>477.43</ele>
        <time>2015-05-01T07:26:10Z</time>
      </trkpt>
      <trkpt lat="43.79644" lon="7.44366">
        <ele>476.47</ele>
        <time>2015-05-01T07:26:11Z</time>
      </trkpt>
      <trkpt lat="43.79633" lon="7.44365">
        <ele>473.11</ele>
        <time>2015-05-01T07:26:16Z</time>
      </trkpt>
      <trkpt lat="43.7963" lon="7.44364">
        <ele>471.66</ele>
        <time>2015-05-01T07:26:19Z</time>
      </trkpt>
      <trkpt lat="43.79627" lon="7.44362">
        <ele>470.7</ele>
        <time>2015-05-01T07:26:31Z</time>
      </trkpt>
      <trkpt lat="43.79627" lon="7.44356">
        <ele>470.7</ele>
        <time>2015-05-01T07:26:51Z</time>
      </trkpt>
      <trkpt lat="43.79626" lon="7.44357">
        <ele>470.7</ele>
        <time>2015-05-01T07:26:52Z</time>
      </trkpt>
      <trkpt lat="43.79613" lon="7.44364">
        <ele>467.82</ele>
        <time>2015-05-01T07:27:05Z</time>
      </trkpt>
      <trkpt lat="43.79612" lon="7.44367">
        <ele>467.82</ele>
        <time>2015-05-01T07:27:25Z</time>
      </trkpt>
      <trkpt lat="43.79605" lon="7.44368">
        <ele>465.9</ele>
        <time>2015-05-01T07:27:32Z</time>
      </trkpt>
      <trkpt lat="43.79604" lon="7.4437">
        <ele>465.42</ele>
        <time>2015-05-01T07:27:33Z</time>
      </trkpt>
      <trkpt lat="43.796" lon="7.44373">
        <ele>463.97</ele>
        <time>2015-05-01T07:27:37Z</time>
      </trkpt>
      <trkpt lat="43.79589" lon="7.44374">
        <ele>460.61</ele>
        <time>2015-05-01T07:27:45Z</time>
      </trkpt>
      <trkpt lat="43.79584" lon="7.44375">
        <ele>459.65</ele>
        <time>2015-05-01T07:27:48Z</time>
      </trkpt>
      <trkpt lat="43.79582" lon="7.44375">
        <ele>458.21</ele>
        <time>2015-05-01T07:27:50Z</time>
      </trkpt>
      <trkpt lat="43.7958" lon="7.44375">
        <ele>457.72</ele>
        <time>2015-05-01T07:27:51Z</time>
      </trkpt>
      <trkpt lat="43.79574" lon="7.44374">
        <ele>455.32</ele>
        <time>2015-05-01T07:27:56Z</time>
      </trkpt>
      <trkpt lat="43.79574" lon="7.4437">
        <ele>454.84</ele>
        <time>2015-05-01T07:28:11Z</time>
      </trkpt>
      <trkpt lat="43.79569" lon="7.44373">
        <ele>453.88</ele>
        <time>2015-05-01T07:28:26Z</time>
      </trkpt>
      <trkpt lat="43.79568" lon="7.44373">
        <ele>453.4</ele>
        <time>2015-05-01T07:28:28Z</time>
      </trkpt>
      <trkpt lat="43.79567" lon="7.44374">
        <ele>453.4</ele>
        <time>2015-05-01T07:28:29Z</time>
      </trkpt>
      <trkpt lat="43.79565" lon="7.44375">
        <ele>452.92</ele>
        <time>2015-05-01T07:28:30Z</time>
      </trkpt>
      <trkpt lat="43.79564" lon="7.44375">
        <ele>451.96</ele>
        <time>2015-05-01T07:28:31Z</time>
      </trkpt>
      <trkpt lat="43.79562" lon="7.44375">
        <ele>451.96</ele>
        <time>2015-05-01T07:28:32Z</time>
      </trkpt>
      <trkpt lat="43.79561" lon="7.44376">
        <ele>451.48</ele>
        <time>2015-05-01T07:28:33Z</time>
      </trkpt>
      <trkpt lat="43.79559" lon="7.44375">
        <ele>450.52</ele>
        <time>2015-05-01T07:28:34Z</time>
      </trkpt>
      <trkpt lat="43.79558" lon="7.44376">
        <ele>450.03</ele>
        <time>2015-05-01T07:28:35Z</time>
      </trkpt>
      <trkpt lat="43.79556" lon="7.44377">
        <ele>449.55</ele>
        <time>2015-05-01T07:28:36Z</time>
      </trkpt>
      <trkpt lat="43.79555" lon="7.44377">
        <ele>449.07</ele>
        <time>2015-05-01T07:28:37Z</time>
      </trkpt>
      <trkpt lat="43.79554" lon="7.44378">
        <ele>449.07</ele>
        <time>2015-05-01T07:28:38Z</time>
      </trkpt>
      <trkpt lat="43.79553" lon="7.44379">
        <ele>449.07</ele>
        <time>2015-05-01T07:28:39Z</time>
      </trkpt>
      <trkpt lat="43.79539" lon="7.44385">
        <ele>446.19</ele>
        <time>2015-05-01T07:28:52Z</time>
      </trkpt>
      <trkpt lat="43.79538" lon="7.44386">
        <ele>445.71</ele>
        <time>2015-05-01T07:28:53Z</time>
      </trkpt>
      <trkpt lat="43.79535" lon="7.44387">
        <ele>445.23</ele>
        <time>2015-05-01T07:28:55Z</time>
      </trkpt>
      <trkpt lat="43.79534" lon="7.44388">
        <ele>445.23</ele>
        <time>2015-05-01T07:28:56Z</time>
      </trkpt>
      <trkpt lat="43.79533" lon="7.44388">
        <ele>444.75</ele>
        <time>2015-05-01T07:28:57Z</time>
      </trkpt>
      <trkpt lat="43.79531" lon="7.44389">
        <ele>444.27</ele>
        <time>2015-05-01T07:28:58Z</time>
      </trkpt>
      <trkpt lat="43.79525" lon="7.4439">
        <ele>443.31</ele>
        <time>2015-05-01T07:29:04Z</time>
      </trkpt>
      <trkpt lat="43.79523" lon="7.44388">
        <ele>441.86</ele>
        <time>2015-05-01T07:29:15Z</time>
      </trkpt>
      <trkpt lat="43.79518" lon="7.44383">
        <ele>440.9</ele>
        <time>2015-05-01T07:29:37Z</time>
      </trkpt>
      <trkpt lat="43.79511" lon="7.44381">
        <ele>437.54</ele>
        <time>2015-05-01T07:29:42Z</time>
      </trkpt>
      <trkpt lat="43.7951" lon="7.4438">
        <ele>437.54</ele>
        <time>2015-05-01T07:29:43Z</time>
      </trkpt>
      <trkpt lat="43.79509" lon="7.44378">
        <ele>436.58</ele>
        <time>2015-05-01T07:29:44Z</time>
      </trkpt>
      <trkpt lat="43.79506" lon="7.44377">
        <ele>435.61</ele>
        <time>2015-05-01T07:29:45Z</time>
      </trkpt>
      <trkpt lat="43.79505" lon="7.44376">
        <ele>435.61</ele>
        <time>2015-05-01T07:29:46Z</time>
      </trkpt>
      <trkpt lat="43.79492" lon="7.44372">
        <ele>431.77</ele>
        <time>2015-05-01T07:29:52Z</time>
      </trkpt>
      <trkpt lat="43.79483" lon="7.44369">
        <ele>428.89</ele>
        <time>2015-05-01T07:29:56Z</time>
      </trkpt>
      <trkpt lat="43.79479" lon="7.44368">
        <ele>427.44</ele>
        <time>2015-05-01T07:29:58Z</time>
      </trkpt>
      <trkpt lat="43.79477" lon="7.44366">
        <ele>426.96</ele>
        <time>2015-05-01T07:29:59Z</time>
      </trkpt>
      <trkpt lat="43.79475" lon="7.44364">
        <ele>426</ele>
        <time>2015-05-01T07:30:00Z</time>
      </trkpt>
      <trkpt lat="43.79474" lon="7.44364">
        <ele>425.52</ele>
        <time>2015-05-01T07:30:01Z</time>
      </trkpt>
      <trkpt lat="43.79473" lon="7.44365">
        <ele>425.04</ele>
        <time>2015-05-01T07:30:02Z</time>
      </trkpt>
      <trkpt lat="43.79467" lon="7.44368">
        <ele>424.56</ele>
        <time>2015-05-01T07:30:11Z</time>
      </trkpt>
      <trkpt lat="43.79466" lon="7.44369">
        <ele>424.08</ele>
        <time>2015-05-01T07:30:12Z</time>
      </trkpt>
      <trkpt lat="43.79465" lon="7.44369">
        <ele>424.08</ele>
        <time>2015-05-01T07:30:13Z</time>
      </trkpt>
      <trkpt lat="43.79457" lon="7.44373">
        <ele>421.68</ele>
        <time>2015-05-01T07:30:21Z</time>
      </trkpt>
      <trkpt lat="43.79455" lon="7.44374">
        <ele>421.19</ele>
        <time>2015-05-01T07:30:22Z</time>
      </trkpt>
      <trkpt lat="43.79454" lon="7.44375">
        <ele>420.71</ele>
        <time>2015-05-01T07:30:23Z</time>
      </trkpt>
      <trkpt lat="43.79452" lon="7.44375">
        <ele>420.23</ele>
        <time>2015-05-01T07:30:24Z</time>
      </trkpt>
      <trkpt lat="43.7945" lon="7.44376">
        <ele>420.23</ele>
        <time>2015-05-01T07:30:25Z</time>
      </trkpt>
      <trkpt lat="43.79449" lon="7.44377">
        <ele>419.27</ele>
        <time>2015-05-01T07:30:26Z</time>
      </trkpt>
      <trkpt lat="43.79447" lon="7.44377">
        <ele>418.79</ele>
        <time>2015-05-01T07:30:27Z</time>
      </trkpt>
      <trkpt lat="43.79446" lon="7.44377">
        <ele>418.79</ele>
        <time>2015-05-01T07:30:28Z</time>
      </trkpt>
      <trkpt lat="43.79444" lon="7.44378">
        <ele>417.83</ele>
        <time>2015-05-01T07:30:29Z</time>
      </trkpt>
      <trkpt lat="43.79443" lon="7.44379">
        <ele>417.35</ele>
        <time>2015-05-01T07:30:30Z</time>
      </trkpt>
      <trkpt lat="43.79441" lon="7.4438">
        <ele>416.39</ele>
        <time>2015-05-01T07:30:31Z</time>
      </trkpt>
      <trkpt lat="43.79438" lon="7.4438">
        <ele>416.39</ele>
        <time>2015-05-01T07:30:32Z</time>
      </trkpt>
      <trkpt lat="43.79437" lon="7.44381">
        <ele>415.43</ele>
        <time>2015-05-01T07:30:33Z</time>
      </trkpt>
      <trkpt lat="43.79435" lon="7.44383">
        <ele>414.95</ele>
        <time>2015-05-01T07:30:35Z</time>
      </trkpt>
      <trkpt lat="43.79433" lon="7.44384">
        <ele>414.47</ele>
        <time>2015-05-01T07:30:36Z</time>
      </trkpt>
      <trkpt lat="43.79424" lon="7.4439">
        <ele>412.06</ele>
        <time>2015-05-01T07:30:43Z</time>
      </trkpt>
      <trkpt lat="43.79413" lon="7.44384">
        <ele>409.66</ele>
        <time>2015-05-01T07:30:54Z</time>
      </trkpt>
      <trkpt lat="43.79412" lon="7.44384">
        <ele>409.18</ele>
        <time>2015-05-01T07:30:55Z</time>
      </trkpt>
      <trkpt lat="43.79409" lon="7.44386">
        <ele>408.7</ele>
        <time>2015-05-01T07:31:06Z</time>
      </trkpt>
      <trkpt lat="43.79403" lon="7.44391">
        <ele>406.77</ele>
        <time>2015-05-01T07:31:20Z</time>
      </trkpt>
      <trkpt lat="43.79402" lon="7.44392">
        <ele>406.77</ele>
        <time>2015-05-01T07:31:21Z</time>
      </trkpt>
      <trkpt lat="43.794" lon="7.44393">
        <ele>406.29</ele>
        <time>2015-05-01T07:31:22Z</time>
      </trkpt>
      <trkpt lat="43.79399" lon="7.44393">
        <ele>405.81</ele>
        <time>2015-05-01T07:31:23Z</time>
      </trkpt>
      <trkpt lat="43.79398" lon="7.44394">
        <ele>405.81</ele>
        <time>2015-05-01T07:31:24Z</time>
      </trkpt>
      <trkpt lat="43.79397" lon="7.44396">
        <ele>405.33</ele>
        <time>2015-05-01T07:31:25Z</time>
      </trkpt>
      <trkpt lat="43.79396" lon="7.44397">
        <ele>405.33</ele>
        <time>2015-05-01T07:31:26Z</time>
      </trkpt>
      <trkpt lat="43.79395" lon="7.44398">
        <ele>404.37</ele>
        <time>2015-05-01T07:31:27Z</time>
      </trkpt>
      <trkpt lat="43.79393" lon="7.44398">
        <ele>404.37</ele>
        <time>2015-05-01T07:31:28Z</time>
      </trkpt>
      <trkpt lat="43.79392" lon="7.44398">
        <ele>403.89</ele>
        <time>2015-05-01T07:31:29Z</time>
      </trkpt>
      <trkpt lat="43.7939" lon="7.44398">
        <ele>403.89</ele>
        <time>2015-05-01T07:31:30Z</time>
      </trkpt>
      <trkpt lat="43.79379" lon="7.44397">
        <ele>401.49</ele>
        <time>2015-05-01T07:31:40Z</time>
      </trkpt>
      <trkpt lat="43.79378" lon="7.44395">
        <ele>401.01</ele>
        <time>2015-05-01T07:31:41Z</time>
      </trkpt>
      <trkpt lat="43.79377" lon="7.44394">
        <ele>401.01</ele>
        <time>2015-05-01T07:31:42Z</time>
      </trkpt>
      <trkpt lat="43.79378" lon="7.44391">
        <ele>400.05</ele>
        <time>2015-05-01T07:31:44Z</time>
      </trkpt>
      <trkpt lat="43.79379" lon="7.44389">
        <ele>399.57</ele>
        <time>2015-05-01T07:31:45Z</time>
      </trkpt>
      <trkpt lat="43.79377" lon="7.44383">
        <ele>398.6</ele>
        <time>2015-05-01T07:31:49Z</time>
      </trkpt>
      <trkpt lat="43.79376" lon="7.44382">
        <ele>398.12</ele>
        <time>2015-05-01T07:31:50Z</time>
      </trkpt>
      <trkpt lat="43.79374" lon="7.44381">
        <ele>397.64</ele>
        <time>2015-05-01T07:31:51Z</time>
      </trkpt>
      <trkpt lat="43.79371" lon="7.44374">
        <ele>396.68</ele>
        <time>2015-05-01T07:31:56Z</time>
      </trkpt>
      <trkpt lat="43.7937" lon="7.44371">
        <ele>395.72</ele>
        <time>2015-05-01T07:31:58Z</time>
      </trkpt>
      <trkpt lat="43.79369" lon="7.44369">
        <ele>395.72</ele>
        <time>2015-05-01T07:31:59Z</time>
      </trkpt>
      <trkpt lat="43.7937" lon="7.44366">
        <ele>394.76</ele>
        <time>2015-05-01T07:32:02Z</time>
      </trkpt>
      <trkpt lat="43.79371" lon="7.44364">
        <ele>393.8</ele>
        <time>2015-05-01T07:32:03Z</time>
      </trkpt>
      <trkpt lat="43.79371" lon="7.44361">
        <ele>393.32</ele>
        <time>2015-05-01T07:32:05Z</time>
      </trkpt>
      <trkpt lat="43.7937" lon="7.44361">
        <ele>392.84</ele>
        <time>2015-05-01T07:32:06Z</time>
      </trkpt>
      <trkpt lat="43.79369" lon="7.4436">
        <ele>392.84</ele>
        <time>2015-05-01T07:32:07Z</time>
      </trkpt>
      <trkpt lat="43.79369" lon="7.44359">
        <ele>391.87</ele>
        <time>2015-05-01T07:32:08Z</time>
      </trkpt>
      <trkpt lat="43.79369" lon="7.44357">
        <ele>391.87</ele>
        <time>2015-05-01T07:32:09Z</time>
      </trkpt>
      <trkpt lat="43.79368" lon="7.44355">
        <ele>390.91</ele>
        <time>2015-05-01T07:32:10Z</time>
      </trkpt>
      <trkpt lat="43.79368" lon="7.44352">
        <ele>390.91</ele>
        <time>2015-05-01T07:32:11Z</time>
      </trkpt>
      <trkpt lat="43.79368" lon="7.4435">
        <ele>390.43</ele>
        <time>2015-05-01T07:32:12Z</time>
      </trkpt>
      <trkpt lat="43.7937" lon="7.44348">
        <ele>389.95</ele>
        <time>2015-05-01T07:32:14Z</time>
      </trkpt>
      <trkpt lat="43.79378" lon="7.44349">
        <ele>386.59</ele>
        <time>2015-05-01T07:32:26Z</time>
      </trkpt>
      <trkpt lat="43.79379" lon="7.44344">
        <ele>384.66</ele>
        <time>2015-05-01T07:32:32Z</time>
      </trkpt>
      <trkpt lat="43.79379" lon="7.44343">
        <ele>384.66</ele>
        <time>2015-05-01T07:32:33Z</time>
      </trkpt>
      <trkpt lat="43.79374" lon="7.44336">
        <ele>381.3</ele>
        <time>2015-05-01T07:32:43Z</time>
      </trkpt>
      <trkpt lat="43.79372" lon="7.44326">
        <ele>378.42</ele>
        <time>2015-05-01T07:32:55Z</time>
      </trkpt>
      <trkpt lat="43.79364" lon="7.44324">
        <ele>375.05</ele>
        <time>2015-05-01T07:33:06Z</time>
      </trkpt>
      <trkpt lat="43.79361" lon="7.44324">
        <ele>375.05</ele>
        <time>2015-05-01T07:33:08Z</time>
      </trkpt>
      <trkpt lat="43.79356" lon="7.44325">
        <ele>374.09</ele>
        <time>2015-05-01T07:33:24Z</time>
      </trkpt>
      <trkpt lat="43.79352" lon="7.44327">
        <ele>373.61</ele>
        <time>2015-05-01T07:33:31Z</time>
      </trkpt>
      <trkpt lat="43.79351" lon="7.44328">
        <ele>373.61</ele>
        <time>2015-05-01T07:33:32Z</time>
      </trkpt>
      <trkpt lat="43.7935" lon="7.44329">
        <ele>373.61</ele>
        <time>2015-05-01T07:33:33Z</time>
      </trkpt>
      <trkpt lat="43.79349" lon="7.4433">
        <ele>373.61</ele>
        <time>2015-05-01T07:33:34Z</time>
      </trkpt>
      <trkpt lat="43.79348" lon="7.4433">
        <ele>373.61</ele>
        <time>2015-05-01T07:33:35Z</time>
      </trkpt>
      <trkpt lat="43.79346" lon="7.44332">
        <ele>373.61</ele>
        <time>2015-05-01T07:33:38Z</time>
      </trkpt>
      <trkpt lat="43.79344" lon="7.44332">
        <ele>373.61</ele>
        <time>2015-05-01T07:33:39Z</time>
      </trkpt>
      <trkpt lat="43.7934" lon="7.44335">
        <ele>373.13</ele>
        <time>2015-05-01T07:33:43Z</time>
      </trkpt>
      <trkpt lat="43.7933" lon="7.44341">
        <ele>372.17</ele>
        <time>2015-05-01T07:33:57Z</time>
      </trkpt>
      <trkpt lat="43.79324" lon="7.44346">
        <ele>371.21</ele>
        <time>2015-05-01T07:34:08Z</time>
      </trkpt>
      <trkpt lat="43.79313" lon="7.44356">
        <ele>369.28</ele>
        <time>2015-05-01T07:34:21Z</time>
      </trkpt>
      <trkpt lat="43.79302" lon="7.4436">
        <ele>366.88</ele>
        <time>2015-05-01T07:34:35Z</time>
      </trkpt>
      <trkpt lat="43.79299" lon="7.44357">
        <ele>365.44</ele>
        <time>2015-05-01T07:34:40Z</time>
      </trkpt>
      <trkpt lat="43.79296" lon="7.44358">
        <ele>364.48</ele>
        <time>2015-05-01T07:34:56Z</time>
      </trkpt>
      <trkpt lat="43.79291" lon="7.44356">
        <ele>363.04</ele>
        <time>2015-05-01T07:35:11Z</time>
      </trkpt>
      <trkpt lat="43.79289" lon="7.44355">
        <ele>361.59</ele>
        <time>2015-05-01T07:35:14Z</time>
      </trkpt>
      <trkpt lat="43.79284" lon="7.44356">
        <ele>360.15</ele>
        <time>2015-05-01T07:35:25Z</time>
      </trkpt>
      <trkpt lat="43.79277" lon="7.44353">
        <ele>357.75</ele>
        <time>2015-05-01T07:35:41Z</time>
      </trkpt>
      <trkpt lat="43.79275" lon="7.44353">
        <ele>357.75</ele>
        <time>2015-05-01T07:35:42Z</time>
      </trkpt>
      <trkpt lat="43.79272" lon="7.44354">
        <ele>356.31</ele>
        <time>2015-05-01T07:35:46Z</time>
      </trkpt>
      <trkpt lat="43.79271" lon="7.44354">
        <ele>355.83</ele>
        <time>2015-05-01T07:35:47Z</time>
      </trkpt>
      <trkpt lat="43.79269" lon="7.44355">
        <ele>355.34</ele>
        <time>2015-05-01T07:35:48Z</time>
      </trkpt>
      <trkpt lat="43.79268" lon="7.44355">
        <ele>354.38</ele>
        <time>2015-05-01T07:35:49Z</time>
      </trkpt>
      <trkpt lat="43.79267" lon="7.44356">
        <ele>354.38</ele>
        <time>2015-05-01T07:35:50Z</time>
      </trkpt>
      <trkpt lat="43.7925" lon="7.44364">
        <ele>352.46</ele>
        <time>2015-05-01T07:36:03Z</time>
      </trkpt>
      <trkpt lat="43.79241" lon="7.44368">
        <ele>351.02</ele>
        <time>2015-05-01T07:36:11Z</time>
      </trkpt>
      <trkpt lat="43.7924" lon="7.44369">
        <ele>350.54</ele>
        <time>2015-05-01T07:36:12Z</time>
      </trkpt>
      <trkpt lat="43.79241" lon="7.44371">
        <ele>349.58</ele>
        <time>2015-05-01T07:36:24Z</time>
      </trkpt>
      <trkpt lat="43.79236" lon="7.44372">
        <ele>349.58</ele>
        <time>2015-05-01T07:36:29Z</time>
      </trkpt>
      <trkpt lat="43.79224" lon="7.44364">
        <ele>348.62</ele>
        <time>2015-05-01T07:36:40Z</time>
      </trkpt>
      <trkpt lat="43.79223" lon="7.44364">
        <ele>348.13</ele>
        <time>2015-05-01T07:36:41Z</time>
      </trkpt>
      <trkpt lat="43.79214" lon="7.44362">
        <ele>346.69</ele>
        <time>2015-05-01T07:36:47Z</time>
      </trkpt>
      <trkpt lat="43.79208" lon="7.44355">
        <ele>343.81</ele>
        <time>2015-05-01T07:36:53Z</time>
      </trkpt>
      <trkpt lat="43.792" lon="7.44351">
        <ele>342.85</ele>
        <time>2015-05-01T07:37:00Z</time>
      </trkpt>
      <trkpt lat="43.79196" lon="7.44349">
        <ele>342.37</ele>
        <time>2015-05-01T07:37:03Z</time>
      </trkpt>
      <trkpt lat="43.79194" lon="7.44348">
        <ele>342.37</ele>
        <time>2015-05-01T07:37:05Z</time>
      </trkpt>
      <trkpt lat="43.79191" lon="7.44345">
        <ele>340.92</ele>
        <time>2015-05-01T07:37:08Z</time>
      </trkpt>
      <trkpt lat="43.7919" lon="7.44345">
        <ele>340.92</ele>
        <time>2015-05-01T07:37:09Z</time>
      </trkpt>
      <trkpt lat="43.79189" lon="7.44345">
        <ele>340.44</ele>
        <time>2015-05-01T07:37:10Z</time>
      </trkpt>
      <trkpt lat="43.79174" lon="7.44353">
        <ele>338.04</ele>
        <time>2015-05-01T07:37:23Z</time>
      </trkpt>
      <trkpt lat="43.79165" lon="7.4436">
        <ele>337.56</ele>
        <time>2015-05-01T07:37:34Z</time>
      </trkpt>
      <trkpt lat="43.79154" lon="7.44368">
        <ele>336.12</ele>
        <time>2015-05-01T07:37:45Z</time>
      </trkpt>
      <trkpt lat="43.79148" lon="7.44362">
        <ele>333.23</ele>
        <time>2015-05-01T07:37:59Z</time>
      </trkpt>
      <trkpt lat="43.7915" lon="7.44366">
        <ele>334.68</ele>
        <time>2015-05-01T07:38:04Z</time>
      </trkpt>
      <trkpt lat="43.79148" lon="7.4437">
        <ele>335.64</ele>
        <time>2015-05-01T07:38:15Z</time>
      </trkpt>
      <trkpt lat="43.79143" lon="7.44379">
        <ele>336.12</ele>
        <time>2015-05-01T07:38:33Z</time>
      </trkpt>
      <trkpt lat="43.79139" lon="7.44387">
        <ele>333.71</ele>
        <time>2015-05-01T07:38:42Z</time>
      </trkpt>
      <trkpt lat="43.79137" lon="7.44393">
        <ele>332.75</ele>
        <time>2015-05-01T07:38:59Z</time>
      </trkpt>
      <trkpt lat="43.79131" lon="7.44402">
        <ele>331.31</ele>
        <time>2015-05-01T07:39:11Z</time>
      </trkpt>
      <trkpt lat="43.79128" lon="7.44402">
        <ele>331.31</ele>
        <time>2015-05-01T07:39:16Z</time>
      </trkpt>
      <trkpt lat="43.79124" lon="7.44404">
        <ele>331.31</ele>
        <time>2015-05-01T07:39:21Z</time>
      </trkpt>
      <trkpt lat="43.79116" lon="7.44423">
        <ele>331.31</ele>
        <time>2015-05-01T07:39:34Z</time>
      </trkpt>
      <trkpt lat="43.79113" lon="7.44429">
        <ele>331.31</ele>
        <time>2015-05-01T07:39:39Z</time>
      </trkpt>
      <trkpt lat="43.79112" lon="7.4443">
        <ele>331.31</ele>
        <time>2015-05-01T07:39:40Z</time>
      </trkpt>
      <trkpt lat="43.79104" lon="7.44447">
        <ele>333.23</ele>
        <time>2015-05-01T07:39:54Z</time>
      </trkpt>
      <trkpt lat="43.79092" lon="7.44456">
        <ele>335.16</ele>
        <time>2015-05-01T07:40:06Z</time>
      </trkpt>
      <trkpt lat="43.79083" lon="7.44462">
        <ele>334.68</ele>
        <time>2015-05-01T07:40:21Z</time>
      </trkpt>
      <trkpt lat="43.79078" lon="7.44465">
        <ele>335.64</ele>
        <time>2015-05-01T07:40:37Z</time>
      </trkpt>
      <trkpt lat="43.79071" lon="7.4447">
        <ele>336.12</ele>
        <time>2015-05-01T07:40:52Z</time>
      </trkpt>
      <trkpt lat="43.79061" lon="7.44475">
        <ele>337.08</ele>
        <time>2015-05-01T07:41:01Z</time>
      </trkpt>
      <trkpt lat="43.79059" lon="7.44476">
        <ele>337.08</ele>
        <time>2015-05-01T07:41:02Z</time>
      </trkpt>
      <trkpt lat="43.79058" lon="7.44477">
        <ele>337.08</ele>
        <time>2015-05-01T07:41:03Z</time>
      </trkpt>
      <trkpt lat="43.79056" lon="7.44479">
        <ele>337.08</ele>
        <time>2015-05-01T07:41:04Z</time>
      </trkpt>
      <trkpt lat="43.79055" lon="7.4448">
        <ele>337.08</ele>
        <time>2015-05-01T07:41:05Z</time>
      </trkpt>
      <trkpt lat="43.79054" lon="7.44481">
        <ele>337.08</ele>
        <time>2015-05-01T07:41:06Z</time>
      </trkpt>
      <trkpt lat="43.79053" lon="7.44483">
        <ele>337.08</ele>
        <time>2015-05-01T07:41:07Z</time>
      </trkpt>
      <trkpt lat="43.79037" lon="7.44502">
        <ele>334.68</ele>
        <time>2015-05-01T07:41:23Z</time>
      </trkpt>
      <trkpt lat="43.79028" lon="7.44508">
        <ele>334.68</ele>
        <time>2015-05-01T07:41:37Z</time>
      </trkpt>
      <trkpt lat="43.79022" lon="7.44518">
        <ele>336.12</ele>
        <time>2015-05-01T07:42:00Z</time>
      </trkpt>
      <trkpt lat="43.7902" lon="7.4452">
        <ele>338.04</ele>
        <time>2015-05-01T07:42:07Z</time>
      </trkpt>
      <trkpt lat="43.7902" lon="7.44518">
        <ele>338.04</ele>
        <time>2015-05-01T07:42:08Z</time>
      </trkpt>
      <trkpt lat="43.79023" lon="7.44509">
        <ele>339.96</ele>
        <time>2015-05-01T07:42:15Z</time>
      </trkpt>
      <trkpt lat="43.79021" lon="7.44509">
        <ele>339.96</ele>
        <time>2015-05-01T07:42:16Z</time>
      </trkpt>
      <trkpt lat="43.7902" lon="7.44508">
        <ele>340.44</ele>
        <time>2015-05-01T07:42:17Z</time>
      </trkpt>
      <trkpt lat="43.79018" lon="7.44503">
        <ele>341.41</ele>
        <time>2015-05-01T07:42:30Z</time>
      </trkpt>
      <trkpt lat="43.7901" lon="7.445">
        <ele>342.85</ele>
        <time>2015-05-01T07:42:44Z</time>
      </trkpt>
      <trkpt lat="43.79003" lon="7.44495">
        <ele>345.25</ele>
        <time>2015-05-01T07:42:57Z</time>
      </trkpt>
      <trkpt lat="43.78997" lon="7.44493">
        <ele>345.25</ele>
        <time>2015-05-01T07:43:05Z</time>
      </trkpt>
      <trkpt lat="43.78995" lon="7.44495">
        <ele>345.73</ele>
        <time>2015-05-01T07:43:17Z</time>
      </trkpt>
      <trkpt lat="43.78995" lon="7.44498">
        <ele>345.73</ele>
        <time>2015-05-01T07:43:34Z</time>
      </trkpt>
      <trkpt lat="43.78992" lon="7.44495">
        <ele>345.73</ele>
        <time>2015-05-01T07:43:39Z</time>
      </trkpt>
      <trkpt lat="43.78987" lon="7.44495">
        <ele>346.21</ele>
        <time>2015-05-01T07:43:49Z</time>
      </trkpt>
      <trkpt lat="43.78986" lon="7.44497">
        <ele>346.69</ele>
        <time>2015-05-01T07:44:16Z</time>
      </trkpt>
      <trkpt lat="43.78986" lon="7.44493">
        <ele>345.73</ele>
        <time>2015-05-01T07:44:24Z</time>
      </trkpt>
      <trkpt lat="43.78985" lon="7.44492">
        <ele>345.73</ele>
        <time>2015-05-01T07:44:25Z</time>
      </trkpt>
      <trkpt lat="43.78985" lon="7.44491">
        <ele>345.73</ele>
        <time>2015-05-01T07:44:26Z</time>
      </trkpt>
      <trkpt lat="43.78979" lon="7.44481">
        <ele>345.73</ele>
        <time>2015-05-01T07:44:41Z</time>
      </trkpt>
      <trkpt lat="43.78977" lon="7.44474">
        <ele>346.69</ele>
        <time>2015-05-01T07:44:59Z</time>
      </trkpt>
      <trkpt lat="43.7897" lon="7.44465">
        <ele>347.17</ele>
        <time>2015-05-01T07:45:08Z</time>
      </trkpt>
      <trkpt lat="43.78959" lon="7.44459">
        <ele>348.13</ele>
        <time>2015-05-01T07:45:19Z</time>
      </trkpt>
      <trkpt lat="43.78952" lon="7.44453">
        <ele>348.62</ele>
        <time>2015-05-01T07:45:33Z</time>
      </trkpt>
      <trkpt lat="43.78943" lon="7.44448">
        <ele>349.1</ele>
        <time>2015-05-01T07:45:45Z</time>
      </trkpt>
      <trkpt lat="43.7893" lon="7.44442">
        <ele>351.98</ele>
        <time>2015-05-01T07:45:55Z</time>
      </trkpt>
      <trkpt lat="43.78928" lon="7.44442">
        <ele>351.98</ele>
        <time>2015-05-01T07:45:56Z</time>
      </trkpt>
      <trkpt lat="43.78927" lon="7.44442">
        <ele>351.98</ele>
        <time>2015-05-01T07:45:57Z</time>
      </trkpt>
      <trkpt lat="43.78925" lon="7.44442">
        <ele>352.46</ele>
        <time>2015-05-01T07:45:58Z</time>
      </trkpt>
      <trkpt lat="43.78924" lon="7.44442">
        <ele>352.94</ele>
        <time>2015-05-01T07:45:59Z</time>
      </trkpt>
      <trkpt lat="43.78908" lon="7.44435">
        <ele>355.34</ele>
        <time>2015-05-01T07:46:13Z</time>
      </trkpt>
      <trkpt lat="43.78907" lon="7.44433">
        <ele>355.83</ele>
        <time>2015-05-01T07:46:26Z</time>
      </trkpt>
      <trkpt lat="43.78911" lon="7.44434">
        <ele>355.83</ele>
        <time>2015-05-01T07:46:54Z</time>
      </trkpt>
      <trkpt lat="43.78903" lon="7.44437">
        <ele>356.31</ele>
        <time>2015-05-01T07:47:07Z</time>
      </trkpt>
      <trkpt lat="43.78902" lon="7.4443">
        <ele>356.31</ele>
        <time>2015-05-01T07:47:28Z</time>
      </trkpt>
      <trkpt lat="43.789" lon="7.44431">
        <ele>357.27</ele>
        <time>2015-05-01T07:47:48Z</time>
      </trkpt>
      <trkpt lat="43.78901" lon="7.44433">
        <ele>357.27</ele>
        <time>2015-05-01T07:48:09Z</time>
      </trkpt>
      <trkpt lat="43.78897" lon="7.44432">
        <ele>357.27</ele>
        <time>2015-05-01T07:48:25Z</time>
      </trkpt>
      <trkpt lat="43.7889" lon="7.44425">
        <ele>357.27</ele>
        <time>2015-05-01T07:48:44Z</time>
      </trkpt>
      <trkpt lat="43.78878" lon="7.44419">
        <ele>358.23</ele>
        <time>2015-05-01T07:48:56Z</time>
      </trkpt>
      <trkpt lat="43.78875" lon="7.44414">
        <ele>358.71</ele>
        <time>2015-05-01T07:49:09Z</time>
      </trkpt>
      <trkpt lat="43.78871" lon="7.44414">
        <ele>358.71</ele>
        <time>2015-05-01T07:49:20Z</time>
      </trkpt>
      <trkpt lat="43.78869" lon="7.44413">
        <ele>359.19</ele>
        <time>2015-05-01T07:49:21Z</time>
      </trkpt>
      <trkpt lat="43.78868" lon="7.44412">
        <ele>359.19</ele>
        <time>2015-05-01T07:49:22Z</time>
      </trkpt>
      <trkpt lat="43.78855" lon="7.44402">
        <ele>359.19</ele>
        <time>2015-05-01T07:49:34Z</time>
      </trkpt>
      <trkpt lat="43.78848" lon="7.44395">
        <ele>359.19</ele>
        <time>2015-05-01T07:49:48Z</time>
      </trkpt>
      <trkpt lat="43.78841" lon="7.44385">
        <ele>358.23</ele>
        <time>2015-05-01T07:50:03Z</time>
      </trkpt>
      <trkpt lat="43.78826" lon="7.44369">
        <ele>357.75</ele>
        <time>2015-05-01T07:50:17Z</time>
      </trkpt>
      <trkpt lat="43.78813" lon="7.44361">
        <ele>357.75</ele>
        <time>2015-05-01T07:50:31Z</time>
      </trkpt>
      <trkpt lat="43.788" lon="7.44351">
        <ele>357.75</ele>
        <time>2015-05-01T07:50:44Z</time>
      </trkpt>
      <trkpt lat="43.78793" lon="7.4434">
        <ele>357.75</ele>
        <time>2015-05-01T07:51:01Z</time>
      </trkpt>
      <trkpt lat="43.7879" lon="7.4434">
        <ele>357.75</ele>
        <time>2015-05-01T07:51:09Z</time>
      </trkpt>
      <trkpt lat="43.78789" lon="7.44338">
        <ele>357.75</ele>
        <time>2015-05-01T07:51:10Z</time>
      </trkpt>
      <trkpt lat="43.78788" lon="7.44335">
        <ele>359.19</ele>
        <time>2015-05-01T07:51:11Z</time>
      </trkpt>
      <trkpt lat="43.78787" lon="7.44332">
        <ele>359.19</ele>
        <time>2015-05-01T07:51:12Z</time>
      </trkpt>
      <trkpt lat="43.78786" lon="7.44329">
        <ele>359.19</ele>
        <time>2015-05-01T07:51:13Z</time>
      </trkpt>
      <trkpt lat="43.78786" lon="7.44326">
        <ele>359.19</ele>
        <time>2015-05-01T07:51:14Z</time>
      </trkpt>
      <trkpt lat="43.78779" lon="7.44314">
        <ele>361.59</ele>
        <time>2015-05-01T07:51:26Z</time>
      </trkpt>
      <trkpt lat="43.78768" lon="7.44306">
        <ele>363.04</ele>
        <time>2015-05-01T07:51:37Z</time>
      </trkpt>
      <trkpt lat="43.78762" lon="7.44304">
        <ele>363.52</ele>
        <time>2015-05-01T07:51:43Z</time>
      </trkpt>
      <trkpt lat="43.7876" lon="7.44304">
        <ele>363.52</ele>
        <time>2015-05-01T07:51:45Z</time>
      </trkpt>
      <trkpt lat="43.78749" lon="7.44301">
        <ele>362.07</ele>
        <time>2015-05-01T07:51:58Z</time>
      </trkpt>
      <trkpt lat="43.78742" lon="7.44299">
        <ele>361.59</ele>
        <time>2015-05-01T07:52:10Z</time>
      </trkpt>
      <trkpt lat="43.78725" lon="7.44299">
        <ele>359.67</ele>
        <time>2015-05-01T07:52:23Z</time>
      </trkpt>
      <trkpt lat="43.78718" lon="7.443">
        <ele>359.19</ele>
        <time>2015-05-01T07:52:29Z</time>
      </trkpt>
      <trkpt lat="43.78705" lon="7.44301">
        <ele>361.11</ele>
        <time>2015-05-01T07:52:40Z</time>
      </trkpt>
      <trkpt lat="43.78701" lon="7.44302">
        <ele>361.11</ele>
        <time>2015-05-01T07:52:44Z</time>
      </trkpt>
      <trkpt lat="43.787" lon="7.44302">
        <ele>361.11</ele>
        <time>2015-05-01T07:52:45Z</time>
      </trkpt>
      <trkpt lat="43.78698" lon="7.44303">
        <ele>361.11</ele>
        <time>2015-05-01T07:52:46Z</time>
      </trkpt>
      <trkpt lat="43.78697" lon="7.44304">
        <ele>361.11</ele>
        <time>2015-05-01T07:52:47Z</time>
      </trkpt>
      <trkpt lat="43.7869" lon="7.44308">
        <ele>359.67</ele>
        <time>2015-05-01T07:52:55Z</time>
      </trkpt>
      <trkpt lat="43.78678" lon="7.4432">
        <ele>358.23</ele>
        <time>2015-05-01T07:53:10Z</time>
      </trkpt>
      <trkpt lat="43.78677" lon="7.44321">
        <ele>358.23</ele>
        <time>2015-05-01T07:53:11Z</time>
      </trkpt>
      <trkpt lat="43.78668" lon="7.44319">
        <ele>357.75</ele>
        <time>2015-05-01T07:53:24Z</time>
      </trkpt>
      <trkpt lat="43.78664" lon="7.44315">
        <ele>357.75</ele>
        <time>2015-05-01T07:53:29Z</time>
      </trkpt>
      <trkpt lat="43.78663" lon="7.44314">
        <ele>357.75</ele>
        <time>2015-05-01T07:53:30Z</time>
      </trkpt>
      <trkpt lat="43.78656" lon="7.44305">
        <ele>357.75</ele>
        <time>2015-05-01T07:53:37Z</time>
      </trkpt>
      <trkpt lat="43.78649" lon="7.44284">
        <ele>359.19</ele>
        <time>2015-05-01T07:53:50Z</time>
      </trkpt>
      <trkpt lat="43.78634" lon="7.44272">
        <ele>359.67</ele>
        <time>2015-05-01T07:54:03Z</time>
      </trkpt>
      <trkpt lat="43.78615" lon="7.44266">
        <ele>361.59</ele>
        <time>2015-05-01T07:54:17Z</time>
      </trkpt>
      <trkpt lat="43.78607" lon="7.4426">
        <ele>362.55</ele>
        <time>2015-05-01T07:54:30Z</time>
      </trkpt>
      <trkpt lat="43.78602" lon="7.44258">
        <ele>364.96</ele>
        <time>2015-05-01T07:54:44Z</time>
      </trkpt>
      <trkpt lat="43.78606" lon="7.44251">
        <ele>366.4</ele>
        <time>2015-05-01T07:54:56Z</time>
      </trkpt>
      <trkpt lat="43.78606" lon="7.44249">
        <ele>367.36</ele>
        <time>2015-05-01T07:54:58Z</time>
      </trkpt>
      <trkpt lat="43.78601" lon="7.44248">
        <ele>369.28</ele>
        <time>2015-05-01T07:55:10Z</time>
      </trkpt>
      <trkpt lat="43.78603" lon="7.44242">
        <ele>371.21</ele>
        <time>2015-05-01T07:55:23Z</time>
      </trkpt>
      <trkpt lat="43.78598" lon="7.44237">
        <ele>373.61</ele>
        <time>2015-05-01T07:55:37Z</time>
      </trkpt>
      <trkpt lat="43.78597" lon="7.44234">
        <ele>374.57</ele>
        <time>2015-05-01T07:55:40Z</time>
      </trkpt>
      <trkpt lat="43.78592" lon="7.44227">
        <ele>376.49</ele>
        <time>2015-05-01T07:55:46Z</time>
      </trkpt>
      <trkpt lat="43.78591" lon="7.44225">
        <ele>376.49</ele>
        <time>2015-05-01T07:55:47Z</time>
      </trkpt>
      <trkpt lat="43.78581" lon="7.44217">
        <ele>378.42</ele>
        <time>2015-05-01T07:56:00Z</time>
      </trkpt>
      <trkpt lat="43.78577" lon="7.44214">
        <ele>378.42</ele>
        <time>2015-05-01T07:56:16Z</time>
      </trkpt>
      <trkpt lat="43.78574" lon="7.44209">
        <ele>378.42</ele>
        <time>2015-05-01T07:56:21Z</time>
      </trkpt>
      <trkpt lat="43.78573" lon="7.44207">
        <ele>378.42</ele>
        <time>2015-05-01T07:56:22Z</time>
      </trkpt>
      <trkpt lat="43.78567" lon="7.44189">
        <ele>381.3</ele>
        <time>2015-05-01T07:56:36Z</time>
      </trkpt>
      <trkpt lat="43.78567" lon="7.44188">
        <ele>381.3</ele>
        <time>2015-05-01T07:56:37Z</time>
      </trkpt>
      <trkpt lat="43.78567" lon="7.44186">
        <ele>381.78</ele>
        <time>2015-05-01T07:56:38Z</time>
      </trkpt>
      <trkpt lat="43.78567" lon="7.44173">
        <ele>384.18</ele>
        <time>2015-05-01T07:56:49Z</time>
      </trkpt>
      <trkpt lat="43.78571" lon="7.44166">
        <ele>386.11</ele>
        <time>2015-05-01T07:57:04Z</time>
      </trkpt>
      <trkpt lat="43.78573" lon="7.4416">
        <ele>388.03</ele>
        <time>2015-05-01T07:57:15Z</time>
      </trkpt>
      <trkpt lat="43.7857" lon="7.44148">
        <ele>388.51</ele>
        <time>2015-05-01T07:57:28Z</time>
      </trkpt>
      <trkpt lat="43.78574" lon="7.44131">
        <ele>388.51</ele>
        <time>2015-05-01T07:57:45Z</time>
      </trkpt>
      <trkpt lat="43.78577" lon="7.44117">
        <ele>388.51</ele>
        <time>2015-05-01T07:57:57Z</time>
      </trkpt>
      <trkpt lat="43.78578" lon="7.44104">
        <ele>388.99</ele>
        <time>2015-05-01T07:58:10Z</time>
      </trkpt>
      <trkpt lat="43.78574" lon="7.44099">
        <ele>388.99</ele>
        <time>2015-05-01T07:58:28Z</time>
      </trkpt>
      <trkpt lat="43.78573" lon="7.44094">
        <ele>389.47</ele>
        <time>2015-05-01T07:58:35Z</time>
      </trkpt>
      <trkpt lat="43.78561" lon="7.44078">
        <ele>390.43</ele>
        <time>2015-05-01T07:58:50Z</time>
      </trkpt>
      <trkpt lat="43.78561" lon="7.44077">
        <ele>390.43</ele>
        <time>2015-05-01T07:58:51Z</time>
      </trkpt>
      <trkpt lat="43.78559" lon="7.44073">
        <ele>390.91</ele>
        <time>2015-05-01T07:58:54Z</time>
      </trkpt>
      <trkpt lat="43.78549" lon="7.44061">
        <ele>390.91</ele>
        <time>2015-05-01T07:59:07Z</time>
      </trkpt>
      <trkpt lat="43.7854" lon="7.44055">
        <ele>390.91</ele>
        <time>2015-05-01T07:59:14Z</time>
      </trkpt>
      <trkpt lat="43.78538" lon="7.44054">
        <ele>390.91</ele>
        <time>2015-05-01T07:59:15Z</time>
      </trkpt>
      <trkpt lat="43.78522" lon="7.44044">
        <ele>390.91</ele>
        <time>2015-05-01T07:59:26Z</time>
      </trkpt>
      <trkpt lat="43.78507" lon="7.44043">
        <ele>390.91</ele>
        <time>2015-05-01T07:59:37Z</time>
      </trkpt>
      <trkpt lat="43.78506" lon="7.44044">
        <ele>390.91</ele>
        <time>2015-05-01T07:59:38Z</time>
      </trkpt>
      <trkpt lat="43.78504" lon="7.44045">
        <ele>390.91</ele>
        <time>2015-05-01T07:59:39Z</time>
      </trkpt>
      <trkpt lat="43.78503" lon="7.44053">
        <ele>391.39</ele>
        <time>2015-05-01T07:59:43Z</time>
      </trkpt>
      <trkpt lat="43.78503" lon="7.44056">
        <ele>391.39</ele>
        <time>2015-05-01T07:59:44Z</time>
      </trkpt>
      <trkpt lat="43.78502" lon="7.44065">
        <ele>391.39</ele>
        <time>2015-05-01T07:59:49Z</time>
      </trkpt>
      <trkpt lat="43.78501" lon="7.44067">
        <ele>391.39</ele>
        <time>2015-05-01T07:59:50Z</time>
      </trkpt>
      <trkpt lat="43.78499" lon="7.44071">
        <ele>391.39</ele>
        <time>2015-05-01T07:59:52Z</time>
      </trkpt>
      <trkpt lat="43.78498" lon="7.44073">
        <ele>391.39</ele>
        <time>2015-05-01T07:59:53Z</time>
      </trkpt>
      <trkpt lat="43.78497" lon="7.44075">
        <ele>391.39</ele>
        <time>2015-05-01T07:59:54Z</time>
      </trkpt>
      <trkpt lat="43.78495" lon="7.44079">
        <ele>391.87</ele>
        <time>2015-05-01T07:59:57Z</time>
      </trkpt>
      <trkpt lat="43.78494" lon="7.44081">
        <ele>391.87</ele>
        <time>2015-05-01T07:59:58Z</time>
      </trkpt>
      <trkpt lat="43.78493" lon="7.44083">
        <ele>392.36</ele>
        <time>2015-05-01T07:59:59Z</time>
      </trkpt>
      <trkpt lat="43.78492" lon="7.44084">
        <ele>392.36</ele>
        <time>2015-05-01T08:00:00Z</time>
      </trkpt>
      <trkpt lat="43.78491" lon="7.44086">
        <ele>392.36</ele>
        <time>2015-05-01T08:00:01Z</time>
      </trkpt>
      <trkpt lat="43.7849" lon="7.44088">
        <ele>392.84</ele>
        <time>2015-05-01T08:00:02Z</time>
      </trkpt>
      <trkpt lat="43.78482" lon="7.44101">
        <ele>394.28</ele>
        <time>2015-05-01T08:00:12Z</time>
      </trkpt>
      <trkpt lat="43.78474" lon="7.44111">
        <ele>395.72</ele>
        <time>2015-05-01T08:00:20Z</time>
      </trkpt>
      <trkpt lat="43.78473" lon="7.44113">
        <ele>395.72</ele>
        <time>2015-05-01T08:00:21Z</time>
      </trkpt>
      <trkpt lat="43.78472" lon="7.44115">
        <ele>395.72</ele>
        <time>2015-05-01T08:00:22Z</time>
      </trkpt>
      <trkpt lat="43.78468" lon="7.44119">
        <ele>396.2</ele>
        <time>2015-05-01T08:00:26Z</time>
      </trkpt>
      <trkpt lat="43.78467" lon="7.4412">
        <ele>396.2</ele>
        <time>2015-05-01T08:00:27Z</time>
      </trkpt>
      <trkpt lat="43.78454" lon="7.44131">
        <ele>398.12</ele>
        <time>2015-05-01T08:00:38Z</time>
      </trkpt>
      <trkpt lat="43.78445" lon="7.44141">
        <ele>399.57</ele>
        <time>2015-05-01T08:00:48Z</time>
      </trkpt>
      <trkpt lat="43.78441" lon="7.44155">
        <ele>400.53</ele>
        <time>2015-05-01T08:01:01Z</time>
      </trkpt>
      <trkpt lat="43.78438" lon="7.44159">
        <ele>401.49</ele>
        <time>2015-05-01T08:01:13Z</time>
      </trkpt>
      <trkpt lat="43.78436" lon="7.44151">
        <ele>401.97</ele>
        <time>2015-05-01T08:01:19Z</time>
      </trkpt>
      <trkpt lat="43.78436" lon="7.44143">
        <ele>402.45</ele>
        <time>2015-05-01T08:01:25Z</time>
      </trkpt>
      <trkpt lat="43.7844" lon="7.44138">
        <ele>402.93</ele>
        <time>2015-05-01T08:01:30Z</time>
      </trkpt>
      <trkpt lat="43.78442" lon="7.44135">
        <ele>403.41</ele>
        <time>2015-05-01T08:01:34Z</time>
      </trkpt>
      <trkpt lat="43.78453" lon="7.44121">
        <ele>404.85</ele>
        <time>2015-05-01T08:01:44Z</time>
      </trkpt>
      <trkpt lat="43.78458" lon="7.44112">
        <ele>406.29</ele>
        <time>2015-05-01T08:01:50Z</time>
      </trkpt>
      <trkpt lat="43.78459" lon="7.4411">
        <ele>406.29</ele>
        <time>2015-05-01T08:01:51Z</time>
      </trkpt>
      <trkpt lat="43.7846" lon="7.44108">
        <ele>406.77</ele>
        <time>2015-05-01T08:01:52Z</time>
      </trkpt>
      <trkpt lat="43.78464" lon="7.44097">
        <ele>407.74</ele>
        <time>2015-05-01T08:01:58Z</time>
      </trkpt>
      <trkpt lat="43.78464" lon="7.44096">
        <ele>407.74</ele>
        <time>2015-05-01T08:01:59Z</time>
      </trkpt>
      <trkpt lat="43.78463" lon="7.44094">
        <ele>408.22</ele>
        <time>2015-05-01T08:02:00Z</time>
      </trkpt>
      <trkpt lat="43.78461" lon="7.44094">
        <ele>408.22</ele>
        <time>2015-05-01T08:02:02Z</time>
      </trkpt>
      <trkpt lat="43.7846" lon="7.44094">
        <ele>409.18</ele>
        <time>2015-05-01T08:02:03Z</time>
      </trkpt>
      <trkpt lat="43.78458" lon="7.44094">
        <ele>409.18</ele>
        <time>2015-05-01T08:02:04Z</time>
      </trkpt>
      <trkpt lat="43.78444" lon="7.44107">
        <ele>410.62</ele>
        <time>2015-05-01T08:02:17Z</time>
      </trkpt>
      <trkpt lat="43.78447" lon="7.44112">
        <ele>410.62</ele>
        <time>2015-05-01T08:02:37Z</time>
      </trkpt>
      <trkpt lat="43.78445" lon="7.44114">
        <ele>410.62</ele>
        <time>2015-05-01T08:02:57Z</time>
      </trkpt>
      <trkpt lat="43.78443" lon="7.44113">
        <ele>411.1</ele>
        <time>2015-05-01T08:02:59Z</time>
      </trkpt>
      <trkpt lat="43.78442" lon="7.44114">
        <ele>411.1</ele>
        <time>2015-05-01T08:03:01Z</time>
      </trkpt>
      <trkpt lat="43.78441" lon="7.44115">
        <ele>411.1</ele>
        <time>2015-05-01T08:03:02Z</time>
      </trkpt>
      <trkpt lat="43.78428" lon="7.4413">
        <ele>413.5</ele>
        <time>2015-05-01T08:03:14Z</time>
      </trkpt>
      <trkpt lat="43.78414" lon="7.44146">
        <ele>414.95</ele>
        <time>2015-05-01T08:03:27Z</time>
      </trkpt>
      <trkpt lat="43.78409" lon="7.4415">
        <ele>415.43</ele>
        <time>2015-05-01T08:03:31Z</time>
      </trkpt>
      <trkpt lat="43.78395" lon="7.44162">
        <ele>416.87</ele>
        <time>2015-05-01T08:03:42Z</time>
      </trkpt>
      <trkpt lat="43.78389" lon="7.44169">
        <ele>417.35</ele>
        <time>2015-05-01T08:03:48Z</time>
      </trkpt>
      <trkpt lat="43.78391" lon="7.44174">
        <ele>417.83</ele>
        <time>2015-05-01T08:03:59Z</time>
      </trkpt>
      <trkpt lat="43.78386" lon="7.4418">
        <ele>418.79</ele>
        <time>2015-05-01T08:04:25Z</time>
      </trkpt>
      <trkpt lat="43.78384" lon="7.44183">
        <ele>418.79</ele>
        <time>2015-05-01T08:04:29Z</time>
      </trkpt>
      <trkpt lat="43.78379" lon="7.44185">
        <ele>419.27</ele>
        <time>2015-05-01T08:04:34Z</time>
      </trkpt>
      <trkpt lat="43.78371" lon="7.44194">
        <ele>420.23</ele>
        <time>2015-05-01T08:04:44Z</time>
      </trkpt>
      <trkpt lat="43.78359" lon="7.44204">
        <ele>421.19</ele>
        <time>2015-05-01T08:04:56Z</time>
      </trkpt>
      <trkpt lat="43.78356" lon="7.44207">
        <ele>421.19</ele>
        <time>2015-05-01T08:05:00Z</time>
      </trkpt>
      <trkpt lat="43.78354" lon="7.44209">
        <ele>421.19</ele>
        <time>2015-05-01T08:05:02Z</time>
      </trkpt>
      <trkpt lat="43.78343" lon="7.4422">
        <ele>421.68</ele>
        <time>2015-05-01T08:05:16Z</time>
      </trkpt>
      <trkpt lat="43.7833" lon="7.44227">
        <ele>421.68</ele>
        <time>2015-05-01T08:05:29Z</time>
      </trkpt>
      <trkpt lat="43.78317" lon="7.44221">
        <ele>421.68</ele>
        <time>2015-05-01T08:05:41Z</time>
      </trkpt>
      <trkpt lat="43.78312" lon="7.44219">
        <ele>421.68</ele>
        <time>2015-05-01T08:05:45Z</time>
      </trkpt>
      <trkpt lat="43.78297" lon="7.4422">
        <ele>421.68</ele>
        <time>2015-05-01T08:05:57Z</time>
      </trkpt>
      <trkpt lat="43.78281" lon="7.44234">
        <ele>422.64</ele>
        <time>2015-05-01T08:06:13Z</time>
      </trkpt>
      <trkpt lat="43.78265" lon="7.44246">
        <ele>422.64</ele>
        <time>2015-05-01T08:06:27Z</time>
      </trkpt>
      <trkpt lat="43.7825" lon="7.44256">
        <ele>422.64</ele>
        <time>2015-05-01T08:06:40Z</time>
      </trkpt>
      <trkpt lat="43.78246" lon="7.4426">
        <ele>422.64</ele>
        <time>2015-05-01T08:06:46Z</time>
      </trkpt>
      <trkpt lat="43.78245" lon="7.44261">
        <ele>422.64</ele>
        <time>2015-05-01T08:06:47Z</time>
      </trkpt>
      <trkpt lat="43.78244" lon="7.44263">
        <ele>422.64</ele>
        <time>2015-05-01T08:06:49Z</time>
      </trkpt>
      <trkpt lat="43.78243" lon="7.44263">
        <ele>422.64</ele>
        <time>2015-05-01T08:06:50Z</time>
      </trkpt>
      <trkpt lat="43.78242" lon="7.44264">
        <ele>422.64</ele>
        <time>2015-05-01T08:06:51Z</time>
      </trkpt>
      <trkpt lat="43.78241" lon="7.44264">
        <ele>422.64</ele>
        <time>2015-05-01T08:06:52Z</time>
      </trkpt>
      <trkpt lat="43.7824" lon="7.44265">
        <ele>422.64</ele>
        <time>2015-05-01T08:06:53Z</time>
      </trkpt>
      <trkpt lat="43.78239" lon="7.44266">
        <ele>422.64</ele>
        <time>2015-05-01T08:06:54Z</time>
      </trkpt>
      <trkpt lat="43.78238" lon="7.44267">
        <ele>422.64</ele>
        <time>2015-05-01T08:06:55Z</time>
      </trkpt>
      <trkpt lat="43.78237" lon="7.44268">
        <ele>422.64</ele>
        <time>2015-05-01T08:06:56Z</time>
      </trkpt>
      <trkpt lat="43.78229" lon="7.44275">
        <ele>422.64</ele>
        <time>2015-05-01T08:07:04Z</time>
      </trkpt>
      <trkpt lat="43.78219" lon="7.4428">
        <ele>422.64</ele>
        <time>2015-05-01T08:07:13Z</time>
      </trkpt>
      <trkpt lat="43.78216" lon="7.44282">
        <ele>422.64</ele>
        <time>2015-05-01T08:07:16Z</time>
      </trkpt>
      <trkpt lat="43.78215" lon="7.44283">
        <ele>422.64</ele>
        <time>2015-05-01T08:07:17Z</time>
      </trkpt>
      <trkpt lat="43.78203" lon="7.44288">
        <ele>423.12</ele>
        <time>2015-05-01T08:07:27Z</time>
      </trkpt>
      <trkpt lat="43.78202" lon="7.44289">
        <ele>423.12</ele>
        <time>2015-05-01T08:07:28Z</time>
      </trkpt>
      <trkpt lat="43.78185" lon="7.4429">
        <ele>424.56</ele>
        <time>2015-05-01T08:07:41Z</time>
      </trkpt>
      <trkpt lat="43.78181" lon="7.44291">
        <ele>424.56</ele>
        <time>2015-05-01T08:07:44Z</time>
      </trkpt>
      <trkpt lat="43.7818" lon="7.44292">
        <ele>425.04</ele>
        <time>2015-05-01T08:07:45Z</time>
      </trkpt>
      <trkpt lat="43.78169" lon="7.44303">
        <ele>426.48</ele>
        <time>2015-05-01T08:07:57Z</time>
      </trkpt>
      <trkpt lat="43.78162" lon="7.44315">
        <ele>427.92</ele>
        <time>2015-05-01T08:08:07Z</time>
      </trkpt>
      <trkpt lat="43.78161" lon="7.44316">
        <ele>427.92</ele>
        <time>2015-05-01T08:08:08Z</time>
      </trkpt>
      <trkpt lat="43.78157" lon="7.44322">
        <ele>428.89</ele>
        <time>2015-05-01T08:08:13Z</time>
      </trkpt>
      <trkpt lat="43.78154" lon="7.44327">
        <ele>429.37</ele>
        <time>2015-05-01T08:08:17Z</time>
      </trkpt>
      <trkpt lat="43.78147" lon="7.44337">
        <ele>430.81</ele>
        <time>2015-05-01T08:08:29Z</time>
      </trkpt>
      <trkpt lat="43.78148" lon="7.44337">
        <ele>431.29</ele>
        <time>2015-05-01T08:08:50Z</time>
      </trkpt>
      <trkpt lat="43.78148" lon="7.44338">
        <ele>431.77</ele>
        <time>2015-05-01T08:09:15Z</time>
      </trkpt>
      <trkpt lat="43.78146" lon="7.44336">
        <ele>431.77</ele>
        <time>2015-05-01T08:09:37Z</time>
      </trkpt>
      <trkpt lat="43.78147" lon="7.44336">
        <ele>431.77</ele>
        <time>2015-05-01T08:10:01Z</time>
      </trkpt>
      <trkpt lat="43.78148" lon="7.44338">
        <ele>431.77</ele>
        <time>2015-05-01T08:10:20Z</time>
      </trkpt>
      <trkpt lat="43.78152" lon="7.44337">
        <ele>431.77</ele>
        <time>2015-05-01T08:10:38Z</time>
      </trkpt>
      <trkpt lat="43.78151" lon="7.44336">
        <ele>431.77</ele>
        <time>2015-05-01T08:11:06Z</time>
      </trkpt>
      <trkpt lat="43.78151" lon="7.44336">
        <ele>431.77</ele>
        <time>2015-05-01T08:11:26Z</time>
      </trkpt>
      <trkpt lat="43.78144" lon="7.44337">
        <ele>431.77</ele>
        <time>2015-05-01T08:11:51Z</time>
      </trkpt>
      <trkpt lat="43.78145" lon="7.44336">
        <ele>432.25</ele>
        <time>2015-05-01T08:12:12Z</time>
      </trkpt>
      <trkpt lat="43.78143" lon="7.44341">
        <ele>432.73</ele>
        <time>2015-05-01T08:12:24Z</time>
      </trkpt>
      <trkpt lat="43.78137" lon="7.44352">
        <ele>434.65</ele>
        <time>2015-05-01T08:12:39Z</time>
      </trkpt>
      <trkpt lat="43.78136" lon="7.44355">
        <ele>435.61</ele>
        <time>2015-05-01T08:12:41Z</time>
      </trkpt>
      <trkpt lat="43.78135" lon="7.44358">
        <ele>436.1</ele>
        <time>2015-05-01T08:12:42Z</time>
      </trkpt>
      <trkpt lat="43.78128" lon="7.44369">
        <ele>438.98</ele>
        <time>2015-05-01T08:12:51Z</time>
      </trkpt>
      <trkpt lat="43.78122" lon="7.44383">
        <ele>442.34</ele>
        <time>2015-05-01T08:13:03Z</time>
      </trkpt>
      <trkpt lat="43.78121" lon="7.44383">
        <ele>442.34</ele>
        <time>2015-05-01T08:13:04Z</time>
      </trkpt>
      <trkpt lat="43.78113" lon="7.44382">
        <ele>444.75</ele>
        <time>2015-05-01T08:13:13Z</time>
      </trkpt>
      <trkpt lat="43.7811" lon="7.44375">
        <ele>446.67</ele>
        <time>2015-05-01T08:13:20Z</time>
      </trkpt>
      <trkpt lat="43.7811" lon="7.44367">
        <ele>448.59</ele>
        <time>2015-05-01T08:13:28Z</time>
      </trkpt>
      <trkpt lat="43.7811" lon="7.44358">
        <ele>451.96</ele>
        <time>2015-05-01T08:13:37Z</time>
      </trkpt>
      <trkpt lat="43.7811" lon="7.44357">
        <ele>451.96</ele>
        <time>2015-05-01T08:13:38Z</time>
      </trkpt>
      <trkpt lat="43.7811" lon="7.44348">
        <ele>454.84</ele>
        <time>2015-05-01T08:13:47Z</time>
      </trkpt>
      <trkpt lat="43.78099" lon="7.44343">
        <ele>457.24</ele>
        <time>2015-05-01T08:13:58Z</time>
      </trkpt>
      <trkpt lat="43.78092" lon="7.44334">
        <ele>460.13</ele>
        <time>2015-05-01T08:14:11Z</time>
      </trkpt>
      <trkpt lat="43.78096" lon="7.44331">
        <ele>462.05</ele>
        <time>2015-05-01T08:14:17Z</time>
      </trkpt>
      <trkpt lat="43.78094" lon="7.44324">
        <ele>464.45</ele>
        <time>2015-05-01T08:14:28Z</time>
      </trkpt>
      <trkpt lat="43.78082" lon="7.44312">
        <ele>467.82</ele>
        <time>2015-05-01T08:14:42Z</time>
      </trkpt>
      <trkpt lat="43.78077" lon="7.44311">
        <ele>468.78</ele>
        <time>2015-05-01T08:14:53Z</time>
      </trkpt>
      <trkpt lat="43.78072" lon="7.44311">
        <ele>468.78</ele>
        <time>2015-05-01T08:15:09Z</time>
      </trkpt>
      <trkpt lat="43.78072" lon="7.44313">
        <ele>469.26</ele>
        <time>2015-05-01T08:15:39Z</time>
      </trkpt>
      <trkpt lat="43.78067" lon="7.44304">
        <ele>469.26</ele>
        <time>2015-05-01T08:15:52Z</time>
      </trkpt>
      <trkpt lat="43.78063" lon="7.44297">
        <ele>469.74</ele>
        <time>2015-05-01T08:16:03Z</time>
      </trkpt>
      <trkpt lat="43.78058" lon="7.44287">
        <ele>471.18</ele>
        <time>2015-05-01T08:16:15Z</time>
      </trkpt>
      <trkpt lat="43.78052" lon="7.44278">
        <ele>473.11</ele>
        <time>2015-05-01T08:16:26Z</time>
      </trkpt>
      <trkpt lat="43.78048" lon="7.44271">
        <ele>474.55</ele>
        <time>2015-05-01T08:16:37Z</time>
      </trkpt>
      <trkpt lat="43.78041" lon="7.44264">
        <ele>477.43</ele>
        <time>2015-05-01T08:16:48Z</time>
      </trkpt>
      <trkpt lat="43.78038" lon="7.44262">
        <ele>478.39</ele>
        <time>2015-05-01T08:16:51Z</time>
      </trkpt>
      <trkpt lat="43.7803" lon="7.44251">
        <ele>481.28</ele>
        <time>2015-05-01T08:17:04Z</time>
      </trkpt>
      <trkpt lat="43.78029" lon="7.44249">
        <ele>481.76</ele>
        <time>2015-05-01T08:17:05Z</time>
      </trkpt>
      <trkpt lat="43.7802" lon="7.44244">
        <ele>484.64</ele>
        <time>2015-05-01T08:17:15Z</time>
      </trkpt>
      <trkpt lat="43.78014" lon="7.44237">
        <ele>486.56</ele>
        <time>2015-05-01T08:17:22Z</time>
      </trkpt>
      <trkpt lat="43.78008" lon="7.4423">
        <ele>488.49</ele>
        <time>2015-05-01T08:17:30Z</time>
      </trkpt>
      <trkpt lat="43.78005" lon="7.44225">
        <ele>489.45</ele>
        <time>2015-05-01T08:17:37Z</time>
      </trkpt>
      <trkpt lat="43.77999" lon="7.44223">
        <ele>491.85</ele>
        <time>2015-05-01T08:17:44Z</time>
      </trkpt>
      <trkpt lat="43.77998" lon="7.44222">
        <ele>491.85</ele>
        <time>2015-05-01T08:17:45Z</time>
      </trkpt>
      <trkpt lat="43.77992" lon="7.44221">
        <ele>493.77</ele>
        <time>2015-05-01T08:17:52Z</time>
      </trkpt>
      <trkpt lat="43.77984" lon="7.44224">
        <ele>495.22</ele>
        <time>2015-05-01T08:18:04Z</time>
      </trkpt>
      <trkpt lat="43.77975" lon="7.44225">
        <ele>496.66</ele>
        <time>2015-05-01T08:18:21Z</time>
      </trkpt>
      <trkpt lat="43.77971" lon="7.44227">
        <ele>497.62</ele>
        <time>2015-05-01T08:18:27Z</time>
      </trkpt>
      <trkpt lat="43.77969" lon="7.44228">
        <ele>498.1</ele>
        <time>2015-05-01T08:18:30Z</time>
      </trkpt>
      <trkpt lat="43.77965" lon="7.4423">
        <ele>498.1</ele>
        <time>2015-05-01T08:18:34Z</time>
      </trkpt>
      <trkpt lat="43.77961" lon="7.44232">
        <ele>498.58</ele>
        <time>2015-05-01T08:18:38Z</time>
      </trkpt>
      <trkpt lat="43.77953" lon="7.44233">
        <ele>500.02</ele>
        <time>2015-05-01T08:18:47Z</time>
      </trkpt>
      <trkpt lat="43.77939" lon="7.44229">
        <ele>503.39</ele>
        <time>2015-05-01T08:18:59Z</time>
      </trkpt>
      <trkpt lat="43.77928" lon="7.44227">
        <ele>504.83</ele>
        <time>2015-05-01T08:19:11Z</time>
      </trkpt>
      <trkpt lat="43.77915" lon="7.44226">
        <ele>506.27</ele>
        <time>2015-05-01T08:19:24Z</time>
      </trkpt>
      <trkpt lat="43.77904" lon="7.44222">
        <ele>506.75</ele>
        <time>2015-05-01T08:19:35Z</time>
      </trkpt>
      <trkpt lat="43.77892" lon="7.44218">
        <ele>508.19</ele>
        <time>2015-05-01T08:19:48Z</time>
      </trkpt>
      <trkpt lat="43.77878" lon="7.44214">
        <ele>508.19</ele>
        <time>2015-05-01T08:19:59Z</time>
      </trkpt>
      <trkpt lat="43.77866" lon="7.44206">
        <ele>508.67</ele>
        <time>2015-05-01T08:20:11Z</time>
      </trkpt>
      <trkpt lat="43.7785" lon="7.44197">
        <ele>509.16</ele>
        <time>2015-05-01T08:20:25Z</time>
      </trkpt>
      <trkpt lat="43.77843" lon="7.44185">
        <ele>510.6</ele>
        <time>2015-05-01T08:20:38Z</time>
      </trkpt>
      <trkpt lat="43.77843" lon="7.44184">
        <ele>510.6</ele>
        <time>2015-05-01T08:20:39Z</time>
      </trkpt>
      <trkpt lat="43.77844" lon="7.44174">
        <ele>512.52</ele>
        <time>2015-05-01T08:20:48Z</time>
      </trkpt>
      <trkpt lat="43.77838" lon="7.44165">
        <ele>513.48</ele>
        <time>2015-05-01T08:20:57Z</time>
      </trkpt>
      <trkpt lat="43.77829" lon="7.44162">
        <ele>514.44</ele>
        <time>2015-05-01T08:21:05Z</time>
      </trkpt>
      <trkpt lat="43.77817" lon="7.44159">
        <ele>516.37</ele>
        <time>2015-05-01T08:21:17Z</time>
      </trkpt>
      <trkpt lat="43.77809" lon="7.44157">
        <ele>517.81</ele>
        <time>2015-05-01T08:21:26Z</time>
      </trkpt>
      <trkpt lat="43.77808" lon="7.44157">
        <ele>518.29</ele>
        <time>2015-05-01T08:21:27Z</time>
      </trkpt>
      <trkpt lat="43.778" lon="7.44159">
        <ele>519.73</ele>
        <time>2015-05-01T08:21:34Z</time>
      </trkpt>
      <trkpt lat="43.77799" lon="7.44159">
        <ele>519.73</ele>
        <time>2015-05-01T08:21:35Z</time>
      </trkpt>
      <trkpt lat="43.77791" lon="7.44164">
        <ele>520.69</ele>
        <time>2015-05-01T08:21:49Z</time>
      </trkpt>
      <trkpt lat="43.77786" lon="7.44166">
        <ele>521.65</ele>
        <time>2015-05-01T08:22:05Z</time>
      </trkpt>
      <trkpt lat="43.77783" lon="7.44166">
        <ele>521.65</ele>
        <time>2015-05-01T08:22:09Z</time>
      </trkpt>
      <trkpt lat="43.77782" lon="7.44166">
        <ele>521.65</ele>
        <time>2015-05-01T08:22:10Z</time>
      </trkpt>
      <trkpt lat="43.7778" lon="7.44166">
        <ele>521.65</ele>
        <time>2015-05-01T08:22:11Z</time>
      </trkpt>
      <trkpt lat="43.77772" lon="7.44169">
        <ele>522.61</ele>
        <time>2015-05-01T08:22:19Z</time>
      </trkpt>
      <trkpt lat="43.77761" lon="7.44168">
        <ele>524.06</ele>
        <time>2015-05-01T08:22:30Z</time>
      </trkpt>
      <trkpt lat="43.77753" lon="7.44162">
        <ele>527.42</ele>
        <time>2015-05-01T08:22:42Z</time>
      </trkpt>
      <trkpt lat="43.77752" lon="7.44161">
        <ele>527.42</ele>
        <time>2015-05-01T08:22:43Z</time>
      </trkpt>
      <trkpt lat="43.77745" lon="7.44157">
        <ele>528.86</ele>
        <time>2015-05-01T08:22:55Z</time>
      </trkpt>
      <trkpt lat="43.77743" lon="7.44163">
        <ele>529.34</ele>
        <time>2015-05-01T08:23:08Z</time>
      </trkpt>
      <trkpt lat="43.77736" lon="7.44162">
        <ele>531.27</ele>
        <time>2015-05-01T08:23:19Z</time>
      </trkpt>
      <trkpt lat="43.77726" lon="7.44157">
        <ele>533.67</ele>
        <time>2015-05-01T08:23:32Z</time>
      </trkpt>
      <trkpt lat="43.77718" lon="7.44155">
        <ele>535.59</ele>
        <time>2015-05-01T08:23:43Z</time>
      </trkpt>
      <trkpt lat="43.7771" lon="7.44158">
        <ele>537.99</ele>
        <time>2015-05-01T08:23:53Z</time>
      </trkpt>
      <trkpt lat="43.77702" lon="7.44163">
        <ele>539.92</ele>
        <time>2015-05-01T08:24:04Z</time>
      </trkpt>
      <trkpt lat="43.77694" lon="7.44162">
        <ele>541.84</ele>
        <time>2015-05-01T08:24:15Z</time>
      </trkpt>
      <trkpt lat="43.77693" lon="7.4416">
        <ele>542.8</ele>
        <time>2015-05-01T08:24:17Z</time>
      </trkpt>
      <trkpt lat="43.77685" lon="7.44159">
        <ele>545.2</ele>
        <time>2015-05-01T08:24:28Z</time>
      </trkpt>
      <trkpt lat="43.77676" lon="7.44153">
        <ele>548.57</ele>
        <time>2015-05-01T08:24:42Z</time>
      </trkpt>
      <trkpt lat="43.77675" lon="7.44153">
        <ele>548.57</ele>
        <time>2015-05-01T08:24:43Z</time>
      </trkpt>
      <trkpt lat="43.77673" lon="7.44155">
        <ele>548.57</ele>
        <time>2015-05-01T08:24:45Z</time>
      </trkpt>
      <trkpt lat="43.77669" lon="7.44158">
        <ele>549.53</ele>
        <time>2015-05-01T08:24:50Z</time>
      </trkpt>
      <trkpt lat="43.77666" lon="7.44161">
        <ele>550.01</ele>
        <time>2015-05-01T08:24:54Z</time>
      </trkpt>
      <trkpt lat="43.77664" lon="7.44162">
        <ele>550.49</ele>
        <time>2015-05-01T08:24:56Z</time>
      </trkpt>
      <trkpt lat="43.77656" lon="7.44169">
        <ele>551.93</ele>
        <time>2015-05-01T08:25:06Z</time>
      </trkpt>
      <trkpt lat="43.77648" lon="7.44172">
        <ele>554.82</ele>
        <time>2015-05-01T08:25:18Z</time>
      </trkpt>
      <trkpt lat="43.77644" lon="7.44175">
        <ele>556.74</ele>
        <time>2015-05-01T08:25:29Z</time>
      </trkpt>
      <trkpt lat="43.77643" lon="7.44172">
        <ele>558.18</ele>
        <time>2015-05-01T08:25:34Z</time>
      </trkpt>
      <trkpt lat="43.77647" lon="7.44164">
        <ele>559.62</ele>
        <time>2015-05-01T08:25:44Z</time>
      </trkpt>
      <trkpt lat="43.77643" lon="7.44158">
        <ele>562.03</ele>
        <time>2015-05-01T08:25:55Z</time>
      </trkpt>
      <trkpt lat="43.77637" lon="7.44159">
        <ele>563.95</ele>
        <time>2015-05-01T08:26:02Z</time>
      </trkpt>
      <trkpt lat="43.77629" lon="7.44166">
        <ele>565.39</ele>
        <time>2015-05-01T08:26:14Z</time>
      </trkpt>
      <trkpt lat="43.7762" lon="7.44171">
        <ele>567.32</ele>
        <time>2015-05-01T08:26:26Z</time>
      </trkpt>
      <trkpt lat="43.77614" lon="7.44175">
        <ele>568.76</ele>
        <time>2015-05-01T08:26:33Z</time>
      </trkpt>
      <trkpt lat="43.77608" lon="7.44176">
        <ele>570.2</ele>
        <time>2015-05-01T08:26:40Z</time>
      </trkpt>
      <trkpt lat="43.77597" lon="7.44177">
        <ele>573.08</ele>
        <time>2015-05-01T08:26:54Z</time>
      </trkpt>
      <trkpt lat="43.77596" lon="7.44173">
        <ele>576.93</ele>
        <time>2015-05-01T08:27:03Z</time>
      </trkpt>
      <trkpt lat="43.77595" lon="7.44173">
        <ele>576.93</ele>
        <time>2015-05-01T08:27:04Z</time>
      </trkpt>
      <trkpt lat="43.77592" lon="7.44173">
        <ele>576.93</ele>
        <time>2015-05-01T08:27:09Z</time>
      </trkpt>
      <trkpt lat="43.77586" lon="7.44179">
        <ele>576.93</ele>
        <time>2015-05-01T08:27:23Z</time>
      </trkpt>
      <trkpt lat="43.77587" lon="7.4418">
        <ele>577.41</ele>
        <time>2015-05-01T08:27:45Z</time>
      </trkpt>
      <trkpt lat="43.77584" lon="7.44175">
        <ele>579.81</ele>
        <time>2015-05-01T08:27:56Z</time>
      </trkpt>
      <trkpt lat="43.77582" lon="7.44172">
        <ele>580.77</ele>
        <time>2015-05-01T08:28:13Z</time>
      </trkpt>
      <trkpt lat="43.77571" lon="7.44176">
        <ele>583.66</ele>
        <time>2015-05-01T08:28:27Z</time>
      </trkpt>
      <trkpt lat="43.77568" lon="7.44176">
        <ele>584.62</ele>
        <time>2015-05-01T08:28:31Z</time>
      </trkpt>
      <trkpt lat="43.77566" lon="7.44176">
        <ele>584.62</ele>
        <time>2015-05-01T08:28:32Z</time>
      </trkpt>
      <trkpt lat="43.77555" lon="7.44177">
        <ele>586.54</ele>
        <time>2015-05-01T08:28:43Z</time>
      </trkpt>
      <trkpt lat="43.77549" lon="7.44178">
        <ele>587.98</ele>
        <time>2015-05-01T08:28:48Z</time>
      </trkpt>
      <trkpt lat="43.77543" lon="7.44177">
        <ele>589.43</ele>
        <time>2015-05-01T08:28:55Z</time>
      </trkpt>
      <trkpt lat="43.77541" lon="7.44178">
        <ele>589.43</ele>
        <time>2015-05-01T08:28:56Z</time>
      </trkpt>
      <trkpt lat="43.7754" lon="7.44177">
        <ele>589.43</ele>
        <time>2015-05-01T08:28:57Z</time>
      </trkpt>
      <trkpt lat="43.77539" lon="7.44177">
        <ele>590.39</ele>
        <time>2015-05-01T08:28:58Z</time>
      </trkpt>
      <trkpt lat="43.77528" lon="7.44175">
        <ele>593.27</ele>
        <time>2015-05-01T08:29:10Z</time>
      </trkpt>
      <trkpt lat="43.77519" lon="7.44171">
        <ele>596.64</ele>
        <time>2015-05-01T08:29:21Z</time>
      </trkpt>
      <trkpt lat="43.77514" lon="7.44166">
        <ele>600</ele>
        <time>2015-05-01T08:29:31Z</time>
      </trkpt>
      <trkpt lat="43.77506" lon="7.44171">
        <ele>600.96</ele>
        <time>2015-05-01T08:29:43Z</time>
      </trkpt>
      <trkpt lat="43.77504" lon="7.44171">
        <ele>601.44</ele>
        <time>2015-05-01T08:30:06Z</time>
      </trkpt>
      <trkpt lat="43.77502" lon="7.44168">
        <ele>602.88</ele>
        <time>2015-05-01T08:30:10Z</time>
      </trkpt>
      <trkpt lat="43.77496" lon="7.44167">
        <ele>604.33</ele>
        <time>2015-05-01T08:30:16Z</time>
      </trkpt>
      <trkpt lat="43.77484" lon="7.44171">
        <ele>607.21</ele>
        <time>2015-05-01T08:30:28Z</time>
      </trkpt>
      <trkpt lat="43.77483" lon="7.44173">
        <ele>607.69</ele>
        <time>2015-05-01T08:30:40Z</time>
      </trkpt>
      <trkpt lat="43.77477" lon="7.44175">
        <ele>608.65</ele>
        <time>2015-05-01T08:30:59Z</time>
      </trkpt>
      <trkpt lat="43.77468" lon="7.44177">
        <ele>612.02</ele>
        <time>2015-05-01T08:31:10Z</time>
      </trkpt>
      <trkpt lat="43.7747" lon="7.44172">
        <ele>612.98</ele>
        <time>2015-05-01T08:31:26Z</time>
      </trkpt>
      <trkpt lat="43.77465" lon="7.44171">
        <ele>614.42</ele>
        <time>2015-05-01T08:31:35Z</time>
      </trkpt>
      <trkpt lat="43.77458" lon="7.44173">
        <ele>615.86</ele>
        <time>2015-05-01T08:31:42Z</time>
      </trkpt>
      <trkpt lat="43.77448" lon="7.44175">
        <ele>618.26</ele>
        <time>2015-05-01T08:31:55Z</time>
      </trkpt>
      <trkpt lat="43.77444" lon="7.44176">
        <ele>618.75</ele>
        <time>2015-05-01T08:31:58Z</time>
      </trkpt>
      <trkpt lat="43.77437" lon="7.4418">
        <ele>619.71</ele>
        <time>2015-05-01T08:32:06Z</time>
      </trkpt>
      <trkpt lat="43.77433" lon="7.44182">
        <ele>620.19</ele>
        <time>2015-05-01T08:32:10Z</time>
      </trkpt>
      <trkpt lat="43.77425" lon="7.44188">
        <ele>621.63</ele>
        <time>2015-05-01T08:32:22Z</time>
      </trkpt>
      <trkpt lat="43.77427" lon="7.44191">
        <ele>621.63</ele>
        <time>2015-05-01T08:32:37Z</time>
      </trkpt>
      <trkpt lat="43.77427" lon="7.44185">
        <ele>622.11</ele>
        <time>2015-05-01T08:33:01Z</time>
      </trkpt>
      <trkpt lat="43.77428" lon="7.44184">
        <ele>622.11</ele>
        <time>2015-05-01T08:33:02Z</time>
      </trkpt>
      <trkpt lat="43.77432" lon="7.44173">
        <ele>622.59</ele>
        <time>2015-05-01T08:33:10Z</time>
      </trkpt>
      <trkpt lat="43.77434" lon="7.44169">
        <ele>623.55</ele>
        <time>2015-05-01T08:33:13Z</time>
      </trkpt>
      <trkpt lat="43.77435" lon="7.44167">
        <ele>623.55</ele>
        <time>2015-05-01T08:33:15Z</time>
      </trkpt>
      <trkpt lat="43.77446" lon="7.44157">
        <ele>624.51</ele>
        <time>2015-05-01T08:33:27Z</time>
      </trkpt>
      <trkpt lat="43.77448" lon="7.44154">
        <ele>624.51</ele>
        <time>2015-05-01T08:33:47Z</time>
      </trkpt>
      <trkpt lat="43.77455" lon="7.4415">
        <ele>625.96</ele>
        <time>2015-05-01T08:34:08Z</time>
      </trkpt>
      <trkpt lat="43.77461" lon="7.44142">
        <ele>627.88</ele>
        <time>2015-05-01T08:34:17Z</time>
      </trkpt>
      <trkpt lat="43.77462" lon="7.44141">
        <ele>627.88</ele>
        <time>2015-05-01T08:34:18Z</time>
      </trkpt>
      <trkpt lat="43.77463" lon="7.4414">
        <ele>628.84</ele>
        <time>2015-05-01T08:34:19Z</time>
      </trkpt>
      <trkpt lat="43.77466" lon="7.44137">
        <ele>629.8</ele>
        <time>2015-05-01T08:34:23Z</time>
      </trkpt>
      <trkpt lat="43.77468" lon="7.44135">
        <ele>631.24</ele>
        <time>2015-05-01T08:34:37Z</time>
      </trkpt>
      <trkpt lat="43.77472" lon="7.44126">
        <ele>633.17</ele>
        <time>2015-05-01T08:34:51Z</time>
      </trkpt>
      <trkpt lat="43.77477" lon="7.44118">
        <ele>635.57</ele>
        <time>2015-05-01T08:34:59Z</time>
      </trkpt>
      <trkpt lat="43.77479" lon="7.44114">
        <ele>637.49</ele>
        <time>2015-05-01T08:35:05Z</time>
      </trkpt>
      <trkpt lat="43.77487" lon="7.44102">
        <ele>640.38</ele>
        <time>2015-05-01T08:35:17Z</time>
      </trkpt>
      <trkpt lat="43.77489" lon="7.44098">
        <ele>642.3</ele>
        <time>2015-05-01T08:35:30Z</time>
      </trkpt>
      <trkpt lat="43.77493" lon="7.44091">
        <ele>643.74</ele>
        <time>2015-05-01T08:35:43Z</time>
      </trkpt>
      <trkpt lat="43.77495" lon="7.44089">
        <ele>644.7</ele>
        <time>2015-05-01T08:35:45Z</time>
      </trkpt>
      <trkpt lat="43.77497" lon="7.44087">
        <ele>645.18</ele>
        <time>2015-05-01T08:35:48Z</time>
      </trkpt>
      <trkpt lat="43.77499" lon="7.44079">
        <ele>648.07</ele>
        <time>2015-05-01T08:35:58Z</time>
      </trkpt>
      <trkpt lat="43.77501" lon="7.4407">
        <ele>651.43</ele>
        <time>2015-05-01T08:36:07Z</time>
      </trkpt>
      <trkpt lat="43.77505" lon="7.44064">
        <ele>654.31</ele>
        <time>2015-05-01T08:36:18Z</time>
      </trkpt>
      <trkpt lat="43.77508" lon="7.4406">
        <ele>656.24</ele>
        <time>2015-05-01T08:36:26Z</time>
      </trkpt>
      <trkpt lat="43.7751" lon="7.44057">
        <ele>657.2</ele>
        <time>2015-05-01T08:36:30Z</time>
      </trkpt>
      <trkpt lat="43.77515" lon="7.44051">
        <ele>660.08</ele>
        <time>2015-05-01T08:36:39Z</time>
      </trkpt>
      <trkpt lat="43.7752" lon="7.44047">
        <ele>662.97</ele>
        <time>2015-05-01T08:36:50Z</time>
      </trkpt>
      <trkpt lat="43.77524" lon="7.44038">
        <ele>666.33</ele>
        <time>2015-05-01T08:37:01Z</time>
      </trkpt>
      <trkpt lat="43.77523" lon="7.44036">
        <ele>667.29</ele>
        <time>2015-05-01T08:37:04Z</time>
      </trkpt>
      <trkpt lat="43.77523" lon="7.44026">
        <ele>669.22</ele>
        <time>2015-05-01T08:37:15Z</time>
      </trkpt>
      <trkpt lat="43.77529" lon="7.44026">
        <ele>670.66</ele>
        <time>2015-05-01T08:37:24Z</time>
      </trkpt>
      <trkpt lat="43.77531" lon="7.44029">
        <ele>672.58</ele>
        <time>2015-05-01T08:37:36Z</time>
      </trkpt>
      <trkpt lat="43.77533" lon="7.4403">
        <ele>672.58</ele>
        <time>2015-05-01T08:37:58Z</time>
      </trkpt>
      <trkpt lat="43.77533" lon="7.44029">
        <ele>672.58</ele>
        <time>2015-05-01T08:37:59Z</time>
      </trkpt>
      <trkpt lat="43.77534" lon="7.4403">
        <ele>674.02</ele>
        <time>2015-05-01T08:38:10Z</time>
      </trkpt>
      <trkpt lat="43.77539" lon="7.44026">
        <ele>674.02</ele>
        <time>2015-05-01T08:38:33Z</time>
      </trkpt>
      <trkpt lat="43.77546" lon="7.44022">
        <ele>676.91</ele>
        <time>2015-05-01T08:38:44Z</time>
      </trkpt>
      <trkpt lat="43.77544" lon="7.44021">
        <ele>677.39</ele>
        <time>2015-05-01T08:39:07Z</time>
      </trkpt>
      <trkpt lat="43.77545" lon="7.44021">
        <ele>677.39</ele>
        <time>2015-05-01T08:39:33Z</time>
      </trkpt>
      <trkpt lat="43.77552" lon="7.44018">
        <ele>678.35</ele>
        <time>2015-05-01T08:39:42Z</time>
      </trkpt>
      <trkpt lat="43.77553" lon="7.44018">
        <ele>678.35</ele>
        <time>2015-05-01T08:39:43Z</time>
      </trkpt>
      <trkpt lat="43.77559" lon="7.44016">
        <ele>680.75</ele>
        <time>2015-05-01T08:39:55Z</time>
      </trkpt>
      <trkpt lat="43.77558" lon="7.44017">
        <ele>678.35</ele>
        <time>2015-05-01T08:39:58Z</time>
      </trkpt>
      <trkpt lat="43.77559" lon="7.44017">
        <ele>682.19</ele>
        <time>2015-05-01T08:39:59Z</time>
      </trkpt>
      <trkpt lat="43.7756" lon="7.44017">
        <ele>682.19</ele>
        <time>2015-05-01T08:40:00Z</time>
      </trkpt>
      <trkpt lat="43.77559" lon="7.44016">
        <ele>680.75</ele>
        <time>2015-05-01T08:40:02Z</time>
      </trkpt>
      <trkpt lat="43.77563" lon="7.44011">
        <ele>681.71</ele>
        <time>2015-05-01T08:40:15Z</time>
      </trkpt>
      <trkpt lat="43.77564" lon="7.44011">
        <ele>681.71</ele>
        <time>2015-05-01T08:40:16Z</time>
      </trkpt>
      <trkpt lat="43.77572" lon="7.44007">
        <ele>683.63</ele>
        <time>2015-05-01T08:40:28Z</time>
      </trkpt>
      <trkpt lat="43.77576" lon="7.44004">
        <ele>684.6</ele>
        <time>2015-05-01T08:40:32Z</time>
      </trkpt>
      <trkpt lat="43.77577" lon="7.44004">
        <ele>684.6</ele>
        <time>2015-05-01T08:40:33Z</time>
      </trkpt>
      <trkpt lat="43.77579" lon="7.44003">
        <ele>684.6</ele>
        <time>2015-05-01T08:40:34Z</time>
      </trkpt>
      <trkpt lat="43.7759" lon="7.43998">
        <ele>686.04</ele>
        <time>2015-05-01T08:40:45Z</time>
      </trkpt>
      <trkpt lat="43.77601" lon="7.43991">
        <ele>687.96</ele>
        <time>2015-05-01T08:41:00Z</time>
      </trkpt>
      <trkpt lat="43.77607" lon="7.43988">
        <ele>689.4</ele>
        <time>2015-05-01T08:41:15Z</time>
      </trkpt>
      <trkpt lat="43.7761" lon="7.43986">
        <ele>689.88</ele>
        <time>2015-05-01T08:41:36Z</time>
      </trkpt>
      <trkpt lat="43.77612" lon="7.43985">
        <ele>690.36</ele>
        <time>2015-05-01T08:41:53Z</time>
      </trkpt>
      <trkpt lat="43.77614" lon="7.43984">
        <ele>690.84</ele>
        <time>2015-05-01T08:42:10Z</time>
      </trkpt>
      <trkpt lat="43.77617" lon="7.43982">
        <ele>691.81</ele>
        <time>2015-05-01T08:42:34Z</time>
      </trkpt>
      <trkpt lat="43.77617" lon="7.43983">
        <ele>692.29</ele>
        <time>2015-05-01T08:42:55Z</time>
      </trkpt>
      <trkpt lat="43.77622" lon="7.43979">
        <ele>693.25</ele>
        <time>2015-05-01T08:43:21Z</time>
      </trkpt>
      <trkpt lat="43.77631" lon="7.43974">
        <ele>695.65</ele>
        <time>2015-05-01T08:43:33Z</time>
      </trkpt>
      <trkpt lat="43.77634" lon="7.43968">
        <ele>697.57</ele>
        <time>2015-05-01T08:43:42Z</time>
      </trkpt>
      <trkpt lat="43.77639" lon="7.43962">
        <ele>699.98</ele>
        <time>2015-05-01T08:43:50Z</time>
      </trkpt>
      <trkpt lat="43.77647" lon="7.43954">
        <ele>703.34</ele>
        <time>2015-05-01T08:44:01Z</time>
      </trkpt>
      <trkpt lat="43.77653" lon="7.43947">
        <ele>706.23</ele>
        <time>2015-05-01T08:44:13Z</time>
      </trkpt>
      <trkpt lat="43.77664" lon="7.43944">
        <ele>709.11</ele>
        <time>2015-05-01T08:44:27Z</time>
      </trkpt>
      <trkpt lat="43.77666" lon="7.43944">
        <ele>708.63</ele>
        <time>2015-05-01T08:44:29Z</time>
      </trkpt>
      <trkpt lat="43.77676" lon="7.43943">
        <ele>711.03</ele>
        <time>2015-05-01T08:44:41Z</time>
      </trkpt>
      <trkpt lat="43.77681" lon="7.43942">
        <ele>711.51</ele>
        <time>2015-05-01T08:44:46Z</time>
      </trkpt>
      <trkpt lat="43.77683" lon="7.43941">
        <ele>711.51</ele>
        <time>2015-05-01T08:44:48Z</time>
      </trkpt>
      <trkpt lat="43.77686" lon="7.43941">
        <ele>711.99</ele>
        <time>2015-05-01T08:44:53Z</time>
      </trkpt>
      <trkpt lat="43.7769" lon="7.4394">
        <ele>713.44</ele>
        <time>2015-05-01T08:45:05Z</time>
      </trkpt>
      <trkpt lat="43.77691" lon="7.4394">
        <ele>713.92</ele>
        <time>2015-05-01T08:45:20Z</time>
      </trkpt>
      <trkpt lat="43.77695" lon="7.43939">
        <ele>714.4</ele>
        <time>2015-05-01T08:45:33Z</time>
      </trkpt>
      <trkpt lat="43.77703" lon="7.43934">
        <ele>714.88</ele>
        <time>2015-05-01T08:45:46Z</time>
      </trkpt>
      <trkpt lat="43.77703" lon="7.43933">
        <ele>714.88</ele>
        <time>2015-05-01T08:46:09Z</time>
      </trkpt>
      <trkpt lat="43.77705" lon="7.43933">
        <ele>715.36</ele>
        <time>2015-05-01T08:46:26Z</time>
      </trkpt>
      <trkpt lat="43.77708" lon="7.43933">
        <ele>715.36</ele>
        <time>2015-05-01T08:46:44Z</time>
      </trkpt>
      <trkpt lat="43.77712" lon="7.43926">
        <ele>717.76</ele>
        <time>2015-05-01T08:46:57Z</time>
      </trkpt>
      <trkpt lat="43.77714" lon="7.43916">
        <ele>719.68</ele>
        <time>2015-05-01T08:47:09Z</time>
      </trkpt>
      <trkpt lat="43.77714" lon="7.43907">
        <ele>720.65</ele>
        <time>2015-05-01T08:47:16Z</time>
      </trkpt>
      <trkpt lat="43.77713" lon="7.43897">
        <ele>722.09</ele>
        <time>2015-05-01T08:47:26Z</time>
      </trkpt>
      <trkpt lat="43.77713" lon="7.43893">
        <ele>722.09</ele>
        <time>2015-05-01T08:47:29Z</time>
      </trkpt>
      <trkpt lat="43.77711" lon="7.43879">
        <ele>723.05</ele>
        <time>2015-05-01T08:47:40Z</time>
      </trkpt>
      <trkpt lat="43.77712" lon="7.43873">
        <ele>723.05</ele>
        <time>2015-05-01T08:47:54Z</time>
      </trkpt>
      <trkpt lat="43.77711" lon="7.43871">
        <ele>723.05</ele>
        <time>2015-05-01T08:48:17Z</time>
      </trkpt>
      <trkpt lat="43.77712" lon="7.43869">
        <ele>723.05</ele>
        <time>2015-05-01T08:48:32Z</time>
      </trkpt>
      <trkpt lat="43.77708" lon="7.43856">
        <ele>722.09</ele>
        <time>2015-05-01T08:48:42Z</time>
      </trkpt>
      <trkpt lat="43.77707" lon="7.43848">
        <ele>721.13</ele>
        <time>2015-05-01T08:48:47Z</time>
      </trkpt>
      <trkpt lat="43.77704" lon="7.4384">
        <ele>721.13</ele>
        <time>2015-05-01T08:48:53Z</time>
      </trkpt>
      <trkpt lat="43.77704" lon="7.43838">
        <ele>721.13</ele>
        <time>2015-05-01T08:48:54Z</time>
      </trkpt>
      <trkpt lat="43.77705" lon="7.43836">
        <ele>721.13</ele>
        <time>2015-05-01T08:48:55Z</time>
      </trkpt>
      <trkpt lat="43.77706" lon="7.43832">
        <ele>721.13</ele>
        <time>2015-05-01T08:48:58Z</time>
      </trkpt>
      <trkpt lat="43.77712" lon="7.43819">
        <ele>723.05</ele>
        <time>2015-05-01T08:49:07Z</time>
      </trkpt>
      <trkpt lat="43.77714" lon="7.43817">
        <ele>723.05</ele>
        <time>2015-05-01T08:49:09Z</time>
      </trkpt>
      <trkpt lat="43.77715" lon="7.43817">
        <ele>723.53</ele>
        <time>2015-05-01T08:49:10Z</time>
      </trkpt>
      <trkpt lat="43.77717" lon="7.43816">
        <ele>723.53</ele>
        <time>2015-05-01T08:49:11Z</time>
      </trkpt>
      <trkpt lat="43.77718" lon="7.43815">
        <ele>723.53</ele>
        <time>2015-05-01T08:49:12Z</time>
      </trkpt>
      <trkpt lat="43.77719" lon="7.43814">
        <ele>723.53</ele>
        <time>2015-05-01T08:49:13Z</time>
      </trkpt>
      <trkpt lat="43.77721" lon="7.43814">
        <ele>723.53</ele>
        <time>2015-05-01T08:49:14Z</time>
      </trkpt>
      <trkpt lat="43.77726" lon="7.4381">
        <ele>723.53</ele>
        <time>2015-05-01T08:49:19Z</time>
      </trkpt>
      <trkpt lat="43.77727" lon="7.43809">
        <ele>723.53</ele>
        <time>2015-05-01T08:49:20Z</time>
      </trkpt>
      <trkpt lat="43.77728" lon="7.43808">
        <ele>723.53</ele>
        <time>2015-05-01T08:49:21Z</time>
      </trkpt>
      <trkpt lat="43.77745" lon="7.43796">
        <ele>724.97</ele>
        <time>2015-05-01T08:49:37Z</time>
      </trkpt>
      <trkpt lat="43.77753" lon="7.43793">
        <ele>724.97</ele>
        <time>2015-05-01T08:49:44Z</time>
      </trkpt>
      <trkpt lat="43.77754" lon="7.43793">
        <ele>724.97</ele>
        <time>2015-05-01T08:49:45Z</time>
      </trkpt>
      <trkpt lat="43.77756" lon="7.43793">
        <ele>724.97</ele>
        <time>2015-05-01T08:49:46Z</time>
      </trkpt>
      <trkpt lat="43.77757" lon="7.43793">
        <ele>724.97</ele>
        <time>2015-05-01T08:49:47Z</time>
      </trkpt>
      <trkpt lat="43.77761" lon="7.43788">
        <ele>724.97</ele>
        <time>2015-05-01T08:49:53Z</time>
      </trkpt>
      <trkpt lat="43.77762" lon="7.43786">
        <ele>724.97</ele>
        <time>2015-05-01T08:49:54Z</time>
      </trkpt>
      <trkpt lat="43.77763" lon="7.43785">
        <ele>725.45</ele>
        <time>2015-05-01T08:49:55Z</time>
      </trkpt>
      <trkpt lat="43.77764" lon="7.43784">
        <ele>725.93</ele>
        <time>2015-05-01T08:49:56Z</time>
      </trkpt>
      <trkpt lat="43.77773" lon="7.43772">
        <ele>728.34</ele>
        <time>2015-05-01T08:50:08Z</time>
      </trkpt>
      <trkpt lat="43.77781" lon="7.43766">
        <ele>729.3</ele>
        <time>2015-05-01T08:50:18Z</time>
      </trkpt>
      <trkpt lat="43.77782" lon="7.43765">
        <ele>729.3</ele>
        <time>2015-05-01T08:50:19Z</time>
      </trkpt>
      <trkpt lat="43.77784" lon="7.43765">
        <ele>729.3</ele>
        <time>2015-05-01T08:50:20Z</time>
      </trkpt>
      <trkpt lat="43.77797" lon="7.43759">
        <ele>732.18</ele>
        <time>2015-05-01T08:50:34Z</time>
      </trkpt>
      <trkpt lat="43.77807" lon="7.43753">
        <ele>735.07</ele>
        <time>2015-05-01T08:50:46Z</time>
      </trkpt>
      <trkpt lat="43.77818" lon="7.43747">
        <ele>737.47</ele>
        <time>2015-05-01T08:50:58Z</time>
      </trkpt>
      <trkpt lat="43.77826" lon="7.43741">
        <ele>741.31</ele>
        <time>2015-05-01T08:51:08Z</time>
      </trkpt>
      <trkpt lat="43.77834" lon="7.43737">
        <ele>743.24</ele>
        <time>2015-05-01T08:51:21Z</time>
      </trkpt>
      <trkpt lat="43.7784" lon="7.4373">
        <ele>744.68</ele>
        <time>2015-05-01T08:51:32Z</time>
      </trkpt>
      <trkpt lat="43.77845" lon="7.43727">
        <ele>744.68</ele>
        <time>2015-05-01T08:51:46Z</time>
      </trkpt>
      <trkpt lat="43.77851" lon="7.43717">
        <ele>745.64</ele>
        <time>2015-05-01T08:52:07Z</time>
      </trkpt>
      <trkpt lat="43.7786" lon="7.43712">
        <ele>747.56</ele>
        <time>2015-05-01T08:52:20Z</time>
      </trkpt>
      <trkpt lat="43.77868" lon="7.43713">
        <ele>747.56</ele>
        <time>2015-05-01T08:52:32Z</time>
      </trkpt>
      <trkpt lat="43.7787" lon="7.4371">
        <ele>747.56</ele>
        <time>2015-05-01T08:52:36Z</time>
      </trkpt>
      <trkpt lat="43.77878" lon="7.43707">
        <ele>749.49</ele>
        <time>2015-05-01T08:52:46Z</time>
      </trkpt>
      <trkpt lat="43.77884" lon="7.43704">
        <ele>751.41</ele>
        <time>2015-05-01T08:52:56Z</time>
      </trkpt>
      <trkpt lat="43.77891" lon="7.43701">
        <ele>752.85</ele>
        <time>2015-05-01T08:53:10Z</time>
      </trkpt>
      <trkpt lat="43.77896" lon="7.43699">
        <ele>753.81</ele>
        <time>2015-05-01T08:53:17Z</time>
      </trkpt>
      <trkpt lat="43.779" lon="7.43695">
        <ele>756.21</ele>
        <time>2015-05-01T08:53:24Z</time>
      </trkpt>
      <trkpt lat="43.77907" lon="7.43687">
        <ele>759.1</ele>
        <time>2015-05-01T08:53:36Z</time>
      </trkpt>
      <trkpt lat="43.77912" lon="7.43686">
        <ele>760.54</ele>
        <time>2015-05-01T08:53:42Z</time>
      </trkpt>
      <trkpt lat="43.7792" lon="7.43682">
        <ele>762.46</ele>
        <time>2015-05-01T08:53:53Z</time>
      </trkpt>
      <trkpt lat="43.77921" lon="7.43681">
        <ele>762.46</ele>
        <time>2015-05-01T08:53:55Z</time>
      </trkpt>
      <trkpt lat="43.77929" lon="7.43673">
        <ele>764.39</ele>
        <time>2015-05-01T08:54:07Z</time>
      </trkpt>
      <trkpt lat="43.77936" lon="7.43664">
        <ele>765.35</ele>
        <time>2015-05-01T08:54:18Z</time>
      </trkpt>
      <trkpt lat="43.77943" lon="7.43653">
        <ele>766.31</ele>
        <time>2015-05-01T08:54:30Z</time>
      </trkpt>
      <trkpt lat="43.77953" lon="7.43645">
        <ele>764.87</ele>
        <time>2015-05-01T08:54:43Z</time>
      </trkpt>
      <trkpt lat="43.77955" lon="7.4364">
        <ele>764.39</ele>
        <time>2015-05-01T08:55:14Z</time>
      </trkpt>
      <trkpt lat="43.77957" lon="7.43637">
        <ele>764.39</ele>
        <time>2015-05-01T08:55:16Z</time>
      </trkpt>
      <trkpt lat="43.77965" lon="7.43625">
        <ele>764.39</ele>
        <time>2015-05-01T08:55:26Z</time>
      </trkpt>
      <trkpt lat="43.77976" lon="7.43609">
        <ele>762.46</ele>
        <time>2015-05-01T08:55:42Z</time>
      </trkpt>
      <trkpt lat="43.77988" lon="7.43595">
        <ele>761.02</ele>
        <time>2015-05-01T08:55:56Z</time>
      </trkpt>
      <trkpt lat="43.77988" lon="7.4359">
        <ele>761.02</ele>
        <time>2015-05-01T08:56:00Z</time>
      </trkpt>
      <trkpt lat="43.77993" lon="7.43579">
        <ele>761.98</ele>
        <time>2015-05-01T08:56:11Z</time>
      </trkpt>
      <trkpt lat="43.77998" lon="7.4357">
        <ele>760.06</ele>
        <time>2015-05-01T08:56:24Z</time>
      </trkpt>
      <trkpt lat="43.77995" lon="7.43563">
        <ele>759.58</ele>
        <time>2015-05-01T08:56:30Z</time>
      </trkpt>
      <trkpt lat="43.77994" lon="7.43562">
        <ele>759.1</ele>
        <time>2015-05-01T08:56:31Z</time>
      </trkpt>
      <trkpt lat="43.7799" lon="7.43557">
        <ele>758.62</ele>
        <time>2015-05-01T08:56:41Z</time>
      </trkpt>
      <trkpt lat="43.77989" lon="7.43556">
        <ele>758.62</ele>
        <time>2015-05-01T08:56:42Z</time>
      </trkpt>
      <trkpt lat="43.7799" lon="7.43553">
        <ele>758.14</ele>
        <time>2015-05-01T08:56:53Z</time>
      </trkpt>
      <trkpt lat="43.77988" lon="7.43559">
        <ele>758.14</ele>
        <time>2015-05-01T08:57:09Z</time>
      </trkpt>
      <trkpt lat="43.77986" lon="7.43547">
        <ele>757.66</ele>
        <time>2015-05-01T08:57:20Z</time>
      </trkpt>
      <trkpt lat="43.77982" lon="7.43532">
        <ele>757.18</ele>
        <time>2015-05-01T08:57:31Z</time>
      </trkpt>
      <trkpt lat="43.77981" lon="7.43516">
        <ele>757.18</ele>
        <time>2015-05-01T08:57:42Z</time>
      </trkpt>
      <trkpt lat="43.77982" lon="7.43501">
        <ele>757.18</ele>
        <time>2015-05-01T08:57:54Z</time>
      </trkpt>
      <trkpt lat="43.7798" lon="7.43493">
        <ele>758.62</ele>
        <time>2015-05-01T08:58:01Z</time>
      </trkpt>
      <trkpt lat="43.77979" lon="7.43477">
        <ele>761.02</ele>
        <time>2015-05-01T08:58:12Z</time>
      </trkpt>
      <trkpt lat="43.77974" lon="7.43461">
        <ele>762.46</ele>
        <time>2015-05-01T08:58:24Z</time>
      </trkpt>
      <trkpt lat="43.77982" lon="7.43451">
        <ele>763.9</ele>
        <time>2015-05-01T08:58:37Z</time>
      </trkpt>
      <trkpt lat="43.77981" lon="7.43441">
        <ele>765.35</ele>
        <time>2015-05-01T08:58:49Z</time>
      </trkpt>
      <trkpt lat="43.7798" lon="7.43442">
        <ele>766.31</ele>
        <time>2015-05-01T08:58:50Z</time>
      </trkpt>
      <trkpt lat="43.77978" lon="7.43433">
        <ele>768.23</ele>
        <time>2015-05-01T08:59:03Z</time>
      </trkpt>
      <trkpt lat="43.77983" lon="7.43422">
        <ele>769.19</ele>
        <time>2015-05-01T08:59:17Z</time>
      </trkpt>
      <trkpt lat="43.77983" lon="7.43406">
        <ele>771.11</ele>
        <time>2015-05-01T08:59:30Z</time>
      </trkpt>
      <trkpt lat="43.77985" lon="7.43398">
        <ele>773.52</ele>
        <time>2015-05-01T08:59:36Z</time>
      </trkpt>
      <trkpt lat="43.77987" lon="7.43387">
        <ele>775.92</ele>
        <time>2015-05-01T08:59:48Z</time>
      </trkpt>
      <trkpt lat="43.77991" lon="7.43376">
        <ele>779.29</ele>
        <time>2015-05-01T09:00:00Z</time>
      </trkpt>
      <trkpt lat="43.77981" lon="7.43381">
        <ele>780.73</ele>
        <time>2015-05-01T09:00:11Z</time>
      </trkpt>
      <trkpt lat="43.77978" lon="7.43384">
        <ele>780.73</ele>
        <time>2015-05-01T09:00:15Z</time>
      </trkpt>
      <trkpt lat="43.77977" lon="7.43385">
        <ele>780.73</ele>
        <time>2015-05-01T09:00:16Z</time>
      </trkpt>
      <trkpt lat="43.77971" lon="7.43387">
        <ele>782.17</ele>
        <time>2015-05-01T09:00:23Z</time>
      </trkpt>
      <trkpt lat="43.77963" lon="7.43396">
        <ele>784.09</ele>
        <time>2015-05-01T09:00:36Z</time>
      </trkpt>
      <trkpt lat="43.77952" lon="7.43406">
        <ele>785.53</ele>
        <time>2015-05-01T09:00:49Z</time>
      </trkpt>
      <trkpt lat="43.77944" lon="7.43416">
        <ele>786.98</ele>
        <time>2015-05-01T09:01:03Z</time>
      </trkpt>
      <trkpt lat="43.77936" lon="7.43433">
        <ele>790.82</ele>
        <time>2015-05-01T09:01:18Z</time>
      </trkpt>
      <trkpt lat="43.77936" lon="7.43435">
        <ele>790.82</ele>
        <time>2015-05-01T09:01:19Z</time>
      </trkpt>
      <trkpt lat="43.77932" lon="7.43437">
        <ele>791.78</ele>
        <time>2015-05-01T09:01:31Z</time>
      </trkpt>
      <trkpt lat="43.7793" lon="7.43427">
        <ele>794.19</ele>
        <time>2015-05-01T09:01:42Z</time>
      </trkpt>
      <trkpt lat="43.77934" lon="7.43414">
        <ele>796.59</ele>
        <time>2015-05-01T09:01:54Z</time>
      </trkpt>
      <trkpt lat="43.77936" lon="7.43401">
        <ele>798.03</ele>
        <time>2015-05-01T09:02:05Z</time>
      </trkpt>
      <trkpt lat="43.77939" lon="7.43385">
        <ele>798.99</ele>
        <time>2015-05-01T09:02:18Z</time>
      </trkpt>
      <trkpt lat="43.77941" lon="7.43375">
        <ele>800.44</ele>
        <time>2015-05-01T09:02:28Z</time>
      </trkpt>
      <trkpt lat="43.77944" lon="7.43358">
        <ele>802.84</ele>
        <time>2015-05-01T09:02:41Z</time>
      </trkpt>
      <trkpt lat="43.77947" lon="7.43347">
        <ele>805.72</ele>
        <time>2015-05-01T09:02:51Z</time>
      </trkpt>
      <trkpt lat="43.77948" lon="7.43339">
        <ele>807.16</ele>
        <time>2015-05-01T09:02:58Z</time>
      </trkpt>
      <trkpt lat="43.77949" lon="7.43327">
        <ele>808.61</ele>
        <time>2015-05-01T09:03:09Z</time>
      </trkpt>
      <trkpt lat="43.77949" lon="7.43317">
        <ele>811.01</ele>
        <time>2015-05-01T09:03:17Z</time>
      </trkpt>
      <trkpt lat="43.77948" lon="7.43303">
        <ele>813.41</ele>
        <time>2015-05-01T09:03:29Z</time>
      </trkpt>
      <trkpt lat="43.77948" lon="7.43302">
        <ele>813.41</ele>
        <time>2015-05-01T09:03:30Z</time>
      </trkpt>
      <trkpt lat="43.77945" lon="7.43303">
        <ele>814.85</ele>
        <time>2015-05-01T09:03:40Z</time>
      </trkpt>
      <trkpt lat="43.77935" lon="7.4331">
        <ele>817.26</ele>
        <time>2015-05-01T09:03:51Z</time>
      </trkpt>
      <trkpt lat="43.7792" lon="7.43312">
        <ele>819.18</ele>
        <time>2015-05-01T09:04:03Z</time>
      </trkpt>
      <trkpt lat="43.77914" lon="7.43311">
        <ele>822.06</ele>
        <time>2015-05-01T09:04:15Z</time>
      </trkpt>
      <trkpt lat="43.77922" lon="7.43297">
        <ele>825.43</ele>
        <time>2015-05-01T09:04:29Z</time>
      </trkpt>
      <trkpt lat="43.77917" lon="7.43293">
        <ele>828.79</ele>
        <time>2015-05-01T09:04:41Z</time>
      </trkpt>
      <trkpt lat="43.77913" lon="7.43287">
        <ele>832.16</ele>
        <time>2015-05-01T09:04:53Z</time>
      </trkpt>
      <trkpt lat="43.77915" lon="7.43277">
        <ele>834.08</ele>
        <time>2015-05-01T09:05:01Z</time>
      </trkpt>
      <trkpt lat="43.77917" lon="7.43263">
        <ele>836.48</ele>
        <time>2015-05-01T09:05:12Z</time>
      </trkpt>
      <trkpt lat="43.77924" lon="7.4325">
        <ele>839.37</ele>
        <time>2015-05-01T09:05:25Z</time>
      </trkpt>
      <trkpt lat="43.77929" lon="7.43241">
        <ele>839.85</ele>
        <time>2015-05-01T09:05:36Z</time>
      </trkpt>
      <trkpt lat="43.77937" lon="7.43227">
        <ele>843.69</ele>
        <time>2015-05-01T09:05:50Z</time>
      </trkpt>
      <trkpt lat="43.77942" lon="7.43216">
        <ele>846.58</ele>
        <time>2015-05-01T09:06:03Z</time>
      </trkpt>
      <trkpt lat="43.77946" lon="7.43202">
        <ele>850.42</ele>
        <time>2015-05-01T09:06:17Z</time>
      </trkpt>
      <trkpt lat="43.77945" lon="7.43193">
        <ele>853.31</ele>
        <time>2015-05-01T09:06:28Z</time>
      </trkpt>
      <trkpt lat="43.7795" lon="7.43179">
        <ele>856.19</ele>
        <time>2015-05-01T09:06:40Z</time>
      </trkpt>
      <trkpt lat="43.77954" lon="7.43165">
        <ele>859.08</ele>
        <time>2015-05-01T09:06:52Z</time>
      </trkpt>
      <trkpt lat="43.77957" lon="7.4315">
        <ele>861.48</ele>
        <time>2015-05-01T09:07:04Z</time>
      </trkpt>
      <trkpt lat="43.77959" lon="7.43144">
        <ele>861.96</ele>
        <time>2015-05-01T09:07:09Z</time>
      </trkpt>
      <trkpt lat="43.77961" lon="7.43125">
        <ele>863.88</ele>
        <time>2015-05-01T09:07:24Z</time>
      </trkpt>
      <trkpt lat="43.7796" lon="7.43114">
        <ele>865.32</ele>
        <time>2015-05-01T09:07:35Z</time>
      </trkpt>
      <trkpt lat="43.77957" lon="7.43101">
        <ele>868.21</ele>
        <time>2015-05-01T09:07:46Z</time>
      </trkpt>
      <trkpt lat="43.77958" lon="7.43087">
        <ele>870.61</ele>
        <time>2015-05-01T09:07:59Z</time>
      </trkpt>
      <trkpt lat="43.77961" lon="7.43075">
        <ele>872.53</ele>
        <time>2015-05-01T09:08:10Z</time>
      </trkpt>
      <trkpt lat="43.77963" lon="7.43061">
        <ele>875.42</ele>
        <time>2015-05-01T09:08:23Z</time>
      </trkpt>
      <trkpt lat="43.77963" lon="7.43059">
        <ele>875.42</ele>
        <time>2015-05-01T09:08:25Z</time>
      </trkpt>
      <trkpt lat="43.77964" lon="7.43046">
        <ele>878.78</ele>
        <time>2015-05-01T09:08:38Z</time>
      </trkpt>
      <trkpt lat="43.77966" lon="7.43038">
        <ele>880.22</ele>
        <time>2015-05-01T09:08:44Z</time>
      </trkpt>
      <trkpt lat="43.77969" lon="7.43029">
        <ele>882.15</ele>
        <time>2015-05-01T09:08:52Z</time>
      </trkpt>
      <trkpt lat="43.7797" lon="7.43025">
        <ele>883.11</ele>
        <time>2015-05-01T09:08:55Z</time>
      </trkpt>
      <trkpt lat="43.77969" lon="7.4301">
        <ele>885.99</ele>
        <time>2015-05-01T09:09:08Z</time>
      </trkpt>
      <trkpt lat="43.77968" lon="7.43001">
        <ele>889.36</ele>
        <time>2015-05-01T09:09:20Z</time>
      </trkpt>
      <trkpt lat="43.77969" lon="7.42988">
        <ele>891.76</ele>
        <time>2015-05-01T09:09:32Z</time>
      </trkpt>
      <trkpt lat="43.77967" lon="7.42975">
        <ele>893.68</ele>
        <time>2015-05-01T09:09:44Z</time>
      </trkpt>
      <trkpt lat="43.77966" lon="7.42964">
        <ele>896.57</ele>
        <time>2015-05-01T09:09:56Z</time>
      </trkpt>
      <trkpt lat="43.77967" lon="7.42951">
        <ele>898.97</ele>
        <time>2015-05-01T09:10:09Z</time>
      </trkpt>
      <trkpt lat="43.7797" lon="7.42936">
        <ele>901.85</ele>
        <time>2015-05-01T09:10:22Z</time>
      </trkpt>
      <trkpt lat="43.77968" lon="7.42921">
        <ele>904.26</ele>
        <time>2015-05-01T09:10:36Z</time>
      </trkpt>
      <trkpt lat="43.77969" lon="7.42906">
        <ele>908.1</ele>
        <time>2015-05-01T09:10:48Z</time>
      </trkpt>
      <trkpt lat="43.77969" lon="7.42893">
        <ele>910.99</ele>
        <time>2015-05-01T09:11:01Z</time>
      </trkpt>
      <trkpt lat="43.77968" lon="7.42882">
        <ele>912.91</ele>
        <time>2015-05-01T09:11:13Z</time>
      </trkpt>
      <trkpt lat="43.77968" lon="7.4287">
        <ele>915.31</ele>
        <time>2015-05-01T09:11:25Z</time>
      </trkpt>
      <trkpt lat="43.77965" lon="7.42867">
        <ele>917.24</ele>
        <time>2015-05-01T09:11:36Z</time>
      </trkpt>
      <trkpt lat="43.77967" lon="7.42859">
        <ele>918.2</ele>
        <time>2015-05-01T09:11:42Z</time>
      </trkpt>
      <trkpt lat="43.7797" lon="7.42845">
        <ele>919.64</ele>
        <time>2015-05-01T09:11:53Z</time>
      </trkpt>
      <trkpt lat="43.77974" lon="7.42831">
        <ele>921.56</ele>
        <time>2015-05-01T09:12:05Z</time>
      </trkpt>
      <trkpt lat="43.77979" lon="7.42816">
        <ele>923.48</ele>
        <time>2015-05-01T09:12:17Z</time>
      </trkpt>
      <trkpt lat="43.77984" lon="7.42797">
        <ele>923.96</ele>
        <time>2015-05-01T09:12:31Z</time>
      </trkpt>
      <trkpt lat="43.7799" lon="7.42778">
        <ele>923.96</ele>
        <time>2015-05-01T09:12:44Z</time>
      </trkpt>
      <trkpt lat="43.77997" lon="7.42762">
        <ele>926.37</ele>
        <time>2015-05-01T09:12:56Z</time>
      </trkpt>
      <trkpt lat="43.77999" lon="7.42756">
        <ele>927.33</ele>
        <time>2015-05-01T09:13:00Z</time>
      </trkpt>
      <trkpt lat="43.77999" lon="7.42749">
        <ele>929.25</ele>
        <time>2015-05-01T09:13:09Z</time>
      </trkpt>
      <trkpt lat="43.78002" lon="7.42732">
        <ele>931.17</ele>
        <time>2015-05-01T09:13:21Z</time>
      </trkpt>
      <trkpt lat="43.78003" lon="7.4273">
        <ele>931.17</ele>
        <time>2015-05-01T09:13:22Z</time>
      </trkpt>
      <trkpt lat="43.78002" lon="7.42718">
        <ele>932.14</ele>
        <time>2015-05-01T09:13:30Z</time>
      </trkpt>
      <trkpt lat="43.78005" lon="7.42701">
        <ele>932.14</ele>
        <time>2015-05-01T09:13:44Z</time>
      </trkpt>
      <trkpt lat="43.78006" lon="7.42698">
        <ele>932.14</ele>
        <time>2015-05-01T09:13:46Z</time>
      </trkpt>
      <trkpt lat="43.78007" lon="7.42695">
        <ele>933.58</ele>
        <time>2015-05-01T09:13:49Z</time>
      </trkpt>
      <trkpt lat="43.7801" lon="7.42682">
        <ele>934.06</ele>
        <time>2015-05-01T09:13:59Z</time>
      </trkpt>
      <trkpt lat="43.78008" lon="7.42668">
        <ele>935.98</ele>
        <time>2015-05-01T09:14:11Z</time>
      </trkpt>
      <trkpt lat="43.78012" lon="7.42657">
        <ele>935.98</ele>
        <time>2015-05-01T09:14:23Z</time>
      </trkpt>
      <trkpt lat="43.78019" lon="7.42654">
        <ele>935.98</ele>
        <time>2015-05-01T09:14:31Z</time>
      </trkpt>
      <trkpt lat="43.78024" lon="7.42639">
        <ele>934.54</ele>
        <time>2015-05-01T09:14:44Z</time>
      </trkpt>
      <trkpt lat="43.78031" lon="7.42622">
        <ele>934.54</ele>
        <time>2015-05-01T09:14:55Z</time>
      </trkpt>
      <trkpt lat="43.78031" lon="7.42619">
        <ele>934.54</ele>
        <time>2015-05-01T09:14:57Z</time>
      </trkpt>
      <trkpt lat="43.78033" lon="7.42599">
        <ele>935.98</ele>
        <time>2015-05-01T09:15:07Z</time>
      </trkpt>
      <trkpt lat="43.78032" lon="7.42588">
        <ele>935.98</ele>
        <time>2015-05-01T09:15:14Z</time>
      </trkpt>
      <trkpt lat="43.78026" lon="7.42563">
        <ele>937.9</ele>
        <time>2015-05-01T09:15:27Z</time>
      </trkpt>
      <trkpt lat="43.78029" lon="7.4255">
        <ele>939.83</ele>
        <time>2015-05-01T09:15:39Z</time>
      </trkpt>
      <trkpt lat="43.78037" lon="7.42537">
        <ele>939.83</ele>
        <time>2015-05-01T09:15:57Z</time>
      </trkpt>
      <trkpt lat="43.78037" lon="7.42536">
        <ele>939.83</ele>
        <time>2015-05-01T09:15:58Z</time>
      </trkpt>
      <trkpt lat="43.78038" lon="7.42522">
        <ele>940.31</ele>
        <time>2015-05-01T09:16:11Z</time>
      </trkpt>
      <trkpt lat="43.78038" lon="7.4251">
        <ele>941.75</ele>
        <time>2015-05-01T09:16:21Z</time>
      </trkpt>
      <trkpt lat="43.78035" lon="7.42491">
        <ele>942.71</ele>
        <time>2015-05-01T09:16:33Z</time>
      </trkpt>
      <trkpt lat="43.78037" lon="7.42477">
        <ele>945.11</ele>
        <time>2015-05-01T09:16:45Z</time>
      </trkpt>
      <trkpt lat="43.78045" lon="7.4246">
        <ele>945.59</ele>
        <time>2015-05-01T09:16:59Z</time>
      </trkpt>
      <trkpt lat="43.78048" lon="7.42454">
        <ele>945.59</ele>
        <time>2015-05-01T09:17:05Z</time>
      </trkpt>
      <trkpt lat="43.78051" lon="7.42451">
        <ele>945.59</ele>
        <time>2015-05-01T09:17:07Z</time>
      </trkpt>
      <trkpt lat="43.7806" lon="7.42436">
        <ele>944.63</ele>
        <time>2015-05-01T09:17:22Z</time>
      </trkpt>
      <trkpt lat="43.78064" lon="7.4242">
        <ele>943.19</ele>
        <time>2015-05-01T09:17:34Z</time>
      </trkpt>
      <trkpt lat="43.78071" lon="7.42409">
        <ele>942.23</ele>
        <time>2015-05-01T09:17:44Z</time>
      </trkpt>
      <trkpt lat="43.78075" lon="7.42405">
        <ele>943.67</ele>
        <time>2015-05-01T09:17:48Z</time>
      </trkpt>
      <trkpt lat="43.78086" lon="7.42399">
        <ele>944.63</ele>
        <time>2015-05-01T09:17:59Z</time>
      </trkpt>
      <trkpt lat="43.7809" lon="7.42398">
        <ele>944.63</ele>
        <time>2015-05-01T09:18:02Z</time>
      </trkpt>
      <trkpt lat="43.78093" lon="7.42397">
        <ele>944.63</ele>
        <time>2015-05-01T09:18:04Z</time>
      </trkpt>
      <trkpt lat="43.78104" lon="7.42387">
        <ele>945.59</ele>
        <time>2015-05-01T09:18:16Z</time>
      </trkpt>
      <trkpt lat="43.78115" lon="7.42377">
        <ele>947.52</ele>
        <time>2015-05-01T09:18:28Z</time>
      </trkpt>
      <trkpt lat="43.78117" lon="7.42377">
        <ele>947.52</ele>
        <time>2015-05-01T09:18:30Z</time>
      </trkpt>
      <trkpt lat="43.78131" lon="7.42363">
        <ele>947.52</ele>
        <time>2015-05-01T09:18:42Z</time>
      </trkpt>
      <trkpt lat="43.78147" lon="7.42351">
        <ele>947.52</ele>
        <time>2015-05-01T09:18:53Z</time>
      </trkpt>
      <trkpt lat="43.78162" lon="7.42348">
        <ele>947.04</ele>
        <time>2015-05-01T09:19:03Z</time>
      </trkpt>
      <trkpt lat="43.78171" lon="7.42345">
        <ele>947.04</ele>
        <time>2015-05-01T09:19:11Z</time>
      </trkpt>
      <trkpt lat="43.78179" lon="7.42334">
        <ele>948.48</ele>
        <time>2015-05-01T09:19:23Z</time>
      </trkpt>
      <trkpt lat="43.78181" lon="7.42333">
        <ele>948.48</ele>
        <time>2015-05-01T09:19:25Z</time>
      </trkpt>
      <trkpt lat="43.78189" lon="7.42323">
        <ele>950.4</ele>
        <time>2015-05-01T09:19:34Z</time>
      </trkpt>
      <trkpt lat="43.78195" lon="7.42319">
        <ele>950.88</ele>
        <time>2015-05-01T09:19:38Z</time>
      </trkpt>
      <trkpt lat="43.78201" lon="7.42312">
        <ele>951.36</ele>
        <time>2015-05-01T09:19:45Z</time>
      </trkpt>
      <trkpt lat="43.78215" lon="7.42305">
        <ele>951.84</ele>
        <time>2015-05-01T09:19:56Z</time>
      </trkpt>
      <trkpt lat="43.78228" lon="7.42293">
        <ele>953.28</ele>
        <time>2015-05-01T09:20:08Z</time>
      </trkpt>
      <trkpt lat="43.78229" lon="7.42293">
        <ele>953.28</ele>
        <time>2015-05-01T09:20:09Z</time>
      </trkpt>
      <trkpt lat="43.78232" lon="7.42291">
        <ele>951.84</ele>
        <time>2015-05-01T09:20:11Z</time>
      </trkpt>
      <trkpt lat="43.78245" lon="7.42274">
        <ele>954.25</ele>
        <time>2015-05-01T09:20:23Z</time>
      </trkpt>
      <trkpt lat="43.78259" lon="7.42264">
        <ele>955.21</ele>
        <time>2015-05-01T09:20:34Z</time>
      </trkpt>
      <trkpt lat="43.78266" lon="7.42258">
        <ele>955.21</ele>
        <time>2015-05-01T09:20:39Z</time>
      </trkpt>
      <trkpt lat="43.78272" lon="7.42256">
        <ele>955.21</ele>
        <time>2015-05-01T09:20:42Z</time>
      </trkpt>
      <trkpt lat="43.78293" lon="7.42252">
        <ele>956.65</ele>
        <time>2015-05-01T09:20:54Z</time>
      </trkpt>
      <trkpt lat="43.783" lon="7.42246">
        <ele>957.61</ele>
        <time>2015-05-01T09:20:59Z</time>
      </trkpt>
      <trkpt lat="43.78303" lon="7.42246">
        <ele>957.61</ele>
        <time>2015-05-01T09:21:01Z</time>
      </trkpt>
      <trkpt lat="43.78314" lon="7.42238">
        <ele>959.53</ele>
        <time>2015-05-01T09:21:13Z</time>
      </trkpt>
      <trkpt lat="43.78325" lon="7.42232">
        <ele>960.01</ele>
        <time>2015-05-01T09:21:26Z</time>
      </trkpt>
      <trkpt lat="43.78346" lon="7.42226">
        <ele>960.49</ele>
        <time>2015-05-01T09:21:39Z</time>
      </trkpt>
      <trkpt lat="43.78349" lon="7.42225">
        <ele>960.49</ele>
        <time>2015-05-01T09:21:41Z</time>
      </trkpt>
      <trkpt lat="43.78366" lon="7.42223">
        <ele>960.98</ele>
        <time>2015-05-01T09:21:53Z</time>
      </trkpt>
      <trkpt lat="43.78378" lon="7.42215">
        <ele>960.98</ele>
        <time>2015-05-01T09:22:04Z</time>
      </trkpt>
      <trkpt lat="43.78385" lon="7.42209">
        <ele>961.46</ele>
        <time>2015-05-01T09:22:11Z</time>
      </trkpt>
      <trkpt lat="43.78391" lon="7.42201">
        <ele>961.94</ele>
        <time>2015-05-01T09:22:21Z</time>
      </trkpt>
      <trkpt lat="43.78396" lon="7.42195">
        <ele>962.9</ele>
        <time>2015-05-01T09:22:41Z</time>
      </trkpt>
      <trkpt lat="43.78404" lon="7.42185">
        <ele>964.82</ele>
        <time>2015-05-01T09:22:51Z</time>
      </trkpt>
      <trkpt lat="43.78408" lon="7.4217">
        <ele>967.7</ele>
        <time>2015-05-01T09:23:03Z</time>
      </trkpt>
      <trkpt lat="43.7841" lon="7.42163">
        <ele>968.18</ele>
        <time>2015-05-01T09:23:07Z</time>
      </trkpt>
      <trkpt lat="43.78413" lon="7.42144">
        <ele>969.15</ele>
        <time>2015-05-01T09:23:19Z</time>
      </trkpt>
      <trkpt lat="43.78416" lon="7.42138">
        <ele>970.11</ele>
        <time>2015-05-01T09:23:23Z</time>
      </trkpt>
      <trkpt lat="43.78423" lon="7.4212">
        <ele>970.59</ele>
        <time>2015-05-01T09:23:35Z</time>
      </trkpt>
      <trkpt lat="43.78436" lon="7.42103">
        <ele>971.07</ele>
        <time>2015-05-01T09:23:49Z</time>
      </trkpt>
      <trkpt lat="43.78445" lon="7.42092">
        <ele>972.03</ele>
        <time>2015-05-01T09:23:59Z</time>
      </trkpt>
      <trkpt lat="43.78453" lon="7.42084">
        <ele>972.99</ele>
        <time>2015-05-01T09:24:10Z</time>
      </trkpt>
      <trkpt lat="43.78465" lon="7.42077">
        <ele>973.47</ele>
        <time>2015-05-01T09:24:21Z</time>
      </trkpt>
      <trkpt lat="43.78468" lon="7.42076">
        <ele>973.95</ele>
        <time>2015-05-01T09:24:23Z</time>
      </trkpt>
      <trkpt lat="43.78478" lon="7.42067">
        <ele>975.39</ele>
        <time>2015-05-01T09:24:35Z</time>
      </trkpt>
      <trkpt lat="43.78481" lon="7.42067">
        <ele>975.39</ele>
        <time>2015-05-01T09:24:38Z</time>
      </trkpt>
      <trkpt lat="43.78485" lon="7.42065">
        <ele>973.95</ele>
        <time>2015-05-01T09:24:43Z</time>
      </trkpt>
      <trkpt lat="43.7849" lon="7.42063">
        <ele>972.99</ele>
        <time>2015-05-01T09:24:48Z</time>
      </trkpt>
      <trkpt lat="43.78502" lon="7.42059">
        <ele>972.99</ele>
        <time>2015-05-01T09:25:00Z</time>
      </trkpt>
      <trkpt lat="43.7851" lon="7.42056">
        <ele>973.95</ele>
        <time>2015-05-01T09:25:19Z</time>
      </trkpt>
      <trkpt lat="43.7852" lon="7.42048">
        <ele>974.91</ele>
        <time>2015-05-01T09:25:29Z</time>
      </trkpt>
      <trkpt lat="43.78533" lon="7.42045">
        <ele>977.8</ele>
        <time>2015-05-01T09:25:41Z</time>
      </trkpt>
      <trkpt lat="43.78543" lon="7.42045">
        <ele>979.24</ele>
        <time>2015-05-01T09:25:48Z</time>
      </trkpt>
      <trkpt lat="43.7855" lon="7.42046">
        <ele>981.64</ele>
        <time>2015-05-01T09:25:54Z</time>
      </trkpt>
      <trkpt lat="43.78552" lon="7.42047">
        <ele>981.64</ele>
        <time>2015-05-01T09:25:56Z</time>
      </trkpt>
      <trkpt lat="43.78563" lon="7.42053">
        <ele>982.6</ele>
        <time>2015-05-01T09:26:08Z</time>
      </trkpt>
      <trkpt lat="43.78567" lon="7.42054">
        <ele>983.57</ele>
        <time>2015-05-01T09:26:12Z</time>
      </trkpt>
      <trkpt lat="43.78571" lon="7.42058">
        <ele>984.05</ele>
        <time>2015-05-01T09:26:16Z</time>
      </trkpt>
      <trkpt lat="43.78581" lon="7.42068">
        <ele>984.05</ele>
        <time>2015-05-01T09:26:27Z</time>
      </trkpt>
      <trkpt lat="43.78585" lon="7.42068">
        <ele>984.53</ele>
        <time>2015-05-01T09:26:31Z</time>
      </trkpt>
      <trkpt lat="43.78589" lon="7.4207">
        <ele>985.01</ele>
        <time>2015-05-01T09:26:35Z</time>
      </trkpt>
      <trkpt lat="43.78592" lon="7.42073">
        <ele>985.01</ele>
        <time>2015-05-01T09:26:38Z</time>
      </trkpt>
      <trkpt lat="43.78597" lon="7.42078">
        <ele>985.01</ele>
        <time>2015-05-01T09:26:42Z</time>
      </trkpt>
      <trkpt lat="43.78601" lon="7.4208">
        <ele>985.01</ele>
        <time>2015-05-01T09:26:46Z</time>
      </trkpt>
      <trkpt lat="43.7861" lon="7.42094">
        <ele>985.49</ele>
        <time>2015-05-01T09:26:56Z</time>
      </trkpt>
      <trkpt lat="43.78617" lon="7.42099">
        <ele>985.97</ele>
        <time>2015-05-01T09:27:03Z</time>
      </trkpt>
      <trkpt lat="43.78626" lon="7.42112">
        <ele>985.97</ele>
        <time>2015-05-01T09:27:14Z</time>
      </trkpt>
      <trkpt lat="43.78634" lon="7.42121">
        <ele>987.89</ele>
        <time>2015-05-01T09:27:26Z</time>
      </trkpt>
      <trkpt lat="43.78636" lon="7.42123">
        <ele>988.37</ele>
        <time>2015-05-01T09:27:28Z</time>
      </trkpt>
      <trkpt lat="43.78637" lon="7.42127">
        <ele>988.37</ele>
        <time>2015-05-01T09:27:31Z</time>
      </trkpt>
      <trkpt lat="43.7864" lon="7.42131">
        <ele>988.37</ele>
        <time>2015-05-01T09:27:35Z</time>
      </trkpt>
      <trkpt lat="43.78646" lon="7.42134">
        <ele>989.81</ele>
        <time>2015-05-01T09:27:41Z</time>
      </trkpt>
      <trkpt lat="43.78659" lon="7.42146">
        <ele>992.22</ele>
        <time>2015-05-01T09:27:55Z</time>
      </trkpt>
      <trkpt lat="43.78665" lon="7.42148">
        <ele>994.14</ele>
        <time>2015-05-01T09:28:01Z</time>
      </trkpt>
      <trkpt lat="43.78667" lon="7.42147">
        <ele>995.1</ele>
        <time>2015-05-01T09:28:14Z</time>
      </trkpt>
      <trkpt lat="43.78668" lon="7.42149">
        <ele>995.58</ele>
        <time>2015-05-01T09:28:27Z</time>
      </trkpt>
      <trkpt lat="43.78669" lon="7.42154">
        <ele>995.58</ele>
        <time>2015-05-01T09:28:39Z</time>
      </trkpt>
      <trkpt lat="43.78672" lon="7.42156">
        <ele>995.58</ele>
        <time>2015-05-01T09:28:52Z</time>
      </trkpt>
      <trkpt lat="43.78679" lon="7.4216">
        <ele>995.58</ele>
        <time>2015-05-01T09:29:05Z</time>
      </trkpt>
      <trkpt lat="43.78685" lon="7.42161">
        <ele>994.14</ele>
        <time>2015-05-01T09:29:10Z</time>
      </trkpt>
      <trkpt lat="43.78693" lon="7.42163">
        <ele>994.14</ele>
        <time>2015-05-01T09:29:17Z</time>
      </trkpt>
      <trkpt lat="43.78707" lon="7.42162">
        <ele>994.14</ele>
        <time>2015-05-01T09:29:30Z</time>
      </trkpt>
      <trkpt lat="43.7871" lon="7.42161">
        <ele>994.14</ele>
        <time>2015-05-01T09:29:32Z</time>
      </trkpt>
      <trkpt lat="43.78717" lon="7.42149">
        <ele>995.58</ele>
        <time>2015-05-01T09:29:44Z</time>
      </trkpt>
      <trkpt lat="43.78722" lon="7.42143">
        <ele>995.58</ele>
        <time>2015-05-01T09:29:51Z</time>
      </trkpt>
      <trkpt lat="43.78729" lon="7.42138">
        <ele>994.14</ele>
        <time>2015-05-01T09:29:57Z</time>
      </trkpt>
      <trkpt lat="43.78733" lon="7.42139">
        <ele>992.7</ele>
        <time>2015-05-01T09:30:08Z</time>
      </trkpt>
      <trkpt lat="43.78733" lon="7.42138">
        <ele>996.06</ele>
        <time>2015-05-01T09:30:09Z</time>
      </trkpt>
      <trkpt lat="43.78746" lon="7.42131">
        <ele>994.14</ele>
        <time>2015-05-01T09:30:21Z</time>
      </trkpt>
      <trkpt lat="43.78747" lon="7.42127">
        <ele>997.51</ele>
        <time>2015-05-01T09:30:24Z</time>
      </trkpt>
      <trkpt lat="43.78747" lon="7.42127">
        <ele>997.02</ele>
        <time>2015-05-01T09:30:25Z</time>
      </trkpt>
      <trkpt lat="43.7875" lon="7.42126">
        <ele>997.51</ele>
        <time>2015-05-01T09:30:30Z</time>
      </trkpt>
      <trkpt lat="43.78763" lon="7.4212">
        <ele>997.99</ele>
        <time>2015-05-01T09:30:42Z</time>
      </trkpt>
      <trkpt lat="43.78764" lon="7.42119">
        <ele>998.47</ele>
        <time>2015-05-01T09:30:43Z</time>
      </trkpt>
      <trkpt lat="43.78766" lon="7.42117">
        <ele>998.47</ele>
        <time>2015-05-01T09:30:45Z</time>
      </trkpt>
      <trkpt lat="43.78775" lon="7.42115">
        <ele>998.95</ele>
        <time>2015-05-01T09:30:53Z</time>
      </trkpt>
      <trkpt lat="43.78786" lon="7.42111">
        <ele>1001.35</ele>
        <time>2015-05-01T09:31:04Z</time>
      </trkpt>
      <trkpt lat="43.78791" lon="7.42109">
        <ele>1002.31</ele>
        <time>2015-05-01T09:31:09Z</time>
      </trkpt>
      <trkpt lat="43.78805" lon="7.42111">
        <ele>1004.23</ele>
        <time>2015-05-01T09:31:22Z</time>
      </trkpt>
      <trkpt lat="43.78809" lon="7.42111">
        <ele>1004.72</ele>
        <time>2015-05-01T09:31:26Z</time>
      </trkpt>
      <trkpt lat="43.78811" lon="7.42112">
        <ele>1004.72</ele>
        <time>2015-05-01T09:31:28Z</time>
      </trkpt>
      <trkpt lat="43.78819" lon="7.4211">
        <ele>1005.68</ele>
        <time>2015-05-01T09:31:36Z</time>
      </trkpt>
      <trkpt lat="43.78821" lon="7.42109">
        <ele>1006.16</ele>
        <time>2015-05-01T09:31:38Z</time>
      </trkpt>
      <trkpt lat="43.78824" lon="7.42109">
        <ele>1007.12</ele>
        <time>2015-05-01T09:31:42Z</time>
      </trkpt>
      <trkpt lat="43.78832" lon="7.42111">
        <ele>1008.56</ele>
        <time>2015-05-01T09:31:52Z</time>
      </trkpt>
      <trkpt lat="43.78838" lon="7.42111">
        <ele>1010.96</ele>
        <time>2015-05-01T09:32:02Z</time>
      </trkpt>
      <trkpt lat="43.78844" lon="7.42116">
        <ele>1013.37</ele>
        <time>2015-05-01T09:32:15Z</time>
      </trkpt>
      <trkpt lat="43.78851" lon="7.42118">
        <ele>1016.25</ele>
        <time>2015-05-01T09:32:26Z</time>
      </trkpt>
      <trkpt lat="43.78858" lon="7.42118">
        <ele>1018.65</ele>
        <time>2015-05-01T09:32:38Z</time>
      </trkpt>
      <trkpt lat="43.78859" lon="7.42119">
        <ele>1018.65</ele>
        <time>2015-05-01T09:32:39Z</time>
      </trkpt>
      <trkpt lat="43.78861" lon="7.42122">
        <ele>1019.13</ele>
        <time>2015-05-01T09:32:42Z</time>
      </trkpt>
      <trkpt lat="43.78863" lon="7.42124">
        <ele>1019.13</ele>
        <time>2015-05-01T09:32:44Z</time>
      </trkpt>
      <trkpt lat="43.78876" lon="7.4214">
        <ele>1019.62</ele>
        <time>2015-05-01T09:33:00Z</time>
      </trkpt>
      <trkpt lat="43.78886" lon="7.42145">
        <ele>1019.62</ele>
        <time>2015-05-01T09:33:13Z</time>
      </trkpt>
      <trkpt lat="43.78889" lon="7.42147">
        <ele>1020.1</ele>
        <time>2015-05-01T09:33:16Z</time>
      </trkpt>
      <trkpt lat="43.78894" lon="7.42149">
        <ele>1021.06</ele>
        <time>2015-05-01T09:33:21Z</time>
      </trkpt>
      <trkpt lat="43.78902" lon="7.42155">
        <ele>1021.06</ele>
        <time>2015-05-01T09:33:27Z</time>
      </trkpt>
      <trkpt lat="43.78911" lon="7.42159">
        <ele>1022.98</ele>
        <time>2015-05-01T09:33:35Z</time>
      </trkpt>
      <trkpt lat="43.78914" lon="7.42159">
        <ele>1023.94</ele>
        <time>2015-05-01T09:33:39Z</time>
      </trkpt>
      <trkpt lat="43.78926" lon="7.4217">
        <ele>1027.79</ele>
        <time>2015-05-01T09:33:55Z</time>
      </trkpt>
      <trkpt lat="43.78928" lon="7.42171">
        <ele>1028.27</ele>
        <time>2015-05-01T09:33:57Z</time>
      </trkpt>
      <trkpt lat="43.78938" lon="7.4217">
        <ele>1031.15</ele>
        <time>2015-05-01T09:34:09Z</time>
      </trkpt>
      <trkpt lat="43.78938" lon="7.42169">
        <ele>1031.15</ele>
        <time>2015-05-01T09:34:10Z</time>
      </trkpt>
      <trkpt lat="43.78947" lon="7.42165">
        <ele>1033.55</ele>
        <time>2015-05-01T09:34:21Z</time>
      </trkpt>
      <trkpt lat="43.78955" lon="7.42158">
        <ele>1035</ele>
        <time>2015-05-01T09:34:32Z</time>
      </trkpt>
      <trkpt lat="43.78962" lon="7.42154">
        <ele>1036.44</ele>
        <time>2015-05-01T09:34:40Z</time>
      </trkpt>
      <trkpt lat="43.78965" lon="7.42148">
        <ele>1036.44</ele>
        <time>2015-05-01T09:34:45Z</time>
      </trkpt>
      <trkpt lat="43.78972" lon="7.42138">
        <ele>1035.96</ele>
        <time>2015-05-01T09:34:55Z</time>
      </trkpt>
      <trkpt lat="43.78982" lon="7.42135">
        <ele>1035</ele>
        <time>2015-05-01T09:35:03Z</time>
      </trkpt>
      <trkpt lat="43.78994" lon="7.4212">
        <ele>1033.55</ele>
        <time>2015-05-01T09:35:14Z</time>
      </trkpt>
      <trkpt lat="43.78998" lon="7.42114">
        <ele>1033.55</ele>
        <time>2015-05-01T09:35:18Z</time>
      </trkpt>
      <trkpt lat="43.79009" lon="7.42096">
        <ele>1032.59</ele>
        <time>2015-05-01T09:35:31Z</time>
      </trkpt>
      <trkpt lat="43.79011" lon="7.42087">
        <ele>1032.59</ele>
        <time>2015-05-01T09:35:36Z</time>
      </trkpt>
      <trkpt lat="43.7901" lon="7.42066">
        <ele>1032.59</ele>
        <time>2015-05-01T09:35:48Z</time>
      </trkpt>
      <trkpt lat="43.79016" lon="7.42052">
        <ele>1032.59</ele>
        <time>2015-05-01T09:35:57Z</time>
      </trkpt>
      <trkpt lat="43.79018" lon="7.42044">
        <ele>1032.59</ele>
        <time>2015-05-01T09:36:02Z</time>
      </trkpt>
      <trkpt lat="43.79021" lon="7.42039">
        <ele>1034.04</ele>
        <time>2015-05-01T09:36:06Z</time>
      </trkpt>
      <trkpt lat="43.79033" lon="7.4202">
        <ele>1035.96</ele>
        <time>2015-05-01T09:36:20Z</time>
      </trkpt>
      <trkpt lat="43.7904" lon="7.4201">
        <ele>1036.44</ele>
        <time>2015-05-01T09:36:28Z</time>
      </trkpt>
      <trkpt lat="43.79054" lon="7.41997">
        <ele>1037.4</ele>
        <time>2015-05-01T09:36:41Z</time>
      </trkpt>
      <trkpt lat="43.79067" lon="7.41982">
        <ele>1037.4</ele>
        <time>2015-05-01T09:36:55Z</time>
      </trkpt>
      <trkpt lat="43.7908" lon="7.41967">
        <ele>1037.4</ele>
        <time>2015-05-01T09:37:09Z</time>
      </trkpt>
      <trkpt lat="43.79085" lon="7.41963">
        <ele>1037.88</ele>
        <time>2015-05-01T09:37:13Z</time>
      </trkpt>
      <trkpt lat="43.79096" lon="7.41956">
        <ele>1038.36</ele>
        <time>2015-05-01T09:37:26Z</time>
      </trkpt>
      <trkpt lat="43.79105" lon="7.41951">
        <ele>1039.8</ele>
        <time>2015-05-01T09:37:38Z</time>
      </trkpt>
      <trkpt lat="43.79113" lon="7.41949">
        <ele>1040.76</ele>
        <time>2015-05-01T09:37:49Z</time>
      </trkpt>
      <trkpt lat="43.79115" lon="7.41944">
        <ele>1040.76</ele>
        <time>2015-05-01T09:38:08Z</time>
      </trkpt>
      <trkpt lat="43.79114" lon="7.41943">
        <ele>1042.69</ele>
        <time>2015-05-01T09:38:18Z</time>
      </trkpt>
      <trkpt lat="43.79114" lon="7.41942">
        <ele>1041.25</ele>
        <time>2015-05-01T09:38:20Z</time>
      </trkpt>
      <trkpt lat="43.79127" lon="7.41936">
        <ele>1042.69</ele>
        <time>2015-05-01T09:38:38Z</time>
      </trkpt>
      <trkpt lat="43.79135" lon="7.4193">
        <ele>1044.13</ele>
        <time>2015-05-01T09:38:49Z</time>
      </trkpt>
      <trkpt lat="43.79139" lon="7.41929">
        <ele>1044.13</ele>
        <time>2015-05-01T09:38:54Z</time>
      </trkpt>
      <trkpt lat="43.79157" lon="7.41917">
        <ele>1044.13</ele>
        <time>2015-05-01T09:39:11Z</time>
      </trkpt>
      <trkpt lat="43.79164" lon="7.41913">
        <ele>1044.13</ele>
        <time>2015-05-01T09:39:17Z</time>
      </trkpt>
      <trkpt lat="43.79166" lon="7.41912">
        <ele>1042.69</ele>
        <time>2015-05-01T09:39:19Z</time>
      </trkpt>
      <trkpt lat="43.79181" lon="7.41906">
        <ele>1041.73</ele>
        <time>2015-05-01T09:39:34Z</time>
      </trkpt>
      <trkpt lat="43.79183" lon="7.41907">
        <ele>1041.73</ele>
        <time>2015-05-01T09:39:36Z</time>
      </trkpt>
      <trkpt lat="43.79188" lon="7.41906">
        <ele>1041.73</ele>
        <time>2015-05-01T09:39:41Z</time>
      </trkpt>
      <trkpt lat="43.792" lon="7.41901">
        <ele>1040.76</ele>
        <time>2015-05-01T09:39:56Z</time>
      </trkpt>
      <trkpt lat="43.79202" lon="7.41901">
        <ele>1040.76</ele>
        <time>2015-05-01T09:40:01Z</time>
      </trkpt>
      <trkpt lat="43.7922" lon="7.41908">
        <ele>1039.32</ele>
        <time>2015-05-01T09:40:16Z</time>
      </trkpt>
      <trkpt lat="43.79237" lon="7.41907">
        <ele>1039.32</ele>
        <time>2015-05-01T09:40:30Z</time>
      </trkpt>
      <trkpt lat="43.79252" lon="7.41903">
        <ele>1038.36</ele>
        <time>2015-05-01T09:40:42Z</time>
      </trkpt>
      <trkpt lat="43.79274" lon="7.41896">
        <ele>1037.4</ele>
        <time>2015-05-01T09:41:00Z</time>
      </trkpt>
      <trkpt lat="43.79284" lon="7.41895">
        <ele>1036.92</ele>
        <time>2015-05-01T09:41:08Z</time>
      </trkpt>
      <trkpt lat="43.79307" lon="7.41892">
        <ele>1034.04</ele>
        <time>2015-05-01T09:41:25Z</time>
      </trkpt>
      <trkpt lat="43.79326" lon="7.41896">
        <ele>1032.59</ele>
        <time>2015-05-01T09:41:41Z</time>
      </trkpt>
      <trkpt lat="43.79341" lon="7.41899">
        <ele>1031.63</ele>
        <time>2015-05-01T09:41:52Z</time>
      </trkpt>
      <trkpt lat="43.79346" lon="7.41899">
        <ele>1031.15</ele>
        <time>2015-05-01T09:41:56Z</time>
      </trkpt>
      <trkpt lat="43.79365" lon="7.41906">
        <ele>1028.75</ele>
        <time>2015-05-01T09:42:13Z</time>
      </trkpt>
      <trkpt lat="43.7938" lon="7.41913">
        <ele>1027.79</ele>
        <time>2015-05-01T09:42:26Z</time>
      </trkpt>
      <trkpt lat="43.79388" lon="7.4191">
        <ele>1026.83</ele>
        <time>2015-05-01T09:42:32Z</time>
      </trkpt>
      <trkpt lat="43.79401" lon="7.41887">
        <ele>1024.9</ele>
        <time>2015-05-01T09:42:49Z</time>
      </trkpt>
      <trkpt lat="43.79411" lon="7.41872">
        <ele>1022.98</ele>
        <time>2015-05-01T09:43:00Z</time>
      </trkpt>
      <trkpt lat="43.79412" lon="7.41865">
        <ele>1022.5</ele>
        <time>2015-05-01T09:43:04Z</time>
      </trkpt>
      <trkpt lat="43.79424" lon="7.41843">
        <ele>1019.13</ele>
        <time>2015-05-01T09:43:18Z</time>
      </trkpt>
      <trkpt lat="43.7944" lon="7.41837">
        <ele>1017.69</ele>
        <time>2015-05-01T09:43:30Z</time>
      </trkpt>
      <trkpt lat="43.79453" lon="7.41836">
        <ele>1015.77</ele>
        <time>2015-05-01T09:43:39Z</time>
      </trkpt>
      <trkpt lat="43.79472" lon="7.4183">
        <ele>1013.85</ele>
        <time>2015-05-01T09:43:53Z</time>
      </trkpt>
      <trkpt lat="43.79476" lon="7.41828">
        <ele>1013.37</ele>
        <time>2015-05-01T09:43:56Z</time>
      </trkpt>
      <trkpt lat="43.79477" lon="7.41816">
        <ele>1011.44</ele>
        <time>2015-05-01T09:44:05Z</time>
      </trkpt>
      <trkpt lat="43.79465" lon="7.41816">
        <ele>1010</ele>
        <time>2015-05-01T09:44:14Z</time>
      </trkpt>
      <trkpt lat="43.79458" lon="7.41812">
        <ele>1009.52</ele>
        <time>2015-05-01T09:44:19Z</time>
      </trkpt>
      <trkpt lat="43.79447" lon="7.41792">
        <ele>1008.56</ele>
        <time>2015-05-01T09:44:33Z</time>
      </trkpt>
      <trkpt lat="43.79448" lon="7.41788">
        <ele>1007.6</ele>
        <time>2015-05-01T09:44:36Z</time>
      </trkpt>
      <trkpt lat="43.79467" lon="7.41796">
        <ele>1005.68</ele>
        <time>2015-05-01T09:44:50Z</time>
      </trkpt>
      <trkpt lat="43.79484" lon="7.41786">
        <ele>1003.27</ele>
        <time>2015-05-01T09:45:03Z</time>
      </trkpt>
      <trkpt lat="43.79499" lon="7.41767">
        <ele>1000.39</ele>
        <time>2015-05-01T09:45:17Z</time>
      </trkpt>
      <trkpt lat="43.79506" lon="7.41762">
        <ele>998.95</ele>
        <time>2015-05-01T09:45:23Z</time>
      </trkpt>
      <trkpt lat="43.79525" lon="7.41752">
        <ele>997.51</ele>
        <time>2015-05-01T09:45:36Z</time>
      </trkpt>
      <trkpt lat="43.79546" lon="7.41744">
        <ele>994.62</ele>
        <time>2015-05-01T09:45:50Z</time>
      </trkpt>
      <trkpt lat="43.79555" lon="7.41742">
        <ele>993.18</ele>
        <time>2015-05-01T09:45:56Z</time>
      </trkpt>
      <trkpt lat="43.79576" lon="7.41734">
        <ele>989.81</ele>
        <time>2015-05-01T09:46:10Z</time>
      </trkpt>
      <trkpt lat="43.79597" lon="7.41734">
        <ele>987.89</ele>
        <time>2015-05-01T09:46:24Z</time>
      </trkpt>
      <trkpt lat="43.79606" lon="7.41735">
        <ele>986.93</ele>
        <time>2015-05-01T09:46:30Z</time>
      </trkpt>
      <trkpt lat="43.79609" lon="7.41735">
        <ele>985.97</ele>
        <time>2015-05-01T09:46:32Z</time>
      </trkpt>
      <trkpt lat="43.79629" lon="7.41729">
        <ele>983.09</ele>
        <time>2015-05-01T09:46:47Z</time>
      </trkpt>
      <trkpt lat="43.79651" lon="7.41732">
        <ele>979.72</ele>
        <time>2015-05-01T09:47:01Z</time>
      </trkpt>
      <trkpt lat="43.79657" lon="7.41731">
        <ele>979.24</ele>
        <time>2015-05-01T09:47:05Z</time>
      </trkpt>
      <trkpt lat="43.79665" lon="7.41724">
        <ele>978.76</ele>
        <time>2015-05-01T09:47:12Z</time>
      </trkpt>
      <trkpt lat="43.79665" lon="7.41731">
        <ele>978.76</ele>
        <time>2015-05-01T09:47:22Z</time>
      </trkpt>
      <trkpt lat="43.79665" lon="7.41732">
        <ele>978.76</ele>
        <time>2015-05-01T09:47:31Z</time>
      </trkpt>
      <trkpt lat="43.79666" lon="7.41734">
        <ele>978.28</ele>
        <time>2015-05-01T09:47:34Z</time>
      </trkpt>
      <trkpt lat="43.79678" lon="7.41747">
        <ele>977.32</ele>
        <time>2015-05-01T09:47:47Z</time>
      </trkpt>
      <trkpt lat="43.79681" lon="7.41754">
        <ele>976.36</ele>
        <time>2015-05-01T09:47:57Z</time>
      </trkpt>
      <trkpt lat="43.79683" lon="7.41761">
        <ele>974.91</ele>
        <time>2015-05-01T09:48:09Z</time>
      </trkpt>
      <trkpt lat="43.79687" lon="7.41769">
        <ele>973.47</ele>
        <time>2015-05-01T09:48:18Z</time>
      </trkpt>
      <trkpt lat="43.79688" lon="7.41771">
        <ele>973.47</ele>
        <time>2015-05-01T09:48:20Z</time>
      </trkpt>
      <trkpt lat="43.7969" lon="7.41774">
        <ele>973.47</ele>
        <time>2015-05-01T09:48:23Z</time>
      </trkpt>
      <trkpt lat="43.79696" lon="7.41791">
        <ele>973.47</ele>
        <time>2015-05-01T09:48:36Z</time>
      </trkpt>
      <trkpt lat="43.79702" lon="7.41797">
        <ele>972.99</ele>
        <time>2015-05-01T09:48:46Z</time>
      </trkpt>
      <trkpt lat="43.79703" lon="7.41796">
        <ele>972.99</ele>
        <time>2015-05-01T09:48:50Z</time>
      </trkpt>
      <trkpt lat="43.79717" lon="7.41802">
        <ele>972.51</ele>
        <time>2015-05-01T09:49:01Z</time>
      </trkpt>
      <trkpt lat="43.79729" lon="7.4181">
        <ele>970.59</ele>
        <time>2015-05-01T09:49:12Z</time>
      </trkpt>
      <trkpt lat="43.79733" lon="7.41818">
        <ele>970.11</ele>
        <time>2015-05-01T09:49:26Z</time>
      </trkpt>
      <trkpt lat="43.79738" lon="7.41823">
        <ele>970.11</ele>
        <time>2015-05-01T09:49:32Z</time>
      </trkpt>
      <trkpt lat="43.7974" lon="7.41824">
        <ele>969.63</ele>
        <time>2015-05-01T09:49:35Z</time>
      </trkpt>
      <trkpt lat="43.79746" lon="7.41828">
        <ele>969.15</ele>
        <time>2015-05-01T09:49:41Z</time>
      </trkpt>
      <trkpt lat="43.79751" lon="7.41833">
        <ele>968.67</ele>
        <time>2015-05-01T09:49:45Z</time>
      </trkpt>
      <trkpt lat="43.79762" lon="7.41839">
        <ele>968.67</ele>
        <time>2015-05-01T09:49:54Z</time>
      </trkpt>
      <trkpt lat="43.79769" lon="7.41838">
        <ele>967.7</ele>
        <time>2015-05-01T09:50:01Z</time>
      </trkpt>
      <trkpt lat="43.79776" lon="7.41837">
        <ele>967.22</ele>
        <time>2015-05-01T09:50:07Z</time>
      </trkpt>
      <trkpt lat="43.79787" lon="7.41836">
        <ele>965.78</ele>
        <time>2015-05-01T09:50:15Z</time>
      </trkpt>
      <trkpt lat="43.79799" lon="7.41841">
        <ele>964.82</ele>
        <time>2015-05-01T09:50:25Z</time>
      </trkpt>
      <trkpt lat="43.79801" lon="7.41842">
        <ele>964.82</ele>
        <time>2015-05-01T09:50:27Z</time>
      </trkpt>
      <trkpt lat="43.79813" lon="7.41853">
        <ele>964.82</ele>
        <time>2015-05-01T09:50:39Z</time>
      </trkpt>
      <trkpt lat="43.79815" lon="7.41856">
        <ele>964.34</ele>
        <time>2015-05-01T09:50:42Z</time>
      </trkpt>
      <trkpt lat="43.79829" lon="7.41871">
        <ele>962.9</ele>
        <time>2015-05-01T09:50:57Z</time>
      </trkpt>
      <trkpt lat="43.79838" lon="7.41887">
        <ele>961.46</ele>
        <time>2015-05-01T09:51:06Z</time>
      </trkpt>
      <trkpt lat="43.79842" lon="7.41893">
        <ele>961.46</ele>
        <time>2015-05-01T09:51:10Z</time>
      </trkpt>
      <trkpt lat="43.79844" lon="7.41897">
        <ele>960.49</ele>
        <time>2015-05-01T09:51:12Z</time>
      </trkpt>
      <trkpt lat="43.79853" lon="7.41907">
        <ele>959.53</ele>
        <time>2015-05-01T09:51:21Z</time>
      </trkpt>
      <trkpt lat="43.79856" lon="7.41909">
        <ele>959.53</ele>
        <time>2015-05-01T09:51:23Z</time>
      </trkpt>
      <trkpt lat="43.79867" lon="7.41927">
        <ele>958.09</ele>
        <time>2015-05-01T09:51:36Z</time>
      </trkpt>
      <trkpt lat="43.79869" lon="7.41933">
        <ele>957.13</ele>
        <time>2015-05-01T09:51:48Z</time>
      </trkpt>
      <trkpt lat="43.79874" lon="7.41942">
        <ele>956.65</ele>
        <time>2015-05-01T09:51:58Z</time>
      </trkpt>
      <trkpt lat="43.79873" lon="7.41942">
        <ele>956.65</ele>
        <time>2015-05-01T09:52:01Z</time>
      </trkpt>
      <trkpt lat="43.79877" lon="7.41945">
        <ele>956.17</ele>
        <time>2015-05-01T09:52:06Z</time>
      </trkpt>
      <trkpt lat="43.7988" lon="7.41951">
        <ele>955.69</ele>
        <time>2015-05-01T09:52:10Z</time>
      </trkpt>
      <trkpt lat="43.79885" lon="7.41967">
        <ele>955.21</ele>
        <time>2015-05-01T09:52:19Z</time>
      </trkpt>
      <trkpt lat="43.79888" lon="7.41972">
        <ele>954.25</ele>
        <time>2015-05-01T09:52:23Z</time>
      </trkpt>
      <trkpt lat="43.79899" lon="7.41984">
        <ele>952.32</ele>
        <time>2015-05-01T09:52:35Z</time>
      </trkpt>
      <trkpt lat="43.79905" lon="7.41987">
        <ele>951.84</ele>
        <time>2015-05-01T09:52:40Z</time>
      </trkpt>
      <trkpt lat="43.79923" lon="7.41995">
        <ele>950.4</ele>
        <time>2015-05-01T09:52:53Z</time>
      </trkpt>
      <trkpt lat="43.79939" lon="7.41998">
        <ele>948.48</ele>
        <time>2015-05-01T09:53:07Z</time>
      </trkpt>
      <trkpt lat="43.79956" lon="7.41995">
        <ele>947.04</ele>
        <time>2015-05-01T09:53:21Z</time>
      </trkpt>
      <trkpt lat="43.79959" lon="7.41998">
        <ele>947.04</ele>
        <time>2015-05-01T09:53:25Z</time>
      </trkpt>
      <trkpt lat="43.79968" lon="7.42006">
        <ele>946.07</ele>
        <time>2015-05-01T09:53:31Z</time>
      </trkpt>
      <trkpt lat="43.79969" lon="7.42008">
        <ele>945.59</ele>
        <time>2015-05-01T09:53:32Z</time>
      </trkpt>
      <trkpt lat="43.7997" lon="7.42009">
        <ele>946.07</ele>
        <time>2015-05-01T09:53:33Z</time>
      </trkpt>
      <trkpt lat="43.79972" lon="7.4201">
        <ele>945.59</ele>
        <time>2015-05-01T09:53:34Z</time>
      </trkpt>
      <trkpt lat="43.79973" lon="7.42012">
        <ele>945.11</ele>
        <time>2015-05-01T09:53:35Z</time>
      </trkpt>
      <trkpt lat="43.79976" lon="7.42037">
        <ele>943.67</ele>
        <time>2015-05-01T09:53:48Z</time>
      </trkpt>
      <trkpt lat="43.79975" lon="7.42047">
        <ele>943.19</ele>
        <time>2015-05-01T09:53:53Z</time>
      </trkpt>
      <trkpt lat="43.79975" lon="7.42049">
        <ele>943.19</ele>
        <time>2015-05-01T09:53:54Z</time>
      </trkpt>
      <trkpt lat="43.79975" lon="7.42053">
        <ele>942.71</ele>
        <time>2015-05-01T09:53:57Z</time>
      </trkpt>
      <trkpt lat="43.79975" lon="7.42055">
        <ele>942.71</ele>
        <time>2015-05-01T09:53:58Z</time>
      </trkpt>
      <trkpt lat="43.79976" lon="7.42056">
        <ele>942.71</ele>
        <time>2015-05-01T09:53:59Z</time>
      </trkpt>
      <trkpt lat="43.7998" lon="7.42067">
        <ele>941.75</ele>
        <time>2015-05-01T09:54:06Z</time>
      </trkpt>
      <trkpt lat="43.7998" lon="7.42069">
        <ele>941.75</ele>
        <time>2015-05-01T09:54:07Z</time>
      </trkpt>
      <trkpt lat="43.79982" lon="7.42079">
        <ele>941.27</ele>
        <time>2015-05-01T09:54:13Z</time>
      </trkpt>
      <trkpt lat="43.79982" lon="7.42081">
        <ele>941.27</ele>
        <time>2015-05-01T09:54:14Z</time>
      </trkpt>
      <trkpt lat="43.79983" lon="7.42083">
        <ele>940.79</ele>
        <time>2015-05-01T09:54:15Z</time>
      </trkpt>
      <trkpt lat="43.79984" lon="7.42085">
        <ele>940.79</ele>
        <time>2015-05-01T09:54:16Z</time>
      </trkpt>
      <trkpt lat="43.79986" lon="7.42087">
        <ele>940.79</ele>
        <time>2015-05-01T09:54:17Z</time>
      </trkpt>
      <trkpt lat="43.79988" lon="7.42088">
        <ele>940.79</ele>
        <time>2015-05-01T09:54:19Z</time>
      </trkpt>
      <trkpt lat="43.79989" lon="7.42088">
        <ele>940.79</ele>
        <time>2015-05-01T09:54:20Z</time>
      </trkpt>
      <trkpt lat="43.79994" lon="7.42089">
        <ele>939.83</ele>
        <time>2015-05-01T09:54:24Z</time>
      </trkpt>
      <trkpt lat="43.79995" lon="7.42088">
        <ele>939.83</ele>
        <time>2015-05-01T09:54:25Z</time>
      </trkpt>
      <trkpt lat="43.79996" lon="7.42088">
        <ele>939.35</ele>
        <time>2015-05-01T09:54:26Z</time>
      </trkpt>
      <trkpt lat="43.79998" lon="7.42087">
        <ele>939.35</ele>
        <time>2015-05-01T09:54:27Z</time>
      </trkpt>
      <trkpt lat="43.79999" lon="7.42086">
        <ele>939.35</ele>
        <time>2015-05-01T09:54:28Z</time>
      </trkpt>
      <trkpt lat="43.80001" lon="7.42086">
        <ele>939.35</ele>
        <time>2015-05-01T09:54:29Z</time>
      </trkpt>
      <trkpt lat="43.80012" lon="7.42084">
        <ele>938.38</ele>
        <time>2015-05-01T09:54:37Z</time>
      </trkpt>
      <trkpt lat="43.80022" lon="7.42079">
        <ele>937.42</ele>
        <time>2015-05-01T09:54:46Z</time>
      </trkpt>
      <trkpt lat="43.80023" lon="7.42078">
        <ele>937.42</ele>
        <time>2015-05-01T09:54:47Z</time>
      </trkpt>
      <trkpt lat="43.80032" lon="7.42076">
        <ele>937.42</ele>
        <time>2015-05-01T09:54:53Z</time>
      </trkpt>
      <trkpt lat="43.80044" lon="7.42075">
        <ele>935.5</ele>
        <time>2015-05-01T09:55:02Z</time>
      </trkpt>
      <trkpt lat="43.80045" lon="7.42076">
        <ele>935.5</ele>
        <time>2015-05-01T09:55:03Z</time>
      </trkpt>
      <trkpt lat="43.80048" lon="7.42079">
        <ele>935.5</ele>
        <time>2015-05-01T09:55:06Z</time>
      </trkpt>
      <trkpt lat="43.80049" lon="7.4208">
        <ele>935.5</ele>
        <time>2015-05-01T09:55:07Z</time>
      </trkpt>
      <trkpt lat="43.80053" lon="7.4209">
        <ele>935.5</ele>
        <time>2015-05-01T09:55:14Z</time>
      </trkpt>
      <trkpt lat="43.80053" lon="7.42092">
        <ele>935.5</ele>
        <time>2015-05-01T09:55:15Z</time>
      </trkpt>
      <trkpt lat="43.80053" lon="7.42094">
        <ele>935.5</ele>
        <time>2015-05-01T09:55:16Z</time>
      </trkpt>
      <trkpt lat="43.80055" lon="7.42102">
        <ele>935.5</ele>
        <time>2015-05-01T09:55:20Z</time>
      </trkpt>
      <trkpt lat="43.80057" lon="7.42109">
        <ele>935.02</ele>
        <time>2015-05-01T09:55:24Z</time>
      </trkpt>
      <trkpt lat="43.8006" lon="7.42119">
        <ele>934.06</ele>
        <time>2015-05-01T09:55:30Z</time>
      </trkpt>
      <trkpt lat="43.8006" lon="7.42121">
        <ele>934.06</ele>
        <time>2015-05-01T09:55:31Z</time>
      </trkpt>
      <trkpt lat="43.80061" lon="7.42122">
        <ele>934.06</ele>
        <time>2015-05-01T09:55:32Z</time>
      </trkpt>
      <trkpt lat="43.80062" lon="7.42125">
        <ele>933.58</ele>
        <time>2015-05-01T09:55:33Z</time>
      </trkpt>
      <trkpt lat="43.80063" lon="7.42127">
        <ele>933.58</ele>
        <time>2015-05-01T09:55:34Z</time>
      </trkpt>
      <trkpt lat="43.80064" lon="7.4213">
        <ele>933.58</ele>
        <time>2015-05-01T09:55:36Z</time>
      </trkpt>
      <trkpt lat="43.80065" lon="7.42131">
        <ele>933.58</ele>
        <time>2015-05-01T09:55:37Z</time>
      </trkpt>
      <trkpt lat="43.80065" lon="7.42133">
        <ele>933.58</ele>
        <time>2015-05-01T09:55:38Z</time>
      </trkpt>
      <trkpt lat="43.80064" lon="7.42135">
        <ele>933.58</ele>
        <time>2015-05-01T09:55:39Z</time>
      </trkpt>
      <trkpt lat="43.80065" lon="7.42137">
        <ele>933.1</ele>
        <time>2015-05-01T09:55:40Z</time>
      </trkpt>
      <trkpt lat="43.80065" lon="7.4214">
        <ele>933.1</ele>
        <time>2015-05-01T09:55:41Z</time>
      </trkpt>
      <trkpt lat="43.80065" lon="7.42141">
        <ele>933.1</ele>
        <time>2015-05-01T09:55:42Z</time>
      </trkpt>
      <trkpt lat="43.80069" lon="7.42158">
        <ele>932.14</ele>
        <time>2015-05-01T09:55:52Z</time>
      </trkpt>
      <trkpt lat="43.8007" lon="7.42159">
        <ele>932.14</ele>
        <time>2015-05-01T09:55:53Z</time>
      </trkpt>
      <trkpt lat="43.80075" lon="7.42164">
        <ele>931.65</ele>
        <time>2015-05-01T09:55:58Z</time>
      </trkpt>
      <trkpt lat="43.80076" lon="7.42165">
        <ele>931.65</ele>
        <time>2015-05-01T09:55:59Z</time>
      </trkpt>
      <trkpt lat="43.80076" lon="7.42167">
        <ele>931.65</ele>
        <time>2015-05-01T09:56:00Z</time>
      </trkpt>
      <trkpt lat="43.80072" lon="7.42174">
        <ele>930.21</ele>
        <time>2015-05-01T09:56:07Z</time>
      </trkpt>
      <trkpt lat="43.80071" lon="7.42175">
        <ele>930.21</ele>
        <time>2015-05-01T09:56:08Z</time>
      </trkpt>
      <trkpt lat="43.8007" lon="7.42177">
        <ele>930.21</ele>
        <time>2015-05-01T09:56:09Z</time>
      </trkpt>
      <trkpt lat="43.8007" lon="7.4218">
        <ele>930.21</ele>
        <time>2015-05-01T09:56:10Z</time>
      </trkpt>
      <trkpt lat="43.80069" lon="7.42182">
        <ele>930.21</ele>
        <time>2015-05-01T09:56:11Z</time>
      </trkpt>
      <trkpt lat="43.80068" lon="7.42184">
        <ele>930.21</ele>
        <time>2015-05-01T09:56:12Z</time>
      </trkpt>
      <trkpt lat="43.80066" lon="7.4219">
        <ele>929.73</ele>
        <time>2015-05-01T09:56:16Z</time>
      </trkpt>
      <trkpt lat="43.80058" lon="7.4221">
        <ele>928.77</ele>
        <time>2015-05-01T09:56:29Z</time>
      </trkpt>
      <trkpt lat="43.80056" lon="7.4223">
        <ele>927.33</ele>
        <time>2015-05-01T09:56:41Z</time>
      </trkpt>
      <trkpt lat="43.80045" lon="7.4225">
        <ele>925.89</ele>
        <time>2015-05-01T09:56:53Z</time>
      </trkpt>
      <trkpt lat="43.80037" lon="7.42262">
        <ele>925.41</ele>
        <time>2015-05-01T09:57:01Z</time>
      </trkpt>
      <trkpt lat="43.80036" lon="7.42264">
        <ele>925.41</ele>
        <time>2015-05-01T09:57:02Z</time>
      </trkpt>
      <trkpt lat="43.80035" lon="7.42266">
        <ele>924.93</ele>
        <time>2015-05-01T09:57:04Z</time>
      </trkpt>
      <trkpt lat="43.80034" lon="7.42267">
        <ele>924.93</ele>
        <time>2015-05-01T09:57:05Z</time>
      </trkpt>
      <trkpt lat="43.80028" lon="7.42288">
        <ele>923.48</ele>
        <time>2015-05-01T09:57:17Z</time>
      </trkpt>
      <trkpt lat="43.80031" lon="7.42311">
        <ele>922.04</ele>
        <time>2015-05-01T09:57:29Z</time>
      </trkpt>
      <trkpt lat="43.80032" lon="7.42318">
        <ele>922.04</ele>
        <time>2015-05-01T09:57:32Z</time>
      </trkpt>
      <trkpt lat="43.80033" lon="7.42319">
        <ele>922.04</ele>
        <time>2015-05-01T09:57:33Z</time>
      </trkpt>
      <trkpt lat="43.80038" lon="7.42325">
        <ele>921.56</ele>
        <time>2015-05-01T09:57:45Z</time>
      </trkpt>
      <trkpt lat="43.80042" lon="7.42335">
        <ele>920.12</ele>
        <time>2015-05-01T09:58:04Z</time>
      </trkpt>
      <trkpt lat="43.80045" lon="7.42339">
        <ele>919.64</ele>
        <time>2015-05-01T09:58:09Z</time>
      </trkpt>
      <trkpt lat="43.8005" lon="7.4234">
        <ele>919.16</ele>
        <time>2015-05-01T09:58:21Z</time>
      </trkpt>
      <trkpt lat="43.80051" lon="7.42343">
        <ele>919.16</ele>
        <time>2015-05-01T09:58:23Z</time>
      </trkpt>
      <trkpt lat="43.80052" lon="7.42344">
        <ele>919.16</ele>
        <time>2015-05-01T09:58:24Z</time>
      </trkpt>
      <trkpt lat="43.80053" lon="7.42345">
        <ele>919.64</ele>
        <time>2015-05-01T09:58:25Z</time>
      </trkpt>
      <trkpt lat="43.80054" lon="7.42346">
        <ele>919.64</ele>
        <time>2015-05-01T09:58:26Z</time>
      </trkpt>
      <trkpt lat="43.80058" lon="7.42349">
        <ele>918.68</ele>
        <time>2015-05-01T09:58:30Z</time>
      </trkpt>
      <trkpt lat="43.80059" lon="7.4235">
        <ele>918.2</ele>
        <time>2015-05-01T09:58:31Z</time>
      </trkpt>
      <trkpt lat="43.8006" lon="7.42351">
        <ele>918.2</ele>
        <time>2015-05-01T09:58:32Z</time>
      </trkpt>
      <trkpt lat="43.80062" lon="7.42353">
        <ele>918.2</ele>
        <time>2015-05-01T09:58:33Z</time>
      </trkpt>
      <trkpt lat="43.80063" lon="7.42353">
        <ele>918.2</ele>
        <time>2015-05-01T09:58:34Z</time>
      </trkpt>
      <trkpt lat="43.80064" lon="7.42354">
        <ele>918.2</ele>
        <time>2015-05-01T09:58:35Z</time>
      </trkpt>
      <trkpt lat="43.80065" lon="7.42355">
        <ele>917.72</ele>
        <time>2015-05-01T09:58:36Z</time>
      </trkpt>
      <trkpt lat="43.80067" lon="7.42356">
        <ele>917.72</ele>
        <time>2015-05-01T09:58:37Z</time>
      </trkpt>
      <trkpt lat="43.80075" lon="7.42365">
        <ele>916.75</ele>
        <time>2015-05-01T09:58:45Z</time>
      </trkpt>
      <trkpt lat="43.80077" lon="7.42365">
        <ele>916.75</ele>
        <time>2015-05-01T09:58:46Z</time>
      </trkpt>
      <trkpt lat="43.80078" lon="7.42365">
        <ele>916.75</ele>
        <time>2015-05-01T09:58:47Z</time>
      </trkpt>
      <trkpt lat="43.8008" lon="7.42365">
        <ele>916.27</ele>
        <time>2015-05-01T09:58:48Z</time>
      </trkpt>
      <trkpt lat="43.80081" lon="7.42366">
        <ele>916.27</ele>
        <time>2015-05-01T09:58:49Z</time>
      </trkpt>
      <trkpt lat="43.80082" lon="7.42367">
        <ele>916.27</ele>
        <time>2015-05-01T09:58:50Z</time>
      </trkpt>
      <trkpt lat="43.80083" lon="7.42368">
        <ele>916.27</ele>
        <time>2015-05-01T09:58:51Z</time>
      </trkpt>
      <trkpt lat="43.80097" lon="7.42373">
        <ele>914.83</ele>
        <time>2015-05-01T09:59:02Z</time>
      </trkpt>
      <trkpt lat="43.801" lon="7.42373">
        <ele>914.35</ele>
        <time>2015-05-01T09:59:04Z</time>
      </trkpt>
      <trkpt lat="43.80102" lon="7.42374">
        <ele>914.35</ele>
        <time>2015-05-01T09:59:06Z</time>
      </trkpt>
      <trkpt lat="43.80104" lon="7.42374">
        <ele>914.35</ele>
        <time>2015-05-01T09:59:07Z</time>
      </trkpt>
      <trkpt lat="43.80105" lon="7.42375">
        <ele>914.35</ele>
        <time>2015-05-01T09:59:08Z</time>
      </trkpt>
      <trkpt lat="43.80116" lon="7.42373">
        <ele>913.39</ele>
        <time>2015-05-01T09:59:17Z</time>
      </trkpt>
      <trkpt lat="43.80123" lon="7.42375">
        <ele>911.95</ele>
        <time>2015-05-01T09:59:24Z</time>
      </trkpt>
      <trkpt lat="43.80125" lon="7.42376">
        <ele>911.95</ele>
        <time>2015-05-01T09:59:25Z</time>
      </trkpt>
      <trkpt lat="43.80139" lon="7.42375">
        <ele>910.99</ele>
        <time>2015-05-01T09:59:36Z</time>
      </trkpt>
      <trkpt lat="43.80154" lon="7.42376">
        <ele>909.06</ele>
        <time>2015-05-01T09:59:50Z</time>
      </trkpt>
      <trkpt lat="43.80159" lon="7.42377">
        <ele>908.1</ele>
        <time>2015-05-01T09:59:54Z</time>
      </trkpt>
      <trkpt lat="43.80185" lon="7.42379">
        <ele>907.14</ele>
        <time>2015-05-01T10:00:07Z</time>
      </trkpt>
      <trkpt lat="43.80187" lon="7.42379">
        <ele>906.66</ele>
        <time>2015-05-01T10:00:08Z</time>
      </trkpt>
      <trkpt lat="43.80193" lon="7.4238">
        <ele>906.18</ele>
        <time>2015-05-01T10:00:13Z</time>
      </trkpt>
      <trkpt lat="43.80208" lon="7.4238">
        <ele>905.22</ele>
        <time>2015-05-01T10:00:22Z</time>
      </trkpt>
      <trkpt lat="43.80211" lon="7.4238">
        <ele>905.22</ele>
        <time>2015-05-01T10:00:25Z</time>
      </trkpt>
      <trkpt lat="43.80213" lon="7.42381">
        <ele>905.22</ele>
        <time>2015-05-01T10:00:26Z</time>
      </trkpt>
      <trkpt lat="43.80214" lon="7.42381">
        <ele>905.22</ele>
        <time>2015-05-01T10:00:27Z</time>
      </trkpt>
      <trkpt lat="43.80216" lon="7.4238">
        <ele>904.74</ele>
        <time>2015-05-01T10:00:28Z</time>
      </trkpt>
      <trkpt lat="43.80217" lon="7.4238">
        <ele>904.74</ele>
        <time>2015-05-01T10:00:29Z</time>
      </trkpt>
      <trkpt lat="43.80219" lon="7.4238">
        <ele>904.74</ele>
        <time>2015-05-01T10:00:30Z</time>
      </trkpt>
      <trkpt lat="43.80221" lon="7.42381">
        <ele>904.74</ele>
        <time>2015-05-01T10:00:31Z</time>
      </trkpt>
      <trkpt lat="43.80223" lon="7.4238">
        <ele>904.26</ele>
        <time>2015-05-01T10:00:33Z</time>
      </trkpt>
      <trkpt lat="43.80237" lon="7.42378">
        <ele>903.3</ele>
        <time>2015-05-01T10:00:46Z</time>
      </trkpt>
      <trkpt lat="43.8025" lon="7.42376">
        <ele>903.3</ele>
        <time>2015-05-01T10:00:58Z</time>
      </trkpt>
      <trkpt lat="43.80257" lon="7.42375">
        <ele>904.74</ele>
        <time>2015-05-01T10:01:03Z</time>
      </trkpt>
      <trkpt lat="43.80261" lon="7.42376">
        <ele>905.22</ele>
        <time>2015-05-01T10:01:06Z</time>
      </trkpt>
      <trkpt lat="43.80269" lon="7.42372">
        <ele>908.1</ele>
        <time>2015-05-01T10:01:15Z</time>
      </trkpt>
      <trkpt lat="43.80279" lon="7.42371">
        <ele>909.54</ele>
        <time>2015-05-01T10:01:24Z</time>
      </trkpt>
      <trkpt lat="43.8028" lon="7.4237">
        <ele>909.54</ele>
        <time>2015-05-01T10:01:25Z</time>
      </trkpt>
      <trkpt lat="43.80286" lon="7.42365">
        <ele>910.99</ele>
        <time>2015-05-01T10:01:32Z</time>
      </trkpt>
      <trkpt lat="43.80288" lon="7.42365">
        <ele>910.99</ele>
        <time>2015-05-01T10:01:33Z</time>
      </trkpt>
      <trkpt lat="43.80295" lon="7.42364">
        <ele>913.87</ele>
        <time>2015-05-01T10:01:44Z</time>
      </trkpt>
      <trkpt lat="43.80305" lon="7.42358">
        <ele>916.27</ele>
        <time>2015-05-01T10:01:57Z</time>
      </trkpt>
      <trkpt lat="43.8031" lon="7.42352">
        <ele>919.16</ele>
        <time>2015-05-01T10:02:08Z</time>
      </trkpt>
      <trkpt lat="43.80314" lon="7.42344">
        <ele>921.08</ele>
        <time>2015-05-01T10:02:22Z</time>
      </trkpt>
      <trkpt lat="43.80316" lon="7.42339">
        <ele>921.08</ele>
        <time>2015-05-01T10:02:38Z</time>
      </trkpt>
      <trkpt lat="43.80315" lon="7.42333">
        <ele>921.56</ele>
        <time>2015-05-01T10:02:57Z</time>
      </trkpt>
      <trkpt lat="43.80313" lon="7.4233">
        <ele>921.56</ele>
        <time>2015-05-01T10:03:18Z</time>
      </trkpt>
      <trkpt lat="43.80313" lon="7.42328">
        <ele>922.04</ele>
        <time>2015-05-01T10:03:49Z</time>
      </trkpt>
      <trkpt lat="43.80315" lon="7.42329">
        <ele>922.04</ele>
        <time>2015-05-01T10:04:10Z</time>
      </trkpt>
      <trkpt lat="43.80316" lon="7.42329">
        <ele>922.04</ele>
        <time>2015-05-01T10:04:30Z</time>
      </trkpt>
      <trkpt lat="43.80317" lon="7.42325">
        <ele>922.52</ele>
        <time>2015-05-01T10:04:54Z</time>
      </trkpt>
      <trkpt lat="43.8032" lon="7.42326">
        <ele>923</ele>
        <time>2015-05-01T10:05:05Z</time>
      </trkpt>
      <trkpt lat="43.80323" lon="7.42329">
        <ele>924.45</ele>
        <time>2015-05-01T10:05:19Z</time>
      </trkpt>
      <trkpt lat="43.8033" lon="7.42333">
        <ele>924.93</ele>
        <time>2015-05-01T10:05:33Z</time>
      </trkpt>
      <trkpt lat="43.80331" lon="7.4234">
        <ele>925.41</ele>
        <time>2015-05-01T10:05:50Z</time>
      </trkpt>
      <trkpt lat="43.80331" lon="7.42338">
        <ele>925.41</ele>
        <time>2015-05-01T10:06:06Z</time>
      </trkpt>
      <trkpt lat="43.80333" lon="7.42336">
        <ele>925.41</ele>
        <time>2015-05-01T10:06:08Z</time>
      </trkpt>
      <trkpt lat="43.80335" lon="7.42334">
        <ele>925.41</ele>
        <time>2015-05-01T10:06:10Z</time>
      </trkpt>
      <trkpt lat="43.80344" lon="7.42326">
        <ele>925.89</ele>
        <time>2015-05-01T10:06:23Z</time>
      </trkpt>
      <trkpt lat="43.80353" lon="7.42329">
        <ele>928.77</ele>
        <time>2015-05-01T10:06:32Z</time>
      </trkpt>
      <trkpt lat="43.80353" lon="7.4233">
        <ele>928.77</ele>
        <time>2015-05-01T10:06:33Z</time>
      </trkpt>
      <trkpt lat="43.80356" lon="7.42332">
        <ele>928.77</ele>
        <time>2015-05-01T10:06:36Z</time>
      </trkpt>
      <trkpt lat="43.80365" lon="7.42331">
        <ele>930.69</ele>
        <time>2015-05-01T10:06:48Z</time>
      </trkpt>
      <trkpt lat="43.80371" lon="7.42338">
        <ele>932.62</ele>
        <time>2015-05-01T10:06:57Z</time>
      </trkpt>
      <trkpt lat="43.80372" lon="7.42341">
        <ele>934.06</ele>
        <time>2015-05-01T10:07:00Z</time>
      </trkpt>
      <trkpt lat="43.8037" lon="7.42347">
        <ele>935.02</ele>
        <time>2015-05-01T10:07:05Z</time>
      </trkpt>
      <trkpt lat="43.80374" lon="7.42357">
        <ele>937.42</ele>
        <time>2015-05-01T10:07:16Z</time>
      </trkpt>
      <trkpt lat="43.80385" lon="7.42361">
        <ele>939.83</ele>
        <time>2015-05-01T10:07:27Z</time>
      </trkpt>
      <trkpt lat="43.80395" lon="7.42363">
        <ele>941.75</ele>
        <time>2015-05-01T10:07:39Z</time>
      </trkpt>
      <trkpt lat="43.80404" lon="7.42361">
        <ele>943.67</ele>
        <time>2015-05-01T10:07:52Z</time>
      </trkpt>
      <trkpt lat="43.80418" lon="7.42364">
        <ele>946.56</ele>
        <time>2015-05-01T10:08:06Z</time>
      </trkpt>
      <trkpt lat="43.80426" lon="7.42364">
        <ele>948</ele>
        <time>2015-05-01T10:08:15Z</time>
      </trkpt>
      <trkpt lat="43.80436" lon="7.42371">
        <ele>950.4</ele>
        <time>2015-05-01T10:08:27Z</time>
      </trkpt>
      <trkpt lat="43.80439" lon="7.42374">
        <ele>951.36</ele>
        <time>2015-05-01T10:08:31Z</time>
      </trkpt>
      <trkpt lat="43.80447" lon="7.42382">
        <ele>953.77</ele>
        <time>2015-05-01T10:08:43Z</time>
      </trkpt>
      <trkpt lat="43.80452" lon="7.42393">
        <ele>955.21</ele>
        <time>2015-05-01T10:08:59Z</time>
      </trkpt>
      <trkpt lat="43.80457" lon="7.42399">
        <ele>957.13</ele>
        <time>2015-05-01T10:09:10Z</time>
      </trkpt>
      <trkpt lat="43.80466" lon="7.42404">
        <ele>958.09</ele>
        <time>2015-05-01T10:09:21Z</time>
      </trkpt>
      <trkpt lat="43.80475" lon="7.42404">
        <ele>958.09</ele>
        <time>2015-05-01T10:09:36Z</time>
      </trkpt>
      <trkpt lat="43.80481" lon="7.42401">
        <ele>958.09</ele>
        <time>2015-05-01T10:10:07Z</time>
      </trkpt>
      <trkpt lat="43.80485" lon="7.42411">
        <ele>960.98</ele>
        <time>2015-05-01T10:10:20Z</time>
      </trkpt>
      <trkpt lat="43.80491" lon="7.42416">
        <ele>961.46</ele>
        <time>2015-05-01T10:10:33Z</time>
      </trkpt>
      <trkpt lat="43.80493" lon="7.42417">
        <ele>961.46</ele>
        <time>2015-05-01T10:10:36Z</time>
      </trkpt>
      <trkpt lat="43.80503" lon="7.42425">
        <ele>962.42</ele>
        <time>2015-05-01T10:10:46Z</time>
      </trkpt>
      <trkpt lat="43.80513" lon="7.42437">
        <ele>964.82</ele>
        <time>2015-05-01T10:10:57Z</time>
      </trkpt>
      <trkpt lat="43.80516" lon="7.42439">
        <ele>965.3</ele>
        <time>2015-05-01T10:10:59Z</time>
      </trkpt>
      <trkpt lat="43.80526" lon="7.42457">
        <ele>966.26</ele>
        <time>2015-05-01T10:11:11Z</time>
      </trkpt>
      <trkpt lat="43.80537" lon="7.42468">
        <ele>966.26</ele>
        <time>2015-05-01T10:11:20Z</time>
      </trkpt>
      <trkpt lat="43.80544" lon="7.42472">
        <ele>966.74</ele>
        <time>2015-05-01T10:11:26Z</time>
      </trkpt>
      <trkpt lat="43.80551" lon="7.42475">
        <ele>967.22</ele>
        <time>2015-05-01T10:11:34Z</time>
      </trkpt>
      <trkpt lat="43.80556" lon="7.42479">
        <ele>968.18</ele>
        <time>2015-05-01T10:11:39Z</time>
      </trkpt>
      <trkpt lat="43.80557" lon="7.4248">
        <ele>968.18</ele>
        <time>2015-05-01T10:11:41Z</time>
      </trkpt>
      <trkpt lat="43.80568" lon="7.42489">
        <ele>969.63</ele>
        <time>2015-05-01T10:11:52Z</time>
      </trkpt>
      <trkpt lat="43.80578" lon="7.42487">
        <ele>969.63</ele>
        <time>2015-05-01T10:12:02Z</time>
      </trkpt>
      <trkpt lat="43.80582" lon="7.42486">
        <ele>969.63</ele>
        <time>2015-05-01T10:12:05Z</time>
      </trkpt>
      <trkpt lat="43.80584" lon="7.42485">
        <ele>970.11</ele>
        <time>2015-05-01T10:12:07Z</time>
      </trkpt>
      <trkpt lat="43.80601" lon="7.4248">
        <ele>970.59</ele>
        <time>2015-05-01T10:12:19Z</time>
      </trkpt>
      <trkpt lat="43.80606" lon="7.42478">
        <ele>970.59</ele>
        <time>2015-05-01T10:12:23Z</time>
      </trkpt>
      <trkpt lat="43.80623" lon="7.42472">
        <ele>969.15</ele>
        <time>2015-05-01T10:12:36Z</time>
      </trkpt>
      <trkpt lat="43.80634" lon="7.42472">
        <ele>968.18</ele>
        <time>2015-05-01T10:12:45Z</time>
      </trkpt>
      <trkpt lat="43.80637" lon="7.42474">
        <ele>967.7</ele>
        <time>2015-05-01T10:12:48Z</time>
      </trkpt>
      <trkpt lat="43.80647" lon="7.42472">
        <ele>968.67</ele>
        <time>2015-05-01T10:13:01Z</time>
      </trkpt>
      <trkpt lat="43.80653" lon="7.42467">
        <ele>967.22</ele>
        <time>2015-05-01T10:13:07Z</time>
      </trkpt>
      <trkpt lat="43.80662" lon="7.42468">
        <ele>966.26</ele>
        <time>2015-05-01T10:13:14Z</time>
      </trkpt>
      <trkpt lat="43.80669" lon="7.42462">
        <ele>966.26</ele>
        <time>2015-05-01T10:13:22Z</time>
      </trkpt>
      <trkpt lat="43.80676" lon="7.42455">
        <ele>968.18</ele>
        <time>2015-05-01T10:13:33Z</time>
      </trkpt>
      <trkpt lat="43.80676" lon="7.42453">
        <ele>968.18</ele>
        <time>2015-05-01T10:13:34Z</time>
      </trkpt>
      <trkpt lat="43.8068" lon="7.42441">
        <ele>968.18</ele>
        <time>2015-05-01T10:13:41Z</time>
      </trkpt>
      <trkpt lat="43.80687" lon="7.42429">
        <ele>968.18</ele>
        <time>2015-05-01T10:13:51Z</time>
      </trkpt>
      <trkpt lat="43.80688" lon="7.42426">
        <ele>968.18</ele>
        <time>2015-05-01T10:13:53Z</time>
      </trkpt>
      <trkpt lat="43.80698" lon="7.42417">
        <ele>968.18</ele>
        <time>2015-05-01T10:14:05Z</time>
      </trkpt>
      <trkpt lat="43.80705" lon="7.42409">
        <ele>969.15</ele>
        <time>2015-05-01T10:14:16Z</time>
      </trkpt>
      <trkpt lat="43.80719" lon="7.42396">
        <ele>970.11</ele>
        <time>2015-05-01T10:14:28Z</time>
      </trkpt>
      <trkpt lat="43.8073" lon="7.42389">
        <ele>970.11</ele>
        <time>2015-05-01T10:14:39Z</time>
      </trkpt>
      <trkpt lat="43.80731" lon="7.42387">
        <ele>970.11</ele>
        <time>2015-05-01T10:14:41Z</time>
      </trkpt>
      <trkpt lat="43.80742" lon="7.42378">
        <ele>971.07</ele>
        <time>2015-05-01T10:14:54Z</time>
      </trkpt>
      <trkpt lat="43.80744" lon="7.42377">
        <ele>971.55</ele>
        <time>2015-05-01T10:14:56Z</time>
      </trkpt>
      <trkpt lat="43.80748" lon="7.42369">
        <ele>971.55</ele>
        <time>2015-05-01T10:15:01Z</time>
      </trkpt>
      <trkpt lat="43.80753" lon="7.42366">
        <ele>970.11</ele>
        <time>2015-05-01T10:15:05Z</time>
      </trkpt>
      <trkpt lat="43.80752" lon="7.42364">
        <ele>970.11</ele>
        <time>2015-05-01T10:15:20Z</time>
      </trkpt>
      <trkpt lat="43.80759" lon="7.42364">
        <ele>969.63</ele>
        <time>2015-05-01T10:15:24Z</time>
      </trkpt>
      <trkpt lat="43.80772" lon="7.42363">
        <ele>968.67</ele>
        <time>2015-05-01T10:15:36Z</time>
      </trkpt>
      <trkpt lat="43.80777" lon="7.4236">
        <ele>967.7</ele>
        <time>2015-05-01T10:15:40Z</time>
      </trkpt>
      <trkpt lat="43.80781" lon="7.42351">
        <ele>966.74</ele>
        <time>2015-05-01T10:15:47Z</time>
      </trkpt>
      <trkpt lat="43.80788" lon="7.4234">
        <ele>964.82</ele>
        <time>2015-05-01T10:15:56Z</time>
      </trkpt>
      <trkpt lat="43.80789" lon="7.42336">
        <ele>964.82</ele>
        <time>2015-05-01T10:15:59Z</time>
      </trkpt>
      <trkpt lat="43.8079" lon="7.42334">
        <ele>964.34</ele>
        <time>2015-05-01T10:16:01Z</time>
      </trkpt>
      <trkpt lat="43.80792" lon="7.42322">
        <ele>962.42</ele>
        <time>2015-05-01T10:16:11Z</time>
      </trkpt>
      <trkpt lat="43.80798" lon="7.42309">
        <ele>961.46</ele>
        <time>2015-05-01T10:16:23Z</time>
      </trkpt>
      <trkpt lat="43.80805" lon="7.42293">
        <ele>959.05</ele>
        <time>2015-05-01T10:16:36Z</time>
      </trkpt>
      <trkpt lat="43.80805" lon="7.42291">
        <ele>959.05</ele>
        <time>2015-05-01T10:16:37Z</time>
      </trkpt>
      <trkpt lat="43.80806" lon="7.42282">
        <ele>958.09</ele>
        <time>2015-05-01T10:16:43Z</time>
      </trkpt>
      <trkpt lat="43.80806" lon="7.42275">
        <ele>958.09</ele>
        <time>2015-05-01T10:16:48Z</time>
      </trkpt>
      <trkpt lat="43.8081" lon="7.42253">
        <ele>956.17</ele>
        <time>2015-05-01T10:17:00Z</time>
      </trkpt>
      <trkpt lat="43.80811" lon="7.42247">
        <ele>956.17</ele>
        <time>2015-05-01T10:17:03Z</time>
      </trkpt>
      <trkpt lat="43.8081" lon="7.42225">
        <ele>955.69</ele>
        <time>2015-05-01T10:17:15Z</time>
      </trkpt>
      <trkpt lat="43.8081" lon="7.42223">
        <ele>955.69</ele>
        <time>2015-05-01T10:17:16Z</time>
      </trkpt>
      <trkpt lat="43.80806" lon="7.4219">
        <ele>954.73</ele>
        <time>2015-05-01T10:17:32Z</time>
      </trkpt>
      <trkpt lat="43.80804" lon="7.42181">
        <ele>954.73</ele>
        <time>2015-05-01T10:17:37Z</time>
      </trkpt>
      <trkpt lat="43.80802" lon="7.42171">
        <ele>954.73</ele>
        <time>2015-05-01T10:17:42Z</time>
      </trkpt>
      <trkpt lat="43.808" lon="7.42167">
        <ele>954.73</ele>
        <time>2015-05-01T10:17:44Z</time>
      </trkpt>
      <trkpt lat="43.80794" lon="7.42156">
        <ele>953.28</ele>
        <time>2015-05-01T10:17:51Z</time>
      </trkpt>
      <trkpt lat="43.80779" lon="7.42141">
        <ele>951.84</ele>
        <time>2015-05-01T10:18:05Z</time>
      </trkpt>
      <trkpt lat="43.80777" lon="7.42141">
        <ele>951.84</ele>
        <time>2015-05-01T10:18:07Z</time>
      </trkpt>
      <trkpt lat="43.80772" lon="7.42141">
        <ele>950.88</ele>
        <time>2015-05-01T10:18:11Z</time>
      </trkpt>
      <trkpt lat="43.80764" lon="7.42135">
        <ele>949.44</ele>
        <time>2015-05-01T10:18:18Z</time>
      </trkpt>
      <trkpt lat="43.8076" lon="7.42127">
        <ele>948.96</ele>
        <time>2015-05-01T10:18:24Z</time>
      </trkpt>
      <trkpt lat="43.80758" lon="7.42123">
        <ele>948.48</ele>
        <time>2015-05-01T10:18:27Z</time>
      </trkpt>
      <trkpt lat="43.80762" lon="7.42103">
        <ele>946.56</ele>
        <time>2015-05-01T10:18:41Z</time>
      </trkpt>
      <trkpt lat="43.80769" lon="7.42082">
        <ele>945.11</ele>
        <time>2015-05-01T10:18:54Z</time>
      </trkpt>
      <trkpt lat="43.80778" lon="7.4207">
        <ele>943.19</ele>
        <time>2015-05-01T10:19:06Z</time>
      </trkpt>
      <trkpt lat="43.8079" lon="7.42066">
        <ele>941.27</ele>
        <time>2015-05-01T10:19:17Z</time>
      </trkpt>
      <trkpt lat="43.80801" lon="7.42066">
        <ele>939.83</ele>
        <time>2015-05-01T10:19:30Z</time>
      </trkpt>
      <trkpt lat="43.80811" lon="7.42063">
        <ele>938.38</ele>
        <time>2015-05-01T10:19:39Z</time>
      </trkpt>
      <trkpt lat="43.80825" lon="7.42061">
        <ele>936.46</ele>
        <time>2015-05-01T10:19:50Z</time>
      </trkpt>
      <trkpt lat="43.80838" lon="7.42056">
        <ele>934.54</ele>
        <time>2015-05-01T10:20:01Z</time>
      </trkpt>
      <trkpt lat="43.80839" lon="7.42055">
        <ele>934.06</ele>
        <time>2015-05-01T10:20:02Z</time>
      </trkpt>
      <trkpt lat="43.80853" lon="7.42046">
        <ele>933.1</ele>
        <time>2015-05-01T10:20:16Z</time>
      </trkpt>
      <trkpt lat="43.80862" lon="7.4204">
        <ele>933.1</ele>
        <time>2015-05-01T10:20:29Z</time>
      </trkpt>
      <trkpt lat="43.80876" lon="7.42032">
        <ele>930.21</ele>
        <time>2015-05-01T10:20:43Z</time>
      </trkpt>
      <trkpt lat="43.80891" lon="7.42022">
        <ele>929.73</ele>
        <time>2015-05-01T10:20:55Z</time>
      </trkpt>
      <trkpt lat="43.80892" lon="7.42017">
        <ele>929.73</ele>
        <time>2015-05-01T10:20:59Z</time>
      </trkpt>
      <trkpt lat="43.80896" lon="7.42007">
        <ele>927.33</ele>
        <time>2015-05-01T10:21:11Z</time>
      </trkpt>
      <trkpt lat="43.80898" lon="7.42004">
        <ele>926.37</ele>
        <time>2015-05-01T10:21:15Z</time>
      </trkpt>
      <trkpt lat="43.80901" lon="7.41997">
        <ele>925.41</ele>
        <time>2015-05-01T10:21:20Z</time>
      </trkpt>
      <trkpt lat="43.80903" lon="7.4199">
        <ele>924.93</ele>
        <time>2015-05-01T10:21:23Z</time>
      </trkpt>
      <trkpt lat="43.80902" lon="7.41987">
        <ele>924.93</ele>
        <time>2015-05-01T10:21:24Z</time>
      </trkpt>
      <trkpt lat="43.80902" lon="7.41985">
        <ele>924.45</ele>
        <time>2015-05-01T10:21:25Z</time>
      </trkpt>
      <trkpt lat="43.80905" lon="7.41971">
        <ele>923.96</ele>
        <time>2015-05-01T10:21:34Z</time>
      </trkpt>
      <trkpt lat="43.80906" lon="7.41968">
        <ele>923.96</ele>
        <time>2015-05-01T10:21:35Z</time>
      </trkpt>
      <trkpt lat="43.80906" lon="7.41955">
        <ele>923</ele>
        <time>2015-05-01T10:21:39Z</time>
      </trkpt>
      <trkpt lat="43.80906" lon="7.41953">
        <ele>923</ele>
        <time>2015-05-01T10:21:40Z</time>
      </trkpt>
      <trkpt lat="43.80906" lon="7.41937">
        <ele>922.04</ele>
        <time>2015-05-01T10:21:47Z</time>
      </trkpt>
      <trkpt lat="43.80905" lon="7.41922">
        <ele>920.6</ele>
        <time>2015-05-01T10:21:55Z</time>
      </trkpt>
      <trkpt lat="43.80905" lon="7.41918">
        <ele>920.6</ele>
        <time>2015-05-01T10:21:58Z</time>
      </trkpt>
      <trkpt lat="43.80905" lon="7.41916">
        <ele>919.64</ele>
        <time>2015-05-01T10:21:59Z</time>
      </trkpt>
      <trkpt lat="43.80905" lon="7.41908">
        <ele>919.64</ele>
        <time>2015-05-01T10:22:02Z</time>
      </trkpt>
      <trkpt lat="43.80903" lon="7.41894">
        <ele>918.2</ele>
        <time>2015-05-01T10:22:08Z</time>
      </trkpt>
      <trkpt lat="43.80898" lon="7.41882">
        <ele>915.31</ele>
        <time>2015-05-01T10:22:15Z</time>
      </trkpt>
      <trkpt lat="43.80897" lon="7.4188">
        <ele>915.31</ele>
        <time>2015-05-01T10:22:16Z</time>
      </trkpt>
      <trkpt lat="43.80895" lon="7.41871">
        <ele>913.87</ele>
        <time>2015-05-01T10:22:21Z</time>
      </trkpt>
      <trkpt lat="43.80895" lon="7.41869">
        <ele>913.39</ele>
        <time>2015-05-01T10:22:22Z</time>
      </trkpt>
      <trkpt lat="43.80895" lon="7.41866">
        <ele>913.39</ele>
        <time>2015-05-01T10:22:23Z</time>
      </trkpt>
      <trkpt lat="43.80894" lon="7.41863">
        <ele>913.39</ele>
        <time>2015-05-01T10:22:24Z</time>
      </trkpt>
      <trkpt lat="43.80893" lon="7.41861">
        <ele>913.39</ele>
        <time>2015-05-01T10:22:25Z</time>
      </trkpt>
      <trkpt lat="43.80893" lon="7.41859">
        <ele>912.91</ele>
        <time>2015-05-01T10:22:26Z</time>
      </trkpt>
      <trkpt lat="43.80892" lon="7.41858">
        <ele>912.91</ele>
        <time>2015-05-01T10:22:27Z</time>
      </trkpt>
      <trkpt lat="43.80891" lon="7.41856">
        <ele>912.43</ele>
        <time>2015-05-01T10:22:28Z</time>
      </trkpt>
      <trkpt lat="43.80891" lon="7.41854">
        <ele>911.95</ele>
        <time>2015-05-01T10:22:29Z</time>
      </trkpt>
      <trkpt lat="43.80891" lon="7.41852">
        <ele>911.47</ele>
        <time>2015-05-01T10:22:30Z</time>
      </trkpt>
      <trkpt lat="43.8089" lon="7.4185">
        <ele>911.47</ele>
        <time>2015-05-01T10:22:31Z</time>
      </trkpt>
      <trkpt lat="43.8089" lon="7.41848">
        <ele>910.51</ele>
        <time>2015-05-01T10:22:32Z</time>
      </trkpt>
      <trkpt lat="43.8089" lon="7.41845">
        <ele>910.51</ele>
        <time>2015-05-01T10:22:33Z</time>
      </trkpt>
      <trkpt lat="43.8089" lon="7.41843">
        <ele>910.03</ele>
        <time>2015-05-01T10:22:34Z</time>
      </trkpt>
      <trkpt lat="43.8089" lon="7.41841">
        <ele>909.54</ele>
        <time>2015-05-01T10:22:35Z</time>
      </trkpt>
      <trkpt lat="43.80889" lon="7.41839">
        <ele>909.54</ele>
        <time>2015-05-01T10:22:36Z</time>
      </trkpt>
      <trkpt lat="43.80891" lon="7.41833">
        <ele>908.58</ele>
        <time>2015-05-01T10:22:40Z</time>
      </trkpt>
      <trkpt lat="43.80897" lon="7.41826">
        <ele>905.7</ele>
        <time>2015-05-01T10:22:48Z</time>
      </trkpt>
      <trkpt lat="43.80898" lon="7.41824">
        <ele>904.74</ele>
        <time>2015-05-01T10:22:50Z</time>
      </trkpt>
      <trkpt lat="43.80905" lon="7.41821">
        <ele>900.89</ele>
        <time>2015-05-01T10:22:56Z</time>
      </trkpt>
      <trkpt lat="43.80906" lon="7.4182">
        <ele>900.89</ele>
        <time>2015-05-01T10:22:57Z</time>
      </trkpt>
      <trkpt lat="43.8091" lon="7.41818">
        <ele>898.01</ele>
        <time>2015-05-01T10:23:02Z</time>
      </trkpt>
      <trkpt lat="43.80911" lon="7.41818">
        <ele>898.01</ele>
        <time>2015-05-01T10:23:03Z</time>
      </trkpt>
      <trkpt lat="43.80914" lon="7.41817">
        <ele>897.05</ele>
        <time>2015-05-01T10:23:06Z</time>
      </trkpt>
      <trkpt lat="43.80916" lon="7.41817">
        <ele>895.61</ele>
        <time>2015-05-01T10:23:07Z</time>
      </trkpt>
      <trkpt lat="43.80918" lon="7.41816">
        <ele>895.61</ele>
        <time>2015-05-01T10:23:10Z</time>
      </trkpt>
      <trkpt lat="43.80919" lon="7.41815">
        <ele>895.61</ele>
        <time>2015-05-01T10:23:12Z</time>
      </trkpt>
      <trkpt lat="43.80924" lon="7.4181">
        <ele>894.16</ele>
        <time>2015-05-01T10:23:17Z</time>
      </trkpt>
      <trkpt lat="43.80925" lon="7.41809">
        <ele>894.16</ele>
        <time>2015-05-01T10:23:18Z</time>
      </trkpt>
      <trkpt lat="43.80942" lon="7.41809">
        <ele>892.72</ele>
        <time>2015-05-01T10:23:29Z</time>
      </trkpt>
      <trkpt lat="43.80961" lon="7.41808">
        <ele>891.76</ele>
        <time>2015-05-01T10:23:40Z</time>
      </trkpt>
      <trkpt lat="43.80963" lon="7.41807">
        <ele>891.76</ele>
        <time>2015-05-01T10:23:41Z</time>
      </trkpt>
      <trkpt lat="43.80965" lon="7.41805">
        <ele>891.76</ele>
        <time>2015-05-01T10:23:42Z</time>
      </trkpt>
      <trkpt lat="43.80971" lon="7.41794">
        <ele>891.76</ele>
        <time>2015-05-01T10:23:50Z</time>
      </trkpt>
      <trkpt lat="43.80972" lon="7.41792">
        <ele>891.76</ele>
        <time>2015-05-01T10:23:51Z</time>
      </trkpt>
      <trkpt lat="43.80976" lon="7.41783">
        <ele>891.76</ele>
        <time>2015-05-01T10:24:00Z</time>
      </trkpt>
      <trkpt lat="43.80981" lon="7.41771">
        <ele>891.76</ele>
        <time>2015-05-01T10:24:13Z</time>
      </trkpt>
      <trkpt lat="43.80983" lon="7.41768">
        <ele>892.72</ele>
        <time>2015-05-01T10:24:16Z</time>
      </trkpt>
      <trkpt lat="43.80993" lon="7.41755">
        <ele>893.2</ele>
        <time>2015-05-01T10:24:31Z</time>
      </trkpt>
      <trkpt lat="43.81001" lon="7.41741">
        <ele>890.32</ele>
        <time>2015-05-01T10:24:42Z</time>
      </trkpt>
      <trkpt lat="43.81008" lon="7.41735">
        <ele>889.36</ele>
        <time>2015-05-01T10:24:50Z</time>
      </trkpt>
      <trkpt lat="43.81009" lon="7.41733">
        <ele>889.36</ele>
        <time>2015-05-01T10:24:51Z</time>
      </trkpt>
      <trkpt lat="43.81019" lon="7.41723">
        <ele>888.88</ele>
        <time>2015-05-01T10:25:03Z</time>
      </trkpt>
      <trkpt lat="43.81029" lon="7.41701">
        <ele>887.91</ele>
        <time>2015-05-01T10:25:17Z</time>
      </trkpt>
      <trkpt lat="43.81034" lon="7.41685">
        <ele>885.03</ele>
        <time>2015-05-01T10:25:29Z</time>
      </trkpt>
      <trkpt lat="43.81034" lon="7.41663">
        <ele>881.67</ele>
        <time>2015-05-01T10:25:39Z</time>
      </trkpt>
      <trkpt lat="43.81033" lon="7.4165">
        <ele>880.71</ele>
        <time>2015-05-01T10:25:46Z</time>
      </trkpt>
      <trkpt lat="43.81031" lon="7.41635">
        <ele>879.26</ele>
        <time>2015-05-01T10:25:57Z</time>
      </trkpt>
      <trkpt lat="43.81031" lon="7.41618">
        <ele>879.26</ele>
        <time>2015-05-01T10:26:32Z</time>
      </trkpt>
      <trkpt lat="43.81023" lon="7.41603">
        <ele>876.38</ele>
        <time>2015-05-01T10:26:43Z</time>
      </trkpt>
      <trkpt lat="43.81022" lon="7.41598">
        <ele>875.9</ele>
        <time>2015-05-01T10:26:46Z</time>
      </trkpt>
      <trkpt lat="43.81013" lon="7.41574">
        <ele>873.01</ele>
        <time>2015-05-01T10:26:59Z</time>
      </trkpt>
      <trkpt lat="43.81007" lon="7.41553">
        <ele>870.61</ele>
        <time>2015-05-01T10:27:13Z</time>
      </trkpt>
      <trkpt lat="43.81002" lon="7.4153">
        <ele>868.21</ele>
        <time>2015-05-01T10:27:26Z</time>
      </trkpt>
      <trkpt lat="43.81003" lon="7.4151">
        <ele>865.8</ele>
        <time>2015-05-01T10:27:38Z</time>
      </trkpt>
      <trkpt lat="43.81004" lon="7.41489">
        <ele>862.92</ele>
        <time>2015-05-01T10:27:51Z</time>
      </trkpt>
      <trkpt lat="43.81008" lon="7.41475">
        <ele>861.48</ele>
        <time>2015-05-01T10:28:05Z</time>
      </trkpt>
      <trkpt lat="43.81003" lon="7.41452">
        <ele>858.59</ele>
        <time>2015-05-01T10:28:18Z</time>
      </trkpt>
      <trkpt lat="43.80998" lon="7.41434">
        <ele>855.71</ele>
        <time>2015-05-01T10:28:30Z</time>
      </trkpt>
      <trkpt lat="43.80996" lon="7.41422">
        <ele>854.27</ele>
        <time>2015-05-01T10:28:36Z</time>
      </trkpt>
      <trkpt lat="43.80995" lon="7.41418">
        <ele>853.31</ele>
        <time>2015-05-01T10:28:38Z</time>
      </trkpt>
      <trkpt lat="43.80995" lon="7.41414">
        <ele>853.31</ele>
        <time>2015-05-01T10:28:41Z</time>
      </trkpt>
      <trkpt lat="43.80995" lon="7.41411">
        <ele>852.35</ele>
        <time>2015-05-01T10:28:43Z</time>
      </trkpt>
      <trkpt lat="43.80995" lon="7.41409">
        <ele>852.35</ele>
        <time>2015-05-01T10:28:44Z</time>
      </trkpt>
      <trkpt lat="43.80992" lon="7.41399">
        <ele>850.9</ele>
        <time>2015-05-01T10:28:52Z</time>
      </trkpt>
      <trkpt lat="43.80991" lon="7.41392">
        <ele>848.98</ele>
        <time>2015-05-01T10:28:57Z</time>
      </trkpt>
      <trkpt lat="43.8099" lon="7.41378">
        <ele>846.58</ele>
        <time>2015-05-01T10:29:07Z</time>
      </trkpt>
      <trkpt lat="43.8099" lon="7.41376">
        <ele>846.58</ele>
        <time>2015-05-01T10:29:08Z</time>
      </trkpt>
      <trkpt lat="43.8099" lon="7.41374">
        <ele>846.1</ele>
        <time>2015-05-01T10:29:09Z</time>
      </trkpt>
      <trkpt lat="43.80989" lon="7.41361">
        <ele>844.66</ele>
        <time>2015-05-01T10:29:17Z</time>
      </trkpt>
      <trkpt lat="43.80989" lon="7.41359">
        <ele>844.18</ele>
        <time>2015-05-01T10:29:18Z</time>
      </trkpt>
      <trkpt lat="43.80988" lon="7.41357">
        <ele>844.18</ele>
        <time>2015-05-01T10:29:19Z</time>
      </trkpt>
      <trkpt lat="43.80987" lon="7.41355">
        <ele>843.69</ele>
        <time>2015-05-01T10:29:20Z</time>
      </trkpt>
      <trkpt lat="43.80981" lon="7.41344">
        <ele>840.81</ele>
        <time>2015-05-01T10:29:29Z</time>
      </trkpt>
      <trkpt lat="43.80978" lon="7.4134">
        <ele>840.33</ele>
        <time>2015-05-01T10:29:32Z</time>
      </trkpt>
      <trkpt lat="43.80975" lon="7.41335">
        <ele>839.85</ele>
        <time>2015-05-01T10:29:35Z</time>
      </trkpt>
      <trkpt lat="43.80974" lon="7.41333">
        <ele>839.85</ele>
        <time>2015-05-01T10:29:36Z</time>
      </trkpt>
      <trkpt lat="43.80972" lon="7.41331">
        <ele>839.37</ele>
        <time>2015-05-01T10:29:37Z</time>
      </trkpt>
      <trkpt lat="43.80967" lon="7.41328">
        <ele>838.89</ele>
        <time>2015-05-01T10:29:42Z</time>
      </trkpt>
      <trkpt lat="43.80963" lon="7.41322">
        <ele>837.45</ele>
        <time>2015-05-01T10:29:46Z</time>
      </trkpt>
      <trkpt lat="43.80962" lon="7.4132">
        <ele>837.45</ele>
        <time>2015-05-01T10:29:47Z</time>
      </trkpt>
      <trkpt lat="43.80961" lon="7.41317">
        <ele>837.45</ele>
        <time>2015-05-01T10:29:48Z</time>
      </trkpt>
      <trkpt lat="43.8096" lon="7.41314">
        <ele>837.45</ele>
        <time>2015-05-01T10:29:49Z</time>
      </trkpt>
      <trkpt lat="43.80959" lon="7.41312">
        <ele>836.48</ele>
        <time>2015-05-01T10:29:50Z</time>
      </trkpt>
      <trkpt lat="43.80952" lon="7.41292">
        <ele>835.04</ele>
        <time>2015-05-01T10:30:00Z</time>
      </trkpt>
      <trkpt lat="43.80945" lon="7.41281">
        <ele>833.6</ele>
        <time>2015-05-01T10:30:11Z</time>
      </trkpt>
      <trkpt lat="43.80934" lon="7.41258">
        <ele>831.2</ele>
        <time>2015-05-01T10:30:26Z</time>
      </trkpt>
      <trkpt lat="43.80932" lon="7.41255">
        <ele>830.72</ele>
        <time>2015-05-01T10:30:28Z</time>
      </trkpt>
      <trkpt lat="43.80928" lon="7.41247">
        <ele>829.76</ele>
        <time>2015-05-01T10:30:34Z</time>
      </trkpt>
      <trkpt lat="43.80923" lon="7.4123">
        <ele>826.87</ele>
        <time>2015-05-01T10:30:47Z</time>
      </trkpt>
      <trkpt lat="43.8092" lon="7.4122">
        <ele>824.47</ele>
        <time>2015-05-01T10:30:57Z</time>
      </trkpt>
      <trkpt lat="43.80919" lon="7.41218">
        <ele>824.47</ele>
        <time>2015-05-01T10:30:58Z</time>
      </trkpt>
      <trkpt lat="43.80915" lon="7.41212">
        <ele>823.51</ele>
        <time>2015-05-01T10:31:03Z</time>
      </trkpt>
      <trkpt lat="43.80914" lon="7.41211">
        <ele>822.55</ele>
        <time>2015-05-01T10:31:04Z</time>
      </trkpt>
      <trkpt lat="43.80914" lon="7.41209">
        <ele>822.55</ele>
        <time>2015-05-01T10:31:05Z</time>
      </trkpt>
      <trkpt lat="43.80911" lon="7.41198">
        <ele>819.66</ele>
        <time>2015-05-01T10:31:14Z</time>
      </trkpt>
      <trkpt lat="43.8091" lon="7.41195">
        <ele>819.66</ele>
        <time>2015-05-01T10:31:16Z</time>
      </trkpt>
      <trkpt lat="43.80908" lon="7.41188">
        <ele>818.22</ele>
        <time>2015-05-01T10:31:21Z</time>
      </trkpt>
      <trkpt lat="43.80907" lon="7.4117">
        <ele>814.85</ele>
        <time>2015-05-01T10:31:33Z</time>
      </trkpt>
      <trkpt lat="43.80908" lon="7.41165">
        <ele>813.89</ele>
        <time>2015-05-01T10:31:37Z</time>
      </trkpt>
      <trkpt lat="43.80909" lon="7.41164">
        <ele>813.89</ele>
        <time>2015-05-01T10:31:38Z</time>
      </trkpt>
      <trkpt lat="43.80909" lon="7.41162">
        <ele>812.93</ele>
        <time>2015-05-01T10:31:39Z</time>
      </trkpt>
      <trkpt lat="43.80915" lon="7.41148">
        <ele>810.05</ele>
        <time>2015-05-01T10:31:50Z</time>
      </trkpt>
      <trkpt lat="43.80918" lon="7.41136">
        <ele>806.68</ele>
        <time>2015-05-01T10:31:59Z</time>
      </trkpt>
      <trkpt lat="43.80924" lon="7.41118">
        <ele>803.8</ele>
        <time>2015-05-01T10:32:10Z</time>
      </trkpt>
      <trkpt lat="43.80927" lon="7.41112">
        <ele>803.32</ele>
        <time>2015-05-01T10:32:14Z</time>
      </trkpt>
      <trkpt lat="43.80929" lon="7.41105">
        <ele>801.88</ele>
        <time>2015-05-01T10:32:17Z</time>
      </trkpt>
      <trkpt lat="43.80934" lon="7.41097">
        <ele>800.44</ele>
        <time>2015-05-01T10:32:29Z</time>
      </trkpt>
      <trkpt lat="43.80938" lon="7.41079">
        <ele>797.55</ele>
        <time>2015-05-01T10:32:40Z</time>
      </trkpt>
      <trkpt lat="43.80941" lon="7.41065">
        <ele>794.67</ele>
        <time>2015-05-01T10:32:49Z</time>
      </trkpt>
      <trkpt lat="43.80946" lon="7.41045">
        <ele>791.78</ele>
        <time>2015-05-01T10:33:00Z</time>
      </trkpt>
      <trkpt lat="43.80951" lon="7.4103">
        <ele>788.9</ele>
        <time>2015-05-01T10:33:13Z</time>
      </trkpt>
      <trkpt lat="43.80952" lon="7.41028">
        <ele>788.42</ele>
        <time>2015-05-01T10:33:14Z</time>
      </trkpt>
      <trkpt lat="43.80952" lon="7.41026">
        <ele>788.42</ele>
        <time>2015-05-01T10:33:15Z</time>
      </trkpt>
      <trkpt lat="43.80955" lon="7.41003">
        <ele>785.05</ele>
        <time>2015-05-01T10:33:29Z</time>
      </trkpt>
      <trkpt lat="43.80958" lon="7.40993">
        <ele>783.61</ele>
        <time>2015-05-01T10:33:40Z</time>
      </trkpt>
      <trkpt lat="43.80955" lon="7.40982">
        <ele>783.13</ele>
        <time>2015-05-01T10:34:01Z</time>
      </trkpt>
      <trkpt lat="43.80955" lon="7.40963">
        <ele>781.69</ele>
        <time>2015-05-01T10:34:13Z</time>
      </trkpt>
      <trkpt lat="43.80953" lon="7.40959">
        <ele>780.73</ele>
        <time>2015-05-01T10:34:30Z</time>
      </trkpt>
      <trkpt lat="43.80954" lon="7.40949">
        <ele>779.77</ele>
        <time>2015-05-01T10:34:51Z</time>
      </trkpt>
      <trkpt lat="43.80954" lon="7.40942">
        <ele>778.32</ele>
        <time>2015-05-01T10:34:57Z</time>
      </trkpt>
      <trkpt lat="43.80953" lon="7.40928">
        <ele>774.96</ele>
        <time>2015-05-01T10:35:10Z</time>
      </trkpt>
      <trkpt lat="43.80953" lon="7.40914">
        <ele>772.08</ele>
        <time>2015-05-01T10:35:20Z</time>
      </trkpt>
      <trkpt lat="43.80947" lon="7.40907">
        <ele>770.15</ele>
        <time>2015-05-01T10:35:28Z</time>
      </trkpt>
      <trkpt lat="43.80943" lon="7.40902">
        <ele>769.19</ele>
        <time>2015-05-01T10:35:32Z</time>
      </trkpt>
      <trkpt lat="43.80942" lon="7.40901">
        <ele>769.19</ele>
        <time>2015-05-01T10:35:33Z</time>
      </trkpt>
      <trkpt lat="43.8094" lon="7.40898">
        <ele>768.23</ele>
        <time>2015-05-01T10:35:36Z</time>
      </trkpt>
      <trkpt lat="43.80938" lon="7.40897">
        <ele>768.23</ele>
        <time>2015-05-01T10:35:37Z</time>
      </trkpt>
      <trkpt lat="43.80931" lon="7.40887">
        <ele>766.31</ele>
        <time>2015-05-01T10:35:44Z</time>
      </trkpt>
      <trkpt lat="43.80931" lon="7.40874">
        <ele>763.42</ele>
        <time>2015-05-01T10:35:55Z</time>
      </trkpt>
      <trkpt lat="43.8093" lon="7.40869">
        <ele>761.5</ele>
        <time>2015-05-01T10:35:59Z</time>
      </trkpt>
      <trkpt lat="43.80929" lon="7.4086">
        <ele>759.58</ele>
        <time>2015-05-01T10:36:08Z</time>
      </trkpt>
      <trkpt lat="43.80928" lon="7.40842">
        <ele>756.69</ele>
        <time>2015-05-01T10:36:18Z</time>
      </trkpt>
      <trkpt lat="43.80929" lon="7.40821">
        <ele>753.33</ele>
        <time>2015-05-01T10:36:31Z</time>
      </trkpt>
      <trkpt lat="43.80932" lon="7.40803">
        <ele>751.41</ele>
        <time>2015-05-01T10:36:43Z</time>
      </trkpt>
      <trkpt lat="43.80931" lon="7.40801">
        <ele>750.93</ele>
        <time>2015-05-01T10:36:44Z</time>
      </trkpt>
      <trkpt lat="43.80932" lon="7.40787">
        <ele>748.04</ele>
        <time>2015-05-01T10:36:54Z</time>
      </trkpt>
      <trkpt lat="43.80931" lon="7.40766">
        <ele>745.16</ele>
        <time>2015-05-01T10:37:06Z</time>
      </trkpt>
      <trkpt lat="43.80931" lon="7.40763">
        <ele>744.68</ele>
        <time>2015-05-01T10:37:08Z</time>
      </trkpt>
      <trkpt lat="43.80931" lon="7.40761">
        <ele>743.72</ele>
        <time>2015-05-01T10:37:09Z</time>
      </trkpt>
      <trkpt lat="43.8093" lon="7.40759">
        <ele>743.72</ele>
        <time>2015-05-01T10:37:10Z</time>
      </trkpt>
      <trkpt lat="43.80925" lon="7.40755">
        <ele>743.24</ele>
        <time>2015-05-01T10:37:21Z</time>
      </trkpt>
      <trkpt lat="43.80922" lon="7.40749">
        <ele>743.72</ele>
        <time>2015-05-01T10:37:40Z</time>
      </trkpt>
      <trkpt lat="43.80919" lon="7.40739">
        <ele>742.76</ele>
        <time>2015-05-01T10:37:48Z</time>
      </trkpt>
      <trkpt lat="43.80918" lon="7.40737">
        <ele>742.28</ele>
        <time>2015-05-01T10:37:49Z</time>
      </trkpt>
      <trkpt lat="43.80917" lon="7.4073">
        <ele>740.83</ele>
        <time>2015-05-01T10:37:55Z</time>
      </trkpt>
      <trkpt lat="43.80915" lon="7.40717">
        <ele>738.43</ele>
        <time>2015-05-01T10:38:06Z</time>
      </trkpt>
      <trkpt lat="43.80913" lon="7.4071">
        <ele>737.47</ele>
        <time>2015-05-01T10:38:14Z</time>
      </trkpt>
      <trkpt lat="43.80913" lon="7.40694">
        <ele>735.07</ele>
        <time>2015-05-01T10:38:26Z</time>
      </trkpt>
      <trkpt lat="43.8091" lon="7.40683">
        <ele>735.07</ele>
        <time>2015-05-01T10:38:37Z</time>
      </trkpt>
      <trkpt lat="43.80901" lon="7.40677">
        <ele>736.03</ele>
        <time>2015-05-01T10:38:54Z</time>
      </trkpt>
      <trkpt lat="43.80902" lon="7.40662">
        <ele>735.07</ele>
        <time>2015-05-01T10:39:07Z</time>
      </trkpt>
      <trkpt lat="43.80906" lon="7.40656">
        <ele>734.58</ele>
        <time>2015-05-01T10:39:23Z</time>
      </trkpt>
      <trkpt lat="43.80901" lon="7.40648">
        <ele>734.58</ele>
        <time>2015-05-01T10:39:37Z</time>
      </trkpt>
      <trkpt lat="43.80898" lon="7.40639">
        <ele>734.58</ele>
        <time>2015-05-01T10:39:50Z</time>
      </trkpt>
      <trkpt lat="43.80892" lon="7.40629">
        <ele>734.58</ele>
        <time>2015-05-01T10:40:03Z</time>
      </trkpt>
      <trkpt lat="43.80883" lon="7.40619">
        <ele>734.58</ele>
        <time>2015-05-01T10:40:16Z</time>
      </trkpt>
      <trkpt lat="43.80882" lon="7.40607">
        <ele>734.58</ele>
        <time>2015-05-01T10:40:37Z</time>
      </trkpt>
      <trkpt lat="43.80879" lon="7.40604">
        <ele>734.58</ele>
        <time>2015-05-01T10:40:45Z</time>
      </trkpt>
      <trkpt lat="43.80874" lon="7.40603">
        <ele>734.58</ele>
        <time>2015-05-01T10:40:49Z</time>
      </trkpt>
      <trkpt lat="43.80865" lon="7.40604">
        <ele>734.58</ele>
        <time>2015-05-01T10:40:59Z</time>
      </trkpt>
      <trkpt lat="43.80865" lon="7.40602">
        <ele>734.58</ele>
        <time>2015-05-01T10:41:16Z</time>
      </trkpt>
      <trkpt lat="43.80865" lon="7.40603">
        <ele>734.58</ele>
        <time>2015-05-01T10:41:43Z</time>
      </trkpt>
      <trkpt lat="43.80865" lon="7.40603">
        <ele>734.58</ele>
        <time>2015-05-01T10:42:06Z</time>
      </trkpt>
      <trkpt lat="43.80865" lon="7.40604">
        <ele>734.58</ele>
        <time>2015-05-01T10:42:32Z</time>
      </trkpt>
      <trkpt lat="43.80861" lon="7.40604">
        <ele>735.07</ele>
        <time>2015-05-01T10:42:57Z</time>
      </trkpt>
      <trkpt lat="43.80865" lon="7.40601">
        <ele>735.07</ele>
        <time>2015-05-01T10:43:22Z</time>
      </trkpt>
      <trkpt lat="43.80864" lon="7.40603">
        <ele>735.07</ele>
        <time>2015-05-01T10:43:47Z</time>
      </trkpt>
      <trkpt lat="43.80869" lon="7.40603">
        <ele>735.55</ele>
        <time>2015-05-01T10:44:13Z</time>
      </trkpt>
      <trkpt lat="43.80864" lon="7.40599">
        <ele>735.55</ele>
        <time>2015-05-01T10:44:38Z</time>
      </trkpt>
      <trkpt lat="43.80864" lon="7.40599">
        <ele>734.58</ele>
        <time>2015-05-01T10:45:07Z</time>
      </trkpt>
      <trkpt lat="43.80864" lon="7.40598">
        <ele>737.47</ele>
        <time>2015-05-01T10:45:09Z</time>
      </trkpt>
      <trkpt lat="43.80862" lon="7.40603">
        <ele>736.51</ele>
        <time>2015-05-01T10:45:40Z</time>
      </trkpt>
      <trkpt lat="43.80862" lon="7.40607">
        <ele>736.51</ele>
        <time>2015-05-01T10:46:14Z</time>
      </trkpt>
      <trkpt lat="43.80863" lon="7.40604">
        <ele>736.99</ele>
        <time>2015-05-01T10:46:39Z</time>
      </trkpt>
      <trkpt lat="43.80864" lon="7.40604">
        <ele>736.99</ele>
        <time>2015-05-01T10:47:09Z</time>
      </trkpt>
      <trkpt lat="43.80864" lon="7.40605">
        <ele>736.99</ele>
        <time>2015-05-01T10:47:34Z</time>
      </trkpt>
      <trkpt lat="43.80866" lon="7.40606">
        <ele>736.99</ele>
        <time>2015-05-01T10:47:54Z</time>
      </trkpt>
      <trkpt lat="43.80864" lon="7.40607">
        <ele>737.47</ele>
        <time>2015-05-01T10:48:22Z</time>
      </trkpt>
      <trkpt lat="43.80862" lon="7.40605">
        <ele>739.39</ele>
        <time>2015-05-01T10:48:54Z</time>
      </trkpt>
      <trkpt lat="43.80861" lon="7.40605">
        <ele>738.43</ele>
        <time>2015-05-01T10:49:17Z</time>
      </trkpt>
      <trkpt lat="43.80866" lon="7.40603">
        <ele>738.43</ele>
        <time>2015-05-01T10:49:45Z</time>
      </trkpt>
      <trkpt lat="43.80868" lon="7.40602">
        <ele>738.91</ele>
        <time>2015-05-01T10:50:07Z</time>
      </trkpt>
      <trkpt lat="43.80864" lon="7.40603">
        <ele>739.87</ele>
        <time>2015-05-01T10:50:35Z</time>
      </trkpt>
      <trkpt lat="43.80864" lon="7.40603">
        <ele>739.87</ele>
        <time>2015-05-01T10:50:36Z</time>
      </trkpt>
      <trkpt lat="43.80874" lon="7.40595">
        <ele>739.87</ele>
        <time>2015-05-01T10:50:58Z</time>
      </trkpt>
      <trkpt lat="43.80867" lon="7.40604">
        <ele>739.87</ele>
        <time>2015-05-01T10:51:15Z</time>
      </trkpt>
      <trkpt lat="43.80867" lon="7.40603">
        <ele>739.87</ele>
        <time>2015-05-01T10:51:42Z</time>
      </trkpt>
      <trkpt lat="43.80867" lon="7.40604">
        <ele>740.35</ele>
        <time>2015-05-01T10:52:01Z</time>
      </trkpt>
      <trkpt lat="43.80866" lon="7.40604">
        <ele>736.99</ele>
        <time>2015-05-01T10:52:03Z</time>
      </trkpt>
      <trkpt lat="43.80866" lon="7.40604">
        <ele>743.72</ele>
        <time>2015-05-01T10:52:04Z</time>
      </trkpt>
      <trkpt lat="43.80865" lon="7.40604">
        <ele>740.35</ele>
        <time>2015-05-01T10:52:05Z</time>
      </trkpt>
      <trkpt lat="43.80863" lon="7.40605">
        <ele>739.87</ele>
        <time>2015-05-01T10:52:24Z</time>
      </trkpt>
      <trkpt lat="43.80861" lon="7.40607">
        <ele>740.35</ele>
        <time>2015-05-01T10:53:04Z</time>
      </trkpt>
      <trkpt lat="43.80861" lon="7.40606">
        <ele>740.35</ele>
        <time>2015-05-01T10:53:32Z</time>
      </trkpt>
      <trkpt lat="43.80862" lon="7.40606">
        <ele>740.35</ele>
        <time>2015-05-01T10:53:57Z</time>
      </trkpt>
      <trkpt lat="43.80859" lon="7.40606">
        <ele>740.35</ele>
        <time>2015-05-01T10:54:24Z</time>
      </trkpt>
      <trkpt lat="43.8086" lon="7.40606">
        <ele>740.83</ele>
        <time>2015-05-01T10:55:00Z</time>
      </trkpt>
      <trkpt lat="43.80859" lon="7.40607">
        <ele>740.83</ele>
        <time>2015-05-01T10:55:32Z</time>
      </trkpt>
      <trkpt lat="43.80859" lon="7.4061">
        <ele>740.83</ele>
        <time>2015-05-01T10:56:08Z</time>
      </trkpt>
      <trkpt lat="43.80858" lon="7.40612">
        <ele>741.31</ele>
        <time>2015-05-01T10:56:43Z</time>
      </trkpt>
      <trkpt lat="43.80859" lon="7.40609">
        <ele>741.31</ele>
        <time>2015-05-01T10:57:22Z</time>
      </trkpt>
      <trkpt lat="43.80858" lon="7.40611">
        <ele>741.79</ele>
        <time>2015-05-01T10:57:59Z</time>
      </trkpt>
      <trkpt lat="43.80861" lon="7.40607">
        <ele>741.79</ele>
        <time>2015-05-01T10:58:31Z</time>
      </trkpt>
      <trkpt lat="43.80862" lon="7.40608">
        <ele>741.79</ele>
        <time>2015-05-01T10:59:07Z</time>
      </trkpt>
      <trkpt lat="43.80862" lon="7.40605">
        <ele>741.79</ele>
        <time>2015-05-01T10:59:40Z</time>
      </trkpt>
      <trkpt lat="43.80863" lon="7.40601">
        <ele>741.79</ele>
        <time>2015-05-01T11:00:13Z</time>
      </trkpt>
      <trkpt lat="43.8086" lon="7.40608">
        <ele>742.28</ele>
        <time>2015-05-01T11:00:51Z</time>
      </trkpt>
      <trkpt lat="43.80861" lon="7.40604">
        <ele>742.28</ele>
        <time>2015-05-01T11:01:25Z</time>
      </trkpt>
      <trkpt lat="43.80861" lon="7.4061">
        <ele>742.28</ele>
        <time>2015-05-01T11:01:56Z</time>
      </trkpt>
      <trkpt lat="43.80859" lon="7.40608">
        <ele>742.28</ele>
        <time>2015-05-01T11:02:26Z</time>
      </trkpt>
      <trkpt lat="43.80861" lon="7.40608">
        <ele>742.28</ele>
        <time>2015-05-01T11:02:58Z</time>
      </trkpt>
      <trkpt lat="43.80863" lon="7.40605">
        <ele>742.28</ele>
        <time>2015-05-01T11:03:34Z</time>
      </trkpt>
      <trkpt lat="43.80863" lon="7.40609">
        <ele>742.76</ele>
        <time>2015-05-01T11:04:18Z</time>
      </trkpt>
      <trkpt lat="43.8086" lon="7.40609">
        <ele>742.76</ele>
        <time>2015-05-01T11:05:02Z</time>
      </trkpt>
      <trkpt lat="43.80861" lon="7.40606">
        <ele>744.2</ele>
        <time>2015-05-01T11:05:42Z</time>
      </trkpt>
      <trkpt lat="43.8086" lon="7.40609">
        <ele>744.2</ele>
        <time>2015-05-01T11:06:17Z</time>
      </trkpt>
      <trkpt lat="43.80863" lon="7.40604">
        <ele>744.2</ele>
        <time>2015-05-01T11:06:54Z</time>
      </trkpt>
      <trkpt lat="43.80862" lon="7.40601">
        <ele>744.2</ele>
        <time>2015-05-01T11:07:35Z</time>
      </trkpt>
      <trkpt lat="43.80863" lon="7.40605">
        <ele>744.2</ele>
        <time>2015-05-01T11:08:07Z</time>
      </trkpt>
      <trkpt lat="43.80863" lon="7.40608">
        <ele>744.2</ele>
        <time>2015-05-01T11:08:40Z</time>
      </trkpt>
      <trkpt lat="43.80863" lon="7.40607">
        <ele>744.2</ele>
        <time>2015-05-01T11:09:13Z</time>
      </trkpt>
      <trkpt lat="43.80862" lon="7.40607">
        <ele>744.68</ele>
        <time>2015-05-01T11:09:46Z</time>
      </trkpt>
      <trkpt lat="43.80862" lon="7.40607">
        <ele>744.68</ele>
        <time>2015-05-01T11:10:22Z</time>
      </trkpt>
      <trkpt lat="43.80859" lon="7.40607">
        <ele>744.68</ele>
        <time>2015-05-01T11:10:59Z</time>
      </trkpt>
      <trkpt lat="43.80863" lon="7.40605">
        <ele>744.68</ele>
        <time>2015-05-01T11:11:34Z</time>
      </trkpt>
      <trkpt lat="43.80861" lon="7.40607">
        <ele>744.68</ele>
        <time>2015-05-01T11:11:57Z</time>
      </trkpt>
      <trkpt lat="43.80866" lon="7.40607">
        <ele>745.16</ele>
        <time>2015-05-01T11:12:39Z</time>
      </trkpt>
      <trkpt lat="43.80864" lon="7.40607">
        <ele>745.16</ele>
        <time>2015-05-01T11:13:10Z</time>
      </trkpt>
      <trkpt lat="43.80866" lon="7.40603">
        <ele>745.64</ele>
        <time>2015-05-01T11:13:31Z</time>
      </trkpt>
      <trkpt lat="43.80864" lon="7.406">
        <ele>745.64</ele>
        <time>2015-05-01T11:13:49Z</time>
      </trkpt>
      <trkpt lat="43.80861" lon="7.40605">
        <ele>746.12</ele>
        <time>2015-05-01T11:14:07Z</time>
      </trkpt>
      <trkpt lat="43.80862" lon="7.40605">
        <ele>746.12</ele>
        <time>2015-05-01T11:14:22Z</time>
      </trkpt>
      <trkpt lat="43.80862" lon="7.40606">
        <ele>746.6</ele>
        <time>2015-05-01T11:14:44Z</time>
      </trkpt>
      <trkpt lat="43.80863" lon="7.40603">
        <ele>746.6</ele>
        <time>2015-05-01T11:15:19Z</time>
      </trkpt>
      <trkpt lat="43.80864" lon="7.40603">
        <ele>746.6</ele>
        <time>2015-05-01T11:15:54Z</time>
      </trkpt>
      <trkpt lat="43.80862" lon="7.40606">
        <ele>746.6</ele>
        <time>2015-05-01T11:16:37Z</time>
      </trkpt>
      <trkpt lat="43.80863" lon="7.40608">
        <ele>746.6</ele>
        <time>2015-05-01T11:17:10Z</time>
      </trkpt>
      <trkpt lat="43.80864" lon="7.40607">
        <ele>746.6</ele>
        <time>2015-05-01T11:17:38Z</time>
      </trkpt>
      <trkpt lat="43.80865" lon="7.40607">
        <ele>746.6</ele>
        <time>2015-05-01T11:18:03Z</time>
      </trkpt>
      <trkpt lat="43.80864" lon="7.40607">
        <ele>747.08</ele>
        <time>2015-05-01T11:18:37Z</time>
      </trkpt>
      <trkpt lat="43.80868" lon="7.40609">
        <ele>747.08</ele>
        <time>2015-05-01T11:19:08Z</time>
      </trkpt>
      <trkpt lat="43.80868" lon="7.40608">
        <ele>747.56</ele>
        <time>2015-05-01T11:19:39Z</time>
      </trkpt>
      <trkpt lat="43.80866" lon="7.40608">
        <ele>747.56</ele>
        <time>2015-05-01T11:20:08Z</time>
      </trkpt>
      <trkpt lat="43.80871" lon="7.40607">
        <ele>747.56</ele>
        <time>2015-05-01T11:20:45Z</time>
      </trkpt>
      <trkpt lat="43.8087" lon="7.40607">
        <ele>747.56</ele>
        <time>2015-05-01T11:21:24Z</time>
      </trkpt>
      <trkpt lat="43.80866" lon="7.40605">
        <ele>747.56</ele>
        <time>2015-05-01T11:22:02Z</time>
      </trkpt>
      <trkpt lat="43.80867" lon="7.40603">
        <ele>747.56</ele>
        <time>2015-05-01T11:22:31Z</time>
      </trkpt>
      <trkpt lat="43.80866" lon="7.40604">
        <ele>747.56</ele>
        <time>2015-05-01T11:22:59Z</time>
      </trkpt>
      <trkpt lat="43.80868" lon="7.40607">
        <ele>747.56</ele>
        <time>2015-05-01T11:23:40Z</time>
      </trkpt>
      <trkpt lat="43.80867" lon="7.40609">
        <ele>747.56</ele>
        <time>2015-05-01T11:24:15Z</time>
      </trkpt>
      <trkpt lat="43.80867" lon="7.40609">
        <ele>748.04</ele>
        <time>2015-05-01T11:24:55Z</time>
      </trkpt>
      <trkpt lat="43.80867" lon="7.40608">
        <ele>748.04</ele>
        <time>2015-05-01T11:25:30Z</time>
      </trkpt>
      <trkpt lat="43.80866" lon="7.40604">
        <ele>748.52</ele>
        <time>2015-05-01T11:26:10Z</time>
      </trkpt>
      <trkpt lat="43.80868" lon="7.4061">
        <ele>748.52</ele>
        <time>2015-05-01T11:26:46Z</time>
      </trkpt>
      <trkpt lat="43.8087" lon="7.40609">
        <ele>748.52</ele>
        <time>2015-05-01T11:27:29Z</time>
      </trkpt>
      <trkpt lat="43.8087" lon="7.40612">
        <ele>749</ele>
        <time>2015-05-01T11:28:01Z</time>
      </trkpt>
      <trkpt lat="43.8087" lon="7.40612">
        <ele>749</ele>
        <time>2015-05-01T11:28:34Z</time>
      </trkpt>
      <trkpt lat="43.80869" lon="7.40608">
        <ele>749</ele>
        <time>2015-05-01T11:29:11Z</time>
      </trkpt>
      <trkpt lat="43.80865" lon="7.40608">
        <ele>749</ele>
        <time>2015-05-01T11:29:41Z</time>
      </trkpt>
      <trkpt lat="43.80867" lon="7.4061">
        <ele>748.52</ele>
        <time>2015-05-01T11:30:26Z</time>
      </trkpt>
      <trkpt lat="43.80863" lon="7.40607">
        <ele>748.52</ele>
        <time>2015-05-01T11:31:06Z</time>
      </trkpt>
      <trkpt lat="43.80866" lon="7.40606">
        <ele>748.52</ele>
        <time>2015-05-01T11:31:57Z</time>
      </trkpt>
      <trkpt lat="43.80865" lon="7.40605">
        <ele>748.52</ele>
        <time>2015-05-01T11:32:29Z</time>
      </trkpt>
      <trkpt lat="43.80863" lon="7.40605">
        <ele>748.04</ele>
        <time>2015-05-01T11:33:04Z</time>
      </trkpt>
      <trkpt lat="43.80865" lon="7.40607">
        <ele>748.04</ele>
        <time>2015-05-01T11:33:32Z</time>
      </trkpt>
      <trkpt lat="43.80866" lon="7.40609">
        <ele>748.04</ele>
        <time>2015-05-01T11:33:55Z</time>
      </trkpt>
      <trkpt lat="43.80866" lon="7.40611">
        <ele>748.04</ele>
        <time>2015-05-01T11:34:19Z</time>
      </trkpt>
      <trkpt lat="43.80868" lon="7.40609">
        <ele>748.04</ele>
        <time>2015-05-01T11:34:50Z</time>
      </trkpt>
      <trkpt lat="43.80866" lon="7.40611">
        <ele>748.04</ele>
        <time>2015-05-01T11:35:18Z</time>
      </trkpt>
      <trkpt lat="43.80864" lon="7.4061">
        <ele>748.04</ele>
        <time>2015-05-01T11:35:58Z</time>
      </trkpt>
      <trkpt lat="43.80865" lon="7.40609">
        <ele>748.04</ele>
        <time>2015-05-01T11:36:23Z</time>
      </trkpt>
      <trkpt lat="43.80869" lon="7.40605">
        <ele>748.52</ele>
        <time>2015-05-01T11:36:52Z</time>
      </trkpt>
      <trkpt lat="43.80864" lon="7.40606">
        <ele>748.52</ele>
        <time>2015-05-01T11:37:11Z</time>
      </trkpt>
      <trkpt lat="43.80863" lon="7.40609">
        <ele>748.52</ele>
        <time>2015-05-01T11:37:42Z</time>
      </trkpt>
      <trkpt lat="43.80864" lon="7.40613">
        <ele>748.52</ele>
        <time>2015-05-01T11:38:03Z</time>
      </trkpt>
      <trkpt lat="43.80866" lon="7.40609">
        <ele>748.52</ele>
        <time>2015-05-01T11:38:23Z</time>
      </trkpt>
      <trkpt lat="43.80869" lon="7.40606">
        <ele>748.52</ele>
        <time>2015-05-01T11:38:43Z</time>
      </trkpt>
      <trkpt lat="43.80871" lon="7.40608">
        <ele>748.52</ele>
        <time>2015-05-01T11:39:10Z</time>
      </trkpt>
      <trkpt lat="43.8087" lon="7.40608">
        <ele>748.52</ele>
        <time>2015-05-01T11:39:33Z</time>
      </trkpt>
      <trkpt lat="43.80872" lon="7.40608">
        <ele>749</ele>
        <time>2015-05-01T11:39:57Z</time>
      </trkpt>
      <trkpt lat="43.80871" lon="7.40607">
        <ele>749</ele>
        <time>2015-05-01T11:40:10Z</time>
      </trkpt>
      <trkpt lat="43.80869" lon="7.40606">
        <ele>749</ele>
        <time>2015-05-01T11:40:32Z</time>
      </trkpt>
      <trkpt lat="43.80869" lon="7.40608">
        <ele>749</ele>
        <time>2015-05-01T11:40:51Z</time>
      </trkpt>
      <trkpt lat="43.80868" lon="7.40609">
        <ele>749</ele>
        <time>2015-05-01T11:41:15Z</time>
      </trkpt>
      <trkpt lat="43.80868" lon="7.40607">
        <ele>749</ele>
        <time>2015-05-01T11:41:40Z</time>
      </trkpt>
      <trkpt lat="43.80867" lon="7.40608">
        <ele>749</ele>
        <time>2015-05-01T11:41:52Z</time>
      </trkpt>
      <trkpt lat="43.80868" lon="7.40606">
        <ele>749.49</ele>
        <time>2015-05-01T11:42:12Z</time>
      </trkpt>
      <trkpt lat="43.80868" lon="7.40608">
        <ele>748.04</ele>
        <time>2015-05-01T11:42:35Z</time>
      </trkpt>
      <trkpt lat="43.80869" lon="7.40607">
        <ele>748.04</ele>
        <time>2015-05-01T11:43:00Z</time>
      </trkpt>
      <trkpt lat="43.80867" lon="7.40608">
        <ele>748.04</ele>
        <time>2015-05-01T11:43:15Z</time>
      </trkpt>
      <trkpt lat="43.80867" lon="7.40609">
        <ele>748.04</ele>
        <time>2015-05-01T11:43:43Z</time>
      </trkpt>
      <trkpt lat="43.80867" lon="7.40608">
        <ele>748.04</ele>
        <time>2015-05-01T11:44:12Z</time>
      </trkpt>
      <trkpt lat="43.80866" lon="7.40605">
        <ele>748.04</ele>
        <time>2015-05-01T11:44:36Z</time>
      </trkpt>
      <trkpt lat="43.80864" lon="7.40605">
        <ele>748.04</ele>
        <time>2015-05-01T11:44:56Z</time>
      </trkpt>
      <trkpt lat="43.80865" lon="7.406">
        <ele>747.56</ele>
        <time>2015-05-01T11:45:13Z</time>
      </trkpt>
      <trkpt lat="43.80862" lon="7.40588">
        <ele>747.08</ele>
        <time>2015-05-01T11:45:29Z</time>
      </trkpt>
      <trkpt lat="43.80858" lon="7.40583">
        <ele>746.12</ele>
        <time>2015-05-01T11:45:35Z</time>
      </trkpt>
      <trkpt lat="43.80857" lon="7.40581">
        <ele>746.12</ele>
        <time>2015-05-01T11:45:36Z</time>
      </trkpt>
      <trkpt lat="43.80856" lon="7.40579">
        <ele>746.12</ele>
        <time>2015-05-01T11:45:37Z</time>
      </trkpt>
      <trkpt lat="43.80855" lon="7.40578">
        <ele>745.64</ele>
        <time>2015-05-01T11:45:38Z</time>
      </trkpt>
      <trkpt lat="43.80853" lon="7.40569">
        <ele>745.16</ele>
        <time>2015-05-01T11:45:43Z</time>
      </trkpt>
      <trkpt lat="43.80851" lon="7.40568">
        <ele>745.16</ele>
        <time>2015-05-01T11:45:44Z</time>
      </trkpt>
      <trkpt lat="43.80839" lon="7.40555">
        <ele>744.68</ele>
        <time>2015-05-01T11:45:56Z</time>
      </trkpt>
      <trkpt lat="43.80839" lon="7.40553">
        <ele>744.68</ele>
        <time>2015-05-01T11:45:57Z</time>
      </trkpt>
      <trkpt lat="43.80838" lon="7.40552">
        <ele>744.68</ele>
        <time>2015-05-01T11:45:58Z</time>
      </trkpt>
      <trkpt lat="43.80836" lon="7.40551">
        <ele>744.2</ele>
        <time>2015-05-01T11:45:59Z</time>
      </trkpt>
      <trkpt lat="43.80835" lon="7.4055">
        <ele>744.2</ele>
        <time>2015-05-01T11:46:00Z</time>
      </trkpt>
      <trkpt lat="43.8083" lon="7.40549">
        <ele>744.2</ele>
        <time>2015-05-01T11:46:13Z</time>
      </trkpt>
      <trkpt lat="43.80828" lon="7.40549">
        <ele>744.2</ele>
        <time>2015-05-01T11:46:15Z</time>
      </trkpt>
      <trkpt lat="43.80827" lon="7.4055">
        <ele>744.2</ele>
        <time>2015-05-01T11:46:16Z</time>
      </trkpt>
      <trkpt lat="43.80825" lon="7.4055">
        <ele>743.72</ele>
        <time>2015-05-01T11:46:17Z</time>
      </trkpt>
      <trkpt lat="43.80815" lon="7.40537">
        <ele>742.28</ele>
        <time>2015-05-01T11:46:28Z</time>
      </trkpt>
      <trkpt lat="43.80813" lon="7.40535">
        <ele>742.28</ele>
        <time>2015-05-01T11:46:30Z</time>
      </trkpt>
      <trkpt lat="43.80806" lon="7.40519">
        <ele>740.35</ele>
        <time>2015-05-01T11:46:39Z</time>
      </trkpt>
      <trkpt lat="43.80806" lon="7.40517">
        <ele>740.35</ele>
        <time>2015-05-01T11:46:40Z</time>
      </trkpt>
      <trkpt lat="43.80811" lon="7.40509">
        <ele>739.39</ele>
        <time>2015-05-01T11:46:51Z</time>
      </trkpt>
      <trkpt lat="43.80815" lon="7.40508">
        <ele>739.87</ele>
        <time>2015-05-01T11:46:59Z</time>
      </trkpt>
      <trkpt lat="43.80816" lon="7.40507">
        <ele>739.87</ele>
        <time>2015-05-01T11:47:00Z</time>
      </trkpt>
      <trkpt lat="43.80833" lon="7.40512">
        <ele>737.95</ele>
        <time>2015-05-01T11:47:12Z</time>
      </trkpt>
      <trkpt lat="43.80851" lon="7.40523">
        <ele>736.03</ele>
        <time>2015-05-01T11:47:25Z</time>
      </trkpt>
      <trkpt lat="43.80867" lon="7.40531">
        <ele>732.66</ele>
        <time>2015-05-01T11:47:38Z</time>
      </trkpt>
      <trkpt lat="43.80886" lon="7.40534">
        <ele>730.26</ele>
        <time>2015-05-01T11:47:53Z</time>
      </trkpt>
      <trkpt lat="43.80887" lon="7.40534">
        <ele>730.26</ele>
        <time>2015-05-01T11:47:54Z</time>
      </trkpt>
      <trkpt lat="43.80897" lon="7.4054">
        <ele>730.26</ele>
        <time>2015-05-01T11:48:03Z</time>
      </trkpt>
      <trkpt lat="43.80899" lon="7.40541">
        <ele>730.26</ele>
        <time>2015-05-01T11:48:04Z</time>
      </trkpt>
      <trkpt lat="43.809" lon="7.40542">
        <ele>730.26</ele>
        <time>2015-05-01T11:48:05Z</time>
      </trkpt>
      <trkpt lat="43.80902" lon="7.40543">
        <ele>730.26</ele>
        <time>2015-05-01T11:48:06Z</time>
      </trkpt>
      <trkpt lat="43.80903" lon="7.40544">
        <ele>729.78</ele>
        <time>2015-05-01T11:48:07Z</time>
      </trkpt>
      <trkpt lat="43.80915" lon="7.40555">
        <ele>729.78</ele>
        <time>2015-05-01T11:48:17Z</time>
      </trkpt>
      <trkpt lat="43.80916" lon="7.40556">
        <ele>729.78</ele>
        <time>2015-05-01T11:48:18Z</time>
      </trkpt>
      <trkpt lat="43.80917" lon="7.40557">
        <ele>729.78</ele>
        <time>2015-05-01T11:48:19Z</time>
      </trkpt>
      <trkpt lat="43.80928" lon="7.40576">
        <ele>726.89</ele>
        <time>2015-05-01T11:48:32Z</time>
      </trkpt>
      <trkpt lat="43.80936" lon="7.40592">
        <ele>725.93</ele>
        <time>2015-05-01T11:48:40Z</time>
      </trkpt>
      <trkpt lat="43.80937" lon="7.40593">
        <ele>725.93</ele>
        <time>2015-05-01T11:48:41Z</time>
      </trkpt>
      <trkpt lat="43.80938" lon="7.40595">
        <ele>725.93</ele>
        <time>2015-05-01T11:48:42Z</time>
      </trkpt>
      <trkpt lat="43.80939" lon="7.40596">
        <ele>725.45</ele>
        <time>2015-05-01T11:48:43Z</time>
      </trkpt>
      <trkpt lat="43.8095" lon="7.40611">
        <ele>722.57</ele>
        <time>2015-05-01T11:48:55Z</time>
      </trkpt>
      <trkpt lat="43.80958" lon="7.40623">
        <ele>719.2</ele>
        <time>2015-05-01T11:49:04Z</time>
      </trkpt>
      <trkpt lat="43.80973" lon="7.4064">
        <ele>716.8</ele>
        <time>2015-05-01T11:49:17Z</time>
      </trkpt>
      <trkpt lat="43.80975" lon="7.40642">
        <ele>716.8</ele>
        <time>2015-05-01T11:49:18Z</time>
      </trkpt>
      <trkpt lat="43.80976" lon="7.40644">
        <ele>716.8</ele>
        <time>2015-05-01T11:49:19Z</time>
      </trkpt>
      <trkpt lat="43.80986" lon="7.40658">
        <ele>714.88</ele>
        <time>2015-05-01T11:49:27Z</time>
      </trkpt>
      <trkpt lat="43.80996" lon="7.40675">
        <ele>711.99</ele>
        <time>2015-05-01T11:49:41Z</time>
      </trkpt>
      <trkpt lat="43.80997" lon="7.40677">
        <ele>711.51</ele>
        <time>2015-05-01T11:49:42Z</time>
      </trkpt>
      <trkpt lat="43.81015" lon="7.40706">
        <ele>708.15</ele>
        <time>2015-05-01T11:49:59Z</time>
      </trkpt>
      <trkpt lat="43.81029" lon="7.40727">
        <ele>705.75</ele>
        <time>2015-05-01T11:50:09Z</time>
      </trkpt>
      <trkpt lat="43.81039" lon="7.40736">
        <ele>702.86</ele>
        <time>2015-05-01T11:50:20Z</time>
      </trkpt>
      <trkpt lat="43.81048" lon="7.40738">
        <ele>699.98</ele>
        <time>2015-05-01T11:50:30Z</time>
      </trkpt>
      <trkpt lat="43.8105" lon="7.4074">
        <ele>699.5</ele>
        <time>2015-05-01T11:50:33Z</time>
      </trkpt>
      <trkpt lat="43.81063" lon="7.40746">
        <ele>696.61</ele>
        <time>2015-05-01T11:50:46Z</time>
      </trkpt>
      <trkpt lat="43.81065" lon="7.40747">
        <ele>696.61</ele>
        <time>2015-05-01T11:50:47Z</time>
      </trkpt>
      <trkpt lat="43.81084" lon="7.40762">
        <ele>696.61</ele>
        <time>2015-05-01T11:51:00Z</time>
      </trkpt>
      <trkpt lat="43.81086" lon="7.40765">
        <ele>696.61</ele>
        <time>2015-05-01T11:51:02Z</time>
      </trkpt>
      <trkpt lat="43.81088" lon="7.40766">
        <ele>696.61</ele>
        <time>2015-05-01T11:51:03Z</time>
      </trkpt>
      <trkpt lat="43.81097" lon="7.40774">
        <ele>696.13</ele>
        <time>2015-05-01T11:51:08Z</time>
      </trkpt>
      <trkpt lat="43.81098" lon="7.40776">
        <ele>696.13</ele>
        <time>2015-05-01T11:51:09Z</time>
      </trkpt>
      <trkpt lat="43.811" lon="7.40777">
        <ele>696.13</ele>
        <time>2015-05-01T11:51:10Z</time>
      </trkpt>
      <trkpt lat="43.81101" lon="7.40779">
        <ele>696.13</ele>
        <time>2015-05-01T11:51:11Z</time>
      </trkpt>
      <trkpt lat="43.81102" lon="7.40781">
        <ele>696.13</ele>
        <time>2015-05-01T11:51:12Z</time>
      </trkpt>
      <trkpt lat="43.81115" lon="7.40799">
        <ele>696.13</ele>
        <time>2015-05-01T11:51:25Z</time>
      </trkpt>
      <trkpt lat="43.81123" lon="7.40811">
        <ele>696.13</ele>
        <time>2015-05-01T11:51:34Z</time>
      </trkpt>
      <trkpt lat="43.81123" lon="7.40813">
        <ele>695.65</ele>
        <time>2015-05-01T11:51:35Z</time>
      </trkpt>
      <trkpt lat="43.81124" lon="7.40817">
        <ele>695.65</ele>
        <time>2015-05-01T11:51:37Z</time>
      </trkpt>
      <trkpt lat="43.81124" lon="7.40819">
        <ele>695.65</ele>
        <time>2015-05-01T11:51:38Z</time>
      </trkpt>
      <trkpt lat="43.81125" lon="7.40821">
        <ele>695.65</ele>
        <time>2015-05-01T11:51:39Z</time>
      </trkpt>
      <trkpt lat="43.81126" lon="7.40823">
        <ele>695.17</ele>
        <time>2015-05-01T11:51:40Z</time>
      </trkpt>
      <trkpt lat="43.81126" lon="7.40825">
        <ele>695.17</ele>
        <time>2015-05-01T11:51:41Z</time>
      </trkpt>
      <trkpt lat="43.81127" lon="7.40827">
        <ele>694.69</ele>
        <time>2015-05-01T11:51:42Z</time>
      </trkpt>
      <trkpt lat="43.81127" lon="7.40829">
        <ele>694.69</ele>
        <time>2015-05-01T11:51:43Z</time>
      </trkpt>
      <trkpt lat="43.81128" lon="7.40831">
        <ele>694.69</ele>
        <time>2015-05-01T11:51:44Z</time>
      </trkpt>
      <trkpt lat="43.81129" lon="7.40833">
        <ele>694.21</ele>
        <time>2015-05-01T11:51:45Z</time>
      </trkpt>
      <trkpt lat="43.81129" lon="7.40835">
        <ele>694.21</ele>
        <time>2015-05-01T11:51:46Z</time>
      </trkpt>
      <trkpt lat="43.8113" lon="7.40837">
        <ele>693.73</ele>
        <time>2015-05-01T11:51:47Z</time>
      </trkpt>
      <trkpt lat="43.8113" lon="7.40839">
        <ele>693.73</ele>
        <time>2015-05-01T11:51:48Z</time>
      </trkpt>
      <trkpt lat="43.81131" lon="7.4084">
        <ele>693.73</ele>
        <time>2015-05-01T11:51:49Z</time>
      </trkpt>
      <trkpt lat="43.81137" lon="7.40849">
        <ele>692.29</ele>
        <time>2015-05-01T11:51:55Z</time>
      </trkpt>
      <trkpt lat="43.81138" lon="7.4085">
        <ele>692.29</ele>
        <time>2015-05-01T11:51:56Z</time>
      </trkpt>
      <trkpt lat="43.81139" lon="7.40851">
        <ele>691.33</ele>
        <time>2015-05-01T11:51:57Z</time>
      </trkpt>
      <trkpt lat="43.81144" lon="7.40856">
        <ele>690.84</ele>
        <time>2015-05-01T11:52:02Z</time>
      </trkpt>
      <trkpt lat="43.81147" lon="7.40861">
        <ele>690.36</ele>
        <time>2015-05-01T11:52:05Z</time>
      </trkpt>
      <trkpt lat="43.81148" lon="7.40863">
        <ele>690.36</ele>
        <time>2015-05-01T11:52:06Z</time>
      </trkpt>
      <trkpt lat="43.81149" lon="7.40865">
        <ele>690.36</ele>
        <time>2015-05-01T11:52:07Z</time>
      </trkpt>
      <trkpt lat="43.81151" lon="7.40878">
        <ele>687.96</ele>
        <time>2015-05-01T11:52:16Z</time>
      </trkpt>
      <trkpt lat="43.81151" lon="7.4088">
        <ele>687.96</ele>
        <time>2015-05-01T11:52:17Z</time>
      </trkpt>
      <trkpt lat="43.81152" lon="7.40882">
        <ele>687.48</ele>
        <time>2015-05-01T11:52:18Z</time>
      </trkpt>
      <trkpt lat="43.81152" lon="7.40884">
        <ele>687.48</ele>
        <time>2015-05-01T11:52:19Z</time>
      </trkpt>
      <trkpt lat="43.81152" lon="7.40887">
        <ele>687.48</ele>
        <time>2015-05-01T11:52:20Z</time>
      </trkpt>
      <trkpt lat="43.81153" lon="7.40888">
        <ele>687.48</ele>
        <time>2015-05-01T11:52:21Z</time>
      </trkpt>
      <trkpt lat="43.81154" lon="7.4089">
        <ele>687.48</ele>
        <time>2015-05-01T11:52:22Z</time>
      </trkpt>
      <trkpt lat="43.81155" lon="7.40892">
        <ele>687</ele>
        <time>2015-05-01T11:52:23Z</time>
      </trkpt>
      <trkpt lat="43.81155" lon="7.40894">
        <ele>687</ele>
        <time>2015-05-01T11:52:24Z</time>
      </trkpt>
      <trkpt lat="43.81156" lon="7.40896">
        <ele>687</ele>
        <time>2015-05-01T11:52:25Z</time>
      </trkpt>
      <trkpt lat="43.81157" lon="7.40907">
        <ele>686.04</ele>
        <time>2015-05-01T11:52:35Z</time>
      </trkpt>
      <trkpt lat="43.81159" lon="7.40923">
        <ele>684.12</ele>
        <time>2015-05-01T11:52:52Z</time>
      </trkpt>
      <trkpt lat="43.81167" lon="7.40946">
        <ele>680.75</ele>
        <time>2015-05-01T11:53:02Z</time>
      </trkpt>
      <trkpt lat="43.81177" lon="7.40972">
        <ele>678.35</ele>
        <time>2015-05-01T11:53:14Z</time>
      </trkpt>
      <trkpt lat="43.81187" lon="7.40992">
        <ele>675.46</ele>
        <time>2015-05-01T11:53:28Z</time>
      </trkpt>
      <trkpt lat="43.81194" lon="7.41">
        <ele>673.06</ele>
        <time>2015-05-01T11:53:39Z</time>
      </trkpt>
      <trkpt lat="43.81212" lon="7.41022">
        <ele>670.18</ele>
        <time>2015-05-01T11:53:52Z</time>
      </trkpt>
      <trkpt lat="43.81217" lon="7.41026">
        <ele>670.18</ele>
        <time>2015-05-01T11:53:56Z</time>
      </trkpt>
      <trkpt lat="43.81221" lon="7.41025">
        <ele>670.18</ele>
        <time>2015-05-01T11:53:57Z</time>
      </trkpt>
      <trkpt lat="43.81224" lon="7.41024">
        <ele>670.18</ele>
        <time>2015-05-01T11:53:58Z</time>
      </trkpt>
      <trkpt lat="43.81231" lon="7.41023">
        <ele>669.7</ele>
        <time>2015-05-01T11:54:01Z</time>
      </trkpt>
      <trkpt lat="43.81233" lon="7.41024">
        <ele>669.7</ele>
        <time>2015-05-01T11:54:02Z</time>
      </trkpt>
      <trkpt lat="43.81235" lon="7.41024">
        <ele>668.73</ele>
        <time>2015-05-01T11:54:03Z</time>
      </trkpt>
      <trkpt lat="43.81246" lon="7.41025">
        <ele>666.81</ele>
        <time>2015-05-01T11:54:14Z</time>
      </trkpt>
      <trkpt lat="43.81253" lon="7.41024">
        <ele>665.37</ele>
        <time>2015-05-01T11:54:21Z</time>
      </trkpt>
      <trkpt lat="43.81265" lon="7.41021">
        <ele>663.45</ele>
        <time>2015-05-01T11:54:28Z</time>
      </trkpt>
      <trkpt lat="43.81268" lon="7.41021">
        <ele>662.97</ele>
        <time>2015-05-01T11:54:29Z</time>
      </trkpt>
      <trkpt lat="43.81274" lon="7.41018">
        <ele>662.49</ele>
        <time>2015-05-01T11:54:33Z</time>
      </trkpt>
      <trkpt lat="43.81285" lon="7.41006">
        <ele>660.56</ele>
        <time>2015-05-01T11:54:41Z</time>
      </trkpt>
      <trkpt lat="43.81289" lon="7.41002">
        <ele>659.6</ele>
        <time>2015-05-01T11:54:44Z</time>
      </trkpt>
      <trkpt lat="43.81291" lon="7.41">
        <ele>659.12</ele>
        <time>2015-05-01T11:54:45Z</time>
      </trkpt>
      <trkpt lat="43.81292" lon="7.40999">
        <ele>659.12</ele>
        <time>2015-05-01T11:54:46Z</time>
      </trkpt>
      <trkpt lat="43.81293" lon="7.40998">
        <ele>658.16</ele>
        <time>2015-05-01T11:54:47Z</time>
      </trkpt>
      <trkpt lat="43.81302" lon="7.40991">
        <ele>655.76</ele>
        <time>2015-05-01T11:54:57Z</time>
      </trkpt>
      <trkpt lat="43.81309" lon="7.40986">
        <ele>653.83</ele>
        <time>2015-05-01T11:55:02Z</time>
      </trkpt>
      <trkpt lat="43.81314" lon="7.4098">
        <ele>652.87</ele>
        <time>2015-05-01T11:55:06Z</time>
      </trkpt>
      <trkpt lat="43.81316" lon="7.40976">
        <ele>652.87</ele>
        <time>2015-05-01T11:55:07Z</time>
      </trkpt>
      <trkpt lat="43.81318" lon="7.40974">
        <ele>652.39</ele>
        <time>2015-05-01T11:55:08Z</time>
      </trkpt>
      <trkpt lat="43.81322" lon="7.40972">
        <ele>651.91</ele>
        <time>2015-05-01T11:55:12Z</time>
      </trkpt>
      <trkpt lat="43.81323" lon="7.40971">
        <ele>651.43</ele>
        <time>2015-05-01T11:55:13Z</time>
      </trkpt>
      <trkpt lat="43.81325" lon="7.40969">
        <ele>651.43</ele>
        <time>2015-05-01T11:55:14Z</time>
      </trkpt>
      <trkpt lat="43.81334" lon="7.40961">
        <ele>649.03</ele>
        <time>2015-05-01T11:55:19Z</time>
      </trkpt>
      <trkpt lat="43.81336" lon="7.40959">
        <ele>649.03</ele>
        <time>2015-05-01T11:55:20Z</time>
      </trkpt>
      <trkpt lat="43.8135" lon="7.40941">
        <ele>646.14</ele>
        <time>2015-05-01T11:55:30Z</time>
      </trkpt>
      <trkpt lat="43.81351" lon="7.40937">
        <ele>645.66</ele>
        <time>2015-05-01T11:55:32Z</time>
      </trkpt>
      <trkpt lat="43.81353" lon="7.40934">
        <ele>645.18</ele>
        <time>2015-05-01T11:55:34Z</time>
      </trkpt>
      <trkpt lat="43.81355" lon="7.40932">
        <ele>644.7</ele>
        <time>2015-05-01T11:55:36Z</time>
      </trkpt>
      <trkpt lat="43.81358" lon="7.40931">
        <ele>644.7</ele>
        <time>2015-05-01T11:55:37Z</time>
      </trkpt>
      <trkpt lat="43.81359" lon="7.4093">
        <ele>644.7</ele>
        <time>2015-05-01T11:55:38Z</time>
      </trkpt>
      <trkpt lat="43.81376" lon="7.40913">
        <ele>641.34</ele>
        <time>2015-05-01T11:55:50Z</time>
      </trkpt>
      <trkpt lat="43.81377" lon="7.40912">
        <ele>641.34</ele>
        <time>2015-05-01T11:55:51Z</time>
      </trkpt>
      <trkpt lat="43.81378" lon="7.40911">
        <ele>640.86</ele>
        <time>2015-05-01T11:55:53Z</time>
      </trkpt>
      <trkpt lat="43.81386" lon="7.40905">
        <ele>639.89</ele>
        <time>2015-05-01T11:56:01Z</time>
      </trkpt>
      <trkpt lat="43.81388" lon="7.40904">
        <ele>639.41</ele>
        <time>2015-05-01T11:56:02Z</time>
      </trkpt>
      <trkpt lat="43.81389" lon="7.40902">
        <ele>639.41</ele>
        <time>2015-05-01T11:56:03Z</time>
      </trkpt>
      <trkpt lat="43.81392" lon="7.409">
        <ele>638.45</ele>
        <time>2015-05-01T11:56:04Z</time>
      </trkpt>
      <trkpt lat="43.81399" lon="7.40895">
        <ele>636.53</ele>
        <time>2015-05-01T11:56:10Z</time>
      </trkpt>
      <trkpt lat="43.81401" lon="7.40891">
        <ele>635.57</ele>
        <time>2015-05-01T11:56:12Z</time>
      </trkpt>
      <trkpt lat="43.81404" lon="7.40886">
        <ele>635.09</ele>
        <time>2015-05-01T11:56:15Z</time>
      </trkpt>
      <trkpt lat="43.81405" lon="7.40883">
        <ele>635.09</ele>
        <time>2015-05-01T11:56:16Z</time>
      </trkpt>
      <trkpt lat="43.81406" lon="7.4088">
        <ele>634.61</ele>
        <time>2015-05-01T11:56:17Z</time>
      </trkpt>
      <trkpt lat="43.81407" lon="7.40878">
        <ele>634.61</ele>
        <time>2015-05-01T11:56:18Z</time>
      </trkpt>
      <trkpt lat="43.81407" lon="7.40875">
        <ele>634.13</ele>
        <time>2015-05-01T11:56:19Z</time>
      </trkpt>
      <trkpt lat="43.81408" lon="7.40871">
        <ele>634.13</ele>
        <time>2015-05-01T11:56:20Z</time>
      </trkpt>
      <trkpt lat="43.8141" lon="7.40868">
        <ele>634.13</ele>
        <time>2015-05-01T11:56:21Z</time>
      </trkpt>
      <trkpt lat="43.8142" lon="7.40849">
        <ele>632.2</ele>
        <time>2015-05-01T11:56:29Z</time>
      </trkpt>
      <trkpt lat="43.81422" lon="7.40845">
        <ele>631.72</ele>
        <time>2015-05-01T11:56:32Z</time>
      </trkpt>
      <trkpt lat="43.81429" lon="7.40823">
        <ele>628.36</ele>
        <time>2015-05-01T11:56:41Z</time>
      </trkpt>
      <trkpt lat="43.81435" lon="7.40793">
        <ele>624.99</ele>
        <time>2015-05-01T11:56:53Z</time>
      </trkpt>
      <trkpt lat="43.81435" lon="7.40781">
        <ele>623.55</ele>
        <time>2015-05-01T11:56:59Z</time>
      </trkpt>
      <trkpt lat="43.81436" lon="7.40777">
        <ele>623.07</ele>
        <time>2015-05-01T11:57:02Z</time>
      </trkpt>
      <trkpt lat="43.81437" lon="7.40776">
        <ele>622.59</ele>
        <time>2015-05-01T11:57:03Z</time>
      </trkpt>
      <trkpt lat="43.81448" lon="7.40756">
        <ele>619.23</ele>
        <time>2015-05-01T11:57:15Z</time>
      </trkpt>
      <trkpt lat="43.81448" lon="7.40754">
        <ele>619.23</ele>
        <time>2015-05-01T11:57:16Z</time>
      </trkpt>
      <trkpt lat="43.8145" lon="7.40748">
        <ele>618.26</ele>
        <time>2015-05-01T11:57:19Z</time>
      </trkpt>
      <trkpt lat="43.81451" lon="7.40745">
        <ele>617.78</ele>
        <time>2015-05-01T11:57:20Z</time>
      </trkpt>
      <trkpt lat="43.81452" lon="7.40743">
        <ele>617.78</ele>
        <time>2015-05-01T11:57:21Z</time>
      </trkpt>
      <trkpt lat="43.81453" lon="7.40741">
        <ele>617.3</ele>
        <time>2015-05-01T11:57:22Z</time>
      </trkpt>
      <trkpt lat="43.8146" lon="7.40717">
        <ele>614.42</ele>
        <time>2015-05-01T11:57:32Z</time>
      </trkpt>
      <trkpt lat="43.81465" lon="7.407">
        <ele>612.5</ele>
        <time>2015-05-01T11:57:39Z</time>
      </trkpt>
      <trkpt lat="43.81466" lon="7.40698">
        <ele>611.54</ele>
        <time>2015-05-01T11:57:40Z</time>
      </trkpt>
      <trkpt lat="43.81467" lon="7.40696">
        <ele>612.02</ele>
        <time>2015-05-01T11:57:41Z</time>
      </trkpt>
      <trkpt lat="43.81468" lon="7.40694">
        <ele>611.54</ele>
        <time>2015-05-01T11:57:42Z</time>
      </trkpt>
      <trkpt lat="43.81469" lon="7.40691">
        <ele>611.54</ele>
        <time>2015-05-01T11:57:43Z</time>
      </trkpt>
      <trkpt lat="43.81476" lon="7.40672">
        <ele>608.17</ele>
        <time>2015-05-01T11:57:51Z</time>
      </trkpt>
      <trkpt lat="43.81479" lon="7.40666">
        <ele>607.21</ele>
        <time>2015-05-01T11:57:54Z</time>
      </trkpt>
      <trkpt lat="43.8148" lon="7.40664">
        <ele>607.21</ele>
        <time>2015-05-01T11:57:55Z</time>
      </trkpt>
      <trkpt lat="43.8148" lon="7.40661">
        <ele>606.73</ele>
        <time>2015-05-01T11:57:56Z</time>
      </trkpt>
      <trkpt lat="43.81482" lon="7.40658">
        <ele>606.25</ele>
        <time>2015-05-01T11:57:57Z</time>
      </trkpt>
      <trkpt lat="43.81482" lon="7.40655">
        <ele>605.77</ele>
        <time>2015-05-01T11:57:58Z</time>
      </trkpt>
      <trkpt lat="43.81483" lon="7.40652">
        <ele>605.77</ele>
        <time>2015-05-01T11:57:59Z</time>
      </trkpt>
      <trkpt lat="43.81484" lon="7.4065">
        <ele>604.81</ele>
        <time>2015-05-01T11:58:00Z</time>
      </trkpt>
      <trkpt lat="43.81485" lon="7.40648">
        <ele>604.81</ele>
        <time>2015-05-01T11:58:01Z</time>
      </trkpt>
      <trkpt lat="43.81486" lon="7.40647">
        <ele>604.33</ele>
        <time>2015-05-01T11:58:02Z</time>
      </trkpt>
      <trkpt lat="43.81487" lon="7.40644">
        <ele>603.85</ele>
        <time>2015-05-01T11:58:03Z</time>
      </trkpt>
      <trkpt lat="43.81488" lon="7.40642">
        <ele>603.36</ele>
        <time>2015-05-01T11:58:04Z</time>
      </trkpt>
      <trkpt lat="43.81494" lon="7.40622">
        <ele>600.48</ele>
        <time>2015-05-01T11:58:11Z</time>
      </trkpt>
      <trkpt lat="43.81502" lon="7.40605">
        <ele>597.6</ele>
        <time>2015-05-01T11:58:19Z</time>
      </trkpt>
      <trkpt lat="43.81503" lon="7.40602">
        <ele>597.6</ele>
        <time>2015-05-01T11:58:20Z</time>
      </trkpt>
      <trkpt lat="43.81504" lon="7.406">
        <ele>596.64</ele>
        <time>2015-05-01T11:58:21Z</time>
      </trkpt>
      <trkpt lat="43.81504" lon="7.40597">
        <ele>596.15</ele>
        <time>2015-05-01T11:58:22Z</time>
      </trkpt>
      <trkpt lat="43.81505" lon="7.40581">
        <ele>593.27</ele>
        <time>2015-05-01T11:58:28Z</time>
      </trkpt>
      <trkpt lat="43.81506" lon="7.40576">
        <ele>592.79</ele>
        <time>2015-05-01T11:58:30Z</time>
      </trkpt>
      <trkpt lat="43.81507" lon="7.40572">
        <ele>591.83</ele>
        <time>2015-05-01T11:58:32Z</time>
      </trkpt>
      <trkpt lat="43.81508" lon="7.40566">
        <ele>590.39</ele>
        <time>2015-05-01T11:58:36Z</time>
      </trkpt>
      <trkpt lat="43.81509" lon="7.40564">
        <ele>589.91</ele>
        <time>2015-05-01T11:58:37Z</time>
      </trkpt>
      <trkpt lat="43.8151" lon="7.40562">
        <ele>589.43</ele>
        <time>2015-05-01T11:58:38Z</time>
      </trkpt>
      <trkpt lat="43.81511" lon="7.4056">
        <ele>589.43</ele>
        <time>2015-05-01T11:58:39Z</time>
      </trkpt>
      <trkpt lat="43.81511" lon="7.40556">
        <ele>588.95</ele>
        <time>2015-05-01T11:58:40Z</time>
      </trkpt>
      <trkpt lat="43.81511" lon="7.40553">
        <ele>588.46</ele>
        <time>2015-05-01T11:58:41Z</time>
      </trkpt>
      <trkpt lat="43.81512" lon="7.4055">
        <ele>587.98</ele>
        <time>2015-05-01T11:58:42Z</time>
      </trkpt>
      <trkpt lat="43.81512" lon="7.40547">
        <ele>587.98</ele>
        <time>2015-05-01T11:58:43Z</time>
      </trkpt>
      <trkpt lat="43.81512" lon="7.40545">
        <ele>587.5</ele>
        <time>2015-05-01T11:58:44Z</time>
      </trkpt>
      <trkpt lat="43.81513" lon="7.40543">
        <ele>587.5</ele>
        <time>2015-05-01T11:58:45Z</time>
      </trkpt>
      <trkpt lat="43.81513" lon="7.4054">
        <ele>586.54</ele>
        <time>2015-05-01T11:58:46Z</time>
      </trkpt>
      <trkpt lat="43.81513" lon="7.40537">
        <ele>586.06</ele>
        <time>2015-05-01T11:58:47Z</time>
      </trkpt>
      <trkpt lat="43.81513" lon="7.40534">
        <ele>585.58</ele>
        <time>2015-05-01T11:58:48Z</time>
      </trkpt>
      <trkpt lat="43.81513" lon="7.40531">
        <ele>585.1</ele>
        <time>2015-05-01T11:58:49Z</time>
      </trkpt>
      <trkpt lat="43.81513" lon="7.40525">
        <ele>584.62</ele>
        <time>2015-05-01T11:58:51Z</time>
      </trkpt>
      <trkpt lat="43.81514" lon="7.40523">
        <ele>584.62</ele>
        <time>2015-05-01T11:58:52Z</time>
      </trkpt>
      <trkpt lat="43.81515" lon="7.40521">
        <ele>584.14</ele>
        <time>2015-05-01T11:58:53Z</time>
      </trkpt>
      <trkpt lat="43.81515" lon="7.40517">
        <ele>583.66</ele>
        <time>2015-05-01T11:58:54Z</time>
      </trkpt>
      <trkpt lat="43.81515" lon="7.40513">
        <ele>583.18</ele>
        <time>2015-05-01T11:58:55Z</time>
      </trkpt>
      <trkpt lat="43.81515" lon="7.4051">
        <ele>583.18</ele>
        <time>2015-05-01T11:58:56Z</time>
      </trkpt>
      <trkpt lat="43.81515" lon="7.40506">
        <ele>582.22</ele>
        <time>2015-05-01T11:58:57Z</time>
      </trkpt>
      <trkpt lat="43.81516" lon="7.40502">
        <ele>582.22</ele>
        <time>2015-05-01T11:58:58Z</time>
      </trkpt>
      <trkpt lat="43.81517" lon="7.40474">
        <ele>578.85</ele>
        <time>2015-05-01T11:59:08Z</time>
      </trkpt>
      <trkpt lat="43.81517" lon="7.4047">
        <ele>578.37</ele>
        <time>2015-05-01T11:59:09Z</time>
      </trkpt>
      <trkpt lat="43.81516" lon="7.40468">
        <ele>578.37</ele>
        <time>2015-05-01T11:59:10Z</time>
      </trkpt>
      <trkpt lat="43.81517" lon="7.40465">
        <ele>577.89</ele>
        <time>2015-05-01T11:59:11Z</time>
      </trkpt>
      <trkpt lat="43.81517" lon="7.40463">
        <ele>577.89</ele>
        <time>2015-05-01T11:59:12Z</time>
      </trkpt>
      <trkpt lat="43.81518" lon="7.40461">
        <ele>577.41</ele>
        <time>2015-05-01T11:59:13Z</time>
      </trkpt>
      <trkpt lat="43.81518" lon="7.40458">
        <ele>576.93</ele>
        <time>2015-05-01T11:59:14Z</time>
      </trkpt>
      <trkpt lat="43.81518" lon="7.40456">
        <ele>576.93</ele>
        <time>2015-05-01T11:59:15Z</time>
      </trkpt>
      <trkpt lat="43.81519" lon="7.40454">
        <ele>576.45</ele>
        <time>2015-05-01T11:59:16Z</time>
      </trkpt>
      <trkpt lat="43.8152" lon="7.40446">
        <ele>575.49</ele>
        <time>2015-05-01T11:59:20Z</time>
      </trkpt>
      <trkpt lat="43.81531" lon="7.40435">
        <ele>574.04</ele>
        <time>2015-05-01T11:59:32Z</time>
      </trkpt>
      <trkpt lat="43.81539" lon="7.40426">
        <ele>573.56</ele>
        <time>2015-05-01T11:59:43Z</time>
      </trkpt>
      <trkpt lat="43.81543" lon="7.40422">
        <ele>573.56</ele>
        <time>2015-05-01T12:00:01Z</time>
      </trkpt>
      <trkpt lat="43.8154" lon="7.4042">
        <ele>573.56</ele>
        <time>2015-05-01T12:00:21Z</time>
      </trkpt>
      <trkpt lat="43.81539" lon="7.40419">
        <ele>573.56</ele>
        <time>2015-05-01T12:00:48Z</time>
      </trkpt>
      <trkpt lat="43.81542" lon="7.40426">
        <ele>573.56</ele>
        <time>2015-05-01T12:01:10Z</time>
      </trkpt>
      <trkpt lat="43.81544" lon="7.40424">
        <ele>573.56</ele>
        <time>2015-05-01T12:01:26Z</time>
      </trkpt>
      <trkpt lat="43.8155" lon="7.40429">
        <ele>570.2</ele>
        <time>2015-05-01T12:01:37Z</time>
      </trkpt>
      <trkpt lat="43.81553" lon="7.40431">
        <ele>567.8</ele>
        <time>2015-05-01T12:01:40Z</time>
      </trkpt>
      <trkpt lat="43.81555" lon="7.40433">
        <ele>566.35</ele>
        <time>2015-05-01T12:01:41Z</time>
      </trkpt>
      <trkpt lat="43.81556" lon="7.40434">
        <ele>565.87</ele>
        <time>2015-05-01T12:01:42Z</time>
      </trkpt>
      <trkpt lat="43.8156" lon="7.40437">
        <ele>563.95</ele>
        <time>2015-05-01T12:01:45Z</time>
      </trkpt>
      <trkpt lat="43.81569" lon="7.40447">
        <ele>561.07</ele>
        <time>2015-05-01T12:01:53Z</time>
      </trkpt>
      <trkpt lat="43.81573" lon="7.40452">
        <ele>559.14</ele>
        <time>2015-05-01T12:01:57Z</time>
      </trkpt>
      <trkpt lat="43.81575" lon="7.40454">
        <ele>558.66</ele>
        <time>2015-05-01T12:01:58Z</time>
      </trkpt>
      <trkpt lat="43.81577" lon="7.40455">
        <ele>558.18</ele>
        <time>2015-05-01T12:01:59Z</time>
      </trkpt>
      <trkpt lat="43.81586" lon="7.40456">
        <ele>556.26</ele>
        <time>2015-05-01T12:02:06Z</time>
      </trkpt>
      <trkpt lat="43.8159" lon="7.40457">
        <ele>554.82</ele>
        <time>2015-05-01T12:02:09Z</time>
      </trkpt>
      <trkpt lat="43.81591" lon="7.40458">
        <ele>554.82</ele>
        <time>2015-05-01T12:02:10Z</time>
      </trkpt>
      <trkpt lat="43.81593" lon="7.40458">
        <ele>554.82</ele>
        <time>2015-05-01T12:02:11Z</time>
      </trkpt>
      <trkpt lat="43.8162" lon="7.40463">
        <ele>551.45</ele>
        <time>2015-05-01T12:02:24Z</time>
      </trkpt>
      <trkpt lat="43.81625" lon="7.40462">
        <ele>550.97</ele>
        <time>2015-05-01T12:02:27Z</time>
      </trkpt>
      <trkpt lat="43.81639" lon="7.40457">
        <ele>547.61</ele>
        <time>2015-05-01T12:02:35Z</time>
      </trkpt>
      <trkpt lat="43.8165" lon="7.40447">
        <ele>547.13</ele>
        <time>2015-05-01T12:02:43Z</time>
      </trkpt>
      <trkpt lat="43.81651" lon="7.40446">
        <ele>546.17</ele>
        <time>2015-05-01T12:02:44Z</time>
      </trkpt>
      <trkpt lat="43.81657" lon="7.40444">
        <ele>545.2</ele>
        <time>2015-05-01T12:02:49Z</time>
      </trkpt>
      <trkpt lat="43.81658" lon="7.40444">
        <ele>545.2</ele>
        <time>2015-05-01T12:02:50Z</time>
      </trkpt>
      <trkpt lat="43.8166" lon="7.40443">
        <ele>544.24</ele>
        <time>2015-05-01T12:02:51Z</time>
      </trkpt>
      <trkpt lat="43.81665" lon="7.40443">
        <ele>542.8</ele>
        <time>2015-05-01T12:02:57Z</time>
      </trkpt>
      <trkpt lat="43.81669" lon="7.40442">
        <ele>541.36</ele>
        <time>2015-05-01T12:03:00Z</time>
      </trkpt>
      <trkpt lat="43.81671" lon="7.40442">
        <ele>540.4</ele>
        <time>2015-05-01T12:03:01Z</time>
      </trkpt>
      <trkpt lat="43.81673" lon="7.40441">
        <ele>539.92</ele>
        <time>2015-05-01T12:03:02Z</time>
      </trkpt>
      <trkpt lat="43.81676" lon="7.40439">
        <ele>538.96</ele>
        <time>2015-05-01T12:03:03Z</time>
      </trkpt>
      <trkpt lat="43.81678" lon="7.40439">
        <ele>538.96</ele>
        <time>2015-05-01T12:03:04Z</time>
      </trkpt>
      <trkpt lat="43.81681" lon="7.40438">
        <ele>537.99</ele>
        <time>2015-05-01T12:03:05Z</time>
      </trkpt>
      <trkpt lat="43.81693" lon="7.40442">
        <ele>534.63</ele>
        <time>2015-05-01T12:03:15Z</time>
      </trkpt>
      <trkpt lat="43.81695" lon="7.40442">
        <ele>534.15</ele>
        <time>2015-05-01T12:03:16Z</time>
      </trkpt>
      <trkpt lat="43.81696" lon="7.40441">
        <ele>533.67</ele>
        <time>2015-05-01T12:03:17Z</time>
      </trkpt>
      <trkpt lat="43.81707" lon="7.40434">
        <ele>530.79</ele>
        <time>2015-05-01T12:03:27Z</time>
      </trkpt>
      <trkpt lat="43.81718" lon="7.40428">
        <ele>527.42</ele>
        <time>2015-05-01T12:03:35Z</time>
      </trkpt>
      <trkpt lat="43.81728" lon="7.40427">
        <ele>524.54</ele>
        <time>2015-05-01T12:03:45Z</time>
      </trkpt>
      <trkpt lat="43.81738" lon="7.40429">
        <ele>522.61</ele>
        <time>2015-05-01T12:03:52Z</time>
      </trkpt>
      <trkpt lat="43.8176" lon="7.40432">
        <ele>520.21</ele>
        <time>2015-05-01T12:04:03Z</time>
      </trkpt>
      <trkpt lat="43.81772" lon="7.40434">
        <ele>518.77</ele>
        <time>2015-05-01T12:04:09Z</time>
      </trkpt>
      <trkpt lat="43.81786" lon="7.40441">
        <ele>515.88</ele>
        <time>2015-05-01T12:04:23Z</time>
      </trkpt>
      <trkpt lat="43.81806" lon="7.40451">
        <ele>513.48</ele>
        <time>2015-05-01T12:04:36Z</time>
      </trkpt>
      <trkpt lat="43.8181" lon="7.40451">
        <ele>513</ele>
        <time>2015-05-01T12:04:37Z</time>
      </trkpt>
      <trkpt lat="43.81814" lon="7.4045">
        <ele>512.04</ele>
        <time>2015-05-01T12:04:38Z</time>
      </trkpt>
      <trkpt lat="43.81819" lon="7.40448">
        <ele>511.08</ele>
        <time>2015-05-01T12:04:40Z</time>
      </trkpt>
      <trkpt lat="43.81837" lon="7.40453">
        <ele>507.71</ele>
        <time>2015-05-01T12:04:52Z</time>
      </trkpt>
      <trkpt lat="43.81839" lon="7.40454">
        <ele>507.71</ele>
        <time>2015-05-01T12:04:53Z</time>
      </trkpt>
      <trkpt lat="43.81855" lon="7.4046">
        <ele>504.83</ele>
        <time>2015-05-01T12:05:06Z</time>
      </trkpt>
      <trkpt lat="43.81877" lon="7.4047">
        <ele>501.95</ele>
        <time>2015-05-01T12:05:22Z</time>
      </trkpt>
      <trkpt lat="43.81884" lon="7.40472">
        <ele>498.58</ele>
        <time>2015-05-01T12:05:32Z</time>
      </trkpt>
      <trkpt lat="43.8189" lon="7.4047">
        <ele>497.14</ele>
        <time>2015-05-01T12:05:37Z</time>
      </trkpt>
      <trkpt lat="43.8189" lon="7.40468">
        <ele>496.18</ele>
        <time>2015-05-01T12:05:38Z</time>
      </trkpt>
      <trkpt lat="43.81888" lon="7.40459">
        <ele>494.26</ele>
        <time>2015-05-01T12:05:44Z</time>
      </trkpt>
      <trkpt lat="43.81887" lon="7.40458">
        <ele>493.29</ele>
        <time>2015-05-01T12:05:45Z</time>
      </trkpt>
      <trkpt lat="43.81879" lon="7.40451">
        <ele>490.89</ele>
        <time>2015-05-01T12:05:54Z</time>
      </trkpt>
      <trkpt lat="43.81878" lon="7.4045">
        <ele>489.93</ele>
        <time>2015-05-01T12:05:55Z</time>
      </trkpt>
      <trkpt lat="43.81876" lon="7.4044">
        <ele>487.53</ele>
        <time>2015-05-01T12:06:03Z</time>
      </trkpt>
      <trkpt lat="43.81879" lon="7.40435">
        <ele>486.56</ele>
        <time>2015-05-01T12:06:07Z</time>
      </trkpt>
      <trkpt lat="43.8189" lon="7.40433">
        <ele>483.68</ele>
        <time>2015-05-01T12:06:20Z</time>
      </trkpt>
      <trkpt lat="43.81906" lon="7.4044">
        <ele>480.32</ele>
        <time>2015-05-01T12:06:34Z</time>
      </trkpt>
      <trkpt lat="43.81915" lon="7.40442">
        <ele>479.35</ele>
        <time>2015-05-01T12:06:41Z</time>
      </trkpt>
      <trkpt lat="43.81917" lon="7.40443">
        <ele>478.39</ele>
        <time>2015-05-01T12:06:42Z</time>
      </trkpt>
      <trkpt lat="43.81918" lon="7.40443">
        <ele>478.39</ele>
        <time>2015-05-01T12:06:43Z</time>
      </trkpt>
      <trkpt lat="43.81929" lon="7.40456">
        <ele>475.03</ele>
        <time>2015-05-01T12:06:54Z</time>
      </trkpt>
      <trkpt lat="43.8193" lon="7.40458">
        <ele>475.03</ele>
        <time>2015-05-01T12:06:55Z</time>
      </trkpt>
      <trkpt lat="43.81932" lon="7.4046">
        <ele>474.55</ele>
        <time>2015-05-01T12:06:57Z</time>
      </trkpt>
      <trkpt lat="43.81933" lon="7.40461">
        <ele>473.59</ele>
        <time>2015-05-01T12:06:58Z</time>
      </trkpt>
      <trkpt lat="43.81934" lon="7.40462">
        <ele>473.59</ele>
        <time>2015-05-01T12:06:59Z</time>
      </trkpt>
      <trkpt lat="43.81941" lon="7.40468">
        <ele>470.22</ele>
        <time>2015-05-01T12:07:07Z</time>
      </trkpt>
      <trkpt lat="43.81941" lon="7.40467">
        <ele>470.22</ele>
        <time>2015-05-01T12:07:08Z</time>
      </trkpt>
      <trkpt lat="43.81945" lon="7.40459">
        <ele>468.3</ele>
        <time>2015-05-01T12:07:16Z</time>
      </trkpt>
      <trkpt lat="43.81949" lon="7.40459">
        <ele>467.34</ele>
        <time>2015-05-01T12:07:29Z</time>
      </trkpt>
      <trkpt lat="43.81949" lon="7.40459">
        <ele>467.34</ele>
        <time>2015-05-01T12:07:46Z</time>
      </trkpt>
      <trkpt lat="43.81949" lon="7.40461">
        <ele>466.86</ele>
        <time>2015-05-01T12:08:13Z</time>
      </trkpt>
      <trkpt lat="43.81949" lon="7.4046">
        <ele>466.86</ele>
        <time>2015-05-01T12:08:33Z</time>
      </trkpt>
      <trkpt lat="43.81949" lon="7.40455">
        <ele>466.86</ele>
        <time>2015-05-01T12:08:48Z</time>
      </trkpt>
      <trkpt lat="43.8195" lon="7.40459">
        <ele>466.38</ele>
        <time>2015-05-01T12:09:08Z</time>
      </trkpt>
      <trkpt lat="43.8195" lon="7.40482">
        <ele>464.45</ele>
        <time>2015-05-01T12:09:27Z</time>
      </trkpt>
      <trkpt lat="43.81952" lon="7.40502">
        <ele>462.05</ele>
        <time>2015-05-01T12:09:45Z</time>
      </trkpt>
      <trkpt lat="43.81954" lon="7.40504">
        <ele>461.09</ele>
        <time>2015-05-01T12:09:47Z</time>
      </trkpt>
      <trkpt lat="43.8198" lon="7.40519">
        <ele>457.72</ele>
        <time>2015-05-01T12:10:08Z</time>
      </trkpt>
      <trkpt lat="43.81999" lon="7.40525">
        <ele>457.24</ele>
        <time>2015-05-01T12:10:25Z</time>
      </trkpt>
      <trkpt lat="43.82018" lon="7.40544">
        <ele>458.21</ele>
        <time>2015-05-01T12:10:43Z</time>
      </trkpt>
      <trkpt lat="43.82039" lon="7.40561">
        <ele>461.09</ele>
        <time>2015-05-01T12:11:02Z</time>
      </trkpt>
      <trkpt lat="43.82056" lon="7.40582">
        <ele>463.01</ele>
        <time>2015-05-01T12:11:14Z</time>
      </trkpt>
      <trkpt lat="43.82065" lon="7.40598">
        <ele>463.97</ele>
        <time>2015-05-01T12:11:24Z</time>
      </trkpt>
      <trkpt lat="43.82069" lon="7.40609">
        <ele>463.01</ele>
        <time>2015-05-01T12:11:30Z</time>
      </trkpt>
      <trkpt lat="43.82071" lon="7.40613">
        <ele>464.45</ele>
        <time>2015-05-01T12:11:33Z</time>
      </trkpt>
      <trkpt lat="43.82091" lon="7.40636">
        <ele>465.42</ele>
        <time>2015-05-01T12:11:51Z</time>
      </trkpt>
      <trkpt lat="43.8211" lon="7.40667">
        <ele>465.9</ele>
        <time>2015-05-01T12:12:11Z</time>
      </trkpt>
      <trkpt lat="43.82112" lon="7.40676">
        <ele>467.82</ele>
        <time>2015-05-01T12:12:16Z</time>
      </trkpt>
      <trkpt lat="43.82124" lon="7.40705">
        <ele>470.7</ele>
        <time>2015-05-01T12:12:34Z</time>
      </trkpt>
      <trkpt lat="43.82137" lon="7.40725">
        <ele>472.63</ele>
        <time>2015-05-01T12:12:49Z</time>
      </trkpt>
      <trkpt lat="43.82138" lon="7.40726">
        <ele>472.63</ele>
        <time>2015-05-01T12:12:50Z</time>
      </trkpt>
      <trkpt lat="43.82152" lon="7.40745">
        <ele>473.11</ele>
        <time>2015-05-01T12:13:06Z</time>
      </trkpt>
      <trkpt lat="43.82153" lon="7.40749">
        <ele>475.03</ele>
        <time>2015-05-01T12:13:08Z</time>
      </trkpt>
      <trkpt lat="43.82154" lon="7.40757">
        <ele>475.51</ele>
        <time>2015-05-01T12:13:13Z</time>
      </trkpt>
      <trkpt lat="43.82154" lon="7.40764">
        <ele>475.51</ele>
        <time>2015-05-01T12:13:16Z</time>
      </trkpt>
      <trkpt lat="43.82157" lon="7.40783">
        <ele>476.95</ele>
        <time>2015-05-01T12:13:25Z</time>
      </trkpt>
      <trkpt lat="43.82154" lon="7.40807">
        <ele>478.87</ele>
        <time>2015-05-01T12:13:38Z</time>
      </trkpt>
      <trkpt lat="43.82141" lon="7.40821">
        <ele>479.84</ele>
        <time>2015-05-01T12:13:52Z</time>
      </trkpt>
      <trkpt lat="43.82138" lon="7.40832">
        <ele>478.39</ele>
        <time>2015-05-01T12:14:01Z</time>
      </trkpt>
      <trkpt lat="43.82139" lon="7.40844">
        <ele>476.95</ele>
        <time>2015-05-01T12:14:09Z</time>
      </trkpt>
      <trkpt lat="43.82139" lon="7.40854">
        <ele>476.47</ele>
        <time>2015-05-01T12:14:13Z</time>
      </trkpt>
      <trkpt lat="43.82142" lon="7.40864">
        <ele>475.51</ele>
        <time>2015-05-01T12:14:18Z</time>
      </trkpt>
      <trkpt lat="43.82145" lon="7.40879">
        <ele>475.03</ele>
        <time>2015-05-01T12:14:25Z</time>
      </trkpt>
      <trkpt lat="43.8215" lon="7.40887">
        <ele>474.55</ele>
        <time>2015-05-01T12:14:30Z</time>
      </trkpt>
      <trkpt lat="43.82152" lon="7.40889">
        <ele>474.55</ele>
        <time>2015-05-01T12:14:31Z</time>
      </trkpt>
      <trkpt lat="43.82154" lon="7.4089">
        <ele>474.55</ele>
        <time>2015-05-01T12:14:32Z</time>
      </trkpt>
      <trkpt lat="43.82155" lon="7.40891">
        <ele>474.55</ele>
        <time>2015-05-01T12:14:33Z</time>
      </trkpt>
      <trkpt lat="43.82157" lon="7.40893">
        <ele>474.55</ele>
        <time>2015-05-01T12:14:34Z</time>
      </trkpt>
      <trkpt lat="43.82159" lon="7.40894">
        <ele>474.55</ele>
        <time>2015-05-01T12:14:35Z</time>
      </trkpt>
      <trkpt lat="43.8216" lon="7.40896">
        <ele>474.55</ele>
        <time>2015-05-01T12:14:36Z</time>
      </trkpt>
      <trkpt lat="43.82162" lon="7.40897">
        <ele>474.55</ele>
        <time>2015-05-01T12:14:37Z</time>
      </trkpt>
      <trkpt lat="43.82164" lon="7.40899">
        <ele>474.55</ele>
        <time>2015-05-01T12:14:38Z</time>
      </trkpt>
      <trkpt lat="43.82165" lon="7.40901">
        <ele>474.55</ele>
        <time>2015-05-01T12:14:39Z</time>
      </trkpt>
      <trkpt lat="43.82166" lon="7.40904">
        <ele>474.55</ele>
        <time>2015-05-01T12:14:40Z</time>
      </trkpt>
      <trkpt lat="43.82167" lon="7.40906">
        <ele>474.55</ele>
        <time>2015-05-01T12:14:41Z</time>
      </trkpt>
      <trkpt lat="43.82167" lon="7.40909">
        <ele>474.55</ele>
        <time>2015-05-01T12:14:42Z</time>
      </trkpt>
      <trkpt lat="43.82167" lon="7.40911">
        <ele>474.55</ele>
        <time>2015-05-01T12:14:43Z</time>
      </trkpt>
      <trkpt lat="43.82167" lon="7.40914">
        <ele>474.55</ele>
        <time>2015-05-01T12:14:44Z</time>
      </trkpt>
      <trkpt lat="43.82168" lon="7.40916">
        <ele>474.55</ele>
        <time>2015-05-01T12:14:45Z</time>
      </trkpt>
      <trkpt lat="43.82179" lon="7.40944">
        <ele>474.55</ele>
        <time>2015-05-01T12:14:59Z</time>
      </trkpt>
      <trkpt lat="43.82181" lon="7.4095">
        <ele>475.51</ele>
        <time>2015-05-01T12:15:03Z</time>
      </trkpt>
      <trkpt lat="43.82189" lon="7.40967">
        <ele>477.91</ele>
        <time>2015-05-01T12:15:13Z</time>
      </trkpt>
      <trkpt lat="43.8219" lon="7.4097">
        <ele>477.91</ele>
        <time>2015-05-01T12:15:14Z</time>
      </trkpt>
      <trkpt lat="43.82191" lon="7.40972">
        <ele>477.91</ele>
        <time>2015-05-01T12:15:15Z</time>
      </trkpt>
      <trkpt lat="43.82192" lon="7.40974">
        <ele>478.39</ele>
        <time>2015-05-01T12:15:16Z</time>
      </trkpt>
      <trkpt lat="43.82196" lon="7.40986">
        <ele>479.35</ele>
        <time>2015-05-01T12:15:24Z</time>
      </trkpt>
      <trkpt lat="43.8221" lon="7.41">
        <ele>482.24</ele>
        <time>2015-05-01T12:15:39Z</time>
      </trkpt>
      <trkpt lat="43.82211" lon="7.41001">
        <ele>482.24</ele>
        <time>2015-05-01T12:15:40Z</time>
      </trkpt>
      <trkpt lat="43.82212" lon="7.41003">
        <ele>482.24</ele>
        <time>2015-05-01T12:15:41Z</time>
      </trkpt>
      <trkpt lat="43.82213" lon="7.41005">
        <ele>482.24</ele>
        <time>2015-05-01T12:15:42Z</time>
      </trkpt>
      <trkpt lat="43.82214" lon="7.41006">
        <ele>482.72</ele>
        <time>2015-05-01T12:15:43Z</time>
      </trkpt>
      <trkpt lat="43.82215" lon="7.41007">
        <ele>482.72</ele>
        <time>2015-05-01T12:15:44Z</time>
      </trkpt>
      <trkpt lat="43.82222" lon="7.41021">
        <ele>483.2</ele>
        <time>2015-05-01T12:15:52Z</time>
      </trkpt>
      <trkpt lat="43.82228" lon="7.41033">
        <ele>484.16</ele>
        <time>2015-05-01T12:16:00Z</time>
      </trkpt>
      <trkpt lat="43.8223" lon="7.41037">
        <ele>484.64</ele>
        <time>2015-05-01T12:16:03Z</time>
      </trkpt>
      <trkpt lat="43.82231" lon="7.41039">
        <ele>484.64</ele>
        <time>2015-05-01T12:16:04Z</time>
      </trkpt>
      <trkpt lat="43.82231" lon="7.41041">
        <ele>484.64</ele>
        <time>2015-05-01T12:16:05Z</time>
      </trkpt>
      <trkpt lat="43.82239" lon="7.41063">
        <ele>486.56</ele>
        <time>2015-05-01T12:16:18Z</time>
      </trkpt>
      <trkpt lat="43.82239" lon="7.41064">
        <ele>486.56</ele>
        <time>2015-05-01T12:16:19Z</time>
      </trkpt>
      <trkpt lat="43.8224" lon="7.41066">
        <ele>486.56</ele>
        <time>2015-05-01T12:16:20Z</time>
      </trkpt>
      <trkpt lat="43.82242" lon="7.41068">
        <ele>487.05</ele>
        <time>2015-05-01T12:16:21Z</time>
      </trkpt>
      <trkpt lat="43.82243" lon="7.41069">
        <ele>487.05</ele>
        <time>2015-05-01T12:16:22Z</time>
      </trkpt>
      <trkpt lat="43.82244" lon="7.41071">
        <ele>487.05</ele>
        <time>2015-05-01T12:16:23Z</time>
      </trkpt>
      <trkpt lat="43.82245" lon="7.41073">
        <ele>487.05</ele>
        <time>2015-05-01T12:16:24Z</time>
      </trkpt>
      <trkpt lat="43.82246" lon="7.41075">
        <ele>487.53</ele>
        <time>2015-05-01T12:16:25Z</time>
      </trkpt>
      <trkpt lat="43.82247" lon="7.41077">
        <ele>487.53</ele>
        <time>2015-05-01T12:16:26Z</time>
      </trkpt>
      <trkpt lat="43.82256" lon="7.41103">
        <ele>488.49</ele>
        <time>2015-05-01T12:16:40Z</time>
      </trkpt>
      <trkpt lat="43.82261" lon="7.41126">
        <ele>488.49</ele>
        <time>2015-05-01T12:16:52Z</time>
      </trkpt>
      <trkpt lat="43.82261" lon="7.4114">
        <ele>487.05</ele>
        <time>2015-05-01T12:16:58Z</time>
      </trkpt>
      <trkpt lat="43.82261" lon="7.41155">
        <ele>487.05</ele>
        <time>2015-05-01T12:17:05Z</time>
      </trkpt>
      <trkpt lat="43.82259" lon="7.41176">
        <ele>485.6</ele>
        <time>2015-05-01T12:17:18Z</time>
      </trkpt>
      <trkpt lat="43.82259" lon="7.41184">
        <ele>485.6</ele>
        <time>2015-05-01T12:17:22Z</time>
      </trkpt>
      <trkpt lat="43.82259" lon="7.41186">
        <ele>485.12</ele>
        <time>2015-05-01T12:17:23Z</time>
      </trkpt>
      <trkpt lat="43.8226" lon="7.41188">
        <ele>485.12</ele>
        <time>2015-05-01T12:17:24Z</time>
      </trkpt>
      <trkpt lat="43.82261" lon="7.41189">
        <ele>485.12</ele>
        <time>2015-05-01T12:17:25Z</time>
      </trkpt>
      <trkpt lat="43.82262" lon="7.4119">
        <ele>485.12</ele>
        <time>2015-05-01T12:17:26Z</time>
      </trkpt>
      <trkpt lat="43.82262" lon="7.41192">
        <ele>485.12</ele>
        <time>2015-05-01T12:17:27Z</time>
      </trkpt>
      <trkpt lat="43.82265" lon="7.41198">
        <ele>484.64</ele>
        <time>2015-05-01T12:17:32Z</time>
      </trkpt>
      <trkpt lat="43.82266" lon="7.41199">
        <ele>484.64</ele>
        <time>2015-05-01T12:17:33Z</time>
      </trkpt>
      <trkpt lat="43.82268" lon="7.41199">
        <ele>484.64</ele>
        <time>2015-05-01T12:17:34Z</time>
      </trkpt>
      <trkpt lat="43.82286" lon="7.41204">
        <ele>482.72</ele>
        <time>2015-05-01T12:17:48Z</time>
      </trkpt>
      <trkpt lat="43.82297" lon="7.41209">
        <ele>482.72</ele>
        <time>2015-05-01T12:17:55Z</time>
      </trkpt>
      <trkpt lat="43.82299" lon="7.4121">
        <ele>482.72</ele>
        <time>2015-05-01T12:17:56Z</time>
      </trkpt>
      <trkpt lat="43.82311" lon="7.41229">
        <ele>481.28</ele>
        <time>2015-05-01T12:18:09Z</time>
      </trkpt>
      <trkpt lat="43.82312" lon="7.41231">
        <ele>481.76</ele>
        <time>2015-05-01T12:18:10Z</time>
      </trkpt>
      <trkpt lat="43.82313" lon="7.41232">
        <ele>481.76</ele>
        <time>2015-05-01T12:18:11Z</time>
      </trkpt>
      <trkpt lat="43.82315" lon="7.41234">
        <ele>481.76</ele>
        <time>2015-05-01T12:18:12Z</time>
      </trkpt>
      <trkpt lat="43.82315" lon="7.41237">
        <ele>481.76</ele>
        <time>2015-05-01T12:18:13Z</time>
      </trkpt>
      <trkpt lat="43.82316" lon="7.41238">
        <ele>481.76</ele>
        <time>2015-05-01T12:18:14Z</time>
      </trkpt>
      <trkpt lat="43.82328" lon="7.41259">
        <ele>481.76</ele>
        <time>2015-05-01T12:18:28Z</time>
      </trkpt>
      <trkpt lat="43.82346" lon="7.41271">
        <ele>483.2</ele>
        <time>2015-05-01T12:18:42Z</time>
      </trkpt>
      <trkpt lat="43.82361" lon="7.41278">
        <ele>483.2</ele>
        <time>2015-05-01T12:18:55Z</time>
      </trkpt>
      <trkpt lat="43.82362" lon="7.41279">
        <ele>483.68</ele>
        <time>2015-05-01T12:18:56Z</time>
      </trkpt>
      <trkpt lat="43.82377" lon="7.41292">
        <ele>484.16</ele>
        <time>2015-05-01T12:19:08Z</time>
      </trkpt>
      <trkpt lat="43.82384" lon="7.41295">
        <ele>484.64</ele>
        <time>2015-05-01T12:19:21Z</time>
      </trkpt>
      <trkpt lat="43.82394" lon="7.4131">
        <ele>485.6</ele>
        <time>2015-05-01T12:19:37Z</time>
      </trkpt>
      <trkpt lat="43.82397" lon="7.41315">
        <ele>485.6</ele>
        <time>2015-05-01T12:19:41Z</time>
      </trkpt>
      <trkpt lat="43.82409" lon="7.41347">
        <ele>487.05</ele>
        <time>2015-05-01T12:19:50Z</time>
      </trkpt>
      <trkpt lat="43.8241" lon="7.4135">
        <ele>487.05</ele>
        <time>2015-05-01T12:19:51Z</time>
      </trkpt>
      <trkpt lat="43.8241" lon="7.41353">
        <ele>487.05</ele>
        <time>2015-05-01T12:19:52Z</time>
      </trkpt>
      <trkpt lat="43.82411" lon="7.41357">
        <ele>487.53</ele>
        <time>2015-05-01T12:19:53Z</time>
      </trkpt>
      <trkpt lat="43.82412" lon="7.4136">
        <ele>487.53</ele>
        <time>2015-05-01T12:19:54Z</time>
      </trkpt>
      <trkpt lat="43.82412" lon="7.41363">
        <ele>487.53</ele>
        <time>2015-05-01T12:19:55Z</time>
      </trkpt>
      <trkpt lat="43.82413" lon="7.41366">
        <ele>487.53</ele>
        <time>2015-05-01T12:19:56Z</time>
      </trkpt>
      <trkpt lat="43.82414" lon="7.41369">
        <ele>487.53</ele>
        <time>2015-05-01T12:19:57Z</time>
      </trkpt>
      <trkpt lat="43.82414" lon="7.41372">
        <ele>487.53</ele>
        <time>2015-05-01T12:19:58Z</time>
      </trkpt>
      <trkpt lat="43.82414" lon="7.41375">
        <ele>487.53</ele>
        <time>2015-05-01T12:19:59Z</time>
      </trkpt>
      <trkpt lat="43.82415" lon="7.41377">
        <ele>487.53</ele>
        <time>2015-05-01T12:20:00Z</time>
      </trkpt>
      <trkpt lat="43.82415" lon="7.4138">
        <ele>487.53</ele>
        <time>2015-05-01T12:20:01Z</time>
      </trkpt>
      <trkpt lat="43.82415" lon="7.41382">
        <ele>487.53</ele>
        <time>2015-05-01T12:20:02Z</time>
      </trkpt>
      <trkpt lat="43.82415" lon="7.41384">
        <ele>487.53</ele>
        <time>2015-05-01T12:20:03Z</time>
      </trkpt>
      <trkpt lat="43.82418" lon="7.414">
        <ele>488.01</ele>
        <time>2015-05-01T12:20:15Z</time>
      </trkpt>
      <trkpt lat="43.82417" lon="7.41407">
        <ele>486.56</ele>
        <time>2015-05-01T12:20:19Z</time>
      </trkpt>
      <trkpt lat="43.8242" lon="7.41418">
        <ele>484.16</ele>
        <time>2015-05-01T12:20:27Z</time>
      </trkpt>
      <trkpt lat="43.8242" lon="7.41421">
        <ele>483.68</ele>
        <time>2015-05-01T12:20:28Z</time>
      </trkpt>
      <trkpt lat="43.82421" lon="7.41422">
        <ele>483.68</ele>
        <time>2015-05-01T12:20:29Z</time>
      </trkpt>
      <trkpt lat="43.82422" lon="7.41424">
        <ele>482.72</ele>
        <time>2015-05-01T12:20:30Z</time>
      </trkpt>
      <trkpt lat="43.82433" lon="7.41441">
        <ele>481.76</ele>
        <time>2015-05-01T12:20:42Z</time>
      </trkpt>
      <trkpt lat="43.82436" lon="7.4145">
        <ele>480.8</ele>
        <time>2015-05-01T12:20:46Z</time>
      </trkpt>
      <trkpt lat="43.82435" lon="7.41477">
        <ele>479.35</ele>
        <time>2015-05-01T12:20:58Z</time>
      </trkpt>
      <trkpt lat="43.82433" lon="7.41499">
        <ele>477.43</ele>
        <time>2015-05-01T12:21:11Z</time>
      </trkpt>
      <trkpt lat="43.82434" lon="7.41522">
        <ele>475.51</ele>
        <time>2015-05-01T12:21:24Z</time>
      </trkpt>
      <trkpt lat="43.82434" lon="7.41538">
        <ele>474.55</ele>
        <time>2015-05-01T12:21:31Z</time>
      </trkpt>
      <trkpt lat="43.82436" lon="7.41543">
        <ele>474.55</ele>
        <time>2015-05-01T12:21:34Z</time>
      </trkpt>
      <trkpt lat="43.82438" lon="7.41551">
        <ele>474.07</ele>
        <time>2015-05-01T12:21:40Z</time>
      </trkpt>
      <trkpt lat="43.82438" lon="7.41566">
        <ele>473.11</ele>
        <time>2015-05-01T12:21:47Z</time>
      </trkpt>
      <trkpt lat="43.82447" lon="7.41582">
        <ele>472.14</ele>
        <time>2015-05-01T12:22:00Z</time>
      </trkpt>
      <trkpt lat="43.82449" lon="7.41588">
        <ele>471.66</ele>
        <time>2015-05-01T12:22:05Z</time>
      </trkpt>
      <trkpt lat="43.82458" lon="7.41603">
        <ele>470.22</ele>
        <time>2015-05-01T12:22:15Z</time>
      </trkpt>
      <trkpt lat="43.82466" lon="7.4162">
        <ele>467.34</ele>
        <time>2015-05-01T12:22:29Z</time>
      </trkpt>
      <trkpt lat="43.82467" lon="7.41622">
        <ele>467.34</ele>
        <time>2015-05-01T12:22:30Z</time>
      </trkpt>
      <trkpt lat="43.82467" lon="7.41632">
        <ele>465.9</ele>
        <time>2015-05-01T12:22:41Z</time>
      </trkpt>
      <trkpt lat="43.82468" lon="7.41631">
        <ele>465.42</ele>
        <time>2015-05-01T12:22:43Z</time>
      </trkpt>
      <trkpt lat="43.82474" lon="7.41631">
        <ele>463.49</ele>
        <time>2015-05-01T12:22:50Z</time>
      </trkpt>
      <trkpt lat="43.82468" lon="7.41649">
        <ele>461.09</ele>
        <time>2015-05-01T12:23:03Z</time>
      </trkpt>
      <trkpt lat="43.82469" lon="7.41653">
        <ele>461.09</ele>
        <time>2015-05-01T12:23:07Z</time>
      </trkpt>
      <trkpt lat="43.82469" lon="7.41671">
        <ele>461.09</ele>
        <time>2015-05-01T12:23:18Z</time>
      </trkpt>
      <trkpt lat="43.8247" lon="7.41679">
        <ele>462.53</ele>
        <time>2015-05-01T12:23:25Z</time>
      </trkpt>
      <trkpt lat="43.82477" lon="7.41684">
        <ele>465.9</ele>
        <time>2015-05-01T12:23:34Z</time>
      </trkpt>
      <trkpt lat="43.82489" lon="7.41681">
        <ele>469.26</ele>
        <time>2015-05-01T12:23:48Z</time>
      </trkpt>
      <trkpt lat="43.82497" lon="7.41676">
        <ele>470.7</ele>
        <time>2015-05-01T12:23:58Z</time>
      </trkpt>
      <trkpt lat="43.82504" lon="7.41669">
        <ele>472.14</ele>
        <time>2015-05-01T12:24:08Z</time>
      </trkpt>
      <trkpt lat="43.82511" lon="7.41659">
        <ele>475.03</ele>
        <time>2015-05-01T12:24:21Z</time>
      </trkpt>
      <trkpt lat="43.82511" lon="7.41658">
        <ele>475.51</ele>
        <time>2015-05-01T12:24:22Z</time>
      </trkpt>
      <trkpt lat="43.82515" lon="7.41649">
        <ele>477.91</ele>
        <time>2015-05-01T12:24:34Z</time>
      </trkpt>
      <trkpt lat="43.82516" lon="7.41651">
        <ele>478.39</ele>
        <time>2015-05-01T12:24:37Z</time>
      </trkpt>
      <trkpt lat="43.82519" lon="7.41658">
        <ele>479.84</ele>
        <time>2015-05-01T12:24:44Z</time>
      </trkpt>
      <trkpt lat="43.8252" lon="7.41665">
        <ele>480.8</ele>
        <time>2015-05-01T12:24:49Z</time>
      </trkpt>
      <trkpt lat="43.82519" lon="7.41678">
        <ele>481.76</ele>
        <time>2015-05-01T12:24:58Z</time>
      </trkpt>
      <trkpt lat="43.82521" lon="7.41683">
        <ele>482.72</ele>
        <time>2015-05-01T12:25:03Z</time>
      </trkpt>
      <trkpt lat="43.82526" lon="7.41696">
        <ele>485.12</ele>
        <time>2015-05-01T12:25:13Z</time>
      </trkpt>
      <trkpt lat="43.82525" lon="7.41699">
        <ele>485.12</ele>
        <time>2015-05-01T12:25:15Z</time>
      </trkpt>
      <trkpt lat="43.82522" lon="7.41721">
        <ele>487.53</ele>
        <time>2015-05-01T12:25:29Z</time>
      </trkpt>
      <trkpt lat="43.82525" lon="7.41742">
        <ele>490.41</ele>
        <time>2015-05-01T12:25:42Z</time>
      </trkpt>
      <trkpt lat="43.82526" lon="7.41754">
        <ele>493.29</ele>
        <time>2015-05-01T12:25:53Z</time>
      </trkpt>
      <trkpt lat="43.8253" lon="7.41769">
        <ele>495.7</ele>
        <time>2015-05-01T12:26:06Z</time>
      </trkpt>
      <trkpt lat="43.82532" lon="7.41771">
        <ele>497.14</ele>
        <time>2015-05-01T12:26:16Z</time>
      </trkpt>
      <trkpt lat="43.82539" lon="7.41776">
        <ele>500.02</ele>
        <time>2015-05-01T12:26:26Z</time>
      </trkpt>
      <trkpt lat="43.82542" lon="7.41785">
        <ele>501.95</ele>
        <time>2015-05-01T12:26:35Z</time>
      </trkpt>
      <trkpt lat="43.82547" lon="7.41799">
        <ele>504.35</ele>
        <time>2015-05-01T12:26:48Z</time>
      </trkpt>
      <trkpt lat="43.8255" lon="7.41811">
        <ele>507.23</ele>
        <time>2015-05-01T12:26:59Z</time>
      </trkpt>
      <trkpt lat="43.82551" lon="7.41824">
        <ele>509.64</ele>
        <time>2015-05-01T12:27:11Z</time>
      </trkpt>
      <trkpt lat="43.82551" lon="7.41835">
        <ele>510.6</ele>
        <time>2015-05-01T12:27:35Z</time>
      </trkpt>
      <trkpt lat="43.82554" lon="7.41847">
        <ele>513.48</ele>
        <time>2015-05-01T12:27:48Z</time>
      </trkpt>
      <trkpt lat="43.82556" lon="7.4186">
        <ele>516.85</ele>
        <time>2015-05-01T12:27:57Z</time>
      </trkpt>
      <trkpt lat="43.82556" lon="7.41874">
        <ele>519.73</ele>
        <time>2015-05-01T12:28:09Z</time>
      </trkpt>
      <trkpt lat="43.82556" lon="7.41877">
        <ele>519.73</ele>
        <time>2015-05-01T12:28:11Z</time>
      </trkpt>
      <trkpt lat="43.8256" lon="7.41882">
        <ele>522.13</ele>
        <time>2015-05-01T12:28:19Z</time>
      </trkpt>
      <trkpt lat="43.8256" lon="7.41889">
        <ele>523.58</ele>
        <time>2015-05-01T12:28:26Z</time>
      </trkpt>
      <trkpt lat="43.8256" lon="7.41897">
        <ele>525.98</ele>
        <time>2015-05-01T12:28:34Z</time>
      </trkpt>
      <trkpt lat="43.8256" lon="7.41916">
        <ele>527.9</ele>
        <time>2015-05-01T12:28:48Z</time>
      </trkpt>
      <trkpt lat="43.82563" lon="7.41935">
        <ele>530.3</ele>
        <time>2015-05-01T12:29:02Z</time>
      </trkpt>
      <trkpt lat="43.82566" lon="7.41937">
        <ele>530.79</ele>
        <time>2015-05-01T12:29:15Z</time>
      </trkpt>
      <trkpt lat="43.82573" lon="7.41945">
        <ele>533.19</ele>
        <time>2015-05-01T12:29:26Z</time>
      </trkpt>
      <trkpt lat="43.8258" lon="7.41956">
        <ele>535.11</ele>
        <time>2015-05-01T12:29:35Z</time>
      </trkpt>
      <trkpt lat="43.82586" lon="7.41962">
        <ele>537.51</ele>
        <time>2015-05-01T12:29:47Z</time>
      </trkpt>
      <trkpt lat="43.82589" lon="7.41973">
        <ele>539.44</ele>
        <time>2015-05-01T12:29:58Z</time>
      </trkpt>
      <trkpt lat="43.82593" lon="7.41972">
        <ele>540.88</ele>
        <time>2015-05-01T12:30:09Z</time>
      </trkpt>
      <trkpt lat="43.82595" lon="7.41972">
        <ele>541.84</ele>
        <time>2015-05-01T12:30:13Z</time>
      </trkpt>
      <trkpt lat="43.82597" lon="7.41985">
        <ele>544.24</ele>
        <time>2015-05-01T12:30:25Z</time>
      </trkpt>
      <trkpt lat="43.826" lon="7.42002">
        <ele>546.17</ele>
        <time>2015-05-01T12:30:37Z</time>
      </trkpt>
      <trkpt lat="43.82598" lon="7.42016">
        <ele>548.09</ele>
        <time>2015-05-01T12:30:48Z</time>
      </trkpt>
      <trkpt lat="43.82598" lon="7.42022">
        <ele>549.53</ele>
        <time>2015-05-01T12:30:53Z</time>
      </trkpt>
      <trkpt lat="43.82598" lon="7.4204">
        <ele>551.93</ele>
        <time>2015-05-01T12:31:07Z</time>
      </trkpt>
      <trkpt lat="43.82597" lon="7.42057">
        <ele>554.82</ele>
        <time>2015-05-01T12:31:20Z</time>
      </trkpt>
      <trkpt lat="43.82599" lon="7.42072">
        <ele>557.22</ele>
        <time>2015-05-01T12:31:32Z</time>
      </trkpt>
      <trkpt lat="43.82599" lon="7.42073">
        <ele>557.22</ele>
        <time>2015-05-01T12:31:33Z</time>
      </trkpt>
      <trkpt lat="43.82602" lon="7.42093">
        <ele>559.14</ele>
        <time>2015-05-01T12:31:47Z</time>
      </trkpt>
      <trkpt lat="43.82599" lon="7.42109">
        <ele>561.55</ele>
        <time>2015-05-01T12:31:59Z</time>
      </trkpt>
      <trkpt lat="43.82593" lon="7.4212">
        <ele>562.99</ele>
        <time>2015-05-01T12:32:09Z</time>
      </trkpt>
      <trkpt lat="43.82591" lon="7.42136">
        <ele>565.39</ele>
        <time>2015-05-01T12:32:21Z</time>
      </trkpt>
      <trkpt lat="43.82593" lon="7.42153">
        <ele>566.83</ele>
        <time>2015-05-01T12:32:34Z</time>
      </trkpt>
      <trkpt lat="43.82594" lon="7.42165">
        <ele>569.24</ele>
        <time>2015-05-01T12:32:47Z</time>
      </trkpt>
      <trkpt lat="43.82599" lon="7.42161">
        <ele>571.16</ele>
        <time>2015-05-01T12:32:56Z</time>
      </trkpt>
      <trkpt lat="43.82606" lon="7.42149">
        <ele>573.56</ele>
        <time>2015-05-01T12:33:08Z</time>
      </trkpt>
      <trkpt lat="43.82612" lon="7.42137">
        <ele>576.45</ele>
        <time>2015-05-01T12:33:20Z</time>
      </trkpt>
      <trkpt lat="43.82613" lon="7.42139">
        <ele>577.41</ele>
        <time>2015-05-01T12:33:26Z</time>
      </trkpt>
      <trkpt lat="43.82612" lon="7.42154">
        <ele>579.33</ele>
        <time>2015-05-01T12:33:39Z</time>
      </trkpt>
      <trkpt lat="43.82613" lon="7.42154">
        <ele>579.33</ele>
        <time>2015-05-01T12:33:40Z</time>
      </trkpt>
      <trkpt lat="43.82619" lon="7.42152">
        <ele>581.73</ele>
        <time>2015-05-01T12:33:51Z</time>
      </trkpt>
      <trkpt lat="43.82626" lon="7.42149">
        <ele>584.14</ele>
        <time>2015-05-01T12:34:03Z</time>
      </trkpt>
      <trkpt lat="43.82624" lon="7.42157">
        <ele>585.1</ele>
        <time>2015-05-01T12:34:10Z</time>
      </trkpt>
      <trkpt lat="43.82625" lon="7.42165">
        <ele>586.54</ele>
        <time>2015-05-01T12:34:21Z</time>
      </trkpt>
      <trkpt lat="43.82628" lon="7.42157">
        <ele>587.5</ele>
        <time>2015-05-01T12:34:33Z</time>
      </trkpt>
      <trkpt lat="43.82633" lon="7.42163">
        <ele>588.95</ele>
        <time>2015-05-01T12:34:46Z</time>
      </trkpt>
      <trkpt lat="43.82631" lon="7.42173">
        <ele>590.87</ele>
        <time>2015-05-01T12:34:57Z</time>
      </trkpt>
      <trkpt lat="43.82634" lon="7.42181">
        <ele>593.75</ele>
        <time>2015-05-01T12:35:09Z</time>
      </trkpt>
      <trkpt lat="43.8264" lon="7.42176">
        <ele>593.27</ele>
        <time>2015-05-01T12:35:22Z</time>
      </trkpt>
      <trkpt lat="43.82641" lon="7.42176">
        <ele>593.27</ele>
        <time>2015-05-01T12:35:42Z</time>
      </trkpt>
      <trkpt lat="43.82636" lon="7.4218">
        <ele>593.27</ele>
        <time>2015-05-01T12:35:47Z</time>
      </trkpt>
      <trkpt lat="43.8263" lon="7.422">
        <ele>593.27</ele>
        <time>2015-05-01T12:36:00Z</time>
      </trkpt>
      <trkpt lat="43.8263" lon="7.42212">
        <ele>593.27</ele>
        <time>2015-05-01T12:36:09Z</time>
      </trkpt>
      <trkpt lat="43.82631" lon="7.42218">
        <ele>593.27</ele>
        <time>2015-05-01T12:36:13Z</time>
      </trkpt>
      <trkpt lat="43.82631" lon="7.42223">
        <ele>593.27</ele>
        <time>2015-05-01T12:36:16Z</time>
      </trkpt>
      <trkpt lat="43.82633" lon="7.42231">
        <ele>593.27</ele>
        <time>2015-05-01T12:36:21Z</time>
      </trkpt>
      <trkpt lat="43.82633" lon="7.42236">
        <ele>593.27</ele>
        <time>2015-05-01T12:36:24Z</time>
      </trkpt>
      <trkpt lat="43.82634" lon="7.42261">
        <ele>592.31</ele>
        <time>2015-05-01T12:36:37Z</time>
      </trkpt>
      <trkpt lat="43.82631" lon="7.42285">
        <ele>591.35</ele>
        <time>2015-05-01T12:36:49Z</time>
      </trkpt>
      <trkpt lat="43.82628" lon="7.42309">
        <ele>590.39</ele>
        <time>2015-05-01T12:37:01Z</time>
      </trkpt>
      <trkpt lat="43.82623" lon="7.4233">
        <ele>589.91</ele>
        <time>2015-05-01T12:37:12Z</time>
      </trkpt>
      <trkpt lat="43.82617" lon="7.42355">
        <ele>588.95</ele>
        <time>2015-05-01T12:37:25Z</time>
      </trkpt>
      <trkpt lat="43.82611" lon="7.42381">
        <ele>588.46</ele>
        <time>2015-05-01T12:37:38Z</time>
      </trkpt>
      <trkpt lat="43.82602" lon="7.42399">
        <ele>587.5</ele>
        <time>2015-05-01T12:37:49Z</time>
      </trkpt>
      <trkpt lat="43.82586" lon="7.42427">
        <ele>587.02</ele>
        <time>2015-05-01T12:38:07Z</time>
      </trkpt>
      <trkpt lat="43.82577" lon="7.42453">
        <ele>585.58</ele>
        <time>2015-05-01T12:38:21Z</time>
      </trkpt>
      <trkpt lat="43.82572" lon="7.4248">
        <ele>585.1</ele>
        <time>2015-05-01T12:38:36Z</time>
      </trkpt>
      <trkpt lat="43.82569" lon="7.42494">
        <ele>584.62</ele>
        <time>2015-05-01T12:38:44Z</time>
      </trkpt>
      <trkpt lat="43.82565" lon="7.42526">
        <ele>584.14</ele>
        <time>2015-05-01T12:38:59Z</time>
      </trkpt>
      <trkpt lat="43.82564" lon="7.42557">
        <ele>582.7</ele>
        <time>2015-05-01T12:39:14Z</time>
      </trkpt>
      <trkpt lat="43.82561" lon="7.4259">
        <ele>582.22</ele>
        <time>2015-05-01T12:39:29Z</time>
      </trkpt>
      <trkpt lat="43.82567" lon="7.42619">
        <ele>581.25</ele>
        <time>2015-05-01T12:39:43Z</time>
      </trkpt>
      <trkpt lat="43.82569" lon="7.42622">
        <ele>581.25</ele>
        <time>2015-05-01T12:39:45Z</time>
      </trkpt>
      <trkpt lat="43.82572" lon="7.42629">
        <ele>580.77</ele>
        <time>2015-05-01T12:39:50Z</time>
      </trkpt>
      <trkpt lat="43.82581" lon="7.42648">
        <ele>580.29</ele>
        <time>2015-05-01T12:40:00Z</time>
      </trkpt>
      <trkpt lat="43.82587" lon="7.42654">
        <ele>580.29</ele>
        <time>2015-05-01T12:40:06Z</time>
      </trkpt>
      <trkpt lat="43.82603" lon="7.42667">
        <ele>579.33</ele>
        <time>2015-05-01T12:40:21Z</time>
      </trkpt>
      <trkpt lat="43.82626" lon="7.42682">
        <ele>577.89</ele>
        <time>2015-05-01T12:40:38Z</time>
      </trkpt>
      <trkpt lat="43.82631" lon="7.42687">
        <ele>577.89</ele>
        <time>2015-05-01T12:40:42Z</time>
      </trkpt>
      <trkpt lat="43.82644" lon="7.42695">
        <ele>577.41</ele>
        <time>2015-05-01T12:40:52Z</time>
      </trkpt>
      <trkpt lat="43.82663" lon="7.42695">
        <ele>577.41</ele>
        <time>2015-05-01T12:41:07Z</time>
      </trkpt>
      <trkpt lat="43.8268" lon="7.4269">
        <ele>576.45</ele>
        <time>2015-05-01T12:41:21Z</time>
      </trkpt>
      <trkpt lat="43.827" lon="7.42686">
        <ele>574.53</ele>
        <time>2015-05-01T12:41:32Z</time>
      </trkpt>
      <trkpt lat="43.82703" lon="7.42688">
        <ele>574.53</ele>
        <time>2015-05-01T12:41:35Z</time>
      </trkpt>
      <trkpt lat="43.82705" lon="7.42688">
        <ele>574.04</ele>
        <time>2015-05-01T12:41:36Z</time>
      </trkpt>
      <trkpt lat="43.8272" lon="7.42688">
        <ele>573.08</ele>
        <time>2015-05-01T12:41:50Z</time>
      </trkpt>
      <trkpt lat="43.82732" lon="7.42681">
        <ele>571.64</ele>
        <time>2015-05-01T12:42:01Z</time>
      </trkpt>
      <trkpt lat="43.8274" lon="7.42679">
        <ele>571.64</ele>
        <time>2015-05-01T12:42:06Z</time>
      </trkpt>
      <trkpt lat="43.82741" lon="7.42679">
        <ele>571.64</ele>
        <time>2015-05-01T12:42:07Z</time>
      </trkpt>
      <trkpt lat="43.82745" lon="7.42681">
        <ele>571.64</ele>
        <time>2015-05-01T12:42:10Z</time>
      </trkpt>
      <trkpt lat="43.82746" lon="7.42682">
        <ele>571.16</ele>
        <time>2015-05-01T12:42:11Z</time>
      </trkpt>
      <trkpt lat="43.8275" lon="7.42685">
        <ele>571.16</ele>
        <time>2015-05-01T12:42:13Z</time>
      </trkpt>
      <trkpt lat="43.82758" lon="7.42717">
        <ele>570.2</ele>
        <time>2015-05-01T12:42:29Z</time>
      </trkpt>
      <trkpt lat="43.82767" lon="7.42746">
        <ele>570.68</ele>
        <time>2015-05-01T12:42:46Z</time>
      </trkpt>
      <trkpt lat="43.82778" lon="7.4278">
        <ele>569.72</ele>
        <time>2015-05-01T12:43:05Z</time>
      </trkpt>
      <trkpt lat="43.82786" lon="7.42804">
        <ele>569.72</ele>
        <time>2015-05-01T12:43:17Z</time>
      </trkpt>
      <trkpt lat="43.82795" lon="7.42824">
        <ele>568.76</ele>
        <time>2015-05-01T12:43:31Z</time>
      </trkpt>
      <trkpt lat="43.82799" lon="7.42828">
        <ele>568.76</ele>
        <time>2015-05-01T12:43:34Z</time>
      </trkpt>
      <trkpt lat="43.82801" lon="7.4283">
        <ele>568.76</ele>
        <time>2015-05-01T12:43:35Z</time>
      </trkpt>
      <trkpt lat="43.82806" lon="7.42837">
        <ele>568.76</ele>
        <time>2015-05-01T12:43:40Z</time>
      </trkpt>
      <trkpt lat="43.82816" lon="7.42856">
        <ele>568.76</ele>
        <time>2015-05-01T12:43:55Z</time>
      </trkpt>
      <trkpt lat="43.82811" lon="7.42863">
        <ele>568.76</ele>
        <time>2015-05-01T12:44:11Z</time>
      </trkpt>
      <trkpt lat="43.82814" lon="7.42868">
        <ele>568.76</ele>
        <time>2015-05-01T12:44:28Z</time>
      </trkpt>
      <trkpt lat="43.82813" lon="7.42874">
        <ele>568.76</ele>
        <time>2015-05-01T12:44:39Z</time>
      </trkpt>
      <trkpt lat="43.82803" lon="7.42876">
        <ele>568.76</ele>
        <time>2015-05-01T12:44:48Z</time>
      </trkpt>
      <trkpt lat="43.82801" lon="7.42876">
        <ele>568.76</ele>
        <time>2015-05-01T12:44:49Z</time>
      </trkpt>
      <trkpt lat="43.828" lon="7.42876">
        <ele>568.76</ele>
        <time>2015-05-01T12:44:50Z</time>
      </trkpt>
      <trkpt lat="43.82796" lon="7.42875">
        <ele>568.76</ele>
        <time>2015-05-01T12:44:52Z</time>
      </trkpt>
      <trkpt lat="43.82795" lon="7.42874">
        <ele>568.76</ele>
        <time>2015-05-01T12:44:53Z</time>
      </trkpt>
      <trkpt lat="43.82776" lon="7.42866">
        <ele>568.28</ele>
        <time>2015-05-01T12:45:08Z</time>
      </trkpt>
      <trkpt lat="43.82759" lon="7.42855">
        <ele>567.8</ele>
        <time>2015-05-01T12:45:21Z</time>
      </trkpt>
      <trkpt lat="43.82743" lon="7.42845">
        <ele>568.28</ele>
        <time>2015-05-01T12:45:34Z</time>
      </trkpt>
      <trkpt lat="43.82727" lon="7.42839">
        <ele>567.8</ele>
        <time>2015-05-01T12:45:47Z</time>
      </trkpt>
      <trkpt lat="43.82708" lon="7.42844">
        <ele>566.83</ele>
        <time>2015-05-01T12:46:01Z</time>
      </trkpt>
      <trkpt lat="43.82694" lon="7.4285">
        <ele>566.83</ele>
        <time>2015-05-01T12:46:12Z</time>
      </trkpt>
      <trkpt lat="43.82675" lon="7.42853">
        <ele>565.87</ele>
        <time>2015-05-01T12:46:26Z</time>
      </trkpt>
      <trkpt lat="43.8266" lon="7.4285">
        <ele>565.87</ele>
        <time>2015-05-01T12:46:38Z</time>
      </trkpt>
      <trkpt lat="43.82655" lon="7.4285">
        <ele>565.87</ele>
        <time>2015-05-01T12:46:42Z</time>
      </trkpt>
      <trkpt lat="43.82654" lon="7.4285">
        <ele>565.87</ele>
        <time>2015-05-01T12:46:43Z</time>
      </trkpt>
      <trkpt lat="43.82652" lon="7.4285">
        <ele>565.87</ele>
        <time>2015-05-01T12:46:44Z</time>
      </trkpt>
      <trkpt lat="43.82651" lon="7.4285">
        <ele>565.87</ele>
        <time>2015-05-01T12:46:45Z</time>
      </trkpt>
      <trkpt lat="43.82649" lon="7.4285">
        <ele>565.87</ele>
        <time>2015-05-01T12:46:46Z</time>
      </trkpt>
      <trkpt lat="43.82648" lon="7.42851">
        <ele>565.87</ele>
        <time>2015-05-01T12:46:47Z</time>
      </trkpt>
      <trkpt lat="43.82647" lon="7.42851">
        <ele>565.87</ele>
        <time>2015-05-01T12:46:48Z</time>
      </trkpt>
      <trkpt lat="43.82641" lon="7.42851">
        <ele>565.39</ele>
        <time>2015-05-01T12:46:53Z</time>
      </trkpt>
      <trkpt lat="43.82639" lon="7.42851">
        <ele>565.39</ele>
        <time>2015-05-01T12:46:54Z</time>
      </trkpt>
      <trkpt lat="43.82638" lon="7.42851">
        <ele>565.39</ele>
        <time>2015-05-01T12:46:55Z</time>
      </trkpt>
      <trkpt lat="43.82637" lon="7.42851">
        <ele>565.39</ele>
        <time>2015-05-01T12:46:56Z</time>
      </trkpt>
      <trkpt lat="43.82635" lon="7.42852">
        <ele>565.39</ele>
        <time>2015-05-01T12:46:57Z</time>
      </trkpt>
      <trkpt lat="43.82634" lon="7.42852">
        <ele>565.39</ele>
        <time>2015-05-01T12:46:58Z</time>
      </trkpt>
      <trkpt lat="43.82632" lon="7.42852">
        <ele>565.39</ele>
        <time>2015-05-01T12:46:59Z</time>
      </trkpt>
      <trkpt lat="43.82622" lon="7.42855">
        <ele>564.91</ele>
        <time>2015-05-01T12:47:08Z</time>
      </trkpt>
      <trkpt lat="43.82621" lon="7.42857">
        <ele>564.91</ele>
        <time>2015-05-01T12:47:09Z</time>
      </trkpt>
      <trkpt lat="43.8261" lon="7.42863">
        <ele>563.95</ele>
        <time>2015-05-01T12:47:16Z</time>
      </trkpt>
      <trkpt lat="43.82599" lon="7.42865">
        <ele>563.47</ele>
        <time>2015-05-01T12:47:25Z</time>
      </trkpt>
      <trkpt lat="43.82594" lon="7.42867">
        <ele>563.47</ele>
        <time>2015-05-01T12:47:28Z</time>
      </trkpt>
      <trkpt lat="43.82593" lon="7.42867">
        <ele>563.47</ele>
        <time>2015-05-01T12:47:29Z</time>
      </trkpt>
      <trkpt lat="43.82585" lon="7.42865">
        <ele>562.99</ele>
        <time>2015-05-01T12:47:35Z</time>
      </trkpt>
      <trkpt lat="43.82583" lon="7.42865">
        <ele>562.99</ele>
        <time>2015-05-01T12:47:36Z</time>
      </trkpt>
      <trkpt lat="43.8257" lon="7.42863">
        <ele>562.03</ele>
        <time>2015-05-01T12:47:46Z</time>
      </trkpt>
      <trkpt lat="43.82568" lon="7.42862">
        <ele>562.03</ele>
        <time>2015-05-01T12:47:47Z</time>
      </trkpt>
      <trkpt lat="43.82558" lon="7.42857">
        <ele>561.07</ele>
        <time>2015-05-01T12:47:54Z</time>
      </trkpt>
      <trkpt lat="43.82557" lon="7.42856">
        <ele>561.07</ele>
        <time>2015-05-01T12:47:55Z</time>
      </trkpt>
      <trkpt lat="43.82555" lon="7.42856">
        <ele>561.07</ele>
        <time>2015-05-01T12:47:56Z</time>
      </trkpt>
      <trkpt lat="43.82554" lon="7.42855">
        <ele>561.07</ele>
        <time>2015-05-01T12:47:57Z</time>
      </trkpt>
      <trkpt lat="43.82552" lon="7.42854">
        <ele>561.07</ele>
        <time>2015-05-01T12:47:58Z</time>
      </trkpt>
      <trkpt lat="43.82547" lon="7.42845">
        <ele>561.07</ele>
        <time>2015-05-01T12:48:05Z</time>
      </trkpt>
      <trkpt lat="43.82534" lon="7.42832">
        <ele>560.59</ele>
        <time>2015-05-01T12:48:17Z</time>
      </trkpt>
      <trkpt lat="43.82533" lon="7.4283">
        <ele>560.11</ele>
        <time>2015-05-01T12:48:18Z</time>
      </trkpt>
      <trkpt lat="43.82532" lon="7.4283">
        <ele>560.11</ele>
        <time>2015-05-01T12:48:19Z</time>
      </trkpt>
      <trkpt lat="43.82519" lon="7.42822">
        <ele>559.62</ele>
        <time>2015-05-01T12:48:30Z</time>
      </trkpt>
      <trkpt lat="43.8251" lon="7.42825">
        <ele>559.14</ele>
        <time>2015-05-01T12:48:37Z</time>
      </trkpt>
      <trkpt lat="43.82505" lon="7.4283">
        <ele>559.14</ele>
        <time>2015-05-01T12:48:41Z</time>
      </trkpt>
      <trkpt lat="43.82504" lon="7.42832">
        <ele>559.14</ele>
        <time>2015-05-01T12:48:42Z</time>
      </trkpt>
      <trkpt lat="43.82504" lon="7.42858">
        <ele>558.66</ele>
        <time>2015-05-01T12:48:56Z</time>
      </trkpt>
      <trkpt lat="43.82505" lon="7.42873">
        <ele>558.18</ele>
        <time>2015-05-01T12:49:06Z</time>
      </trkpt>
      <trkpt lat="43.82504" lon="7.42875">
        <ele>558.18</ele>
        <time>2015-05-01T12:49:07Z</time>
      </trkpt>
      <trkpt lat="43.82504" lon="7.42876">
        <ele>558.18</ele>
        <time>2015-05-01T12:49:08Z</time>
      </trkpt>
      <trkpt lat="43.82499" lon="7.42894">
        <ele>557.7</ele>
        <time>2015-05-01T12:49:18Z</time>
      </trkpt>
      <trkpt lat="43.82499" lon="7.42895">
        <ele>557.7</ele>
        <time>2015-05-01T12:49:19Z</time>
      </trkpt>
      <trkpt lat="43.82494" lon="7.42918">
        <ele>556.74</ele>
        <time>2015-05-01T12:49:31Z</time>
      </trkpt>
      <trkpt lat="43.82491" lon="7.42931">
        <ele>556.26</ele>
        <time>2015-05-01T12:49:40Z</time>
      </trkpt>
      <trkpt lat="43.82486" lon="7.42944">
        <ele>555.78</ele>
        <time>2015-05-01T12:49:49Z</time>
      </trkpt>
      <trkpt lat="43.82482" lon="7.42951">
        <ele>555.78</ele>
        <time>2015-05-01T12:49:53Z</time>
      </trkpt>
      <trkpt lat="43.8248" lon="7.42952">
        <ele>555.78</ele>
        <time>2015-05-01T12:49:54Z</time>
      </trkpt>
      <trkpt lat="43.82479" lon="7.42953">
        <ele>555.78</ele>
        <time>2015-05-01T12:49:55Z</time>
      </trkpt>
      <trkpt lat="43.82471" lon="7.42964">
        <ele>555.3</ele>
        <time>2015-05-01T12:50:03Z</time>
      </trkpt>
      <trkpt lat="43.82462" lon="7.42984">
        <ele>555.3</ele>
        <time>2015-05-01T12:50:15Z</time>
      </trkpt>
      <trkpt lat="43.8246" lon="7.42992">
        <ele>554.82</ele>
        <time>2015-05-01T12:50:20Z</time>
      </trkpt>
      <trkpt lat="43.82459" lon="7.42994">
        <ele>554.82</ele>
        <time>2015-05-01T12:50:21Z</time>
      </trkpt>
      <trkpt lat="43.82459" lon="7.42995">
        <ele>554.82</ele>
        <time>2015-05-01T12:50:22Z</time>
      </trkpt>
      <trkpt lat="43.82457" lon="7.42998">
        <ele>554.82</ele>
        <time>2015-05-01T12:50:24Z</time>
      </trkpt>
      <trkpt lat="43.82456" lon="7.43">
        <ele>554.82</ele>
        <time>2015-05-01T12:50:25Z</time>
      </trkpt>
      <trkpt lat="43.82455" lon="7.43001">
        <ele>554.34</ele>
        <time>2015-05-01T12:50:26Z</time>
      </trkpt>
      <trkpt lat="43.82453" lon="7.43002">
        <ele>554.34</ele>
        <time>2015-05-01T12:50:27Z</time>
      </trkpt>
      <trkpt lat="43.82452" lon="7.43003">
        <ele>554.34</ele>
        <time>2015-05-01T12:50:28Z</time>
      </trkpt>
      <trkpt lat="43.82451" lon="7.43004">
        <ele>554.34</ele>
        <time>2015-05-01T12:50:29Z</time>
      </trkpt>
      <trkpt lat="43.82448" lon="7.43004">
        <ele>554.34</ele>
        <time>2015-05-01T12:50:32Z</time>
      </trkpt>
      <trkpt lat="43.82447" lon="7.43004">
        <ele>554.34</ele>
        <time>2015-05-01T12:50:33Z</time>
      </trkpt>
      <trkpt lat="43.82446" lon="7.43005">
        <ele>554.34</ele>
        <time>2015-05-01T12:50:34Z</time>
      </trkpt>
      <trkpt lat="43.82444" lon="7.43006">
        <ele>554.34</ele>
        <time>2015-05-01T12:50:35Z</time>
      </trkpt>
      <trkpt lat="43.82443" lon="7.43006">
        <ele>554.34</ele>
        <time>2015-05-01T12:50:36Z</time>
      </trkpt>
      <trkpt lat="43.82442" lon="7.43007">
        <ele>554.34</ele>
        <time>2015-05-01T12:50:37Z</time>
      </trkpt>
      <trkpt lat="43.82441" lon="7.43008">
        <ele>554.34</ele>
        <time>2015-05-01T12:50:38Z</time>
      </trkpt>
      <trkpt lat="43.82439" lon="7.43008">
        <ele>554.34</ele>
        <time>2015-05-01T12:50:39Z</time>
      </trkpt>
      <trkpt lat="43.82434" lon="7.43013">
        <ele>554.34</ele>
        <time>2015-05-01T12:50:45Z</time>
      </trkpt>
      <trkpt lat="43.82434" lon="7.43014">
        <ele>554.34</ele>
        <time>2015-05-01T12:50:46Z</time>
      </trkpt>
      <trkpt lat="43.82433" lon="7.43015">
        <ele>553.86</ele>
        <time>2015-05-01T12:50:47Z</time>
      </trkpt>
      <trkpt lat="43.82432" lon="7.43016">
        <ele>553.86</ele>
        <time>2015-05-01T12:50:48Z</time>
      </trkpt>
      <trkpt lat="43.82432" lon="7.43018">
        <ele>553.86</ele>
        <time>2015-05-01T12:50:49Z</time>
      </trkpt>
      <trkpt lat="43.8243" lon="7.43019">
        <ele>553.86</ele>
        <time>2015-05-01T12:50:50Z</time>
      </trkpt>
      <trkpt lat="43.82423" lon="7.43033">
        <ele>553.38</ele>
        <time>2015-05-01T12:51:00Z</time>
      </trkpt>
      <trkpt lat="43.82423" lon="7.43035">
        <ele>553.38</ele>
        <time>2015-05-01T12:51:01Z</time>
      </trkpt>
      <trkpt lat="43.82422" lon="7.43038">
        <ele>553.38</ele>
        <time>2015-05-01T12:51:03Z</time>
      </trkpt>
      <trkpt lat="43.82415" lon="7.43061">
        <ele>552.9</ele>
        <time>2015-05-01T12:51:17Z</time>
      </trkpt>
      <trkpt lat="43.82406" lon="7.43082">
        <ele>552.41</ele>
        <time>2015-05-01T12:51:31Z</time>
      </trkpt>
      <trkpt lat="43.82405" lon="7.43083">
        <ele>552.41</ele>
        <time>2015-05-01T12:51:32Z</time>
      </trkpt>
      <trkpt lat="43.82404" lon="7.43085">
        <ele>552.41</ele>
        <time>2015-05-01T12:51:33Z</time>
      </trkpt>
      <trkpt lat="43.82402" lon="7.43086">
        <ele>552.41</ele>
        <time>2015-05-01T12:51:34Z</time>
      </trkpt>
      <trkpt lat="43.82401" lon="7.43087">
        <ele>552.41</ele>
        <time>2015-05-01T12:51:35Z</time>
      </trkpt>
      <trkpt lat="43.824" lon="7.43089">
        <ele>552.41</ele>
        <time>2015-05-01T12:51:36Z</time>
      </trkpt>
      <trkpt lat="43.82397" lon="7.43091">
        <ele>552.41</ele>
        <time>2015-05-01T12:51:39Z</time>
      </trkpt>
      <trkpt lat="43.82396" lon="7.43092">
        <ele>552.41</ele>
        <time>2015-05-01T12:51:40Z</time>
      </trkpt>
      <trkpt lat="43.82395" lon="7.43093">
        <ele>552.41</ele>
        <time>2015-05-01T12:51:41Z</time>
      </trkpt>
      <trkpt lat="43.82394" lon="7.43094">
        <ele>552.41</ele>
        <time>2015-05-01T12:51:42Z</time>
      </trkpt>
      <trkpt lat="43.82392" lon="7.43096">
        <ele>552.41</ele>
        <time>2015-05-01T12:51:44Z</time>
      </trkpt>
      <trkpt lat="43.82384" lon="7.43102">
        <ele>551.93</ele>
        <time>2015-05-01T12:51:51Z</time>
      </trkpt>
      <trkpt lat="43.82381" lon="7.43104">
        <ele>551.93</ele>
        <time>2015-05-01T12:51:53Z</time>
      </trkpt>
      <trkpt lat="43.8238" lon="7.43104">
        <ele>551.93</ele>
        <time>2015-05-01T12:51:54Z</time>
      </trkpt>
      <trkpt lat="43.82379" lon="7.43106">
        <ele>551.93</ele>
        <time>2015-05-01T12:51:55Z</time>
      </trkpt>
      <trkpt lat="43.82378" lon="7.43108">
        <ele>551.93</ele>
        <time>2015-05-01T12:51:56Z</time>
      </trkpt>
      <trkpt lat="43.82374" lon="7.43111">
        <ele>551.93</ele>
        <time>2015-05-01T12:52:00Z</time>
      </trkpt>
      <trkpt lat="43.82373" lon="7.43112">
        <ele>551.93</ele>
        <time>2015-05-01T12:52:01Z</time>
      </trkpt>
      <trkpt lat="43.82372" lon="7.43113">
        <ele>551.93</ele>
        <time>2015-05-01T12:52:02Z</time>
      </trkpt>
      <trkpt lat="43.82352" lon="7.43126">
        <ele>551.45</ele>
        <time>2015-05-01T12:52:17Z</time>
      </trkpt>
      <trkpt lat="43.82348" lon="7.43129">
        <ele>550.97</ele>
        <time>2015-05-01T12:52:21Z</time>
      </trkpt>
      <trkpt lat="43.82346" lon="7.43133">
        <ele>550.97</ele>
        <time>2015-05-01T12:52:24Z</time>
      </trkpt>
      <trkpt lat="43.82345" lon="7.43134">
        <ele>550.97</ele>
        <time>2015-05-01T12:52:25Z</time>
      </trkpt>
      <trkpt lat="43.82333" lon="7.43151">
        <ele>550.49</ele>
        <time>2015-05-01T12:52:38Z</time>
      </trkpt>
      <trkpt lat="43.82328" lon="7.43153">
        <ele>550.49</ele>
        <time>2015-05-01T12:52:44Z</time>
      </trkpt>
      <trkpt lat="43.82314" lon="7.43152">
        <ele>549.53</ele>
        <time>2015-05-01T12:52:58Z</time>
      </trkpt>
      <trkpt lat="43.82309" lon="7.43153">
        <ele>549.53</ele>
        <time>2015-05-01T12:53:12Z</time>
      </trkpt>
      <trkpt lat="43.82311" lon="7.43152">
        <ele>550.01</ele>
        <time>2015-05-01T12:53:32Z</time>
      </trkpt>
      <trkpt lat="43.82312" lon="7.43148">
        <ele>550.01</ele>
        <time>2015-05-01T12:53:49Z</time>
      </trkpt>
      <trkpt lat="43.82315" lon="7.43143">
        <ele>549.53</ele>
        <time>2015-05-01T12:54:07Z</time>
      </trkpt>
      <trkpt lat="43.82313" lon="7.4314">
        <ele>549.53</ele>
        <time>2015-05-01T12:54:31Z</time>
      </trkpt>
      <trkpt lat="43.82315" lon="7.43141">
        <ele>550.97</ele>
        <time>2015-05-01T12:54:49Z</time>
      </trkpt>
      <trkpt lat="43.82314" lon="7.43138">
        <ele>550.01</ele>
        <time>2015-05-01T12:55:13Z</time>
      </trkpt>
      <trkpt lat="43.82317" lon="7.43133">
        <ele>550.97</ele>
        <time>2015-05-01T12:55:21Z</time>
      </trkpt>
      <trkpt lat="43.82308" lon="7.43154">
        <ele>550.01</ele>
        <time>2015-05-01T12:55:33Z</time>
      </trkpt>
      <trkpt lat="43.82305" lon="7.43162">
        <ele>551.45</ele>
        <time>2015-05-01T12:55:39Z</time>
      </trkpt>
      <trkpt lat="43.82304" lon="7.43163">
        <ele>551.45</ele>
        <time>2015-05-01T12:55:40Z</time>
      </trkpt>
      <trkpt lat="43.82304" lon="7.43166">
        <ele>552.41</ele>
        <time>2015-05-01T12:55:43Z</time>
      </trkpt>
      <trkpt lat="43.82307" lon="7.43171">
        <ele>555.3</ele>
        <time>2015-05-01T12:55:54Z</time>
      </trkpt>
      <trkpt lat="43.82324" lon="7.43171">
        <ele>558.18</ele>
        <time>2015-05-01T12:56:08Z</time>
      </trkpt>
      <trkpt lat="43.8232" lon="7.43177">
        <ele>560.59</ele>
        <time>2015-05-01T12:56:20Z</time>
      </trkpt>
      <trkpt lat="43.82314" lon="7.43187">
        <ele>562.99</ele>
        <time>2015-05-01T12:56:33Z</time>
      </trkpt>
      <trkpt lat="43.82308" lon="7.43203">
        <ele>564.43</ele>
        <time>2015-05-01T12:56:44Z</time>
      </trkpt>
      <trkpt lat="43.82307" lon="7.43209">
        <ele>564.43</ele>
        <time>2015-05-01T12:56:48Z</time>
      </trkpt>
      <trkpt lat="43.82305" lon="7.43218">
        <ele>564.43</ele>
        <time>2015-05-01T12:56:53Z</time>
      </trkpt>
      <trkpt lat="43.82302" lon="7.43229">
        <ele>564.91</ele>
        <time>2015-05-01T12:57:03Z</time>
      </trkpt>
      <trkpt lat="43.823" lon="7.43233">
        <ele>566.35</ele>
        <time>2015-05-01T12:57:05Z</time>
      </trkpt>
      <trkpt lat="43.8229" lon="7.43246">
        <ele>566.83</ele>
        <time>2015-05-01T12:57:16Z</time>
      </trkpt>
      <trkpt lat="43.82288" lon="7.43251">
        <ele>568.76</ele>
        <time>2015-05-01T12:57:20Z</time>
      </trkpt>
      <trkpt lat="43.82278" lon="7.43264">
        <ele>571.64</ele>
        <time>2015-05-01T12:57:32Z</time>
      </trkpt>
      <trkpt lat="43.82276" lon="7.43265">
        <ele>571.64</ele>
        <time>2015-05-01T12:57:33Z</time>
      </trkpt>
      <trkpt lat="43.82267" lon="7.43275">
        <ele>573.56</ele>
        <time>2015-05-01T12:57:43Z</time>
      </trkpt>
      <trkpt lat="43.8226" lon="7.43288">
        <ele>574.53</ele>
        <time>2015-05-01T12:57:55Z</time>
      </trkpt>
      <trkpt lat="43.82259" lon="7.43291">
        <ele>575.49</ele>
        <time>2015-05-01T12:57:58Z</time>
      </trkpt>
      <trkpt lat="43.82257" lon="7.43305">
        <ele>577.89</ele>
        <time>2015-05-01T12:58:12Z</time>
      </trkpt>
      <trkpt lat="43.82253" lon="7.43318">
        <ele>580.29</ele>
        <time>2015-05-01T12:58:24Z</time>
      </trkpt>
      <trkpt lat="43.82252" lon="7.43328">
        <ele>582.7</ele>
        <time>2015-05-01T12:58:34Z</time>
      </trkpt>
      <trkpt lat="43.82251" lon="7.43329">
        <ele>582.7</ele>
        <time>2015-05-01T12:58:35Z</time>
      </trkpt>
      <trkpt lat="43.82254" lon="7.43341">
        <ele>585.1</ele>
        <time>2015-05-01T12:58:47Z</time>
      </trkpt>
      <trkpt lat="43.8226" lon="7.43339">
        <ele>587.02</ele>
        <time>2015-05-01T12:58:58Z</time>
      </trkpt>
      <trkpt lat="43.82269" lon="7.4333">
        <ele>588.95</ele>
        <time>2015-05-01T12:59:10Z</time>
      </trkpt>
      <trkpt lat="43.8227" lon="7.43334">
        <ele>592.31</ele>
        <time>2015-05-01T12:59:21Z</time>
      </trkpt>
      <trkpt lat="43.82266" lon="7.43343">
        <ele>594.23</ele>
        <time>2015-05-01T12:59:34Z</time>
      </trkpt>
      <trkpt lat="43.82261" lon="7.43357">
        <ele>596.64</ele>
        <time>2015-05-01T12:59:48Z</time>
      </trkpt>
      <trkpt lat="43.82259" lon="7.4336">
        <ele>597.12</ele>
        <time>2015-05-01T12:59:52Z</time>
      </trkpt>
      <trkpt lat="43.82251" lon="7.43375">
        <ele>600</ele>
        <time>2015-05-01T13:00:07Z</time>
      </trkpt>
      <trkpt lat="43.82251" lon="7.43385">
        <ele>602.88</ele>
        <time>2015-05-01T13:00:20Z</time>
      </trkpt>
      <trkpt lat="43.82251" lon="7.43389">
        <ele>603.36</ele>
        <time>2015-05-01T13:00:23Z</time>
      </trkpt>
      <trkpt lat="43.82247" lon="7.43393">
        <ele>603.36</ele>
        <time>2015-05-01T13:00:28Z</time>
      </trkpt>
      <trkpt lat="43.82244" lon="7.43387">
        <ele>603.36</ele>
        <time>2015-05-01T13:00:34Z</time>
      </trkpt>
      <trkpt lat="43.82232" lon="7.43375">
        <ele>604.81</ele>
        <time>2015-05-01T13:00:48Z</time>
      </trkpt>
      <trkpt lat="43.82219" lon="7.43377">
        <ele>605.77</ele>
        <time>2015-05-01T13:01:00Z</time>
      </trkpt>
      <trkpt lat="43.82206" lon="7.43382">
        <ele>607.69</ele>
        <time>2015-05-01T13:01:13Z</time>
      </trkpt>
      <trkpt lat="43.82203" lon="7.43387">
        <ele>608.17</ele>
        <time>2015-05-01T13:01:18Z</time>
      </trkpt>
      <trkpt lat="43.82191" lon="7.43404">
        <ele>608.17</ele>
        <time>2015-05-01T13:01:33Z</time>
      </trkpt>
      <trkpt lat="43.82188" lon="7.43411">
        <ele>608.65</ele>
        <time>2015-05-01T13:01:46Z</time>
      </trkpt>
      <trkpt lat="43.82185" lon="7.43415">
        <ele>608.65</ele>
        <time>2015-05-01T13:01:50Z</time>
      </trkpt>
      <trkpt lat="43.82178" lon="7.43433">
        <ele>608.65</ele>
        <time>2015-05-01T13:02:04Z</time>
      </trkpt>
      <trkpt lat="43.82174" lon="7.43444">
        <ele>609.13</ele>
        <time>2015-05-01T13:02:13Z</time>
      </trkpt>
      <trkpt lat="43.82167" lon="7.43457">
        <ele>609.13</ele>
        <time>2015-05-01T13:02:22Z</time>
      </trkpt>
      <trkpt lat="43.82162" lon="7.43473">
        <ele>609.61</ele>
        <time>2015-05-01T13:02:34Z</time>
      </trkpt>
      <trkpt lat="43.82158" lon="7.43477">
        <ele>610.57</ele>
        <time>2015-05-01T13:02:39Z</time>
      </trkpt>
      <trkpt lat="43.82152" lon="7.43496">
        <ele>612.02</ele>
        <time>2015-05-01T13:02:52Z</time>
      </trkpt>
      <trkpt lat="43.82147" lon="7.43506">
        <ele>613.94</ele>
        <time>2015-05-01T13:03:04Z</time>
      </trkpt>
      <trkpt lat="43.82147" lon="7.43508">
        <ele>613.94</ele>
        <time>2015-05-01T13:03:05Z</time>
      </trkpt>
      <trkpt lat="43.82143" lon="7.43523">
        <ele>614.9</ele>
        <time>2015-05-01T13:03:15Z</time>
      </trkpt>
      <trkpt lat="43.82138" lon="7.43537">
        <ele>616.34</ele>
        <time>2015-05-01T13:03:26Z</time>
      </trkpt>
      <trkpt lat="43.82129" lon="7.43552">
        <ele>617.3</ele>
        <time>2015-05-01T13:03:39Z</time>
      </trkpt>
      <trkpt lat="43.82128" lon="7.43553">
        <ele>617.3</ele>
        <time>2015-05-01T13:03:40Z</time>
      </trkpt>
      <trkpt lat="43.8212" lon="7.43567">
        <ele>618.26</ele>
        <time>2015-05-01T13:03:51Z</time>
      </trkpt>
      <trkpt lat="43.82114" lon="7.43571">
        <ele>619.23</ele>
        <time>2015-05-01T13:03:57Z</time>
      </trkpt>
      <trkpt lat="43.82112" lon="7.43575">
        <ele>619.71</ele>
        <time>2015-05-01T13:04:01Z</time>
      </trkpt>
      <trkpt lat="43.82106" lon="7.43582">
        <ele>621.15</ele>
        <time>2015-05-01T13:04:09Z</time>
      </trkpt>
      <trkpt lat="43.82095" lon="7.43592">
        <ele>622.11</ele>
        <time>2015-05-01T13:04:20Z</time>
      </trkpt>
      <trkpt lat="43.82082" lon="7.436">
        <ele>621.63</ele>
        <time>2015-05-01T13:04:30Z</time>
      </trkpt>
      <trkpt lat="43.82077" lon="7.43601">
        <ele>621.63</ele>
        <time>2015-05-01T13:04:34Z</time>
      </trkpt>
      <trkpt lat="43.82072" lon="7.43605">
        <ele>621.63</ele>
        <time>2015-05-01T13:04:38Z</time>
      </trkpt>
      <trkpt lat="43.82067" lon="7.43614">
        <ele>621.63</ele>
        <time>2015-05-01T13:04:45Z</time>
      </trkpt>
      <trkpt lat="43.82066" lon="7.43626">
        <ele>622.11</ele>
        <time>2015-05-01T13:04:57Z</time>
      </trkpt>
      <trkpt lat="43.8206" lon="7.43633">
        <ele>622.11</ele>
        <time>2015-05-01T13:05:03Z</time>
      </trkpt>
      <trkpt lat="43.82053" lon="7.43634">
        <ele>622.59</ele>
        <time>2015-05-01T13:05:09Z</time>
      </trkpt>
      <trkpt lat="43.82041" lon="7.43643">
        <ele>624.51</ele>
        <time>2015-05-01T13:05:22Z</time>
      </trkpt>
      <trkpt lat="43.82035" lon="7.43648">
        <ele>624.99</ele>
        <time>2015-05-01T13:05:29Z</time>
      </trkpt>
      <trkpt lat="43.82027" lon="7.43655">
        <ele>625.96</ele>
        <time>2015-05-01T13:05:38Z</time>
      </trkpt>
      <trkpt lat="43.82019" lon="7.43662">
        <ele>626.44</ele>
        <time>2015-05-01T13:05:45Z</time>
      </trkpt>
      <trkpt lat="43.82016" lon="7.43664">
        <ele>626.44</ele>
        <time>2015-05-01T13:05:49Z</time>
      </trkpt>
      <trkpt lat="43.82009" lon="7.4368">
        <ele>626.92</ele>
        <time>2015-05-01T13:06:02Z</time>
      </trkpt>
      <trkpt lat="43.82007" lon="7.43683">
        <ele>627.4</ele>
        <time>2015-05-01T13:06:05Z</time>
      </trkpt>
      <trkpt lat="43.82001" lon="7.43689">
        <ele>627.4</ele>
        <time>2015-05-01T13:06:11Z</time>
      </trkpt>
      <trkpt lat="43.81996" lon="7.43695">
        <ele>627.4</ele>
        <time>2015-05-01T13:06:16Z</time>
      </trkpt>
      <trkpt lat="43.81983" lon="7.43705">
        <ele>627.4</ele>
        <time>2015-05-01T13:06:28Z</time>
      </trkpt>
      <trkpt lat="43.8197" lon="7.43714">
        <ele>627.4</ele>
        <time>2015-05-01T13:06:39Z</time>
      </trkpt>
      <trkpt lat="43.81956" lon="7.43724">
        <ele>627.4</ele>
        <time>2015-05-01T13:06:52Z</time>
      </trkpt>
      <trkpt lat="43.81946" lon="7.43732">
        <ele>627.4</ele>
        <time>2015-05-01T13:07:03Z</time>
      </trkpt>
      <trkpt lat="43.81938" lon="7.43738">
        <ele>627.4</ele>
        <time>2015-05-01T13:07:13Z</time>
      </trkpt>
      <trkpt lat="43.81933" lon="7.43736">
        <ele>627.4</ele>
        <time>2015-05-01T13:07:33Z</time>
      </trkpt>
      <trkpt lat="43.81931" lon="7.43738">
        <ele>627.4</ele>
        <time>2015-05-01T13:07:35Z</time>
      </trkpt>
      <trkpt lat="43.81927" lon="7.43746">
        <ele>627.4</ele>
        <time>2015-05-01T13:07:45Z</time>
      </trkpt>
      <trkpt lat="43.81926" lon="7.43747">
        <ele>627.4</ele>
        <time>2015-05-01T13:07:46Z</time>
      </trkpt>
      <trkpt lat="43.8192" lon="7.4376">
        <ele>625.96</ele>
        <time>2015-05-01T13:07:54Z</time>
      </trkpt>
      <trkpt lat="43.81915" lon="7.43763">
        <ele>625.47</ele>
        <time>2015-05-01T13:07:58Z</time>
      </trkpt>
      <trkpt lat="43.81911" lon="7.43768">
        <ele>625.47</ele>
        <time>2015-05-01T13:08:02Z</time>
      </trkpt>
      <trkpt lat="43.8191" lon="7.43774">
        <ele>625.47</ele>
        <time>2015-05-01T13:08:06Z</time>
      </trkpt>
      <trkpt lat="43.81902" lon="7.43783">
        <ele>625.47</ele>
        <time>2015-05-01T13:08:16Z</time>
      </trkpt>
      <trkpt lat="43.81888" lon="7.43798">
        <ele>625.47</ele>
        <time>2015-05-01T13:08:27Z</time>
      </trkpt>
      <trkpt lat="43.81883" lon="7.43802">
        <ele>626.92</ele>
        <time>2015-05-01T13:08:31Z</time>
      </trkpt>
      <trkpt lat="43.81874" lon="7.43812">
        <ele>627.88</ele>
        <time>2015-05-01T13:08:40Z</time>
      </trkpt>
      <trkpt lat="43.81869" lon="7.4382">
        <ele>629.8</ele>
        <time>2015-05-01T13:08:48Z</time>
      </trkpt>
      <trkpt lat="43.81865" lon="7.43829">
        <ele>631.24</ele>
        <time>2015-05-01T13:08:56Z</time>
      </trkpt>
      <trkpt lat="43.81856" lon="7.43841">
        <ele>632.68</ele>
        <time>2015-05-01T13:09:09Z</time>
      </trkpt>
      <trkpt lat="43.81848" lon="7.43849">
        <ele>632.68</ele>
        <time>2015-05-01T13:09:21Z</time>
      </trkpt>
      <trkpt lat="43.81838" lon="7.43851">
        <ele>633.17</ele>
        <time>2015-05-01T13:09:42Z</time>
      </trkpt>
      <trkpt lat="43.81829" lon="7.43862">
        <ele>634.61</ele>
        <time>2015-05-01T13:09:55Z</time>
      </trkpt>
      <trkpt lat="43.8182" lon="7.43877">
        <ele>635.09</ele>
        <time>2015-05-01T13:10:08Z</time>
      </trkpt>
      <trkpt lat="43.81817" lon="7.43884">
        <ele>635.57</ele>
        <time>2015-05-01T13:10:13Z</time>
      </trkpt>
      <trkpt lat="43.81811" lon="7.43894">
        <ele>635.57</ele>
        <time>2015-05-01T13:10:26Z</time>
      </trkpt>
      <trkpt lat="43.81808" lon="7.43898">
        <ele>635.57</ele>
        <time>2015-05-01T13:10:35Z</time>
      </trkpt>
      <trkpt lat="43.81799" lon="7.43915">
        <ele>635.57</ele>
        <time>2015-05-01T13:10:48Z</time>
      </trkpt>
      <trkpt lat="43.81787" lon="7.43929">
        <ele>637.01</ele>
        <time>2015-05-01T13:11:01Z</time>
      </trkpt>
      <trkpt lat="43.81779" lon="7.43943">
        <ele>638.45</ele>
        <time>2015-05-01T13:11:13Z</time>
      </trkpt>
      <trkpt lat="43.81774" lon="7.43948">
        <ele>639.41</ele>
        <time>2015-05-01T13:11:18Z</time>
      </trkpt>
      <trkpt lat="43.81768" lon="7.43953">
        <ele>639.89</ele>
        <time>2015-05-01T13:11:25Z</time>
      </trkpt>
      <trkpt lat="43.81757" lon="7.43963">
        <ele>640.38</ele>
        <time>2015-05-01T13:11:35Z</time>
      </trkpt>
      <trkpt lat="43.81744" lon="7.43971">
        <ele>640.86</ele>
        <time>2015-05-01T13:11:47Z</time>
      </trkpt>
      <trkpt lat="43.81731" lon="7.43983">
        <ele>638.93</ele>
        <time>2015-05-01T13:12:00Z</time>
      </trkpt>
      <trkpt lat="43.81725" lon="7.43995">
        <ele>637.49</ele>
        <time>2015-05-01T13:12:13Z</time>
      </trkpt>
      <trkpt lat="43.81722" lon="7.44001">
        <ele>638.45</ele>
        <time>2015-05-01T13:12:19Z</time>
      </trkpt>
      <trkpt lat="43.81715" lon="7.44016">
        <ele>640.38</ele>
        <time>2015-05-01T13:12:32Z</time>
      </trkpt>
      <trkpt lat="43.81714" lon="7.44027">
        <ele>640.86</ele>
        <time>2015-05-01T13:12:43Z</time>
      </trkpt>
      <trkpt lat="43.81709" lon="7.44046">
        <ele>642.3</ele>
        <time>2015-05-01T13:12:58Z</time>
      </trkpt>
      <trkpt lat="43.81702" lon="7.44052">
        <ele>644.7</ele>
        <time>2015-05-01T13:13:09Z</time>
      </trkpt>
      <trkpt lat="43.81695" lon="7.44061">
        <ele>646.14</ele>
        <time>2015-05-01T13:13:20Z</time>
      </trkpt>
      <trkpt lat="43.81689" lon="7.44066">
        <ele>647.59</ele>
        <time>2015-05-01T13:13:31Z</time>
      </trkpt>
      <trkpt lat="43.81684" lon="7.44076">
        <ele>649.51</ele>
        <time>2015-05-01T13:13:44Z</time>
      </trkpt>
      <trkpt lat="43.81683" lon="7.44094">
        <ele>650.95</ele>
        <time>2015-05-01T13:13:58Z</time>
      </trkpt>
      <trkpt lat="43.81679" lon="7.44102">
        <ele>651.91</ele>
        <time>2015-05-01T13:14:05Z</time>
      </trkpt>
      <trkpt lat="43.81671" lon="7.44118">
        <ele>653.35</ele>
        <time>2015-05-01T13:14:19Z</time>
      </trkpt>
      <trkpt lat="43.81671" lon="7.44119">
        <ele>653.35</ele>
        <time>2015-05-01T13:14:20Z</time>
      </trkpt>
      <trkpt lat="43.81667" lon="7.44135">
        <ele>655.28</ele>
        <time>2015-05-01T13:14:34Z</time>
      </trkpt>
      <trkpt lat="43.81663" lon="7.44146">
        <ele>657.2</ele>
        <time>2015-05-01T13:14:46Z</time>
      </trkpt>
      <trkpt lat="43.8166" lon="7.44156">
        <ele>658.16</ele>
        <time>2015-05-01T13:14:57Z</time>
      </trkpt>
      <trkpt lat="43.81655" lon="7.44167">
        <ele>659.6</ele>
        <time>2015-05-01T13:15:08Z</time>
      </trkpt>
      <trkpt lat="43.81649" lon="7.44182">
        <ele>661.52</ele>
        <time>2015-05-01T13:15:22Z</time>
      </trkpt>
      <trkpt lat="43.81648" lon="7.44193">
        <ele>663.45</ele>
        <time>2015-05-01T13:15:33Z</time>
      </trkpt>
      <trkpt lat="43.81645" lon="7.44202">
        <ele>665.85</ele>
        <time>2015-05-01T13:15:46Z</time>
      </trkpt>
      <trkpt lat="43.81641" lon="7.44214">
        <ele>667.77</ele>
        <time>2015-05-01T13:15:59Z</time>
      </trkpt>
      <trkpt lat="43.81636" lon="7.44227">
        <ele>670.18</ele>
        <time>2015-05-01T13:16:17Z</time>
      </trkpt>
      <trkpt lat="43.81628" lon="7.44236">
        <ele>671.62</ele>
        <time>2015-05-01T13:16:31Z</time>
      </trkpt>
      <trkpt lat="43.81624" lon="7.44241">
        <ele>673.06</ele>
        <time>2015-05-01T13:16:41Z</time>
      </trkpt>
      <trkpt lat="43.81621" lon="7.44248">
        <ele>674.5</ele>
        <time>2015-05-01T13:16:53Z</time>
      </trkpt>
      <trkpt lat="43.81614" lon="7.44252">
        <ele>675.46</ele>
        <time>2015-05-01T13:17:05Z</time>
      </trkpt>
      <trkpt lat="43.81611" lon="7.44253">
        <ele>675.94</ele>
        <time>2015-05-01T13:17:09Z</time>
      </trkpt>
      <trkpt lat="43.81606" lon="7.44263">
        <ele>675.94</ele>
        <time>2015-05-01T13:17:21Z</time>
      </trkpt>
      <trkpt lat="43.81601" lon="7.44278">
        <ele>676.91</ele>
        <time>2015-05-01T13:17:33Z</time>
      </trkpt>
      <trkpt lat="43.81594" lon="7.44285">
        <ele>677.87</ele>
        <time>2015-05-01T13:17:46Z</time>
      </trkpt>
      <trkpt lat="43.81589" lon="7.44289">
        <ele>679.31</ele>
        <time>2015-05-01T13:17:58Z</time>
      </trkpt>
      <trkpt lat="43.81585" lon="7.443">
        <ele>681.23</ele>
        <time>2015-05-01T13:18:10Z</time>
      </trkpt>
      <trkpt lat="43.81577" lon="7.44311">
        <ele>682.19</ele>
        <time>2015-05-01T13:18:22Z</time>
      </trkpt>
      <trkpt lat="43.81574" lon="7.44319">
        <ele>684.12</ele>
        <time>2015-05-01T13:18:33Z</time>
      </trkpt>
      <trkpt lat="43.81569" lon="7.4433">
        <ele>686.04</ele>
        <time>2015-05-01T13:18:45Z</time>
      </trkpt>
      <trkpt lat="43.81562" lon="7.44338">
        <ele>687</ele>
        <time>2015-05-01T13:18:58Z</time>
      </trkpt>
      <trkpt lat="43.81555" lon="7.44351">
        <ele>688.44</ele>
        <time>2015-05-01T13:19:10Z</time>
      </trkpt>
      <trkpt lat="43.81546" lon="7.44361">
        <ele>687.96</ele>
        <time>2015-05-01T13:19:21Z</time>
      </trkpt>
      <trkpt lat="43.81541" lon="7.44369">
        <ele>689.4</ele>
        <time>2015-05-01T13:19:34Z</time>
      </trkpt>
      <trkpt lat="43.8154" lon="7.4437">
        <ele>689.4</ele>
        <time>2015-05-01T13:19:41Z</time>
      </trkpt>
      <trkpt lat="43.81534" lon="7.44383">
        <ele>690.36</ele>
        <time>2015-05-01T13:19:56Z</time>
      </trkpt>
      <trkpt lat="43.81533" lon="7.44397">
        <ele>692.29</ele>
        <time>2015-05-01T13:20:10Z</time>
      </trkpt>
      <trkpt lat="43.81529" lon="7.4441">
        <ele>694.21</ele>
        <time>2015-05-01T13:20:23Z</time>
      </trkpt>
      <trkpt lat="43.81526" lon="7.44425">
        <ele>695.65</ele>
        <time>2015-05-01T13:20:36Z</time>
      </trkpt>
      <trkpt lat="43.8152" lon="7.44434">
        <ele>697.09</ele>
        <time>2015-05-01T13:20:49Z</time>
      </trkpt>
      <trkpt lat="43.81518" lon="7.44442">
        <ele>697.09</ele>
        <time>2015-05-01T13:21:01Z</time>
      </trkpt>
      <trkpt lat="43.81519" lon="7.44451">
        <ele>696.61</ele>
        <time>2015-05-01T13:21:26Z</time>
      </trkpt>
      <trkpt lat="43.81519" lon="7.44454">
        <ele>696.13</ele>
        <time>2015-05-01T13:21:53Z</time>
      </trkpt>
      <trkpt lat="43.81503" lon="7.44448">
        <ele>695.65</ele>
        <time>2015-05-01T13:22:23Z</time>
      </trkpt>
      <trkpt lat="43.81501" lon="7.44443">
        <ele>696.61</ele>
        <time>2015-05-01T13:22:44Z</time>
      </trkpt>
      <trkpt lat="43.815" lon="7.44439">
        <ele>696.61</ele>
        <time>2015-05-01T13:23:10Z</time>
      </trkpt>
      <trkpt lat="43.81497" lon="7.44436">
        <ele>696.61</ele>
        <time>2015-05-01T13:23:32Z</time>
      </trkpt>
      <trkpt lat="43.81494" lon="7.44432">
        <ele>696.61</ele>
        <time>2015-05-01T13:23:53Z</time>
      </trkpt>
      <trkpt lat="43.8149" lon="7.44424">
        <ele>697.57</ele>
        <time>2015-05-01T13:24:30Z</time>
      </trkpt>
      <trkpt lat="43.81491" lon="7.44428">
        <ele>697.57</ele>
        <time>2015-05-01T13:24:57Z</time>
      </trkpt>
      <trkpt lat="43.81493" lon="7.44443">
        <ele>697.57</ele>
        <time>2015-05-01T13:25:20Z</time>
      </trkpt>
      <trkpt lat="43.81494" lon="7.44446">
        <ele>698.53</ele>
        <time>2015-05-01T13:25:45Z</time>
      </trkpt>
      <trkpt lat="43.81491" lon="7.44457">
        <ele>699.98</ele>
        <time>2015-05-01T13:25:57Z</time>
      </trkpt>
      <trkpt lat="43.81492" lon="7.44465">
        <ele>701.9</ele>
        <time>2015-05-01T13:26:07Z</time>
      </trkpt>
      <trkpt lat="43.81491" lon="7.44478">
        <ele>704.78</ele>
        <time>2015-05-01T13:26:20Z</time>
      </trkpt>
      <trkpt lat="43.81488" lon="7.44486">
        <ele>705.75</ele>
        <time>2015-05-01T13:26:28Z</time>
      </trkpt>
      <trkpt lat="43.81485" lon="7.4449">
        <ele>706.71</ele>
        <time>2015-05-01T13:26:33Z</time>
      </trkpt>
      <trkpt lat="43.81483" lon="7.44495">
        <ele>707.19</ele>
        <time>2015-05-01T13:26:37Z</time>
      </trkpt>
      <trkpt lat="43.8148" lon="7.44499">
        <ele>707.67</ele>
        <time>2015-05-01T13:26:41Z</time>
      </trkpt>
      <trkpt lat="43.81478" lon="7.44504">
        <ele>708.63</ele>
        <time>2015-05-01T13:26:45Z</time>
      </trkpt>
      <trkpt lat="43.81476" lon="7.44504">
        <ele>708.63</ele>
        <time>2015-05-01T13:26:47Z</time>
      </trkpt>
      <trkpt lat="43.81469" lon="7.44509">
        <ele>709.59</ele>
        <time>2015-05-01T13:26:55Z</time>
      </trkpt>
      <trkpt lat="43.81464" lon="7.44514">
        <ele>710.55</ele>
        <time>2015-05-01T13:27:01Z</time>
      </trkpt>
      <trkpt lat="43.81457" lon="7.44527">
        <ele>712.47</ele>
        <time>2015-05-01T13:27:15Z</time>
      </trkpt>
      <trkpt lat="43.81453" lon="7.44533">
        <ele>713.44</ele>
        <time>2015-05-01T13:27:22Z</time>
      </trkpt>
      <trkpt lat="43.81449" lon="7.44546">
        <ele>714.88</ele>
        <time>2015-05-01T13:27:35Z</time>
      </trkpt>
      <trkpt lat="43.81447" lon="7.44557">
        <ele>716.8</ele>
        <time>2015-05-01T13:27:48Z</time>
      </trkpt>
      <trkpt lat="43.81444" lon="7.4457">
        <ele>719.68</ele>
        <time>2015-05-01T13:28:01Z</time>
      </trkpt>
      <trkpt lat="43.81445" lon="7.44585">
        <ele>722.57</ele>
        <time>2015-05-01T13:28:15Z</time>
      </trkpt>
      <trkpt lat="43.8144" lon="7.44596">
        <ele>724.49</ele>
        <time>2015-05-01T13:28:27Z</time>
      </trkpt>
      <trkpt lat="43.81438" lon="7.44605">
        <ele>726.89</ele>
        <time>2015-05-01T13:28:38Z</time>
      </trkpt>
      <trkpt lat="43.81433" lon="7.44613">
        <ele>728.82</ele>
        <time>2015-05-01T13:28:50Z</time>
      </trkpt>
      <trkpt lat="43.8143" lon="7.44617">
        <ele>728.82</ele>
        <time>2015-05-01T13:28:55Z</time>
      </trkpt>
      <trkpt lat="43.81426" lon="7.4462">
        <ele>728.82</ele>
        <time>2015-05-01T13:29:00Z</time>
      </trkpt>
      <trkpt lat="43.81417" lon="7.44623">
        <ele>729.3</ele>
        <time>2015-05-01T13:29:09Z</time>
      </trkpt>
      <trkpt lat="43.81407" lon="7.44622">
        <ele>729.3</ele>
        <time>2015-05-01T13:29:18Z</time>
      </trkpt>
      <trkpt lat="43.81401" lon="7.4462">
        <ele>729.3</ele>
        <time>2015-05-01T13:29:31Z</time>
      </trkpt>
      <trkpt lat="43.81399" lon="7.44624">
        <ele>729.3</ele>
        <time>2015-05-01T13:29:45Z</time>
      </trkpt>
      <trkpt lat="43.81401" lon="7.44626">
        <ele>729.3</ele>
        <time>2015-05-01T13:30:08Z</time>
      </trkpt>
      <trkpt lat="43.814" lon="7.44625">
        <ele>729.3</ele>
        <time>2015-05-01T13:30:34Z</time>
      </trkpt>
      <trkpt lat="43.81402" lon="7.44624">
        <ele>729.78</ele>
        <time>2015-05-01T13:31:01Z</time>
      </trkpt>
      <trkpt lat="43.81404" lon="7.44622">
        <ele>729.78</ele>
        <time>2015-05-01T13:31:32Z</time>
      </trkpt>
      <trkpt lat="43.81401" lon="7.4462">
        <ele>730.26</ele>
        <time>2015-05-01T13:31:54Z</time>
      </trkpt>
      <trkpt lat="43.81401" lon="7.44622">
        <ele>730.26</ele>
        <time>2015-05-01T13:32:20Z</time>
      </trkpt>
      <trkpt lat="43.81402" lon="7.4462">
        <ele>730.26</ele>
        <time>2015-05-01T13:32:43Z</time>
      </trkpt>
      <trkpt lat="43.81401" lon="7.4462">
        <ele>730.26</ele>
        <time>2015-05-01T13:33:04Z</time>
      </trkpt>
      <trkpt lat="43.814" lon="7.44621">
        <ele>730.74</ele>
        <time>2015-05-01T13:33:21Z</time>
      </trkpt>
      <trkpt lat="43.814" lon="7.44624">
        <ele>730.74</ele>
        <time>2015-05-01T13:33:39Z</time>
      </trkpt>
      <trkpt lat="43.814" lon="7.44625">
        <ele>731.22</ele>
        <time>2015-05-01T13:33:59Z</time>
      </trkpt>
      <trkpt lat="43.81402" lon="7.44624">
        <ele>731.22</ele>
        <time>2015-05-01T13:34:23Z</time>
      </trkpt>
      <trkpt lat="43.81404" lon="7.44624">
        <ele>731.22</ele>
        <time>2015-05-01T13:34:49Z</time>
      </trkpt>
      <trkpt lat="43.81403" lon="7.44624">
        <ele>731.22</ele>
        <time>2015-05-01T13:35:10Z</time>
      </trkpt>
      <trkpt lat="43.81403" lon="7.44626">
        <ele>731.22</ele>
        <time>2015-05-01T13:35:31Z</time>
      </trkpt>
      <trkpt lat="43.81401" lon="7.44626">
        <ele>731.22</ele>
        <time>2015-05-01T13:35:56Z</time>
      </trkpt>
      <trkpt lat="43.81402" lon="7.44628">
        <ele>731.22</ele>
        <time>2015-05-01T13:36:18Z</time>
      </trkpt>
      <trkpt lat="43.81405" lon="7.44632">
        <ele>731.22</ele>
        <time>2015-05-01T13:36:24Z</time>
      </trkpt>
      <trkpt lat="43.81392" lon="7.44656">
        <ele>731.7</ele>
        <time>2015-05-01T13:36:36Z</time>
      </trkpt>
      <trkpt lat="43.8138" lon="7.44668">
        <ele>732.18</ele>
        <time>2015-05-01T13:36:46Z</time>
      </trkpt>
      <trkpt lat="43.81368" lon="7.4468">
        <ele>732.18</ele>
        <time>2015-05-01T13:36:58Z</time>
      </trkpt>
      <trkpt lat="43.81358" lon="7.44692">
        <ele>732.18</ele>
        <time>2015-05-01T13:37:10Z</time>
      </trkpt>
      <trkpt lat="43.81359" lon="7.44695">
        <ele>732.18</ele>
        <time>2015-05-01T13:37:11Z</time>
      </trkpt>
      <trkpt lat="43.8136" lon="7.447">
        <ele>732.66</ele>
        <time>2015-05-01T13:37:15Z</time>
      </trkpt>
      <trkpt lat="43.8136" lon="7.44702">
        <ele>732.66</ele>
        <time>2015-05-01T13:37:16Z</time>
      </trkpt>
      <trkpt lat="43.81361" lon="7.44704">
        <ele>732.66</ele>
        <time>2015-05-01T13:37:17Z</time>
      </trkpt>
      <trkpt lat="43.81362" lon="7.44705">
        <ele>732.66</ele>
        <time>2015-05-01T13:37:18Z</time>
      </trkpt>
      <trkpt lat="43.81362" lon="7.44707">
        <ele>732.66</ele>
        <time>2015-05-01T13:37:19Z</time>
      </trkpt>
      <trkpt lat="43.81363" lon="7.44709">
        <ele>732.66</ele>
        <time>2015-05-01T13:37:20Z</time>
      </trkpt>
      <trkpt lat="43.81365" lon="7.44718">
        <ele>732.66</ele>
        <time>2015-05-01T13:37:29Z</time>
      </trkpt>
      <trkpt lat="43.81364" lon="7.44722">
        <ele>732.66</ele>
        <time>2015-05-01T13:37:42Z</time>
      </trkpt>
      <trkpt lat="43.81365" lon="7.4472">
        <ele>732.66</ele>
        <time>2015-05-01T13:37:43Z</time>
      </trkpt>
      <trkpt lat="43.81367" lon="7.44719">
        <ele>732.66</ele>
        <time>2015-05-01T13:37:44Z</time>
      </trkpt>
      <trkpt lat="43.81369" lon="7.44718">
        <ele>732.66</ele>
        <time>2015-05-01T13:37:45Z</time>
      </trkpt>
      <trkpt lat="43.81373" lon="7.44716">
        <ele>732.66</ele>
        <time>2015-05-01T13:37:46Z</time>
      </trkpt>
      <trkpt lat="43.81398" lon="7.44715">
        <ele>732.66</ele>
        <time>2015-05-01T13:37:57Z</time>
      </trkpt>
      <trkpt lat="43.81404" lon="7.44717">
        <ele>731.22</ele>
        <time>2015-05-01T13:38:02Z</time>
      </trkpt>
      <trkpt lat="43.8142" lon="7.44719">
        <ele>728.34</ele>
        <time>2015-05-01T13:38:15Z</time>
      </trkpt>
      <trkpt lat="43.8142" lon="7.44721">
        <ele>727.86</ele>
        <time>2015-05-01T13:38:17Z</time>
      </trkpt>
      <trkpt lat="43.81419" lon="7.44723">
        <ele>727.37</ele>
        <time>2015-05-01T13:38:18Z</time>
      </trkpt>
      <trkpt lat="43.81418" lon="7.44724">
        <ele>726.41</ele>
        <time>2015-05-01T13:38:19Z</time>
      </trkpt>
      <trkpt lat="43.81418" lon="7.44724">
        <ele>726.41</ele>
        <time>2015-05-01T13:38:20Z</time>
      </trkpt>
      <trkpt lat="43.81416" lon="7.44725">
        <ele>726.41</ele>
        <time>2015-05-01T13:38:21Z</time>
      </trkpt>
      <trkpt lat="43.81415" lon="7.44727">
        <ele>725.93</ele>
        <time>2015-05-01T13:38:22Z</time>
      </trkpt>
      <trkpt lat="43.81406" lon="7.44734">
        <ele>723.53</ele>
        <time>2015-05-01T13:38:32Z</time>
      </trkpt>
      <trkpt lat="43.81405" lon="7.44734">
        <ele>723.05</ele>
        <time>2015-05-01T13:38:33Z</time>
      </trkpt>
      <trkpt lat="43.81385" lon="7.44737">
        <ele>720.16</ele>
        <time>2015-05-01T13:38:47Z</time>
      </trkpt>
      <trkpt lat="43.81368" lon="7.44749">
        <ele>718.72</ele>
        <time>2015-05-01T13:38:59Z</time>
      </trkpt>
      <trkpt lat="43.8136" lon="7.44754">
        <ele>717.28</ele>
        <time>2015-05-01T13:39:07Z</time>
      </trkpt>
      <trkpt lat="43.81356" lon="7.44751">
        <ele>716.8</ele>
        <time>2015-05-01T13:39:11Z</time>
      </trkpt>
      <trkpt lat="43.81347" lon="7.44728">
        <ele>715.36</ele>
        <time>2015-05-01T13:39:25Z</time>
      </trkpt>
      <trkpt lat="43.81341" lon="7.44724">
        <ele>714.88</ele>
        <time>2015-05-01T13:39:32Z</time>
      </trkpt>
      <trkpt lat="43.81331" lon="7.44726">
        <ele>712.95</ele>
        <time>2015-05-01T13:39:40Z</time>
      </trkpt>
      <trkpt lat="43.81324" lon="7.44726">
        <ele>711.51</ele>
        <time>2015-05-01T13:39:46Z</time>
      </trkpt>
      <trkpt lat="43.81313" lon="7.44727">
        <ele>708.63</ele>
        <time>2015-05-01T13:39:59Z</time>
      </trkpt>
      <trkpt lat="43.81311" lon="7.4473">
        <ele>708.15</ele>
        <time>2015-05-01T13:40:02Z</time>
      </trkpt>
      <trkpt lat="43.81309" lon="7.44736">
        <ele>707.67</ele>
        <time>2015-05-01T13:40:06Z</time>
      </trkpt>
      <trkpt lat="43.81306" lon="7.44758">
        <ele>705.26</ele>
        <time>2015-05-01T13:40:21Z</time>
      </trkpt>
      <trkpt lat="43.813" lon="7.44779">
        <ele>703.34</ele>
        <time>2015-05-01T13:40:34Z</time>
      </trkpt>
      <trkpt lat="43.81291" lon="7.44807">
        <ele>700.94</ele>
        <time>2015-05-01T13:40:48Z</time>
      </trkpt>
      <trkpt lat="43.81286" lon="7.4482">
        <ele>699.02</ele>
        <time>2015-05-01T13:41:01Z</time>
      </trkpt>
      <trkpt lat="43.81284" lon="7.44835">
        <ele>696.13</ele>
        <time>2015-05-01T13:41:13Z</time>
      </trkpt>
      <trkpt lat="43.81281" lon="7.44856">
        <ele>693.25</ele>
        <time>2015-05-01T13:41:24Z</time>
      </trkpt>
      <trkpt lat="43.81276" lon="7.44872">
        <ele>689.88</ele>
        <time>2015-05-01T13:41:33Z</time>
      </trkpt>
      <trkpt lat="43.81275" lon="7.44879">
        <ele>689.4</ele>
        <time>2015-05-01T13:41:37Z</time>
      </trkpt>
      <trkpt lat="43.81274" lon="7.44883">
        <ele>687.96</ele>
        <time>2015-05-01T13:41:39Z</time>
      </trkpt>
      <trkpt lat="43.81274" lon="7.44889">
        <ele>687.96</ele>
        <time>2015-05-01T13:41:41Z</time>
      </trkpt>
      <trkpt lat="43.81273" lon="7.44893">
        <ele>687</ele>
        <time>2015-05-01T13:41:42Z</time>
      </trkpt>
      <trkpt lat="43.81268" lon="7.44913">
        <ele>684.12</ele>
        <time>2015-05-01T13:41:52Z</time>
      </trkpt>
      <trkpt lat="43.81263" lon="7.44925">
        <ele>680.75</ele>
        <time>2015-05-01T13:42:01Z</time>
      </trkpt>
      <trkpt lat="43.81256" lon="7.44939">
        <ele>676.91</ele>
        <time>2015-05-01T13:42:12Z</time>
      </trkpt>
      <trkpt lat="43.81255" lon="7.44942">
        <ele>676.42</ele>
        <time>2015-05-01T13:42:14Z</time>
      </trkpt>
      <trkpt lat="43.8125" lon="7.44958">
        <ele>673.06</ele>
        <time>2015-05-01T13:42:28Z</time>
      </trkpt>
      <trkpt lat="43.81248" lon="7.44962">
        <ele>671.62</ele>
        <time>2015-05-01T13:42:33Z</time>
      </trkpt>
      <trkpt lat="43.81246" lon="7.44963">
        <ele>671.14</ele>
        <time>2015-05-01T13:42:36Z</time>
      </trkpt>
      <trkpt lat="43.81245" lon="7.44965">
        <ele>671.14</ele>
        <time>2015-05-01T13:42:37Z</time>
      </trkpt>
      <trkpt lat="43.81243" lon="7.44966">
        <ele>670.66</ele>
        <time>2015-05-01T13:42:38Z</time>
      </trkpt>
      <trkpt lat="43.81242" lon="7.44969">
        <ele>670.18</ele>
        <time>2015-05-01T13:42:40Z</time>
      </trkpt>
      <trkpt lat="43.81243" lon="7.4498">
        <ele>667.77</ele>
        <time>2015-05-01T13:42:49Z</time>
      </trkpt>
      <trkpt lat="43.81247" lon="7.4498">
        <ele>667.29</ele>
        <time>2015-05-01T13:42:52Z</time>
      </trkpt>
      <trkpt lat="43.81247" lon="7.44979">
        <ele>667.29</ele>
        <time>2015-05-01T13:42:53Z</time>
      </trkpt>
      <trkpt lat="43.8125" lon="7.4498">
        <ele>666.33</ele>
        <time>2015-05-01T13:42:59Z</time>
      </trkpt>
      <trkpt lat="43.81251" lon="7.4498">
        <ele>666.33</ele>
        <time>2015-05-01T13:43:00Z</time>
      </trkpt>
      <trkpt lat="43.81252" lon="7.44981">
        <ele>666.33</ele>
        <time>2015-05-01T13:43:01Z</time>
      </trkpt>
      <trkpt lat="43.81253" lon="7.4498">
        <ele>666.33</ele>
        <time>2015-05-01T13:43:02Z</time>
      </trkpt>
      <trkpt lat="43.81254" lon="7.4498">
        <ele>666.33</ele>
        <time>2015-05-01T13:43:03Z</time>
      </trkpt>
      <trkpt lat="43.81255" lon="7.44979">
        <ele>666.33</ele>
        <time>2015-05-01T13:43:04Z</time>
      </trkpt>
      <trkpt lat="43.81262" lon="7.44971">
        <ele>664.89</ele>
        <time>2015-05-01T13:43:14Z</time>
      </trkpt>
      <trkpt lat="43.81274" lon="7.44963">
        <ele>664.41</ele>
        <time>2015-05-01T13:43:25Z</time>
      </trkpt>
      <trkpt lat="43.8129" lon="7.44956">
        <ele>663.45</ele>
        <time>2015-05-01T13:43:37Z</time>
      </trkpt>
      <trkpt lat="43.81294" lon="7.4495">
        <ele>662.49</ele>
        <time>2015-05-01T13:43:42Z</time>
      </trkpt>
      <trkpt lat="43.81295" lon="7.44948">
        <ele>662.01</ele>
        <time>2015-05-01T13:43:43Z</time>
      </trkpt>
      <trkpt lat="43.81305" lon="7.44946">
        <ele>660.08</ele>
        <time>2015-05-01T13:43:52Z</time>
      </trkpt>
      <trkpt lat="43.81311" lon="7.44954">
        <ele>659.12</ele>
        <time>2015-05-01T13:44:00Z</time>
      </trkpt>
      <trkpt lat="43.81305" lon="7.44965">
        <ele>658.64</ele>
        <time>2015-05-01T13:44:12Z</time>
      </trkpt>
      <trkpt lat="43.81292" lon="7.44978">
        <ele>658.16</ele>
        <time>2015-05-01T13:44:26Z</time>
      </trkpt>
      <trkpt lat="43.81281" lon="7.44988">
        <ele>657.2</ele>
        <time>2015-05-01T13:44:37Z</time>
      </trkpt>
      <trkpt lat="43.81269" lon="7.45004">
        <ele>656.24</ele>
        <time>2015-05-01T13:44:51Z</time>
      </trkpt>
      <trkpt lat="43.81259" lon="7.45018">
        <ele>654.31</ele>
        <time>2015-05-01T13:45:05Z</time>
      </trkpt>
      <trkpt lat="43.81253" lon="7.4503">
        <ele>652.39</ele>
        <time>2015-05-01T13:45:16Z</time>
      </trkpt>
      <trkpt lat="43.81249" lon="7.45044">
        <ele>649.99</ele>
        <time>2015-05-01T13:45:28Z</time>
      </trkpt>
      <trkpt lat="43.81247" lon="7.45049">
        <ele>649.03</ele>
        <time>2015-05-01T13:45:32Z</time>
      </trkpt>
      <trkpt lat="43.81234" lon="7.45054">
        <ele>646.62</ele>
        <time>2015-05-01T13:45:44Z</time>
      </trkpt>
      <trkpt lat="43.81228" lon="7.45049">
        <ele>645.18</ele>
        <time>2015-05-01T13:45:55Z</time>
      </trkpt>
      <trkpt lat="43.81217" lon="7.45043">
        <ele>642.78</ele>
        <time>2015-05-01T13:46:07Z</time>
      </trkpt>
      <trkpt lat="43.81216" lon="7.45042">
        <ele>642.78</ele>
        <time>2015-05-01T13:46:08Z</time>
      </trkpt>
      <trkpt lat="43.81214" lon="7.45041">
        <ele>642.78</ele>
        <time>2015-05-01T13:46:10Z</time>
      </trkpt>
      <trkpt lat="43.81201" lon="7.45038">
        <ele>641.34</ele>
        <time>2015-05-01T13:46:20Z</time>
      </trkpt>
      <trkpt lat="43.81188" lon="7.45033">
        <ele>638.45</ele>
        <time>2015-05-01T13:46:34Z</time>
      </trkpt>
      <trkpt lat="43.81182" lon="7.45036">
        <ele>637.49</ele>
        <time>2015-05-01T13:46:43Z</time>
      </trkpt>
      <trkpt lat="43.8118" lon="7.45036">
        <ele>637.49</ele>
        <time>2015-05-01T13:46:44Z</time>
      </trkpt>
      <trkpt lat="43.81175" lon="7.45047">
        <ele>637.49</ele>
        <time>2015-05-01T13:46:55Z</time>
      </trkpt>
      <trkpt lat="43.81176" lon="7.4505">
        <ele>637.49</ele>
        <time>2015-05-01T13:46:57Z</time>
      </trkpt>
      <trkpt lat="43.81181" lon="7.45064">
        <ele>637.49</ele>
        <time>2015-05-01T13:47:07Z</time>
      </trkpt>
      <trkpt lat="43.81185" lon="7.45086">
        <ele>637.49</ele>
        <time>2015-05-01T13:47:20Z</time>
      </trkpt>
      <trkpt lat="43.81185" lon="7.45088">
        <ele>637.49</ele>
        <time>2015-05-01T13:47:21Z</time>
      </trkpt>
      <trkpt lat="43.81184" lon="7.45106">
        <ele>637.49</ele>
        <time>2015-05-01T13:47:33Z</time>
      </trkpt>
      <trkpt lat="43.81179" lon="7.45123">
        <ele>637.01</ele>
        <time>2015-05-01T13:47:46Z</time>
      </trkpt>
      <trkpt lat="43.81183" lon="7.45131">
        <ele>637.01</ele>
        <time>2015-05-01T13:47:51Z</time>
      </trkpt>
      <trkpt lat="43.8118" lon="7.45151">
        <ele>636.05</ele>
        <time>2015-05-01T13:48:01Z</time>
      </trkpt>
      <trkpt lat="43.81177" lon="7.45155">
        <ele>636.05</ele>
        <time>2015-05-01T13:48:04Z</time>
      </trkpt>
      <trkpt lat="43.81175" lon="7.45156">
        <ele>636.05</ele>
        <time>2015-05-01T13:48:05Z</time>
      </trkpt>
      <trkpt lat="43.81161" lon="7.45166">
        <ele>634.61</ele>
        <time>2015-05-01T13:48:19Z</time>
      </trkpt>
      <trkpt lat="43.81146" lon="7.45172">
        <ele>632.2</ele>
        <time>2015-05-01T13:48:33Z</time>
      </trkpt>
      <trkpt lat="43.81137" lon="7.45167">
        <ele>630.76</ele>
        <time>2015-05-01T13:48:46Z</time>
      </trkpt>
      <trkpt lat="43.81134" lon="7.45165">
        <ele>630.28</ele>
        <time>2015-05-01T13:48:52Z</time>
      </trkpt>
      <trkpt lat="43.81128" lon="7.45166">
        <ele>629.8</ele>
        <time>2015-05-01T13:48:59Z</time>
      </trkpt>
      <trkpt lat="43.81126" lon="7.45169">
        <ele>629.32</ele>
        <time>2015-05-01T13:49:02Z</time>
      </trkpt>
      <trkpt lat="43.81121" lon="7.45184">
        <ele>627.4</ele>
        <time>2015-05-01T13:49:14Z</time>
      </trkpt>
      <trkpt lat="43.81117" lon="7.45193">
        <ele>626.44</ele>
        <time>2015-05-01T13:49:21Z</time>
      </trkpt>
      <trkpt lat="43.81115" lon="7.45195">
        <ele>625.47</ele>
        <time>2015-05-01T13:49:23Z</time>
      </trkpt>
      <trkpt lat="43.81113" lon="7.45196">
        <ele>625.47</ele>
        <time>2015-05-01T13:49:24Z</time>
      </trkpt>
      <trkpt lat="43.81107" lon="7.45205">
        <ele>625.47</ele>
        <time>2015-05-01T13:49:30Z</time>
      </trkpt>
      <trkpt lat="43.81106" lon="7.45208">
        <ele>625.47</ele>
        <time>2015-05-01T13:49:31Z</time>
      </trkpt>
      <trkpt lat="43.81097" lon="7.45221">
        <ele>624.51</ele>
        <time>2015-05-01T13:49:40Z</time>
      </trkpt>
      <trkpt lat="43.81096" lon="7.45222">
        <ele>624.51</ele>
        <time>2015-05-01T13:49:41Z</time>
      </trkpt>
      <trkpt lat="43.81095" lon="7.45223">
        <ele>624.51</ele>
        <time>2015-05-01T13:49:42Z</time>
      </trkpt>
      <trkpt lat="43.81094" lon="7.45224">
        <ele>624.51</ele>
        <time>2015-05-01T13:49:43Z</time>
      </trkpt>
      <trkpt lat="43.81093" lon="7.45224">
        <ele>624.51</ele>
        <time>2015-05-01T13:49:44Z</time>
      </trkpt>
      <trkpt lat="43.81087" lon="7.45233">
        <ele>623.55</ele>
        <time>2015-05-01T13:49:53Z</time>
      </trkpt>
      <trkpt lat="43.81086" lon="7.45235">
        <ele>623.55</ele>
        <time>2015-05-01T13:49:54Z</time>
      </trkpt>
      <trkpt lat="43.81085" lon="7.45238">
        <ele>623.55</ele>
        <time>2015-05-01T13:49:56Z</time>
      </trkpt>
      <trkpt lat="43.81078" lon="7.45244">
        <ele>621.63</ele>
        <time>2015-05-01T13:50:07Z</time>
      </trkpt>
      <trkpt lat="43.81076" lon="7.45244">
        <ele>621.63</ele>
        <time>2015-05-01T13:50:08Z</time>
      </trkpt>
      <trkpt lat="43.81075" lon="7.45244">
        <ele>621.63</ele>
        <time>2015-05-01T13:50:09Z</time>
      </trkpt>
      <trkpt lat="43.81073" lon="7.45245">
        <ele>621.63</ele>
        <time>2015-05-01T13:50:10Z</time>
      </trkpt>
      <trkpt lat="43.81071" lon="7.45245">
        <ele>621.15</ele>
        <time>2015-05-01T13:50:11Z</time>
      </trkpt>
      <trkpt lat="43.81069" lon="7.45246">
        <ele>621.15</ele>
        <time>2015-05-01T13:50:12Z</time>
      </trkpt>
      <trkpt lat="43.81068" lon="7.45248">
        <ele>621.15</ele>
        <time>2015-05-01T13:50:13Z</time>
      </trkpt>
      <trkpt lat="43.81066" lon="7.45249">
        <ele>621.15</ele>
        <time>2015-05-01T13:50:14Z</time>
      </trkpt>
      <trkpt lat="43.81065" lon="7.45254">
        <ele>621.15</ele>
        <time>2015-05-01T13:50:18Z</time>
      </trkpt>
      <trkpt lat="43.81065" lon="7.45255">
        <ele>620.67</ele>
        <time>2015-05-01T13:50:19Z</time>
      </trkpt>
      <trkpt lat="43.81067" lon="7.45262">
        <ele>621.15</ele>
        <time>2015-05-01T13:50:23Z</time>
      </trkpt>
      <trkpt lat="43.8107" lon="7.45269">
        <ele>620.67</ele>
        <time>2015-05-01T13:50:27Z</time>
      </trkpt>
      <trkpt lat="43.81067" lon="7.45289">
        <ele>618.26</ele>
        <time>2015-05-01T13:50:39Z</time>
      </trkpt>
      <trkpt lat="43.81062" lon="7.45303">
        <ele>616.34</ele>
        <time>2015-05-01T13:50:50Z</time>
      </trkpt>
      <trkpt lat="43.81061" lon="7.45305">
        <ele>615.38</ele>
        <time>2015-05-01T13:50:52Z</time>
      </trkpt>
      <trkpt lat="43.81058" lon="7.45315">
        <ele>613.94</ele>
        <time>2015-05-01T13:51:02Z</time>
      </trkpt>
      <trkpt lat="43.81049" lon="7.45336">
        <ele>611.54</ele>
        <time>2015-05-01T13:51:15Z</time>
      </trkpt>
      <trkpt lat="43.81048" lon="7.45336">
        <ele>611.54</ele>
        <time>2015-05-01T13:51:16Z</time>
      </trkpt>
      <trkpt lat="43.81034" lon="7.45331">
        <ele>610.09</ele>
        <time>2015-05-01T13:51:31Z</time>
      </trkpt>
      <trkpt lat="43.81023" lon="7.45333">
        <ele>610.09</ele>
        <time>2015-05-01T13:51:39Z</time>
      </trkpt>
      <trkpt lat="43.81021" lon="7.45333">
        <ele>610.09</ele>
        <time>2015-05-01T13:51:41Z</time>
      </trkpt>
      <trkpt lat="43.8102" lon="7.45333">
        <ele>610.09</ele>
        <time>2015-05-01T13:51:42Z</time>
      </trkpt>
      <trkpt lat="43.81019" lon="7.45333">
        <ele>610.09</ele>
        <time>2015-05-01T13:51:43Z</time>
      </trkpt>
      <trkpt lat="43.81017" lon="7.45334">
        <ele>610.09</ele>
        <time>2015-05-01T13:51:44Z</time>
      </trkpt>
      <trkpt lat="43.81016" lon="7.45334">
        <ele>610.09</ele>
        <time>2015-05-01T13:51:45Z</time>
      </trkpt>
      <trkpt lat="43.81004" lon="7.45339">
        <ele>611.54</ele>
        <time>2015-05-01T13:51:57Z</time>
      </trkpt>
      <trkpt lat="43.81003" lon="7.4534">
        <ele>611.54</ele>
        <time>2015-05-01T13:51:58Z</time>
      </trkpt>
      <trkpt lat="43.81002" lon="7.45342">
        <ele>611.54</ele>
        <time>2015-05-01T13:51:59Z</time>
      </trkpt>
      <trkpt lat="43.81" lon="7.45343">
        <ele>611.54</ele>
        <time>2015-05-01T13:52:00Z</time>
      </trkpt>
      <trkpt lat="43.80999" lon="7.45344">
        <ele>611.54</ele>
        <time>2015-05-01T13:52:01Z</time>
      </trkpt>
      <trkpt lat="43.80997" lon="7.45345">
        <ele>611.54</ele>
        <time>2015-05-01T13:52:02Z</time>
      </trkpt>
      <trkpt lat="43.80996" lon="7.45346">
        <ele>611.54</ele>
        <time>2015-05-01T13:52:03Z</time>
      </trkpt>
      <trkpt lat="43.80993" lon="7.45349">
        <ele>612.02</ele>
        <time>2015-05-01T13:52:06Z</time>
      </trkpt>
      <trkpt lat="43.80981" lon="7.45366">
        <ele>612.02</ele>
        <time>2015-05-01T13:52:17Z</time>
      </trkpt>
      <trkpt lat="43.80974" lon="7.45394">
        <ele>612.02</ele>
        <time>2015-05-01T13:52:32Z</time>
      </trkpt>
      <trkpt lat="43.80972" lon="7.45395">
        <ele>612.02</ele>
        <time>2015-05-01T13:52:34Z</time>
      </trkpt>
      <trkpt lat="43.8097" lon="7.45395">
        <ele>610.57</ele>
        <time>2015-05-01T13:52:35Z</time>
      </trkpt>
      <trkpt lat="43.80969" lon="7.45395">
        <ele>610.57</ele>
        <time>2015-05-01T13:52:36Z</time>
      </trkpt>
      <trkpt lat="43.80951" lon="7.45392">
        <ele>610.57</ele>
        <time>2015-05-01T13:52:50Z</time>
      </trkpt>
      <trkpt lat="43.80943" lon="7.45392">
        <ele>610.57</ele>
        <time>2015-05-01T13:52:56Z</time>
      </trkpt>
      <trkpt lat="43.80928" lon="7.45393">
        <ele>610.57</ele>
        <time>2015-05-01T13:53:07Z</time>
      </trkpt>
      <trkpt lat="43.80913" lon="7.454">
        <ele>609.61</ele>
        <time>2015-05-01T13:53:20Z</time>
      </trkpt>
      <trkpt lat="43.809" lon="7.45404">
        <ele>608.17</ele>
        <time>2015-05-01T13:53:32Z</time>
      </trkpt>
      <trkpt lat="43.8088" lon="7.45406">
        <ele>606.73</ele>
        <time>2015-05-01T13:53:47Z</time>
      </trkpt>
      <trkpt lat="43.80864" lon="7.45404">
        <ele>606.25</ele>
        <time>2015-05-01T13:54:00Z</time>
      </trkpt>
      <trkpt lat="43.80859" lon="7.45403">
        <ele>606.25</ele>
        <time>2015-05-01T13:54:04Z</time>
      </trkpt>
      <trkpt lat="43.80845" lon="7.45405">
        <ele>606.73</ele>
        <time>2015-05-01T13:54:16Z</time>
      </trkpt>
      <trkpt lat="43.80834" lon="7.45404">
        <ele>606.73</ele>
        <time>2015-05-01T13:54:25Z</time>
      </trkpt>
      <trkpt lat="43.80818" lon="7.45411">
        <ele>606.73</ele>
        <time>2015-05-01T13:54:38Z</time>
      </trkpt>
      <trkpt lat="43.80815" lon="7.45413">
        <ele>606.73</ele>
        <time>2015-05-01T13:54:40Z</time>
      </trkpt>
      <trkpt lat="43.80814" lon="7.45413">
        <ele>606.73</ele>
        <time>2015-05-01T13:54:41Z</time>
      </trkpt>
      <trkpt lat="43.80798" lon="7.4542">
        <ele>604.81</ele>
        <time>2015-05-01T13:54:56Z</time>
      </trkpt>
      <trkpt lat="43.80782" lon="7.45424">
        <ele>602.88</ele>
        <time>2015-05-01T13:55:10Z</time>
      </trkpt>
      <trkpt lat="43.80776" lon="7.45424">
        <ele>601.92</ele>
        <time>2015-05-01T13:55:16Z</time>
      </trkpt>
      <trkpt lat="43.80769" lon="7.45422">
        <ele>600.96</ele>
        <time>2015-05-01T13:55:22Z</time>
      </trkpt>
      <trkpt lat="43.80759" lon="7.45414">
        <ele>599.52</ele>
        <time>2015-05-01T13:55:35Z</time>
      </trkpt>
      <trkpt lat="43.80754" lon="7.45406">
        <ele>598.56</ele>
        <time>2015-05-01T13:55:42Z</time>
      </trkpt>
      <trkpt lat="43.80754" lon="7.45405">
        <ele>598.56</ele>
        <time>2015-05-01T13:55:43Z</time>
      </trkpt>
      <trkpt lat="43.80746" lon="7.45391">
        <ele>597.12</ele>
        <time>2015-05-01T13:55:55Z</time>
      </trkpt>
      <trkpt lat="43.8074" lon="7.45377">
        <ele>596.15</ele>
        <time>2015-05-01T13:56:06Z</time>
      </trkpt>
      <trkpt lat="43.8074" lon="7.45375">
        <ele>595.67</ele>
        <time>2015-05-01T13:56:07Z</time>
      </trkpt>
      <trkpt lat="43.80737" lon="7.45367">
        <ele>594.71</ele>
        <time>2015-05-01T13:56:13Z</time>
      </trkpt>
      <trkpt lat="43.80728" lon="7.4536">
        <ele>593.27</ele>
        <time>2015-05-01T13:56:24Z</time>
      </trkpt>
      <trkpt lat="43.80721" lon="7.45356">
        <ele>591.35</ele>
        <time>2015-05-01T13:56:38Z</time>
      </trkpt>
      <trkpt lat="43.80718" lon="7.45352">
        <ele>590.39</ele>
        <time>2015-05-01T13:56:45Z</time>
      </trkpt>
      <trkpt lat="43.80712" lon="7.45349">
        <ele>588.95</ele>
        <time>2015-05-01T13:56:53Z</time>
      </trkpt>
      <trkpt lat="43.80711" lon="7.45349">
        <ele>588.95</ele>
        <time>2015-05-01T13:56:54Z</time>
      </trkpt>
      <trkpt lat="43.80708" lon="7.45347">
        <ele>588.95</ele>
        <time>2015-05-01T13:56:57Z</time>
      </trkpt>
      <trkpt lat="43.80703" lon="7.45341">
        <ele>588.46</ele>
        <time>2015-05-01T13:57:03Z</time>
      </trkpt>
      <trkpt lat="43.80702" lon="7.4534">
        <ele>587.98</ele>
        <time>2015-05-01T13:57:04Z</time>
      </trkpt>
      <trkpt lat="43.80701" lon="7.45339">
        <ele>587.98</ele>
        <time>2015-05-01T13:57:05Z</time>
      </trkpt>
      <trkpt lat="43.80699" lon="7.45339">
        <ele>587.98</ele>
        <time>2015-05-01T13:57:06Z</time>
      </trkpt>
      <trkpt lat="43.80698" lon="7.45337">
        <ele>587.98</ele>
        <time>2015-05-01T13:57:07Z</time>
      </trkpt>
      <trkpt lat="43.8069" lon="7.45321">
        <ele>587.02</ele>
        <time>2015-05-01T13:57:17Z</time>
      </trkpt>
      <trkpt lat="43.80687" lon="7.45319">
        <ele>587.02</ele>
        <time>2015-05-01T13:57:18Z</time>
      </trkpt>
      <trkpt lat="43.80686" lon="7.45319">
        <ele>587.02</ele>
        <time>2015-05-01T13:57:19Z</time>
      </trkpt>
      <trkpt lat="43.80664" lon="7.45314">
        <ele>586.54</ele>
        <time>2015-05-01T13:57:33Z</time>
      </trkpt>
      <trkpt lat="43.80662" lon="7.45319">
        <ele>586.54</ele>
        <time>2015-05-01T13:57:36Z</time>
      </trkpt>
      <trkpt lat="43.80662" lon="7.45323">
        <ele>586.54</ele>
        <time>2015-05-01T13:57:38Z</time>
      </trkpt>
      <trkpt lat="43.80663" lon="7.45325">
        <ele>586.54</ele>
        <time>2015-05-01T13:57:39Z</time>
      </trkpt>
      <trkpt lat="43.80663" lon="7.45327">
        <ele>586.54</ele>
        <time>2015-05-01T13:57:40Z</time>
      </trkpt>
      <trkpt lat="43.80663" lon="7.45328">
        <ele>586.54</ele>
        <time>2015-05-01T13:57:41Z</time>
      </trkpt>
      <trkpt lat="43.80663" lon="7.45331">
        <ele>586.54</ele>
        <time>2015-05-01T13:57:42Z</time>
      </trkpt>
      <trkpt lat="43.80662" lon="7.45332">
        <ele>586.54</ele>
        <time>2015-05-01T13:57:43Z</time>
      </trkpt>
      <trkpt lat="43.80662" lon="7.45335">
        <ele>586.54</ele>
        <time>2015-05-01T13:57:44Z</time>
      </trkpt>
      <trkpt lat="43.80661" lon="7.45337">
        <ele>586.54</ele>
        <time>2015-05-01T13:57:45Z</time>
      </trkpt>
      <trkpt lat="43.80657" lon="7.45352">
        <ele>586.54</ele>
        <time>2015-05-01T13:57:56Z</time>
      </trkpt>
      <trkpt lat="43.80656" lon="7.45353">
        <ele>586.54</ele>
        <time>2015-05-01T13:57:57Z</time>
      </trkpt>
      <trkpt lat="43.80655" lon="7.45354">
        <ele>587.98</ele>
        <time>2015-05-01T13:57:59Z</time>
      </trkpt>
      <trkpt lat="43.80653" lon="7.45358">
        <ele>588.46</ele>
        <time>2015-05-01T13:58:02Z</time>
      </trkpt>
      <trkpt lat="43.8065" lon="7.45366">
        <ele>589.91</ele>
        <time>2015-05-01T13:58:08Z</time>
      </trkpt>
      <trkpt lat="43.80646" lon="7.45376">
        <ele>592.31</ele>
        <time>2015-05-01T13:58:19Z</time>
      </trkpt>
      <trkpt lat="43.80645" lon="7.45378">
        <ele>592.31</ele>
        <time>2015-05-01T13:58:21Z</time>
      </trkpt>
      <trkpt lat="43.80643" lon="7.45382">
        <ele>593.27</ele>
        <time>2015-05-01T13:58:27Z</time>
      </trkpt>
      <trkpt lat="43.80641" lon="7.45387">
        <ele>593.75</ele>
        <time>2015-05-01T13:58:31Z</time>
      </trkpt>
      <trkpt lat="43.80638" lon="7.45398">
        <ele>594.71</ele>
        <time>2015-05-01T13:58:41Z</time>
      </trkpt>
      <trkpt lat="43.8063" lon="7.45405">
        <ele>596.15</ele>
        <time>2015-05-01T13:58:54Z</time>
      </trkpt>
      <trkpt lat="43.80621" lon="7.45411">
        <ele>597.6</ele>
        <time>2015-05-01T13:59:07Z</time>
      </trkpt>
      <trkpt lat="43.8061" lon="7.45416">
        <ele>599.52</ele>
        <time>2015-05-01T13:59:20Z</time>
      </trkpt>
      <trkpt lat="43.80601" lon="7.45423">
        <ele>601.44</ele>
        <time>2015-05-01T13:59:33Z</time>
      </trkpt>
      <trkpt lat="43.80592" lon="7.45433">
        <ele>601.92</ele>
        <time>2015-05-01T13:59:44Z</time>
      </trkpt>
      <trkpt lat="43.80584" lon="7.4545">
        <ele>602.88</ele>
        <time>2015-05-01T13:59:58Z</time>
      </trkpt>
      <trkpt lat="43.80581" lon="7.45453">
        <ele>603.36</ele>
        <time>2015-05-01T14:00:01Z</time>
      </trkpt>
      <trkpt lat="43.8058" lon="7.45455">
        <ele>603.85</ele>
        <time>2015-05-01T14:00:03Z</time>
      </trkpt>
      <trkpt lat="43.80571" lon="7.45474">
        <ele>604.81</ele>
        <time>2015-05-01T14:00:18Z</time>
      </trkpt>
      <trkpt lat="43.80567" lon="7.45479">
        <ele>605.29</ele>
        <time>2015-05-01T14:00:23Z</time>
      </trkpt>
      <trkpt lat="43.80566" lon="7.4548">
        <ele>605.29</ele>
        <time>2015-05-01T14:00:25Z</time>
      </trkpt>
      <trkpt lat="43.8056" lon="7.45485">
        <ele>605.29</ele>
        <time>2015-05-01T14:00:32Z</time>
      </trkpt>
      <trkpt lat="43.80552" lon="7.45494">
        <ele>605.29</ele>
        <time>2015-05-01T14:00:41Z</time>
      </trkpt>
      <trkpt lat="43.80551" lon="7.45495">
        <ele>605.29</ele>
        <time>2015-05-01T14:00:42Z</time>
      </trkpt>
      <trkpt lat="43.8055" lon="7.45497">
        <ele>605.29</ele>
        <time>2015-05-01T14:00:43Z</time>
      </trkpt>
      <trkpt lat="43.80549" lon="7.45498">
        <ele>605.29</ele>
        <time>2015-05-01T14:00:44Z</time>
      </trkpt>
      <trkpt lat="43.80546" lon="7.45504">
        <ele>605.29</ele>
        <time>2015-05-01T14:00:48Z</time>
      </trkpt>
      <trkpt lat="43.80537" lon="7.45515">
        <ele>605.29</ele>
        <time>2015-05-01T14:00:57Z</time>
      </trkpt>
      <trkpt lat="43.80536" lon="7.45516">
        <ele>605.29</ele>
        <time>2015-05-01T14:00:58Z</time>
      </trkpt>
      <trkpt lat="43.80535" lon="7.45517">
        <ele>605.29</ele>
        <time>2015-05-01T14:00:59Z</time>
      </trkpt>
      <trkpt lat="43.80523" lon="7.45525">
        <ele>605.77</ele>
        <time>2015-05-01T14:01:12Z</time>
      </trkpt>
      <trkpt lat="43.80512" lon="7.45531">
        <ele>606.25</ele>
        <time>2015-05-01T14:01:21Z</time>
      </trkpt>
      <trkpt lat="43.80498" lon="7.45538">
        <ele>607.21</ele>
        <time>2015-05-01T14:01:34Z</time>
      </trkpt>
      <trkpt lat="43.80493" lon="7.45544">
        <ele>607.21</ele>
        <time>2015-05-01T14:01:39Z</time>
      </trkpt>
      <trkpt lat="43.8048" lon="7.4556">
        <ele>606.73</ele>
        <time>2015-05-01T14:01:52Z</time>
      </trkpt>
      <trkpt lat="43.80476" lon="7.45562">
        <ele>606.73</ele>
        <time>2015-05-01T14:01:57Z</time>
      </trkpt>
      <trkpt lat="43.80475" lon="7.45563">
        <ele>607.69</ele>
        <time>2015-05-01T14:01:58Z</time>
      </trkpt>
      <trkpt lat="43.80473" lon="7.45564">
        <ele>607.69</ele>
        <time>2015-05-01T14:01:59Z</time>
      </trkpt>
      <trkpt lat="43.80465" lon="7.45569">
        <ele>607.69</ele>
        <time>2015-05-01T14:02:12Z</time>
      </trkpt>
      <trkpt lat="43.80464" lon="7.4557">
        <ele>608.17</ele>
        <time>2015-05-01T14:02:13Z</time>
      </trkpt>
      <trkpt lat="43.80463" lon="7.4557">
        <ele>608.17</ele>
        <time>2015-05-01T14:02:14Z</time>
      </trkpt>
      <trkpt lat="43.80447" lon="7.45569">
        <ele>608.17</ele>
        <time>2015-05-01T14:02:29Z</time>
      </trkpt>
      <trkpt lat="43.80433" lon="7.45565">
        <ele>608.17</ele>
        <time>2015-05-01T14:02:45Z</time>
      </trkpt>
      <trkpt lat="43.80426" lon="7.45564">
        <ele>608.65</ele>
        <time>2015-05-01T14:02:53Z</time>
      </trkpt>
      <trkpt lat="43.80417" lon="7.45558">
        <ele>609.61</ele>
        <time>2015-05-01T14:03:00Z</time>
      </trkpt>
      <trkpt lat="43.80416" lon="7.45556">
        <ele>610.09</ele>
        <time>2015-05-01T14:03:01Z</time>
      </trkpt>
      <trkpt lat="43.80408" lon="7.45553">
        <ele>611.54</ele>
        <time>2015-05-01T14:03:08Z</time>
      </trkpt>
      <trkpt lat="43.80407" lon="7.45554">
        <ele>611.54</ele>
        <time>2015-05-01T14:03:09Z</time>
      </trkpt>
      <trkpt lat="43.80403" lon="7.45556">
        <ele>612.5</ele>
        <time>2015-05-01T14:03:12Z</time>
      </trkpt>
      <trkpt lat="43.80402" lon="7.45557">
        <ele>612.5</ele>
        <time>2015-05-01T14:03:13Z</time>
      </trkpt>
      <trkpt lat="43.80401" lon="7.45559">
        <ele>612.5</ele>
        <time>2015-05-01T14:03:14Z</time>
      </trkpt>
      <trkpt lat="43.80397" lon="7.45563">
        <ele>613.46</ele>
        <time>2015-05-01T14:03:18Z</time>
      </trkpt>
      <trkpt lat="43.80389" lon="7.45578">
        <ele>615.38</ele>
        <time>2015-05-01T14:03:30Z</time>
      </trkpt>
      <trkpt lat="43.80383" lon="7.45587">
        <ele>616.82</ele>
        <time>2015-05-01T14:03:41Z</time>
      </trkpt>
      <trkpt lat="43.80378" lon="7.45595">
        <ele>616.82</ele>
        <time>2015-05-01T14:03:47Z</time>
      </trkpt>
      <trkpt lat="43.80377" lon="7.45597">
        <ele>616.82</ele>
        <time>2015-05-01T14:03:48Z</time>
      </trkpt>
      <trkpt lat="43.80363" lon="7.45603">
        <ele>615.38</ele>
        <time>2015-05-01T14:04:01Z</time>
      </trkpt>
      <trkpt lat="43.80344" lon="7.45601">
        <ele>614.42</ele>
        <time>2015-05-01T14:04:16Z</time>
      </trkpt>
      <trkpt lat="43.80338" lon="7.45599">
        <ele>613.94</ele>
        <time>2015-05-01T14:04:22Z</time>
      </trkpt>
      <trkpt lat="43.80327" lon="7.45597">
        <ele>612.98</ele>
        <time>2015-05-01T14:04:32Z</time>
      </trkpt>
      <trkpt lat="43.80326" lon="7.45597">
        <ele>613.46</ele>
        <time>2015-05-01T14:04:33Z</time>
      </trkpt>
      <trkpt lat="43.80306" lon="7.456">
        <ele>612.02</ele>
        <time>2015-05-01T14:04:48Z</time>
      </trkpt>
      <trkpt lat="43.80292" lon="7.456">
        <ele>611.54</ele>
        <time>2015-05-01T14:05:02Z</time>
      </trkpt>
      <trkpt lat="43.80286" lon="7.45598">
        <ele>611.06</ele>
        <time>2015-05-01T14:05:07Z</time>
      </trkpt>
      <trkpt lat="43.80278" lon="7.45601">
        <ele>610.57</ele>
        <time>2015-05-01T14:05:12Z</time>
      </trkpt>
      <trkpt lat="43.80277" lon="7.45604">
        <ele>610.57</ele>
        <time>2015-05-01T14:05:14Z</time>
      </trkpt>
      <trkpt lat="43.80276" lon="7.45605">
        <ele>610.57</ele>
        <time>2015-05-01T14:05:15Z</time>
      </trkpt>
      <trkpt lat="43.80274" lon="7.45607">
        <ele>610.57</ele>
        <time>2015-05-01T14:05:16Z</time>
      </trkpt>
      <trkpt lat="43.80273" lon="7.45608">
        <ele>610.57</ele>
        <time>2015-05-01T14:05:17Z</time>
      </trkpt>
      <trkpt lat="43.80272" lon="7.45609">
        <ele>610.57</ele>
        <time>2015-05-01T14:05:18Z</time>
      </trkpt>
      <trkpt lat="43.80263" lon="7.45628">
        <ele>609.61</ele>
        <time>2015-05-01T14:05:30Z</time>
      </trkpt>
      <trkpt lat="43.80257" lon="7.45657">
        <ele>608.65</ele>
        <time>2015-05-01T14:05:44Z</time>
      </trkpt>
      <trkpt lat="43.80255" lon="7.4567">
        <ele>608.65</ele>
        <time>2015-05-01T14:05:51Z</time>
      </trkpt>
      <trkpt lat="43.80254" lon="7.45672">
        <ele>608.65</ele>
        <time>2015-05-01T14:05:52Z</time>
      </trkpt>
      <trkpt lat="43.80252" lon="7.45685">
        <ele>608.17</ele>
        <time>2015-05-01T14:06:01Z</time>
      </trkpt>
      <trkpt lat="43.80252" lon="7.45688">
        <ele>608.17</ele>
        <time>2015-05-01T14:06:03Z</time>
      </trkpt>
      <trkpt lat="43.80249" lon="7.45701">
        <ele>607.69</ele>
        <time>2015-05-01T14:06:12Z</time>
      </trkpt>
      <trkpt lat="43.80247" lon="7.45706">
        <ele>607.69</ele>
        <time>2015-05-01T14:06:16Z</time>
      </trkpt>
      <trkpt lat="43.80247" lon="7.45708">
        <ele>607.69</ele>
        <time>2015-05-01T14:06:17Z</time>
      </trkpt>
      <trkpt lat="43.80247" lon="7.45709">
        <ele>607.69</ele>
        <time>2015-05-01T14:06:18Z</time>
      </trkpt>
      <trkpt lat="43.80246" lon="7.45711">
        <ele>607.69</ele>
        <time>2015-05-01T14:06:19Z</time>
      </trkpt>
      <trkpt lat="43.80245" lon="7.45713">
        <ele>607.69</ele>
        <time>2015-05-01T14:06:20Z</time>
      </trkpt>
      <trkpt lat="43.80239" lon="7.4573">
        <ele>607.69</ele>
        <time>2015-05-01T14:06:31Z</time>
      </trkpt>
      <trkpt lat="43.80239" lon="7.45732">
        <ele>607.69</ele>
        <time>2015-05-01T14:06:32Z</time>
      </trkpt>
      <trkpt lat="43.80238" lon="7.45736">
        <ele>607.69</ele>
        <time>2015-05-01T14:06:34Z</time>
      </trkpt>
      <trkpt lat="43.80237" lon="7.45738">
        <ele>607.69</ele>
        <time>2015-05-01T14:06:35Z</time>
      </trkpt>
      <trkpt lat="43.80235" lon="7.45747">
        <ele>607.21</ele>
        <time>2015-05-01T14:06:41Z</time>
      </trkpt>
      <trkpt lat="43.80235" lon="7.4575">
        <ele>607.21</ele>
        <time>2015-05-01T14:06:43Z</time>
      </trkpt>
      <trkpt lat="43.80235" lon="7.45752">
        <ele>607.21</ele>
        <time>2015-05-01T14:06:44Z</time>
      </trkpt>
      <trkpt lat="43.80234" lon="7.45762">
        <ele>606.73</ele>
        <time>2015-05-01T14:06:51Z</time>
      </trkpt>
      <trkpt lat="43.80236" lon="7.45775">
        <ele>606.25</ele>
        <time>2015-05-01T14:06:58Z</time>
      </trkpt>
      <trkpt lat="43.80236" lon="7.45782">
        <ele>606.25</ele>
        <time>2015-05-01T14:07:03Z</time>
      </trkpt>
      <trkpt lat="43.80236" lon="7.45784">
        <ele>606.25</ele>
        <time>2015-05-01T14:07:04Z</time>
      </trkpt>
      <trkpt lat="43.80239" lon="7.45802">
        <ele>605.29</ele>
        <time>2015-05-01T14:07:17Z</time>
      </trkpt>
      <trkpt lat="43.80245" lon="7.45826">
        <ele>605.29</ele>
        <time>2015-05-01T14:07:30Z</time>
      </trkpt>
      <trkpt lat="43.80244" lon="7.45838">
        <ele>604.81</ele>
        <time>2015-05-01T14:07:45Z</time>
      </trkpt>
      <trkpt lat="43.80242" lon="7.45842">
        <ele>604.81</ele>
        <time>2015-05-01T14:08:06Z</time>
      </trkpt>
      <trkpt lat="43.80241" lon="7.45846">
        <ele>606.25</ele>
        <time>2015-05-01T14:08:11Z</time>
      </trkpt>
      <trkpt lat="43.8024" lon="7.45847">
        <ele>606.25</ele>
        <time>2015-05-01T14:08:12Z</time>
      </trkpt>
      <trkpt lat="43.80238" lon="7.45862">
        <ele>607.69</ele>
        <time>2015-05-01T14:08:24Z</time>
      </trkpt>
      <trkpt lat="43.80236" lon="7.45876">
        <ele>608.65</ele>
        <time>2015-05-01T14:08:35Z</time>
      </trkpt>
      <trkpt lat="43.8023" lon="7.45894">
        <ele>610.09</ele>
        <time>2015-05-01T14:08:48Z</time>
      </trkpt>
      <trkpt lat="43.8023" lon="7.45896">
        <ele>610.57</ele>
        <time>2015-05-01T14:08:49Z</time>
      </trkpt>
      <trkpt lat="43.80224" lon="7.45912">
        <ele>612.02</ele>
        <time>2015-05-01T14:09:01Z</time>
      </trkpt>
      <trkpt lat="43.80215" lon="7.45926">
        <ele>613.94</ele>
        <time>2015-05-01T14:09:15Z</time>
      </trkpt>
      <trkpt lat="43.80209" lon="7.45938">
        <ele>614.9</ele>
        <time>2015-05-01T14:09:26Z</time>
      </trkpt>
      <trkpt lat="43.80203" lon="7.45943">
        <ele>616.34</ele>
        <time>2015-05-01T14:09:34Z</time>
      </trkpt>
      <trkpt lat="43.802" lon="7.45946">
        <ele>616.82</ele>
        <time>2015-05-01T14:09:38Z</time>
      </trkpt>
      <trkpt lat="43.80199" lon="7.45949">
        <ele>616.82</ele>
        <time>2015-05-01T14:09:41Z</time>
      </trkpt>
      <trkpt lat="43.80192" lon="7.45956">
        <ele>618.26</ele>
        <time>2015-05-01T14:09:52Z</time>
      </trkpt>
      <trkpt lat="43.80185" lon="7.45966">
        <ele>619.23</ele>
        <time>2015-05-01T14:10:03Z</time>
      </trkpt>
      <trkpt lat="43.8018" lon="7.45976">
        <ele>620.67</ele>
        <time>2015-05-01T14:10:14Z</time>
      </trkpt>
      <trkpt lat="43.80171" lon="7.45984">
        <ele>622.59</ele>
        <time>2015-05-01T14:10:27Z</time>
      </trkpt>
      <trkpt lat="43.80169" lon="7.45986">
        <ele>622.59</ele>
        <time>2015-05-01T14:10:30Z</time>
      </trkpt>
      <trkpt lat="43.80166" lon="7.45991">
        <ele>623.07</ele>
        <time>2015-05-01T14:10:36Z</time>
      </trkpt>
      <trkpt lat="43.80159" lon="7.45997">
        <ele>624.51</ele>
        <time>2015-05-01T14:10:46Z</time>
      </trkpt>
      <trkpt lat="43.80151" lon="7.46005">
        <ele>626.44</ele>
        <time>2015-05-01T14:10:59Z</time>
      </trkpt>
      <trkpt lat="43.80144" lon="7.46012">
        <ele>627.4</ele>
        <time>2015-05-01T14:11:10Z</time>
      </trkpt>
      <trkpt lat="43.80138" lon="7.46019">
        <ele>629.32</ele>
        <time>2015-05-01T14:11:22Z</time>
      </trkpt>
      <trkpt lat="43.80135" lon="7.46024">
        <ele>629.8</ele>
        <time>2015-05-01T14:11:28Z</time>
      </trkpt>
      <trkpt lat="43.80133" lon="7.46028">
        <ele>630.28</ele>
        <time>2015-05-01T14:11:38Z</time>
      </trkpt>
      <trkpt lat="43.80127" lon="7.46033">
        <ele>632.2</ele>
        <time>2015-05-01T14:11:53Z</time>
      </trkpt>
      <trkpt lat="43.80122" lon="7.46041">
        <ele>633.65</ele>
        <time>2015-05-01T14:12:06Z</time>
      </trkpt>
      <trkpt lat="43.80116" lon="7.46049">
        <ele>635.09</ele>
        <time>2015-05-01T14:12:20Z</time>
      </trkpt>
      <trkpt lat="43.80114" lon="7.46053">
        <ele>637.01</ele>
        <time>2015-05-01T14:12:33Z</time>
      </trkpt>
      <trkpt lat="43.80119" lon="7.46058">
        <ele>638.93</ele>
        <time>2015-05-01T14:12:48Z</time>
      </trkpt>
      <trkpt lat="43.80121" lon="7.46065">
        <ele>640.38</ele>
        <time>2015-05-01T14:13:00Z</time>
      </trkpt>
      <trkpt lat="43.80117" lon="7.46068">
        <ele>640.86</ele>
        <time>2015-05-01T14:13:17Z</time>
      </trkpt>
      <trkpt lat="43.80118" lon="7.46073">
        <ele>640.86</ele>
        <time>2015-05-01T14:13:41Z</time>
      </trkpt>
      <trkpt lat="43.80116" lon="7.46085">
        <ele>641.82</ele>
        <time>2015-05-01T14:13:53Z</time>
      </trkpt>
      <trkpt lat="43.80109" lon="7.46104">
        <ele>643.26</ele>
        <time>2015-05-01T14:14:08Z</time>
      </trkpt>
      <trkpt lat="43.80108" lon="7.46114">
        <ele>644.22</ele>
        <time>2015-05-01T14:14:17Z</time>
      </trkpt>
      <trkpt lat="43.80108" lon="7.46116">
        <ele>644.22</ele>
        <time>2015-05-01T14:14:18Z</time>
      </trkpt>
      <trkpt lat="43.80106" lon="7.4612">
        <ele>644.7</ele>
        <time>2015-05-01T14:14:22Z</time>
      </trkpt>
      <trkpt lat="43.80106" lon="7.46122">
        <ele>644.7</ele>
        <time>2015-05-01T14:14:23Z</time>
      </trkpt>
      <trkpt lat="43.80101" lon="7.46138">
        <ele>645.66</ele>
        <time>2015-05-01T14:14:35Z</time>
      </trkpt>
      <trkpt lat="43.801" lon="7.46155">
        <ele>647.59</ele>
        <time>2015-05-01T14:14:47Z</time>
      </trkpt>
      <trkpt lat="43.80103" lon="7.46176">
        <ele>649.03</ele>
        <time>2015-05-01T14:15:03Z</time>
      </trkpt>
      <trkpt lat="43.80111" lon="7.46199">
        <ele>650.95</ele>
        <time>2015-05-01T14:15:19Z</time>
      </trkpt>
      <trkpt lat="43.80112" lon="7.46201">
        <ele>650.95</ele>
        <time>2015-05-01T14:15:20Z</time>
      </trkpt>
      <trkpt lat="43.80117" lon="7.4621">
        <ele>651.91</ele>
        <time>2015-05-01T14:15:28Z</time>
      </trkpt>
      <trkpt lat="43.80119" lon="7.46213">
        <ele>652.39</ele>
        <time>2015-05-01T14:15:30Z</time>
      </trkpt>
      <trkpt lat="43.8012" lon="7.46214">
        <ele>652.39</ele>
        <time>2015-05-01T14:15:31Z</time>
      </trkpt>
      <trkpt lat="43.80131" lon="7.46224">
        <ele>652.87</ele>
        <time>2015-05-01T14:15:42Z</time>
      </trkpt>
      <trkpt lat="43.80139" lon="7.46237">
        <ele>654.31</ele>
        <time>2015-05-01T14:15:56Z</time>
      </trkpt>
      <trkpt lat="43.80132" lon="7.46234">
        <ele>655.28</ele>
        <time>2015-05-01T14:16:04Z</time>
      </trkpt>
      <trkpt lat="43.80128" lon="7.46234">
        <ele>656.24</ele>
        <time>2015-05-01T14:16:16Z</time>
      </trkpt>
      <trkpt lat="43.80121" lon="7.4623">
        <ele>656.72</ele>
        <time>2015-05-01T14:16:24Z</time>
      </trkpt>
      <trkpt lat="43.80117" lon="7.46228">
        <ele>657.2</ele>
        <time>2015-05-01T14:16:29Z</time>
      </trkpt>
      <trkpt lat="43.80116" lon="7.46228">
        <ele>657.68</ele>
        <time>2015-05-01T14:16:30Z</time>
      </trkpt>
      <trkpt lat="43.80111" lon="7.46224">
        <ele>658.16</ele>
        <time>2015-05-01T14:16:34Z</time>
      </trkpt>
      <trkpt lat="43.8011" lon="7.4622">
        <ele>658.16</ele>
        <time>2015-05-01T14:16:36Z</time>
      </trkpt>
      <trkpt lat="43.80108" lon="7.46212">
        <ele>658.64</ele>
        <time>2015-05-01T14:16:41Z</time>
      </trkpt>
      <trkpt lat="43.80107" lon="7.4621">
        <ele>659.12</ele>
        <time>2015-05-01T14:16:42Z</time>
      </trkpt>
      <trkpt lat="43.80106" lon="7.46209">
        <ele>659.12</ele>
        <time>2015-05-01T14:16:43Z</time>
      </trkpt>
      <trkpt lat="43.80105" lon="7.46206">
        <ele>659.12</ele>
        <time>2015-05-01T14:16:45Z</time>
      </trkpt>
      <trkpt lat="43.80104" lon="7.46205">
        <ele>659.12</ele>
        <time>2015-05-01T14:16:46Z</time>
      </trkpt>
      <trkpt lat="43.80103" lon="7.46202">
        <ele>659.6</ele>
        <time>2015-05-01T14:16:49Z</time>
      </trkpt>
      <trkpt lat="43.80102" lon="7.46201">
        <ele>659.6</ele>
        <time>2015-05-01T14:16:50Z</time>
      </trkpt>
      <trkpt lat="43.80101" lon="7.46198">
        <ele>660.08</ele>
        <time>2015-05-01T14:16:53Z</time>
      </trkpt>
      <trkpt lat="43.80096" lon="7.46189">
        <ele>660.56</ele>
        <time>2015-05-01T14:17:03Z</time>
      </trkpt>
      <trkpt lat="43.80096" lon="7.46185">
        <ele>661.04</ele>
        <time>2015-05-01T14:17:06Z</time>
      </trkpt>
      <trkpt lat="43.80097" lon="7.46182">
        <ele>661.04</ele>
        <time>2015-05-01T14:17:11Z</time>
      </trkpt>
      <trkpt lat="43.8009" lon="7.46176">
        <ele>661.52</ele>
        <time>2015-05-01T14:17:23Z</time>
      </trkpt>
      <trkpt lat="43.80082" lon="7.46175">
        <ele>661.52</ele>
        <time>2015-05-01T14:17:35Z</time>
      </trkpt>
      <trkpt lat="43.80081" lon="7.46174">
        <ele>661.52</ele>
        <time>2015-05-01T14:17:36Z</time>
      </trkpt>
      <trkpt lat="43.80068" lon="7.46169">
        <ele>661.52</ele>
        <time>2015-05-01T14:17:50Z</time>
      </trkpt>
      <trkpt lat="43.80058" lon="7.46179">
        <ele>661.52</ele>
        <time>2015-05-01T14:18:06Z</time>
      </trkpt>
      <trkpt lat="43.80046" lon="7.46184">
        <ele>662.97</ele>
        <time>2015-05-01T14:18:23Z</time>
      </trkpt>
      <trkpt lat="43.80035" lon="7.4619">
        <ele>665.85</ele>
        <time>2015-05-01T14:18:41Z</time>
      </trkpt>
      <trkpt lat="43.80018" lon="7.462">
        <ele>668.25</ele>
        <time>2015-05-01T14:18:56Z</time>
      </trkpt>
      <trkpt lat="43.80004" lon="7.46203">
        <ele>669.22</ele>
        <time>2015-05-01T14:19:09Z</time>
      </trkpt>
      <trkpt lat="43.79994" lon="7.46206">
        <ele>670.18</ele>
        <time>2015-05-01T14:19:21Z</time>
      </trkpt>
      <trkpt lat="43.79981" lon="7.46214">
        <ele>670.66</ele>
        <time>2015-05-01T14:19:33Z</time>
      </trkpt>
      <trkpt lat="43.79975" lon="7.46216">
        <ele>671.14</ele>
        <time>2015-05-01T14:19:37Z</time>
      </trkpt>
      <trkpt lat="43.79965" lon="7.46221">
        <ele>672.58</ele>
        <time>2015-05-01T14:19:47Z</time>
      </trkpt>
      <trkpt lat="43.79962" lon="7.46226">
        <ele>673.06</ele>
        <time>2015-05-01T14:19:53Z</time>
      </trkpt>
      <trkpt lat="43.79956" lon="7.4623">
        <ele>673.54</ele>
        <time>2015-05-01T14:20:03Z</time>
      </trkpt>
      <trkpt lat="43.79949" lon="7.46228">
        <ele>673.54</ele>
        <time>2015-05-01T14:20:09Z</time>
      </trkpt>
      <trkpt lat="43.79938" lon="7.46222">
        <ele>673.06</ele>
        <time>2015-05-01T14:20:21Z</time>
      </trkpt>
      <trkpt lat="43.79937" lon="7.46221">
        <ele>673.06</ele>
        <time>2015-05-01T14:20:39Z</time>
      </trkpt>
      <trkpt lat="43.79937" lon="7.46223">
        <ele>673.06</ele>
        <time>2015-05-01T14:21:06Z</time>
      </trkpt>
      <trkpt lat="43.79934" lon="7.46224">
        <ele>673.06</ele>
        <time>2015-05-01T14:21:30Z</time>
      </trkpt>
      <trkpt lat="43.79938" lon="7.46224">
        <ele>673.06</ele>
        <time>2015-05-01T14:21:59Z</time>
      </trkpt>
      <trkpt lat="43.79933" lon="7.46225">
        <ele>673.06</ele>
        <time>2015-05-01T14:22:19Z</time>
      </trkpt>
      <trkpt lat="43.79927" lon="7.46222">
        <ele>673.06</ele>
        <time>2015-05-01T14:22:32Z</time>
      </trkpt>
      <trkpt lat="43.79926" lon="7.46221">
        <ele>673.06</ele>
        <time>2015-05-01T14:22:53Z</time>
      </trkpt>
      <trkpt lat="43.79928" lon="7.46222">
        <ele>673.06</ele>
        <time>2015-05-01T14:23:13Z</time>
      </trkpt>
      <trkpt lat="43.79936" lon="7.46225">
        <ele>673.06</ele>
        <time>2015-05-01T14:23:26Z</time>
      </trkpt>
      <trkpt lat="43.79937" lon="7.4622">
        <ele>673.54</ele>
        <time>2015-05-01T14:23:55Z</time>
      </trkpt>
      <trkpt lat="43.79933" lon="7.46222">
        <ele>673.54</ele>
        <time>2015-05-01T14:24:19Z</time>
      </trkpt>
      <trkpt lat="43.79934" lon="7.46228">
        <ele>673.54</ele>
        <time>2015-05-01T14:24:38Z</time>
      </trkpt>
      <trkpt lat="43.79936" lon="7.46232">
        <ele>674.02</ele>
        <time>2015-05-01T14:24:55Z</time>
      </trkpt>
      <trkpt lat="43.79943" lon="7.46228">
        <ele>674.02</ele>
        <time>2015-05-01T14:25:20Z</time>
      </trkpt>
      <trkpt lat="43.79943" lon="7.46217">
        <ele>674.02</ele>
        <time>2015-05-01T14:25:46Z</time>
      </trkpt>
      <trkpt lat="43.79941" lon="7.46217">
        <ele>674.98</ele>
        <time>2015-05-01T14:26:11Z</time>
      </trkpt>
      <trkpt lat="43.7994" lon="7.46217">
        <ele>674.98</ele>
        <time>2015-05-01T14:26:36Z</time>
      </trkpt>
      <trkpt lat="43.79942" lon="7.46222">
        <ele>674.98</ele>
        <time>2015-05-01T14:26:56Z</time>
      </trkpt>
      <trkpt lat="43.79943" lon="7.46224">
        <ele>674.5</ele>
        <time>2015-05-01T14:27:20Z</time>
      </trkpt>
      <trkpt lat="43.79941" lon="7.46227">
        <ele>674.98</ele>
        <time>2015-05-01T14:27:41Z</time>
      </trkpt>
      <trkpt lat="43.79942" lon="7.46227">
        <ele>674.98</ele>
        <time>2015-05-01T14:28:03Z</time>
      </trkpt>
      <trkpt lat="43.79935" lon="7.46233">
        <ele>675.46</ele>
        <time>2015-05-01T14:28:21Z</time>
      </trkpt>
      <trkpt lat="43.79932" lon="7.46235">
        <ele>675.46</ele>
        <time>2015-05-01T14:28:36Z</time>
      </trkpt>
      <trkpt lat="43.79932" lon="7.46233">
        <ele>675.46</ele>
        <time>2015-05-01T14:28:38Z</time>
      </trkpt>
      <trkpt lat="43.79927" lon="7.46236">
        <ele>675.46</ele>
        <time>2015-05-01T14:28:45Z</time>
      </trkpt>
      <trkpt lat="43.79928" lon="7.46239">
        <ele>675.46</ele>
        <time>2015-05-01T14:29:00Z</time>
      </trkpt>
      <trkpt lat="43.79928" lon="7.46233">
        <ele>675.46</ele>
        <time>2015-05-01T14:29:23Z</time>
      </trkpt>
      <trkpt lat="43.79926" lon="7.4623">
        <ele>675.46</ele>
        <time>2015-05-01T14:29:46Z</time>
      </trkpt>
      <trkpt lat="43.79928" lon="7.46232">
        <ele>674.98</ele>
        <time>2015-05-01T14:30:11Z</time>
      </trkpt>
      <trkpt lat="43.79924" lon="7.46223">
        <ele>674.98</ele>
        <time>2015-05-01T14:30:33Z</time>
      </trkpt>
      <trkpt lat="43.79924" lon="7.46226">
        <ele>674.98</ele>
        <time>2015-05-01T14:30:56Z</time>
      </trkpt>
      <trkpt lat="43.79923" lon="7.46229">
        <ele>675.46</ele>
        <time>2015-05-01T14:31:19Z</time>
      </trkpt>
      <trkpt lat="43.79923" lon="7.46224">
        <ele>675.46</ele>
        <time>2015-05-01T14:31:36Z</time>
      </trkpt>
      <trkpt lat="43.79919" lon="7.46224">
        <ele>675.46</ele>
        <time>2015-05-01T14:32:01Z</time>
      </trkpt>
      <trkpt lat="43.79923" lon="7.46231">
        <ele>675.46</ele>
        <time>2015-05-01T14:32:17Z</time>
      </trkpt>
      <trkpt lat="43.79922" lon="7.4624">
        <ele>675.46</ele>
        <time>2015-05-01T14:32:39Z</time>
      </trkpt>
      <trkpt lat="43.79923" lon="7.4623">
        <ele>675.46</ele>
        <time>2015-05-01T14:33:01Z</time>
      </trkpt>
      <trkpt lat="43.79921" lon="7.46225">
        <ele>676.42</ele>
        <time>2015-05-01T14:33:23Z</time>
      </trkpt>
      <trkpt lat="43.79923" lon="7.4623">
        <ele>676.91</ele>
        <time>2015-05-01T14:33:51Z</time>
      </trkpt>
      <trkpt lat="43.79926" lon="7.46231">
        <ele>676.91</ele>
        <time>2015-05-01T14:34:19Z</time>
      </trkpt>
      <trkpt lat="43.79922" lon="7.46232">
        <ele>676.91</ele>
        <time>2015-05-01T14:34:42Z</time>
      </trkpt>
      <trkpt lat="43.79922" lon="7.46226">
        <ele>676.91</ele>
        <time>2015-05-01T14:35:03Z</time>
      </trkpt>
      <trkpt lat="43.79922" lon="7.4623">
        <ele>676.42</ele>
        <time>2015-05-01T14:35:26Z</time>
      </trkpt>
      <trkpt lat="43.79922" lon="7.4623">
        <ele>676.42</ele>
        <time>2015-05-01T14:35:36Z</time>
      </trkpt>
      <trkpt lat="43.79925" lon="7.46228">
        <ele>676.42</ele>
        <time>2015-05-01T14:35:43Z</time>
      </trkpt>
      <trkpt lat="43.79939" lon="7.4623">
        <ele>676.91</ele>
        <time>2015-05-01T14:35:55Z</time>
      </trkpt>
      <trkpt lat="43.79946" lon="7.46228">
        <ele>676.91</ele>
        <time>2015-05-01T14:36:01Z</time>
      </trkpt>
      <trkpt lat="43.79954" lon="7.46231">
        <ele>676.91</ele>
        <time>2015-05-01T14:36:11Z</time>
      </trkpt>
      <trkpt lat="43.79961" lon="7.46227">
        <ele>675.46</ele>
        <time>2015-05-01T14:36:21Z</time>
      </trkpt>
      <trkpt lat="43.79963" lon="7.46225">
        <ele>675.46</ele>
        <time>2015-05-01T14:36:23Z</time>
      </trkpt>
      <trkpt lat="43.79972" lon="7.46222">
        <ele>674.5</ele>
        <time>2015-05-01T14:36:36Z</time>
      </trkpt>
      <trkpt lat="43.79981" lon="7.46217">
        <ele>673.06</ele>
        <time>2015-05-01T14:36:51Z</time>
      </trkpt>
      <trkpt lat="43.79984" lon="7.46215">
        <ele>673.06</ele>
        <time>2015-05-01T14:36:53Z</time>
      </trkpt>
      <trkpt lat="43.79997" lon="7.46208">
        <ele>672.1</ele>
        <time>2015-05-01T14:37:05Z</time>
      </trkpt>
      <trkpt lat="43.79999" lon="7.46207">
        <ele>671.62</ele>
        <time>2015-05-01T14:37:07Z</time>
      </trkpt>
      <trkpt lat="43.80002" lon="7.46205">
        <ele>671.62</ele>
        <time>2015-05-01T14:37:10Z</time>
      </trkpt>
      <trkpt lat="43.8001" lon="7.46206">
        <ele>671.14</ele>
        <time>2015-05-01T14:37:21Z</time>
      </trkpt>
      <trkpt lat="43.8001" lon="7.46205">
        <ele>670.66</ele>
        <time>2015-05-01T14:37:22Z</time>
      </trkpt>
      <trkpt lat="43.80026" lon="7.46188">
        <ele>667.77</ele>
        <time>2015-05-01T14:37:36Z</time>
      </trkpt>
      <trkpt lat="43.80037" lon="7.46183">
        <ele>665.85</ele>
        <time>2015-05-01T14:37:52Z</time>
      </trkpt>
      <trkpt lat="43.80057" lon="7.46189">
        <ele>662.97</ele>
        <time>2015-05-01T14:38:10Z</time>
      </trkpt>
      <trkpt lat="43.80071" lon="7.46189">
        <ele>662.49</ele>
        <time>2015-05-01T14:38:23Z</time>
      </trkpt>
      <trkpt lat="43.80072" lon="7.46193">
        <ele>662.49</ele>
        <time>2015-05-01T14:38:31Z</time>
      </trkpt>
      <trkpt lat="43.80092" lon="7.46191">
        <ele>662.01</ele>
        <time>2015-05-01T14:38:43Z</time>
      </trkpt>
      <trkpt lat="43.80101" lon="7.46197">
        <ele>662.01</ele>
        <time>2015-05-01T14:38:57Z</time>
      </trkpt>
      <trkpt lat="43.80103" lon="7.46209">
        <ele>661.04</ele>
        <time>2015-05-01T14:39:03Z</time>
      </trkpt>
      <trkpt lat="43.80108" lon="7.46217">
        <ele>660.56</ele>
        <time>2015-05-01T14:39:09Z</time>
      </trkpt>
      <trkpt lat="43.80113" lon="7.46225">
        <ele>659.6</ele>
        <time>2015-05-01T14:39:16Z</time>
      </trkpt>
      <trkpt lat="43.80115" lon="7.46228">
        <ele>659.12</ele>
        <time>2015-05-01T14:39:18Z</time>
      </trkpt>
      <trkpt lat="43.80128" lon="7.46242">
        <ele>657.2</ele>
        <time>2015-05-01T14:39:33Z</time>
      </trkpt>
      <trkpt lat="43.80134" lon="7.46246">
        <ele>656.72</ele>
        <time>2015-05-01T14:39:37Z</time>
      </trkpt>
      <trkpt lat="43.8014" lon="7.46237">
        <ele>655.76</ele>
        <time>2015-05-01T14:39:43Z</time>
      </trkpt>
      <trkpt lat="43.80137" lon="7.46227">
        <ele>655.28</ele>
        <time>2015-05-01T14:39:49Z</time>
      </trkpt>
      <trkpt lat="43.80135" lon="7.46223">
        <ele>655.28</ele>
        <time>2015-05-01T14:39:52Z</time>
      </trkpt>
      <trkpt lat="43.80125" lon="7.46208">
        <ele>653.35</ele>
        <time>2015-05-01T14:40:06Z</time>
      </trkpt>
      <trkpt lat="43.80124" lon="7.46207">
        <ele>652.87</ele>
        <time>2015-05-01T14:40:07Z</time>
      </trkpt>
      <trkpt lat="43.80115" lon="7.46196">
        <ele>651.91</ele>
        <time>2015-05-01T14:40:16Z</time>
      </trkpt>
      <trkpt lat="43.80107" lon="7.46184">
        <ele>650.95</ele>
        <time>2015-05-01T14:40:27Z</time>
      </trkpt>
      <trkpt lat="43.80105" lon="7.46159">
        <ele>649.51</ele>
        <time>2015-05-01T14:40:41Z</time>
      </trkpt>
      <trkpt lat="43.80105" lon="7.46153">
        <ele>648.07</ele>
        <time>2015-05-01T14:40:45Z</time>
      </trkpt>
      <trkpt lat="43.80103" lon="7.46146">
        <ele>647.1</ele>
        <time>2015-05-01T14:40:51Z</time>
      </trkpt>
      <trkpt lat="43.80103" lon="7.46134">
        <ele>646.14</ele>
        <time>2015-05-01T14:40:58Z</time>
      </trkpt>
      <trkpt lat="43.80103" lon="7.46127">
        <ele>645.66</ele>
        <time>2015-05-01T14:41:04Z</time>
      </trkpt>
      <trkpt lat="43.80105" lon="7.46115">
        <ele>644.7</ele>
        <time>2015-05-01T14:41:11Z</time>
      </trkpt>
      <trkpt lat="43.80106" lon="7.46106">
        <ele>643.74</ele>
        <time>2015-05-01T14:41:18Z</time>
      </trkpt>
      <trkpt lat="43.80115" lon="7.46089">
        <ele>642.78</ele>
        <time>2015-05-01T14:41:28Z</time>
      </trkpt>
      <trkpt lat="43.80117" lon="7.4608">
        <ele>642.3</ele>
        <time>2015-05-01T14:41:33Z</time>
      </trkpt>
      <trkpt lat="43.80118" lon="7.46077">
        <ele>642.3</ele>
        <time>2015-05-01T14:41:34Z</time>
      </trkpt>
      <trkpt lat="43.80119" lon="7.4607">
        <ele>641.82</ele>
        <time>2015-05-01T14:41:38Z</time>
      </trkpt>
      <trkpt lat="43.80118" lon="7.46057">
        <ele>639.89</ele>
        <time>2015-05-01T14:41:52Z</time>
      </trkpt>
      <trkpt lat="43.80114" lon="7.46052">
        <ele>637.49</ele>
        <time>2015-05-01T14:42:05Z</time>
      </trkpt>
      <trkpt lat="43.80118" lon="7.46046">
        <ele>635.57</ele>
        <time>2015-05-01T14:42:16Z</time>
      </trkpt>
      <trkpt lat="43.80125" lon="7.46039">
        <ele>633.65</ele>
        <time>2015-05-01T14:42:29Z</time>
      </trkpt>
      <trkpt lat="43.80131" lon="7.4603">
        <ele>631.72</ele>
        <time>2015-05-01T14:42:41Z</time>
      </trkpt>
      <trkpt lat="43.8014" lon="7.46019">
        <ele>629.32</ele>
        <time>2015-05-01T14:42:56Z</time>
      </trkpt>
      <trkpt lat="43.80149" lon="7.46008">
        <ele>626.92</ele>
        <time>2015-05-01T14:43:10Z</time>
      </trkpt>
      <trkpt lat="43.80154" lon="7.46001">
        <ele>624.99</ele>
        <time>2015-05-01T14:43:18Z</time>
      </trkpt>
      <trkpt lat="43.80163" lon="7.45991">
        <ele>623.55</ele>
        <time>2015-05-01T14:43:31Z</time>
      </trkpt>
      <trkpt lat="43.80171" lon="7.45982">
        <ele>622.11</ele>
        <time>2015-05-01T14:43:46Z</time>
      </trkpt>
      <trkpt lat="43.80175" lon="7.45979">
        <ele>621.63</ele>
        <time>2015-05-01T14:43:51Z</time>
      </trkpt>
      <trkpt lat="43.80174" lon="7.45977">
        <ele>621.15</ele>
        <time>2015-05-01T14:44:07Z</time>
      </trkpt>
      <trkpt lat="43.80177" lon="7.45976">
        <ele>621.15</ele>
        <time>2015-05-01T14:44:09Z</time>
      </trkpt>
      <trkpt lat="43.8018" lon="7.45973">
        <ele>620.67</ele>
        <time>2015-05-01T14:44:13Z</time>
      </trkpt>
      <trkpt lat="43.80189" lon="7.4596">
        <ele>618.26</ele>
        <time>2015-05-01T14:44:26Z</time>
      </trkpt>
      <trkpt lat="43.802" lon="7.4595">
        <ele>616.34</ele>
        <time>2015-05-01T14:44:39Z</time>
      </trkpt>
      <trkpt lat="43.80212" lon="7.45939">
        <ele>614.42</ele>
        <time>2015-05-01T14:44:54Z</time>
      </trkpt>
      <trkpt lat="43.80214" lon="7.45935">
        <ele>613.94</ele>
        <time>2015-05-01T14:44:57Z</time>
      </trkpt>
      <trkpt lat="43.80223" lon="7.45921">
        <ele>612.5</ele>
        <time>2015-05-01T14:45:11Z</time>
      </trkpt>
      <trkpt lat="43.80228" lon="7.45909">
        <ele>610.09</ele>
        <time>2015-05-01T14:45:23Z</time>
      </trkpt>
      <trkpt lat="43.80229" lon="7.45907">
        <ele>610.09</ele>
        <time>2015-05-01T14:45:24Z</time>
      </trkpt>
      <trkpt lat="43.80234" lon="7.45894">
        <ele>609.13</ele>
        <time>2015-05-01T14:45:37Z</time>
      </trkpt>
      <trkpt lat="43.80239" lon="7.4588">
        <ele>607.69</ele>
        <time>2015-05-01T14:45:50Z</time>
      </trkpt>
      <trkpt lat="43.80244" lon="7.4586">
        <ele>606.25</ele>
        <time>2015-05-01T14:46:05Z</time>
      </trkpt>
      <trkpt lat="43.80247" lon="7.45842">
        <ele>605.29</ele>
        <time>2015-05-01T14:46:18Z</time>
      </trkpt>
      <trkpt lat="43.80242" lon="7.45838">
        <ele>604.33</ele>
        <time>2015-05-01T14:46:28Z</time>
      </trkpt>
      <trkpt lat="43.80239" lon="7.45842">
        <ele>603.85</ele>
        <time>2015-05-01T14:46:35Z</time>
      </trkpt>
      <trkpt lat="43.80235" lon="7.45849">
        <ele>603.85</ele>
        <time>2015-05-01T14:46:41Z</time>
      </trkpt>
      <trkpt lat="43.80234" lon="7.4585">
        <ele>603.85</ele>
        <time>2015-05-01T14:46:42Z</time>
      </trkpt>
      <trkpt lat="43.80233" lon="7.45851">
        <ele>603.85</ele>
        <time>2015-05-01T14:46:43Z</time>
      </trkpt>
      <trkpt lat="43.80232" lon="7.45852">
        <ele>603.85</ele>
        <time>2015-05-01T14:46:44Z</time>
      </trkpt>
      <trkpt lat="43.80228" lon="7.45856">
        <ele>603.36</ele>
        <time>2015-05-01T14:46:48Z</time>
      </trkpt>
      <trkpt lat="43.80227" lon="7.45857">
        <ele>603.36</ele>
        <time>2015-05-01T14:46:49Z</time>
      </trkpt>
      <trkpt lat="43.80216" lon="7.45873">
        <ele>603.36</ele>
        <time>2015-05-01T14:47:02Z</time>
      </trkpt>
      <trkpt lat="43.80203" lon="7.45892">
        <ele>603.36</ele>
        <time>2015-05-01T14:47:17Z</time>
      </trkpt>
      <trkpt lat="43.80198" lon="7.45898">
        <ele>604.81</ele>
        <time>2015-05-01T14:47:23Z</time>
      </trkpt>
      <trkpt lat="43.80194" lon="7.45903">
        <ele>605.29</ele>
        <time>2015-05-01T14:47:29Z</time>
      </trkpt>
      <trkpt lat="43.80192" lon="7.45904">
        <ele>605.29</ele>
        <time>2015-05-01T14:47:30Z</time>
      </trkpt>
      <trkpt lat="43.80191" lon="7.45905">
        <ele>605.29</ele>
        <time>2015-05-01T14:47:31Z</time>
      </trkpt>
      <trkpt lat="43.80182" lon="7.45914">
        <ele>606.25</ele>
        <time>2015-05-01T14:47:41Z</time>
      </trkpt>
      <trkpt lat="43.80181" lon="7.45915">
        <ele>606.73</ele>
        <time>2015-05-01T14:47:42Z</time>
      </trkpt>
      <trkpt lat="43.80179" lon="7.45916">
        <ele>606.73</ele>
        <time>2015-05-01T14:47:43Z</time>
      </trkpt>
      <trkpt lat="43.80178" lon="7.45918">
        <ele>606.73</ele>
        <time>2015-05-01T14:47:44Z</time>
      </trkpt>
      <trkpt lat="43.80164" lon="7.45935">
        <ele>608.17</ele>
        <time>2015-05-01T14:47:58Z</time>
      </trkpt>
      <trkpt lat="43.80154" lon="7.45946">
        <ele>609.61</ele>
        <time>2015-05-01T14:48:09Z</time>
      </trkpt>
      <trkpt lat="43.80145" lon="7.45956">
        <ele>611.54</ele>
        <time>2015-05-01T14:48:20Z</time>
      </trkpt>
      <trkpt lat="43.80143" lon="7.45958">
        <ele>611.54</ele>
        <time>2015-05-01T14:48:23Z</time>
      </trkpt>
      <trkpt lat="43.80138" lon="7.45965">
        <ele>612.5</ele>
        <time>2015-05-01T14:48:30Z</time>
      </trkpt>
      <trkpt lat="43.80129" lon="7.45973">
        <ele>613.46</ele>
        <time>2015-05-01T14:48:40Z</time>
      </trkpt>
      <trkpt lat="43.80124" lon="7.45979">
        <ele>614.42</ele>
        <time>2015-05-01T14:48:53Z</time>
      </trkpt>
      <trkpt lat="43.80125" lon="7.4598">
        <ele>614.42</ele>
        <time>2015-05-01T14:49:10Z</time>
      </trkpt>
      <trkpt lat="43.80125" lon="7.45981">
        <ele>614.42</ele>
        <time>2015-05-01T14:49:28Z</time>
      </trkpt>
      <trkpt lat="43.80124" lon="7.45982">
        <ele>614.9</ele>
        <time>2015-05-01T14:49:30Z</time>
      </trkpt>
      <trkpt lat="43.80123" lon="7.45986">
        <ele>614.9</ele>
        <time>2015-05-01T14:49:44Z</time>
      </trkpt>
      <trkpt lat="43.80125" lon="7.45986">
        <ele>614.9</ele>
        <time>2015-05-01T14:49:53Z</time>
      </trkpt>
      <trkpt lat="43.80128" lon="7.45983">
        <ele>614.9</ele>
        <time>2015-05-01T14:49:56Z</time>
      </trkpt>
      <trkpt lat="43.80132" lon="7.45982">
        <ele>614.9</ele>
        <time>2015-05-01T14:49:59Z</time>
      </trkpt>
      <trkpt lat="43.80146" lon="7.45968">
        <ele>612.02</ele>
        <time>2015-05-01T14:50:14Z</time>
      </trkpt>
      <trkpt lat="43.8015" lon="7.45963">
        <ele>611.54</ele>
        <time>2015-05-01T14:50:17Z</time>
      </trkpt>
      <trkpt lat="43.80151" lon="7.45961">
        <ele>611.06</ele>
        <time>2015-05-01T14:50:18Z</time>
      </trkpt>
      <trkpt lat="43.80157" lon="7.45951">
        <ele>610.57</ele>
        <time>2015-05-01T14:50:25Z</time>
      </trkpt>
      <trkpt lat="43.80158" lon="7.4595">
        <ele>610.09</ele>
        <time>2015-05-01T14:50:26Z</time>
      </trkpt>
      <trkpt lat="43.80159" lon="7.45949">
        <ele>610.09</ele>
        <time>2015-05-01T14:50:27Z</time>
      </trkpt>
      <trkpt lat="43.8016" lon="7.45948">
        <ele>610.09</ele>
        <time>2015-05-01T14:50:28Z</time>
      </trkpt>
      <trkpt lat="43.80163" lon="7.45944">
        <ele>609.61</ele>
        <time>2015-05-01T14:50:32Z</time>
      </trkpt>
      <trkpt lat="43.80165" lon="7.45943">
        <ele>609.61</ele>
        <time>2015-05-01T14:50:33Z</time>
      </trkpt>
      <trkpt lat="43.8018" lon="7.45926">
        <ele>607.69</ele>
        <time>2015-05-01T14:50:46Z</time>
      </trkpt>
      <trkpt lat="43.80189" lon="7.45914">
        <ele>606.25</ele>
        <time>2015-05-01T14:50:52Z</time>
      </trkpt>
      <trkpt lat="43.80191" lon="7.45913">
        <ele>605.77</ele>
        <time>2015-05-01T14:50:53Z</time>
      </trkpt>
      <trkpt lat="43.80193" lon="7.45911">
        <ele>605.77</ele>
        <time>2015-05-01T14:50:54Z</time>
      </trkpt>
      <trkpt lat="43.80194" lon="7.4591">
        <ele>605.77</ele>
        <time>2015-05-01T14:50:55Z</time>
      </trkpt>
      <trkpt lat="43.80195" lon="7.45909">
        <ele>605.77</ele>
        <time>2015-05-01T14:50:56Z</time>
      </trkpt>
      <trkpt lat="43.80209" lon="7.45893">
        <ele>603.85</ele>
        <time>2015-05-01T14:51:10Z</time>
      </trkpt>
      <trkpt lat="43.80211" lon="7.45891">
        <ele>603.85</ele>
        <time>2015-05-01T14:51:12Z</time>
      </trkpt>
      <trkpt lat="43.80212" lon="7.45889">
        <ele>603.85</ele>
        <time>2015-05-01T14:51:13Z</time>
      </trkpt>
      <trkpt lat="43.80213" lon="7.45888">
        <ele>603.85</ele>
        <time>2015-05-01T14:51:14Z</time>
      </trkpt>
      <trkpt lat="43.80214" lon="7.45886">
        <ele>603.85</ele>
        <time>2015-05-01T14:51:15Z</time>
      </trkpt>
      <trkpt lat="43.80214" lon="7.45884">
        <ele>603.85</ele>
        <time>2015-05-01T14:51:16Z</time>
      </trkpt>
      <trkpt lat="43.80214" lon="7.45882">
        <ele>603.85</ele>
        <time>2015-05-01T14:51:17Z</time>
      </trkpt>
      <trkpt lat="43.80215" lon="7.45872">
        <ele>603.36</ele>
        <time>2015-05-01T14:51:23Z</time>
      </trkpt>
      <trkpt lat="43.80215" lon="7.45867">
        <ele>603.36</ele>
        <time>2015-05-01T14:51:26Z</time>
      </trkpt>
      <trkpt lat="43.80215" lon="7.45864">
        <ele>603.36</ele>
        <time>2015-05-01T14:51:27Z</time>
      </trkpt>
      <trkpt lat="43.80213" lon="7.45859">
        <ele>602.88</ele>
        <time>2015-05-01T14:51:30Z</time>
      </trkpt>
      <trkpt lat="43.80209" lon="7.45849">
        <ele>602.88</ele>
        <time>2015-05-01T14:51:41Z</time>
      </trkpt>
      <trkpt lat="43.80209" lon="7.45843">
        <ele>602.4</ele>
        <time>2015-05-01T14:52:05Z</time>
      </trkpt>
      <trkpt lat="43.80208" lon="7.4584">
        <ele>601.92</ele>
        <time>2015-05-01T14:52:32Z</time>
      </trkpt>
      <trkpt lat="43.80203" lon="7.45838">
        <ele>601.92</ele>
        <time>2015-05-01T14:53:00Z</time>
      </trkpt>
      <trkpt lat="43.80202" lon="7.45837">
        <ele>601.92</ele>
        <time>2015-05-01T14:53:26Z</time>
      </trkpt>
      <trkpt lat="43.80202" lon="7.45837">
        <ele>601.92</ele>
        <time>2015-05-01T14:53:45Z</time>
      </trkpt>
      <trkpt lat="43.80201" lon="7.45838">
        <ele>603.36</ele>
        <time>2015-05-01T14:53:59Z</time>
      </trkpt>
      <trkpt lat="43.80201" lon="7.45836">
        <ele>602.88</ele>
        <time>2015-05-01T14:54:15Z</time>
      </trkpt>
      <trkpt lat="43.80199" lon="7.45838">
        <ele>602.88</ele>
        <time>2015-05-01T14:54:40Z</time>
      </trkpt>
      <trkpt lat="43.802" lon="7.45839">
        <ele>602.88</ele>
        <time>2015-05-01T14:54:58Z</time>
      </trkpt>
      <trkpt lat="43.80202" lon="7.45839">
        <ele>602.88</ele>
        <time>2015-05-01T14:55:19Z</time>
      </trkpt>
      <trkpt lat="43.802" lon="7.4584">
        <ele>602.88</ele>
        <time>2015-05-01T14:55:32Z</time>
      </trkpt>
      <trkpt lat="43.80203" lon="7.4584">
        <ele>601.92</ele>
        <time>2015-05-01T14:55:52Z</time>
      </trkpt>
    </trkseg>
  </trk>
</gpx>